<?xml version="1.0" encoding="utf-8"?>
<gpx xmlns:xsi="http://www.w3.org/2001/XMLSchema-instance" xmlns:xsd="http://www.w3.org/2001/XMLSchema" version="1.1" creator="Shapelink.com" xmlns="http://www.topografix.com/GPX/1/1" xmlns:gpxtpx="http://www.garmin.com/xmlschemas/TrackPointExtension/v1">
  <metadata>
    <name>Løping 6.67 km, 2016-05-06</name>
    <desc></desc>
    <author><name>Stein Falk-Larssen</name></author> 
    <time>1970-01-01T01:00:00Z</time>
  </metadata>
  <trk>
    <name>Løping 6.67 km, 2016-05-06</name>
    <trkseg>
      <trkpt lat="63.38337217" lon="13.17465183">
        <ele>0</ele>
        <time>1970-01-01T01:00:00Z</time>
      </trkpt>
      <trkpt lat="63.3833695" lon="13.17465317">
        <ele>0</ele>
        <time>1970-01-01T01:00:00Z</time>
      </trkpt>
      <trkpt lat="63.3833665" lon="13.17465117">
        <ele>0</ele>
        <time>1970-01-01T01:00:00Z</time>
      </trkpt>
      <trkpt lat="63.383365" lon="13.1746475">
        <ele>0</ele>
        <time>1970-01-01T01:00:00Z</time>
      </trkpt>
      <trkpt lat="63.38336217" lon="13.17464433">
        <ele>0</ele>
        <time>1970-01-01T01:00:00Z</time>
      </trkpt>
      <trkpt lat="63.383359" lon="13.17464167">
        <ele>0</ele>
        <time>1970-01-01T01:00:00Z</time>
      </trkpt>
      <trkpt lat="63.3833535" lon="13.17464117">
        <ele>0</ele>
        <time>1970-01-01T01:00:00Z</time>
      </trkpt>
      <trkpt lat="63.38334617" lon="13.17464067">
        <ele>0</ele>
        <time>1970-01-01T01:00:00Z</time>
      </trkpt>
      <trkpt lat="63.38333617" lon="13.17463817">
        <ele>0</ele>
        <time>1970-01-01T01:00:00Z</time>
      </trkpt>
      <trkpt lat="63.38332583" lon="13.17463517">
        <ele>0</ele>
        <time>1970-01-01T01:00:00Z</time>
      </trkpt>
      <trkpt lat="63.3833145" lon="13.17462667">
        <ele>0</ele>
        <time>1970-01-01T01:00:00Z</time>
      </trkpt>
      <trkpt lat="63.3833015" lon="13.17462183">
        <ele>0</ele>
        <time>1970-01-01T01:00:00Z</time>
      </trkpt>
      <trkpt lat="63.38328667" lon="13.17461733">
        <ele>0</ele>
        <time>1970-01-01T01:00:00Z</time>
      </trkpt>
      <trkpt lat="63.383271" lon="13.17461683">
        <ele>0</ele>
        <time>1970-01-01T01:00:00Z</time>
      </trkpt>
      <trkpt lat="63.38325583" lon="13.1746165">
        <ele>0</ele>
        <time>1970-01-01T01:00:00Z</time>
      </trkpt>
      <trkpt lat="63.383241" lon="13.17461433">
        <ele>0</ele>
        <time>1970-01-01T01:00:00Z</time>
      </trkpt>
      <trkpt lat="63.383228" lon="13.17460883">
        <ele>0</ele>
        <time>1970-01-01T01:00:00Z</time>
      </trkpt>
      <trkpt lat="63.383217" lon="13.17459883">
        <ele>0</ele>
        <time>1970-01-01T01:00:00Z</time>
      </trkpt>
      <trkpt lat="63.38320767" lon="13.17458767">
        <ele>0</ele>
        <time>1970-01-01T01:00:00Z</time>
      </trkpt>
      <trkpt lat="63.38319683" lon="13.17457383">
        <ele>0</ele>
        <time>1970-01-01T01:00:00Z</time>
      </trkpt>
      <trkpt lat="63.38318883" lon="13.17454833">
        <ele>0</ele>
        <time>1970-01-01T01:00:00Z</time>
      </trkpt>
      <trkpt lat="63.38318667" lon="13.174512">
        <ele>0</ele>
        <time>1970-01-01T01:00:00Z</time>
      </trkpt>
      <trkpt lat="63.38319017" lon="13.17447167">
        <ele>0</ele>
        <time>1970-01-01T01:00:00Z</time>
      </trkpt>
      <trkpt lat="63.38319883" lon="13.17443583">
        <ele>0</ele>
        <time>1970-01-01T01:00:00Z</time>
      </trkpt>
      <trkpt lat="63.3832085" lon="13.17441083">
        <ele>0</ele>
        <time>1970-01-01T01:00:00Z</time>
      </trkpt>
      <trkpt lat="63.38322283" lon="13.1744065">
        <ele>0</ele>
        <time>1970-01-01T01:00:00Z</time>
      </trkpt>
      <trkpt lat="63.38323733" lon="13.17441467">
        <ele>0</ele>
        <time>1970-01-01T01:00:00Z</time>
      </trkpt>
      <trkpt lat="63.38324817" lon="13.1744285">
        <ele>0</ele>
        <time>1970-01-01T01:00:00Z</time>
      </trkpt>
      <trkpt lat="63.3832565" lon="13.17443217">
        <ele>0</ele>
        <time>1970-01-01T01:00:00Z</time>
      </trkpt>
      <trkpt lat="63.383264" lon="13.17442917">
        <ele>0</ele>
        <time>1970-01-01T01:00:00Z</time>
      </trkpt>
      <trkpt lat="63.38327517" lon="13.174421">
        <ele>0</ele>
        <time>1970-01-01T01:00:00Z</time>
      </trkpt>
      <trkpt lat="63.38328717" lon="13.174411">
        <ele>0</ele>
        <time>1970-01-01T01:00:00Z</time>
      </trkpt>
      <trkpt lat="63.38329967" lon="13.17440267">
        <ele>0</ele>
        <time>1970-01-01T01:00:00Z</time>
      </trkpt>
      <trkpt lat="63.383312" lon="13.17439433">
        <ele>0</ele>
        <time>1970-01-01T01:00:00Z</time>
      </trkpt>
      <trkpt lat="63.38332417" lon="13.174385">
        <ele>0</ele>
        <time>1970-01-01T01:00:00Z</time>
      </trkpt>
      <trkpt lat="63.383335" lon="13.1743785">
        <ele>0</ele>
        <time>1970-01-01T01:00:00Z</time>
      </trkpt>
      <trkpt lat="63.383346" lon="13.17437133">
        <ele>0</ele>
        <time>1970-01-01T01:00:00Z</time>
      </trkpt>
      <trkpt lat="63.38335683" lon="13.17436267">
        <ele>0</ele>
        <time>1970-01-01T01:00:00Z</time>
      </trkpt>
      <trkpt lat="63.3833675" lon="13.17434967">
        <ele>0</ele>
        <time>1970-01-01T01:00:00Z</time>
      </trkpt>
      <trkpt lat="63.383376" lon="13.17433333">
        <ele>0</ele>
        <time>1970-01-01T01:00:00Z</time>
      </trkpt>
      <trkpt lat="63.38338383" lon="13.17431333">
        <ele>0</ele>
        <time>1970-01-01T01:00:00Z</time>
      </trkpt>
      <trkpt lat="63.38339133" lon="13.17429">
        <ele>0</ele>
        <time>1970-01-01T01:00:00Z</time>
      </trkpt>
      <trkpt lat="63.3834" lon="13.174266">
        <ele>0</ele>
        <time>1970-01-01T01:00:00Z</time>
      </trkpt>
      <trkpt lat="63.38340883" lon="13.17424167">
        <ele>0</ele>
        <time>1970-01-01T01:00:00Z</time>
      </trkpt>
      <trkpt lat="63.38341733" lon="13.17421583">
        <ele>0</ele>
        <time>1970-01-01T01:00:00Z</time>
      </trkpt>
      <trkpt lat="63.38342533" lon="13.17418783">
        <ele>0</ele>
        <time>1970-01-01T01:00:00Z</time>
      </trkpt>
      <trkpt lat="63.383433" lon="13.17415867">
        <ele>0</ele>
        <time>1970-01-01T01:00:00Z</time>
      </trkpt>
      <trkpt lat="63.3834405" lon="13.17412683">
        <ele>0</ele>
        <time>1970-01-01T01:00:00Z</time>
      </trkpt>
      <trkpt lat="63.38344717" lon="13.17409883">
        <ele>0</ele>
        <time>1970-01-01T01:00:00Z</time>
      </trkpt>
      <trkpt lat="63.38345267" lon="13.1740705">
        <ele>0</ele>
        <time>1970-01-01T01:00:00Z</time>
      </trkpt>
      <trkpt lat="63.38345733" lon="13.17404667">
        <ele>0</ele>
        <time>1970-01-01T01:00:00Z</time>
      </trkpt>
      <trkpt lat="63.38346167" lon="13.17401967">
        <ele>0</ele>
        <time>1970-01-01T01:00:00Z</time>
      </trkpt>
      <trkpt lat="63.3834655" lon="13.17399433">
        <ele>0</ele>
        <time>1970-01-01T01:00:00Z</time>
      </trkpt>
      <trkpt lat="63.38346817" lon="13.173971">
        <ele>0</ele>
        <time>1970-01-01T01:00:00Z</time>
      </trkpt>
      <trkpt lat="63.383469" lon="13.1739495">
        <ele>0</ele>
        <time>1970-01-01T01:00:00Z</time>
      </trkpt>
      <trkpt lat="63.38346983" lon="13.17393783">
        <ele>0</ele>
        <time>1970-01-01T01:00:00Z</time>
      </trkpt>
      <trkpt lat="63.383471" lon="13.17393183">
        <ele>0</ele>
        <time>1970-01-01T01:00:00Z</time>
      </trkpt>
      <trkpt lat="63.38347283" lon="13.173932">
        <ele>0</ele>
        <time>1970-01-01T01:00:00Z</time>
      </trkpt>
      <trkpt lat="63.38347317" lon="13.1739305">
        <ele>667.063</ele>
        <time>1970-01-01T01:00:00Z</time>
      </trkpt>
      <trkpt lat="63.38347217" lon="13.17392717">
        <ele>667.063</ele>
        <time>1970-01-01T01:00:00Z</time>
      </trkpt>
      <trkpt lat="63.383471" lon="13.1739215">
        <ele>667.063</ele>
        <time>1970-01-01T01:00:00Z</time>
      </trkpt>
      <trkpt lat="63.383471" lon="13.1739145">
        <ele>667.063</ele>
        <time>1970-01-01T01:00:00Z</time>
      </trkpt>
      <trkpt lat="63.383473" lon="13.17390917">
        <ele>667.063</ele>
        <time>1970-01-01T01:00:00Z</time>
      </trkpt>
      <trkpt lat="63.38347567" lon="13.17390467">
        <ele>667.063</ele>
        <time>1970-01-01T01:00:00Z</time>
      </trkpt>
      <trkpt lat="63.38347917" lon="13.17390217">
        <ele>667.063</ele>
        <time>1970-01-01T01:00:00Z</time>
      </trkpt>
      <trkpt lat="63.38348183" lon="13.17389883">
        <ele>667.063</ele>
        <time>1970-01-01T01:00:00Z</time>
      </trkpt>
      <trkpt lat="63.38348517" lon="13.17389817">
        <ele>666.91</ele>
        <time>1970-01-01T01:00:00Z</time>
      </trkpt>
      <trkpt lat="63.38348717" lon="13.173894">
        <ele>666.91</ele>
        <time>1970-01-01T01:00:00Z</time>
      </trkpt>
      <trkpt lat="63.38348867" lon="13.17388967">
        <ele>666.91</ele>
        <time>1970-01-01T01:00:00Z</time>
      </trkpt>
      <trkpt lat="63.38348917" lon="13.1738845">
        <ele>666.91</ele>
        <time>1970-01-01T01:00:00Z</time>
      </trkpt>
      <trkpt lat="63.38349183" lon="13.17388183">
        <ele>666.758</ele>
        <time>1970-01-01T01:00:00Z</time>
      </trkpt>
      <trkpt lat="63.38349717" lon="13.1738765">
        <ele>666.758</ele>
        <time>1970-01-01T01:00:00Z</time>
      </trkpt>
      <trkpt lat="63.383503" lon="13.1738685">
        <ele>666.758</ele>
        <time>1970-01-01T01:00:00Z</time>
      </trkpt>
      <trkpt lat="63.38350633" lon="13.173856">
        <ele>666.758</ele>
        <time>1970-01-01T01:00:00Z</time>
      </trkpt>
      <trkpt lat="63.38350733" lon="13.17384233">
        <ele>666.606</ele>
        <time>1970-01-01T01:00:00Z</time>
      </trkpt>
      <trkpt lat="63.38350667" lon="13.1738245">
        <ele>666.606</ele>
        <time>1970-01-01T01:00:00Z</time>
      </trkpt>
      <trkpt lat="63.38350567" lon="13.1738065">
        <ele>666.453</ele>
        <time>1970-01-01T01:00:00Z</time>
      </trkpt>
      <trkpt lat="63.38350467" lon="13.1737875">
        <ele>666.453</ele>
        <time>1970-01-01T01:00:00Z</time>
      </trkpt>
      <trkpt lat="63.383505" lon="13.17377183">
        <ele>666.148</ele>
        <time>1970-01-01T01:00:00Z</time>
      </trkpt>
      <trkpt lat="63.383505" lon="13.17376133">
        <ele>666.148</ele>
        <time>1970-01-01T01:00:00Z</time>
      </trkpt>
      <trkpt lat="63.38350433" lon="13.17375517">
        <ele>665.844</ele>
        <time>1970-01-01T01:00:00Z</time>
      </trkpt>
      <trkpt lat="63.38350267" lon="13.17374833">
        <ele>665.844</ele>
        <time>1970-01-01T01:00:00Z</time>
      </trkpt>
      <trkpt lat="63.383502" lon="13.17373817">
        <ele>665.539</ele>
        <time>1970-01-01T01:00:00Z</time>
      </trkpt>
      <trkpt lat="63.3835025" lon="13.17372667">
        <ele>665.539</ele>
        <time>1970-01-01T01:00:00Z</time>
      </trkpt>
      <trkpt lat="63.38350467" lon="13.17371467">
        <ele>665.234</ele>
        <time>1970-01-01T01:00:00Z</time>
      </trkpt>
      <trkpt lat="63.383507" lon="13.173701">
        <ele>665.234</ele>
        <time>1970-01-01T01:00:00Z</time>
      </trkpt>
      <trkpt lat="63.38350933" lon="13.1736855">
        <ele>664.929</ele>
        <time>1970-01-01T01:00:00Z</time>
      </trkpt>
      <trkpt lat="63.38351117" lon="13.173669">
        <ele>664.929</ele>
        <time>1970-01-01T01:00:00Z</time>
      </trkpt>
      <trkpt lat="63.38351367" lon="13.17365333">
        <ele>664.624</ele>
        <time>1970-01-01T01:00:00Z</time>
      </trkpt>
      <trkpt lat="63.3835165" lon="13.17363867">
        <ele>664.624</ele>
        <time>1970-01-01T01:00:00Z</time>
      </trkpt>
      <trkpt lat="63.38351983" lon="13.173626">
        <ele>664.32</ele>
        <time>1970-01-01T01:00:00Z</time>
      </trkpt>
      <trkpt lat="63.38352217" lon="13.17361683">
        <ele>664.32</ele>
        <time>1970-01-01T01:00:00Z</time>
      </trkpt>
      <trkpt lat="63.38352533" lon="13.17360817">
        <ele>664.015</ele>
        <time>1970-01-01T01:00:00Z</time>
      </trkpt>
      <trkpt lat="63.38352883" lon="13.17360133">
        <ele>664.015</ele>
        <time>1970-01-01T01:00:00Z</time>
      </trkpt>
      <trkpt lat="63.383531" lon="13.17359367">
        <ele>663.71</ele>
        <time>1970-01-01T01:00:00Z</time>
      </trkpt>
      <trkpt lat="63.38353333" lon="13.17358567">
        <ele>663.71</ele>
        <time>1970-01-01T01:00:00Z</time>
      </trkpt>
      <trkpt lat="63.38353683" lon="13.173579">
        <ele>663.405</ele>
        <time>1970-01-01T01:00:00Z</time>
      </trkpt>
      <trkpt lat="63.3835425" lon="13.17357167">
        <ele>663.405</ele>
        <time>1970-01-01T01:00:00Z</time>
      </trkpt>
      <trkpt lat="63.38354717" lon="13.17356467">
        <ele>663.1</ele>
        <time>1970-01-01T01:00:00Z</time>
      </trkpt>
      <trkpt lat="63.38355" lon="13.17355217">
        <ele>663.1</ele>
        <time>1970-01-01T01:00:00Z</time>
      </trkpt>
      <trkpt lat="63.38355267" lon="13.173537">
        <ele>662.796</ele>
        <time>1970-01-01T01:00:00Z</time>
      </trkpt>
      <trkpt lat="63.38355567" lon="13.17351983">
        <ele>662.796</ele>
        <time>1970-01-01T01:00:00Z</time>
      </trkpt>
      <trkpt lat="63.38355967" lon="13.17350333">
        <ele>662.491</ele>
        <time>1970-01-01T01:00:00Z</time>
      </trkpt>
      <trkpt lat="63.38356333" lon="13.17348667">
        <ele>662.491</ele>
        <time>1970-01-01T01:00:00Z</time>
      </trkpt>
      <trkpt lat="63.38356617" lon="13.17346933">
        <ele>662.338</ele>
        <time>1970-01-01T01:00:00Z</time>
      </trkpt>
      <trkpt lat="63.38356833" lon="13.17345433">
        <ele>662.338</ele>
        <time>1970-01-01T01:00:00Z</time>
      </trkpt>
      <trkpt lat="63.38357033" lon="13.17343883">
        <ele>662.034</ele>
        <time>1970-01-01T01:00:00Z</time>
      </trkpt>
      <trkpt lat="63.38357217" lon="13.173424">
        <ele>662.034</ele>
        <time>1970-01-01T01:00:00Z</time>
      </trkpt>
      <trkpt lat="63.383573" lon="13.173407">
        <ele>661.729</ele>
        <time>1970-01-01T01:00:00Z</time>
      </trkpt>
      <trkpt lat="63.383573" lon="13.1733915">
        <ele>661.729</ele>
        <time>1970-01-01T01:00:00Z</time>
      </trkpt>
      <trkpt lat="63.38357283" lon="13.17337667">
        <ele>661.424</ele>
        <time>1970-01-01T01:00:00Z</time>
      </trkpt>
      <trkpt lat="63.3835735" lon="13.17336383">
        <ele>661.424</ele>
        <time>1970-01-01T01:00:00Z</time>
      </trkpt>
      <trkpt lat="63.3835755" lon="13.17334583">
        <ele>661.119</ele>
        <time>1970-01-01T01:00:00Z</time>
      </trkpt>
      <trkpt lat="63.38357767" lon="13.173326">
        <ele>661.119</ele>
        <time>1970-01-01T01:00:00Z</time>
      </trkpt>
      <trkpt lat="63.3835795" lon="13.17330533">
        <ele>660.814</ele>
        <time>1970-01-01T01:00:00Z</time>
      </trkpt>
      <trkpt lat="63.38358117" lon="13.1732905">
        <ele>660.814</ele>
        <time>1970-01-01T01:00:00Z</time>
      </trkpt>
      <trkpt lat="63.38358283" lon="13.1732775">
        <ele>660.662</ele>
        <time>1970-01-01T01:00:00Z</time>
      </trkpt>
      <trkpt lat="63.38358483" lon="13.17326333">
        <ele>660.662</ele>
        <time>1970-01-01T01:00:00Z</time>
      </trkpt>
      <trkpt lat="63.38358667" lon="13.173249">
        <ele>660.357</ele>
        <time>1970-01-01T01:00:00Z</time>
      </trkpt>
      <trkpt lat="63.38358917" lon="13.17323433">
        <ele>660.357</ele>
        <time>1970-01-01T01:00:00Z</time>
      </trkpt>
      <trkpt lat="63.38359217" lon="13.1732175">
        <ele>660.205</ele>
        <time>1970-01-01T01:00:00Z</time>
      </trkpt>
      <trkpt lat="63.383596" lon="13.173202">
        <ele>660.205</ele>
        <time>1970-01-01T01:00:00Z</time>
      </trkpt>
      <trkpt lat="63.38359983" lon="13.17319217">
        <ele>659.9</ele>
        <time>1970-01-01T01:00:00Z</time>
      </trkpt>
      <trkpt lat="63.38360317" lon="13.173187">
        <ele>659.9</ele>
        <time>1970-01-01T01:00:00Z</time>
      </trkpt>
      <trkpt lat="63.3836055" lon="13.17318017">
        <ele>659.595</ele>
        <time>1970-01-01T01:00:00Z</time>
      </trkpt>
      <trkpt lat="63.383606" lon="13.17317083">
        <ele>659.595</ele>
        <time>1970-01-01T01:00:00Z</time>
      </trkpt>
      <trkpt lat="63.38360567" lon="13.1731625">
        <ele>659.443</ele>
        <time>1970-01-01T01:00:00Z</time>
      </trkpt>
      <trkpt lat="63.38360533" lon="13.173154">
        <ele>659.443</ele>
        <time>1970-01-01T01:00:00Z</time>
      </trkpt>
      <trkpt lat="63.383606" lon="13.17314717">
        <ele>659.138</ele>
        <time>1970-01-01T01:00:00Z</time>
      </trkpt>
      <trkpt lat="63.38360767" lon="13.17313333">
        <ele>659.138</ele>
        <time>1970-01-01T01:00:00Z</time>
      </trkpt>
      <trkpt lat="63.38361" lon="13.17312333">
        <ele>658.833</ele>
        <time>1970-01-01T01:00:00Z</time>
      </trkpt>
      <trkpt lat="63.38361267" lon="13.1731065">
        <ele>658.833</ele>
        <time>1970-01-01T01:00:00Z</time>
      </trkpt>
      <trkpt lat="63.383616" lon="13.17309733">
        <ele>658.681</ele>
        <time>1970-01-01T01:00:00Z</time>
      </trkpt>
      <trkpt lat="63.383621" lon="13.17308217">
        <ele>658.681</ele>
        <time>1970-01-01T01:00:00Z</time>
      </trkpt>
      <trkpt lat="63.38362633" lon="13.17307367">
        <ele>658.528</ele>
        <time>1970-01-01T01:00:00Z</time>
      </trkpt>
      <trkpt lat="63.383632" lon="13.17306533">
        <ele>658.528</ele>
        <time>1970-01-01T01:00:00Z</time>
      </trkpt>
      <trkpt lat="63.38363833" lon="13.1730595">
        <ele>658.376</ele>
        <time>1970-01-01T01:00:00Z</time>
      </trkpt>
      <trkpt lat="63.38364533" lon="13.1730475">
        <ele>658.376</ele>
        <time>1970-01-01T01:00:00Z</time>
      </trkpt>
      <trkpt lat="63.3836525" lon="13.17302783">
        <ele>658.224</ele>
        <time>1970-01-01T01:00:00Z</time>
      </trkpt>
      <trkpt lat="63.38365717" lon="13.17299933">
        <ele>658.224</ele>
        <time>1970-01-01T01:00:00Z</time>
      </trkpt>
      <trkpt lat="63.38365867" lon="13.172962">
        <ele>658.071</ele>
        <time>1970-01-01T01:00:00Z</time>
      </trkpt>
      <trkpt lat="63.38365483" lon="13.17291867">
        <ele>658.071</ele>
        <time>1970-01-01T01:00:00Z</time>
      </trkpt>
      <trkpt lat="63.38364533" lon="13.17287467">
        <ele>657.919</ele>
        <time>1970-01-01T01:00:00Z</time>
      </trkpt>
      <trkpt lat="63.38362783" lon="13.172833">
        <ele>657.919</ele>
        <time>1970-01-01T01:00:00Z</time>
      </trkpt>
      <trkpt lat="63.38360933" lon="13.17279333">
        <ele>657.766</ele>
        <time>1970-01-01T01:00:00Z</time>
      </trkpt>
      <trkpt lat="63.383592" lon="13.17275583">
        <ele>657.766</ele>
        <time>1970-01-01T01:00:00Z</time>
      </trkpt>
      <trkpt lat="63.38357883" lon="13.17271867">
        <ele>657.614</ele>
        <time>1970-01-01T01:00:00Z</time>
      </trkpt>
      <trkpt lat="63.3835665" lon="13.17267983">
        <ele>657.614</ele>
        <time>1970-01-01T01:00:00Z</time>
      </trkpt>
      <trkpt lat="63.38355483" lon="13.17264">
        <ele>657.462</ele>
        <time>1970-01-01T01:00:00Z</time>
      </trkpt>
      <trkpt lat="63.383544" lon="13.17259917">
        <ele>657.462</ele>
        <time>1970-01-01T01:00:00Z</time>
      </trkpt>
      <trkpt lat="63.38353033" lon="13.17255567">
        <ele>657.309</ele>
        <time>1970-01-01T01:00:00Z</time>
      </trkpt>
      <trkpt lat="63.383517" lon="13.172505">
        <ele>657.309</ele>
        <time>1970-01-01T01:00:00Z</time>
      </trkpt>
      <trkpt lat="63.38350317" lon="13.17245717">
        <ele>657.157</ele>
        <time>1970-01-01T01:00:00Z</time>
      </trkpt>
      <trkpt lat="63.383493" lon="13.17241433">
        <ele>657.157</ele>
        <time>1970-01-01T01:00:00Z</time>
      </trkpt>
      <trkpt lat="63.3834825" lon="13.17237333">
        <ele>656.852</ele>
        <time>1970-01-01T01:00:00Z</time>
      </trkpt>
      <trkpt lat="63.38347367" lon="13.17232667">
        <ele>656.852</ele>
        <time>1970-01-01T01:00:00Z</time>
      </trkpt>
      <trkpt lat="63.38346767" lon="13.17227383">
        <ele>656.7</ele>
        <time>1970-01-01T01:00:00Z</time>
      </trkpt>
      <trkpt lat="63.38346383" lon="13.172221">
        <ele>656.7</ele>
        <time>1970-01-01T01:00:00Z</time>
      </trkpt>
      <trkpt lat="63.38346283" lon="13.1721625">
        <ele>656.395</ele>
        <time>1970-01-01T01:00:00Z</time>
      </trkpt>
      <trkpt lat="63.38346333" lon="13.172107">
        <ele>656.395</ele>
        <time>1970-01-01T01:00:00Z</time>
      </trkpt>
      <trkpt lat="63.383467" lon="13.17205167">
        <ele>656.242</ele>
        <time>1970-01-01T01:00:00Z</time>
      </trkpt>
      <trkpt lat="63.38347267" lon="13.172001">
        <ele>656.242</ele>
        <time>1970-01-01T01:00:00Z</time>
      </trkpt>
      <trkpt lat="63.38348183" lon="13.171951">
        <ele>655.938</ele>
        <time>1970-01-01T01:00:00Z</time>
      </trkpt>
      <trkpt lat="63.38349217" lon="13.1719045">
        <ele>655.938</ele>
        <time>1970-01-01T01:00:00Z</time>
      </trkpt>
      <trkpt lat="63.383501" lon="13.17185883">
        <ele>655.48</ele>
        <time>1970-01-01T01:00:00Z</time>
      </trkpt>
      <trkpt lat="63.383508" lon="13.17181133">
        <ele>655.48</ele>
        <time>1970-01-01T01:00:00Z</time>
      </trkpt>
      <trkpt lat="63.38351433" lon="13.171763">
        <ele>655.176</ele>
        <time>1970-01-01T01:00:00Z</time>
      </trkpt>
      <trkpt lat="63.38352017" lon="13.17171833">
        <ele>655.176</ele>
        <time>1970-01-01T01:00:00Z</time>
      </trkpt>
      <trkpt lat="63.3835225" lon="13.17167767">
        <ele>654.718</ele>
        <time>1970-01-01T01:00:00Z</time>
      </trkpt>
      <trkpt lat="63.383519" lon="13.1716385">
        <ele>654.718</ele>
        <time>1970-01-01T01:00:00Z</time>
      </trkpt>
      <trkpt lat="63.3835105" lon="13.1715945">
        <ele>654.414</ele>
        <time>1970-01-01T01:00:00Z</time>
      </trkpt>
      <trkpt lat="63.38349917" lon="13.17155283">
        <ele>654.414</ele>
        <time>1970-01-01T01:00:00Z</time>
      </trkpt>
      <trkpt lat="63.3834845" lon="13.1715155">
        <ele>653.956</ele>
        <time>1970-01-01T01:00:00Z</time>
      </trkpt>
      <trkpt lat="63.383469" lon="13.17148983">
        <ele>653.956</ele>
        <time>1970-01-01T01:00:00Z</time>
      </trkpt>
      <trkpt lat="63.383451" lon="13.17146683">
        <ele>653.347</ele>
        <time>1970-01-01T01:00:00Z</time>
      </trkpt>
      <trkpt lat="63.38343283" lon="13.17144817">
        <ele>653.347</ele>
        <time>1970-01-01T01:00:00Z</time>
      </trkpt>
      <trkpt lat="63.38341183" lon="13.1714335">
        <ele>652.89</ele>
        <time>1970-01-01T01:00:00Z</time>
      </trkpt>
      <trkpt lat="63.38339167" lon="13.1714235">
        <ele>652.89</ele>
        <time>1970-01-01T01:00:00Z</time>
      </trkpt>
      <trkpt lat="63.383371" lon="13.17142033">
        <ele>652.128</ele>
        <time>1970-01-01T01:00:00Z</time>
      </trkpt>
      <trkpt lat="63.38335167" lon="13.1714165">
        <ele>652.128</ele>
        <time>1970-01-01T01:00:00Z</time>
      </trkpt>
      <trkpt lat="63.38332883" lon="13.17141467">
        <ele>651.518</ele>
        <time>1970-01-01T01:00:00Z</time>
      </trkpt>
      <trkpt lat="63.38330533" lon="13.171408">
        <ele>651.518</ele>
        <time>1970-01-01T01:00:00Z</time>
      </trkpt>
      <trkpt lat="63.38328167" lon="13.17140317">
        <ele>650.908</ele>
        <time>1970-01-01T01:00:00Z</time>
      </trkpt>
      <trkpt lat="63.38325867" lon="13.1713945">
        <ele>650.908</ele>
        <time>1970-01-01T01:00:00Z</time>
      </trkpt>
      <trkpt lat="63.38323683" lon="13.17138533">
        <ele>650.299</ele>
        <time>1970-01-01T01:00:00Z</time>
      </trkpt>
      <trkpt lat="63.38321533" lon="13.17137367">
        <ele>650.299</ele>
        <time>1970-01-01T01:00:00Z</time>
      </trkpt>
      <trkpt lat="63.3831955" lon="13.17135983">
        <ele>649.841</ele>
        <time>1970-01-01T01:00:00Z</time>
      </trkpt>
      <trkpt lat="63.38317533" lon="13.17134433">
        <ele>649.841</ele>
        <time>1970-01-01T01:00:00Z</time>
      </trkpt>
      <trkpt lat="63.38315367" lon="13.17133033">
        <ele>649.384</ele>
        <time>1970-01-01T01:00:00Z</time>
      </trkpt>
      <trkpt lat="63.3831325" lon="13.17131867">
        <ele>649.384</ele>
        <time>1970-01-01T01:00:00Z</time>
      </trkpt>
      <trkpt lat="63.383111" lon="13.171303">
        <ele>648.775</ele>
        <time>1970-01-01T01:00:00Z</time>
      </trkpt>
      <trkpt lat="63.38309167" lon="13.171275">
        <ele>648.775</ele>
        <time>1970-01-01T01:00:00Z</time>
      </trkpt>
      <trkpt lat="63.38307283" lon="13.17123833">
        <ele>648.47</ele>
        <time>1970-01-01T01:00:00Z</time>
      </trkpt>
      <trkpt lat="63.38305683" lon="13.171198">
        <ele>648.47</ele>
        <time>1970-01-01T01:00:00Z</time>
      </trkpt>
      <trkpt lat="63.38304417" lon="13.171153">
        <ele>648.165</ele>
        <time>1970-01-01T01:00:00Z</time>
      </trkpt>
      <trkpt lat="63.38303617" lon="13.17109667">
        <ele>648.165</ele>
        <time>1970-01-01T01:00:00Z</time>
      </trkpt>
      <trkpt lat="63.38303233" lon="13.17103317">
        <ele>647.86</ele>
        <time>1970-01-01T01:00:00Z</time>
      </trkpt>
      <trkpt lat="63.383032" lon="13.17096867">
        <ele>647.86</ele>
        <time>1970-01-01T01:00:00Z</time>
      </trkpt>
      <trkpt lat="63.38303567" lon="13.170905">
        <ele>647.708</ele>
        <time>1970-01-01T01:00:00Z</time>
      </trkpt>
      <trkpt lat="63.3830425" lon="13.170844">
        <ele>647.708</ele>
        <time>1970-01-01T01:00:00Z</time>
      </trkpt>
      <trkpt lat="63.38305433" lon="13.17079067">
        <ele>647.403</ele>
        <time>1970-01-01T01:00:00Z</time>
      </trkpt>
      <trkpt lat="63.38306833" lon="13.17074717">
        <ele>647.403</ele>
        <time>1970-01-01T01:00:00Z</time>
      </trkpt>
      <trkpt lat="63.3830865" lon="13.1707115">
        <ele>647.098</ele>
        <time>1970-01-01T01:00:00Z</time>
      </trkpt>
      <trkpt lat="63.38310633" lon="13.170681">
        <ele>647.098</ele>
        <time>1970-01-01T01:00:00Z</time>
      </trkpt>
      <trkpt lat="63.38312667" lon="13.17065933">
        <ele>646.793</ele>
        <time>1970-01-01T01:00:00Z</time>
      </trkpt>
      <trkpt lat="63.383147" lon="13.170637">
        <ele>646.793</ele>
        <time>1970-01-01T01:00:00Z</time>
      </trkpt>
      <trkpt lat="63.38316717" lon="13.17061233">
        <ele>646.336</ele>
        <time>1970-01-01T01:00:00Z</time>
      </trkpt>
      <trkpt lat="63.38318667" lon="13.170583">
        <ele>646.336</ele>
        <time>1970-01-01T01:00:00Z</time>
      </trkpt>
      <trkpt lat="63.38320517" lon="13.17055333">
        <ele>646.184</ele>
        <time>1970-01-01T01:00:00Z</time>
      </trkpt>
      <trkpt lat="63.38322317" lon="13.1705215">
        <ele>646.184</ele>
        <time>1970-01-01T01:00:00Z</time>
      </trkpt>
      <trkpt lat="63.38324017" lon="13.17048833">
        <ele>646.031</ele>
        <time>1970-01-01T01:00:00Z</time>
      </trkpt>
      <trkpt lat="63.383256" lon="13.17045417">
        <ele>646.031</ele>
        <time>1970-01-01T01:00:00Z</time>
      </trkpt>
      <trkpt lat="63.38326967" lon="13.17041383">
        <ele>645.879</ele>
        <time>1970-01-01T01:00:00Z</time>
      </trkpt>
      <trkpt lat="63.3832815" lon="13.17036933">
        <ele>645.879</ele>
        <time>1970-01-01T01:00:00Z</time>
      </trkpt>
      <trkpt lat="63.38329083" lon="13.1703225">
        <ele>645.727</ele>
        <time>1970-01-01T01:00:00Z</time>
      </trkpt>
      <trkpt lat="63.38329767" lon="13.170277">
        <ele>645.727</ele>
        <time>1970-01-01T01:00:00Z</time>
      </trkpt>
      <trkpt lat="63.3833" lon="13.17022867">
        <ele>645.574</ele>
        <time>1970-01-01T01:00:00Z</time>
      </trkpt>
      <trkpt lat="63.38329933" lon="13.1701805">
        <ele>645.574</ele>
        <time>1970-01-01T01:00:00Z</time>
      </trkpt>
      <trkpt lat="63.3832945" lon="13.17013683">
        <ele>645.269</ele>
        <time>1970-01-01T01:00:00Z</time>
      </trkpt>
      <trkpt lat="63.38328467" lon="13.17009067">
        <ele>645.269</ele>
        <time>1970-01-01T01:00:00Z</time>
      </trkpt>
      <trkpt lat="63.38326983" lon="13.17004733">
        <ele>645.117</ele>
        <time>1970-01-01T01:00:00Z</time>
      </trkpt>
      <trkpt lat="63.3832535" lon="13.17000367">
        <ele>645.117</ele>
        <time>1970-01-01T01:00:00Z</time>
      </trkpt>
      <trkpt lat="63.38323883" lon="13.1699695">
        <ele>644.965</ele>
        <time>1970-01-01T01:00:00Z</time>
      </trkpt>
      <trkpt lat="63.38322483" lon="13.16993333">
        <ele>644.965</ele>
        <time>1970-01-01T01:00:00Z</time>
      </trkpt>
      <trkpt lat="63.383211" lon="13.16990033">
        <ele>644.66</ele>
        <time>1970-01-01T01:00:00Z</time>
      </trkpt>
      <trkpt lat="63.38319567" lon="13.16987183">
        <ele>644.66</ele>
        <time>1970-01-01T01:00:00Z</time>
      </trkpt>
      <trkpt lat="63.38318017" lon="13.1698425">
        <ele>644.507</ele>
        <time>1970-01-01T01:00:00Z</time>
      </trkpt>
      <trkpt lat="63.38316067" lon="13.169816">
        <ele>644.507</ele>
        <time>1970-01-01T01:00:00Z</time>
      </trkpt>
      <trkpt lat="63.38314233" lon="13.16978467">
        <ele>644.203</ele>
        <time>1970-01-01T01:00:00Z</time>
      </trkpt>
      <trkpt lat="63.383125" lon="13.16975633">
        <ele>644.203</ele>
        <time>1970-01-01T01:00:00Z</time>
      </trkpt>
      <trkpt lat="63.38311083" lon="13.169717">
        <ele>643.898</ele>
        <time>1970-01-01T01:00:00Z</time>
      </trkpt>
      <trkpt lat="63.38309783" lon="13.169672">
        <ele>643.898</ele>
        <time>1970-01-01T01:00:00Z</time>
      </trkpt>
      <trkpt lat="63.3830855" lon="13.169625">
        <ele>643.593</ele>
        <time>1970-01-01T01:00:00Z</time>
      </trkpt>
      <trkpt lat="63.38307467" lon="13.16958017">
        <ele>643.593</ele>
        <time>1970-01-01T01:00:00Z</time>
      </trkpt>
      <trkpt lat="63.3830645" lon="13.1695345">
        <ele>643.441</ele>
        <time>1970-01-01T01:00:00Z</time>
      </trkpt>
      <trkpt lat="63.3830545" lon="13.1694855">
        <ele>643.441</ele>
        <time>1970-01-01T01:00:00Z</time>
      </trkpt>
      <trkpt lat="63.38304683" lon="13.16943267">
        <ele>643.136</ele>
        <time>1970-01-01T01:00:00Z</time>
      </trkpt>
      <trkpt lat="63.38304233" lon="13.16937817">
        <ele>643.136</ele>
        <time>1970-01-01T01:00:00Z</time>
      </trkpt>
      <trkpt lat="63.38304933" lon="13.16930483">
        <ele>642.831</ele>
        <time>1970-01-01T01:00:00Z</time>
      </trkpt>
      <trkpt lat="63.38306067" lon="13.16923667">
        <ele>642.831</ele>
        <time>1970-01-01T01:00:00Z</time>
      </trkpt>
      <trkpt lat="63.3830765" lon="13.1691775">
        <ele>642.526</ele>
        <time>1970-01-01T01:00:00Z</time>
      </trkpt>
      <trkpt lat="63.38308967" lon="13.16913867">
        <ele>642.526</ele>
        <time>1970-01-01T01:00:00Z</time>
      </trkpt>
      <trkpt lat="63.383105" lon="13.169101">
        <ele>642.221</ele>
        <time>1970-01-01T01:00:00Z</time>
      </trkpt>
      <trkpt lat="63.3831215" lon="13.16906567">
        <ele>642.221</ele>
        <time>1970-01-01T01:00:00Z</time>
      </trkpt>
      <trkpt lat="63.383139" lon="13.16903283">
        <ele>642.069</ele>
        <time>1970-01-01T01:00:00Z</time>
      </trkpt>
      <trkpt lat="63.383158" lon="13.16900217">
        <ele>642.069</ele>
        <time>1970-01-01T01:00:00Z</time>
      </trkpt>
      <trkpt lat="63.3831785" lon="13.1689695">
        <ele>641.764</ele>
        <time>1970-01-01T01:00:00Z</time>
      </trkpt>
      <trkpt lat="63.38319833" lon="13.16893783">
        <ele>641.764</ele>
        <time>1970-01-01T01:00:00Z</time>
      </trkpt>
      <trkpt lat="63.38321783" lon="13.16890217">
        <ele>641.459</ele>
        <time>1970-01-01T01:00:00Z</time>
      </trkpt>
      <trkpt lat="63.383237" lon="13.16886283">
        <ele>641.459</ele>
        <time>1970-01-01T01:00:00Z</time>
      </trkpt>
      <trkpt lat="63.38325483" lon="13.16882717">
        <ele>641.155</ele>
        <time>1970-01-01T01:00:00Z</time>
      </trkpt>
      <trkpt lat="63.383271" lon="13.168793">
        <ele>641.155</ele>
        <time>1970-01-01T01:00:00Z</time>
      </trkpt>
      <trkpt lat="63.383285" lon="13.1687575">
        <ele>641.002</ele>
        <time>1970-01-01T01:00:00Z</time>
      </trkpt>
      <trkpt lat="63.38329967" lon="13.168719">
        <ele>641.002</ele>
        <time>1970-01-01T01:00:00Z</time>
      </trkpt>
      <trkpt lat="63.38331417" lon="13.168682">
        <ele>640.697</ele>
        <time>1970-01-01T01:00:00Z</time>
      </trkpt>
      <trkpt lat="63.383328" lon="13.16864683">
        <ele>640.697</ele>
        <time>1970-01-01T01:00:00Z</time>
      </trkpt>
      <trkpt lat="63.38334317" lon="13.16860883">
        <ele>640.393</ele>
        <time>1970-01-01T01:00:00Z</time>
      </trkpt>
      <trkpt lat="63.38335883" lon="13.16856917">
        <ele>640.393</ele>
        <time>1970-01-01T01:00:00Z</time>
      </trkpt>
      <trkpt lat="63.38337483" lon="13.1685295">
        <ele>640.24</ele>
        <time>1970-01-01T01:00:00Z</time>
      </trkpt>
      <trkpt lat="63.38339017" lon="13.16849083">
        <ele>640.24</ele>
        <time>1970-01-01T01:00:00Z</time>
      </trkpt>
      <trkpt lat="63.38340617" lon="13.16845033">
        <ele>639.935</ele>
        <time>1970-01-01T01:00:00Z</time>
      </trkpt>
      <trkpt lat="63.38342217" lon="13.16840883">
        <ele>639.935</ele>
        <time>1970-01-01T01:00:00Z</time>
      </trkpt>
      <trkpt lat="63.38343717" lon="13.168365">
        <ele>639.631</ele>
        <time>1970-01-01T01:00:00Z</time>
      </trkpt>
      <trkpt lat="63.38345117" lon="13.1683235">
        <ele>639.631</ele>
        <time>1970-01-01T01:00:00Z</time>
      </trkpt>
      <trkpt lat="63.38346567" lon="13.168281">
        <ele>639.478</ele>
        <time>1970-01-01T01:00:00Z</time>
      </trkpt>
      <trkpt lat="63.3834805" lon="13.16825">
        <ele>639.478</ele>
        <time>1970-01-01T01:00:00Z</time>
      </trkpt>
      <trkpt lat="63.38349517" lon="13.1682225">
        <ele>639.173</ele>
        <time>1970-01-01T01:00:00Z</time>
      </trkpt>
      <trkpt lat="63.38351017" lon="13.16819533">
        <ele>639.173</ele>
        <time>1970-01-01T01:00:00Z</time>
      </trkpt>
      <trkpt lat="63.383526" lon="13.168156">
        <ele>638.869</ele>
        <time>1970-01-01T01:00:00Z</time>
      </trkpt>
      <trkpt lat="63.38354067" lon="13.1681095">
        <ele>638.869</ele>
        <time>1970-01-01T01:00:00Z</time>
      </trkpt>
      <trkpt lat="63.38355417" lon="13.16806617">
        <ele>638.716</ele>
        <time>1970-01-01T01:00:00Z</time>
      </trkpt>
      <trkpt lat="63.38356583" lon="13.1680235">
        <ele>638.716</ele>
        <time>1970-01-01T01:00:00Z</time>
      </trkpt>
      <trkpt lat="63.38357883" lon="13.167981">
        <ele>638.411</ele>
        <time>1970-01-01T01:00:00Z</time>
      </trkpt>
      <trkpt lat="63.38359083" lon="13.16793567">
        <ele>638.411</ele>
        <time>1970-01-01T01:00:00Z</time>
      </trkpt>
      <trkpt lat="63.383603" lon="13.16789467">
        <ele>638.107</ele>
        <time>1970-01-01T01:00:00Z</time>
      </trkpt>
      <trkpt lat="63.3836135" lon="13.16785317">
        <ele>638.107</ele>
        <time>1970-01-01T01:00:00Z</time>
      </trkpt>
      <trkpt lat="63.38362467" lon="13.16781383">
        <ele>637.802</ele>
        <time>1970-01-01T01:00:00Z</time>
      </trkpt>
      <trkpt lat="63.3836345" lon="13.1677745">
        <ele>637.802</ele>
        <time>1970-01-01T01:00:00Z</time>
      </trkpt>
      <trkpt lat="63.3836455" lon="13.16773333">
        <ele>637.497</ele>
        <time>1970-01-01T01:00:00Z</time>
      </trkpt>
      <trkpt lat="63.38365567" lon="13.16768283">
        <ele>637.497</ele>
        <time>1970-01-01T01:00:00Z</time>
      </trkpt>
      <trkpt lat="63.38366483" lon="13.16762767">
        <ele>637.192</ele>
        <time>1970-01-01T01:00:00Z</time>
      </trkpt>
      <trkpt lat="63.3836715" lon="13.16757533">
        <ele>637.192</ele>
        <time>1970-01-01T01:00:00Z</time>
      </trkpt>
      <trkpt lat="63.38367583" lon="13.16752533">
        <ele>636.887</ele>
        <time>1970-01-01T01:00:00Z</time>
      </trkpt>
      <trkpt lat="63.38367983" lon="13.16747317">
        <ele>636.887</ele>
        <time>1970-01-01T01:00:00Z</time>
      </trkpt>
      <trkpt lat="63.38368233" lon="13.16742183">
        <ele>636.583</ele>
        <time>1970-01-01T01:00:00Z</time>
      </trkpt>
      <trkpt lat="63.3836835" lon="13.1673725">
        <ele>636.583</ele>
        <time>1970-01-01T01:00:00Z</time>
      </trkpt>
      <trkpt lat="63.38368217" lon="13.16732517">
        <ele>636.278</ele>
        <time>1970-01-01T01:00:00Z</time>
      </trkpt>
      <trkpt lat="63.383678" lon="13.16728017">
        <ele>636.278</ele>
        <time>1970-01-01T01:00:00Z</time>
      </trkpt>
      <trkpt lat="63.38367183" lon="13.16723717">
        <ele>635.973</ele>
        <time>1970-01-01T01:00:00Z</time>
      </trkpt>
      <trkpt lat="63.38366317" lon="13.16719367">
        <ele>635.973</ele>
        <time>1970-01-01T01:00:00Z</time>
      </trkpt>
      <trkpt lat="63.383652" lon="13.16714783">
        <ele>635.668</ele>
        <time>1970-01-01T01:00:00Z</time>
      </trkpt>
      <trkpt lat="63.38363967" lon="13.16710533">
        <ele>635.668</ele>
        <time>1970-01-01T01:00:00Z</time>
      </trkpt>
      <trkpt lat="63.383627" lon="13.16706917">
        <ele>635.211</ele>
        <time>1970-01-01T01:00:00Z</time>
      </trkpt>
      <trkpt lat="63.383612" lon="13.16703383">
        <ele>635.211</ele>
        <time>1970-01-01T01:00:00Z</time>
      </trkpt>
      <trkpt lat="63.38359617" lon="13.16699983">
        <ele>634.754</ele>
        <time>1970-01-01T01:00:00Z</time>
      </trkpt>
      <trkpt lat="63.38357917" lon="13.1669665">
        <ele>634.754</ele>
        <time>1970-01-01T01:00:00Z</time>
      </trkpt>
      <trkpt lat="63.38356317" lon="13.16693167">
        <ele>634.449</ele>
        <time>1970-01-01T01:00:00Z</time>
      </trkpt>
      <trkpt lat="63.38354517" lon="13.16689733">
        <ele>634.449</ele>
        <time>1970-01-01T01:00:00Z</time>
      </trkpt>
      <trkpt lat="63.38352733" lon="13.16686133">
        <ele>633.992</ele>
        <time>1970-01-01T01:00:00Z</time>
      </trkpt>
      <trkpt lat="63.38350917" lon="13.16683133">
        <ele>633.992</ele>
        <time>1970-01-01T01:00:00Z</time>
      </trkpt>
      <trkpt lat="63.38349233" lon="13.166799">
        <ele>633.534</ele>
        <time>1970-01-01T01:00:00Z</time>
      </trkpt>
      <trkpt lat="63.383477" lon="13.16676383">
        <ele>633.534</ele>
        <time>1970-01-01T01:00:00Z</time>
      </trkpt>
      <trkpt lat="63.38346783" lon="13.16671717">
        <ele>633.077</ele>
        <time>1970-01-01T01:00:00Z</time>
      </trkpt>
      <trkpt lat="63.38346333" lon="13.166662">
        <ele>633.077</ele>
        <time>1970-01-01T01:00:00Z</time>
      </trkpt>
      <trkpt lat="63.38346117" lon="13.16660083">
        <ele>632.772</ele>
        <time>1970-01-01T01:00:00Z</time>
      </trkpt>
      <trkpt lat="63.38346067" lon="13.1665425">
        <ele>632.772</ele>
        <time>1970-01-01T01:00:00Z</time>
      </trkpt>
      <trkpt lat="63.3834625" lon="13.16648933">
        <ele>632.315</ele>
        <time>1970-01-01T01:00:00Z</time>
      </trkpt>
      <trkpt lat="63.38346867" lon="13.1664395">
        <ele>632.315</ele>
        <time>1970-01-01T01:00:00Z</time>
      </trkpt>
      <trkpt lat="63.38348133" lon="13.16638833">
        <ele>631.858</ele>
        <time>1970-01-01T01:00:00Z</time>
      </trkpt>
      <trkpt lat="63.3834975" lon="13.16633917">
        <ele>631.858</ele>
        <time>1970-01-01T01:00:00Z</time>
      </trkpt>
      <trkpt lat="63.38351617" lon="13.16630083">
        <ele>631.553</ele>
        <time>1970-01-01T01:00:00Z</time>
      </trkpt>
      <trkpt lat="63.38353633" lon="13.16626833">
        <ele>631.553</ele>
        <time>1970-01-01T01:00:00Z</time>
      </trkpt>
      <trkpt lat="63.383557" lon="13.16623867">
        <ele>631.096</ele>
        <time>1970-01-01T01:00:00Z</time>
      </trkpt>
      <trkpt lat="63.38357867" lon="13.16620517">
        <ele>631.096</ele>
        <time>1970-01-01T01:00:00Z</time>
      </trkpt>
      <trkpt lat="63.38359817" lon="13.16616917">
        <ele>630.639</ele>
        <time>1970-01-01T01:00:00Z</time>
      </trkpt>
      <trkpt lat="63.3836195" lon="13.16613633">
        <ele>630.639</ele>
        <time>1970-01-01T01:00:00Z</time>
      </trkpt>
      <trkpt lat="63.38364083" lon="13.1661035">
        <ele>630.334</ele>
        <time>1970-01-01T01:00:00Z</time>
      </trkpt>
      <trkpt lat="63.38366033" lon="13.16607583">
        <ele>630.334</ele>
        <time>1970-01-01T01:00:00Z</time>
      </trkpt>
      <trkpt lat="63.38368" lon="13.16604367">
        <ele>629.877</ele>
        <time>1970-01-01T01:00:00Z</time>
      </trkpt>
      <trkpt lat="63.3836995" lon="13.16600833">
        <ele>629.877</ele>
        <time>1970-01-01T01:00:00Z</time>
      </trkpt>
      <trkpt lat="63.38371917" lon="13.16597533">
        <ele>629.572</ele>
        <time>1970-01-01T01:00:00Z</time>
      </trkpt>
      <trkpt lat="63.38373733" lon="13.165948">
        <ele>629.572</ele>
        <time>1970-01-01T01:00:00Z</time>
      </trkpt>
      <trkpt lat="63.38375567" lon="13.16592083">
        <ele>629.115</ele>
        <time>1970-01-01T01:00:00Z</time>
      </trkpt>
      <trkpt lat="63.38377333" lon="13.16589283">
        <ele>629.115</ele>
        <time>1970-01-01T01:00:00Z</time>
      </trkpt>
      <trkpt lat="63.38378983" lon="13.16586067">
        <ele>628.81</ele>
        <time>1970-01-01T01:00:00Z</time>
      </trkpt>
      <trkpt lat="63.38380733" lon="13.16582967">
        <ele>628.81</ele>
        <time>1970-01-01T01:00:00Z</time>
      </trkpt>
      <trkpt lat="63.38382667" lon="13.1657925">
        <ele>628.353</ele>
        <time>1970-01-01T01:00:00Z</time>
      </trkpt>
      <trkpt lat="63.38384583" lon="13.16575683">
        <ele>628.353</ele>
        <time>1970-01-01T01:00:00Z</time>
      </trkpt>
      <trkpt lat="63.38386367" lon="13.16571967">
        <ele>628.048</ele>
        <time>1970-01-01T01:00:00Z</time>
      </trkpt>
      <trkpt lat="63.38387967" lon="13.16568317">
        <ele>628.048</ele>
        <time>1970-01-01T01:00:00Z</time>
      </trkpt>
      <trkpt lat="63.383896" lon="13.16564183">
        <ele>627.591</ele>
        <time>1970-01-01T01:00:00Z</time>
      </trkpt>
      <trkpt lat="63.38391067" lon="13.1656035">
        <ele>627.591</ele>
        <time>1970-01-01T01:00:00Z</time>
      </trkpt>
      <trkpt lat="63.38392567" lon="13.16556817">
        <ele>627.286</ele>
        <time>1970-01-01T01:00:00Z</time>
      </trkpt>
      <trkpt lat="63.3839415" lon="13.16553067">
        <ele>627.286</ele>
        <time>1970-01-01T01:00:00Z</time>
      </trkpt>
      <trkpt lat="63.38395917" lon="13.165493">
        <ele>626.981</ele>
        <time>1970-01-01T01:00:00Z</time>
      </trkpt>
      <trkpt lat="63.38397583" lon="13.16545667">
        <ele>626.981</ele>
        <time>1970-01-01T01:00:00Z</time>
      </trkpt>
      <trkpt lat="63.38399117" lon="13.16542233">
        <ele>626.524</ele>
        <time>1970-01-01T01:00:00Z</time>
      </trkpt>
      <trkpt lat="63.38400483" lon="13.16538167">
        <ele>626.524</ele>
        <time>1970-01-01T01:00:00Z</time>
      </trkpt>
      <trkpt lat="63.38401883" lon="13.16534067">
        <ele>626.067</ele>
        <time>1970-01-01T01:00:00Z</time>
      </trkpt>
      <trkpt lat="63.384033" lon="13.16530217">
        <ele>626.067</ele>
        <time>1970-01-01T01:00:00Z</time>
      </trkpt>
      <trkpt lat="63.38404867" lon="13.16526567">
        <ele>625.762</ele>
        <time>1970-01-01T01:00:00Z</time>
      </trkpt>
      <trkpt lat="63.38406567" lon="13.16522767">
        <ele>625.762</ele>
        <time>1970-01-01T01:00:00Z</time>
      </trkpt>
      <trkpt lat="63.38408367" lon="13.1651935">
        <ele>625.305</ele>
        <time>1970-01-01T01:00:00Z</time>
      </trkpt>
      <trkpt lat="63.38410267" lon="13.1651645">
        <ele>625.305</ele>
        <time>1970-01-01T01:00:00Z</time>
      </trkpt>
      <trkpt lat="63.38412217" lon="13.16513167">
        <ele>624.848</ele>
        <time>1970-01-01T01:00:00Z</time>
      </trkpt>
      <trkpt lat="63.38414367" lon="13.1650995">
        <ele>624.848</ele>
        <time>1970-01-01T01:00:00Z</time>
      </trkpt>
      <trkpt lat="63.38416467" lon="13.16506733">
        <ele>624.39</ele>
        <time>1970-01-01T01:00:00Z</time>
      </trkpt>
      <trkpt lat="63.38418617" lon="13.16503783">
        <ele>624.39</ele>
        <time>1970-01-01T01:00:00Z</time>
      </trkpt>
      <trkpt lat="63.38420717" lon="13.16500817">
        <ele>623.933</ele>
        <time>1970-01-01T01:00:00Z</time>
      </trkpt>
      <trkpt lat="63.38422717" lon="13.164977">
        <ele>623.933</ele>
        <time>1970-01-01T01:00:00Z</time>
      </trkpt>
      <trkpt lat="63.384246" lon="13.164946">
        <ele>623.476</ele>
        <time>1970-01-01T01:00:00Z</time>
      </trkpt>
      <trkpt lat="63.38426433" lon="13.16491183">
        <ele>623.476</ele>
        <time>1970-01-01T01:00:00Z</time>
      </trkpt>
      <trkpt lat="63.38428433" lon="13.16488167">
        <ele>623.019</ele>
        <time>1970-01-01T01:00:00Z</time>
      </trkpt>
      <trkpt lat="63.38430467" lon="13.16485667">
        <ele>623.019</ele>
        <time>1970-01-01T01:00:00Z</time>
      </trkpt>
      <trkpt lat="63.3843265" lon="13.164834">
        <ele>622.562</ele>
        <time>1970-01-01T01:00:00Z</time>
      </trkpt>
      <trkpt lat="63.38434767" lon="13.1648095">
        <ele>622.562</ele>
        <time>1970-01-01T01:00:00Z</time>
      </trkpt>
      <trkpt lat="63.38436783" lon="13.1647855">
        <ele>622.104</ele>
        <time>1970-01-01T01:00:00Z</time>
      </trkpt>
      <trkpt lat="63.3843875" lon="13.16476167">
        <ele>622.104</ele>
        <time>1970-01-01T01:00:00Z</time>
      </trkpt>
      <trkpt lat="63.38440717" lon="13.16473783">
        <ele>621.8</ele>
        <time>1970-01-01T01:00:00Z</time>
      </trkpt>
      <trkpt lat="63.38442533" lon="13.16471317">
        <ele>621.8</ele>
        <time>1970-01-01T01:00:00Z</time>
      </trkpt>
      <trkpt lat="63.38443933" lon="13.16468683">
        <ele>621.342</ele>
        <time>1970-01-01T01:00:00Z</time>
      </trkpt>
      <trkpt lat="63.38444967" lon="13.1646575">
        <ele>621.342</ele>
        <time>1970-01-01T01:00:00Z</time>
      </trkpt>
      <trkpt lat="63.38445983" lon="13.16462633">
        <ele>620.885</ele>
        <time>1970-01-01T01:00:00Z</time>
      </trkpt>
      <trkpt lat="63.3844695" lon="13.16459717">
        <ele>620.885</ele>
        <time>1970-01-01T01:00:00Z</time>
      </trkpt>
      <trkpt lat="63.384481" lon="13.164572">
        <ele>620.58</ele>
        <time>1970-01-01T01:00:00Z</time>
      </trkpt>
      <trkpt lat="63.3844925" lon="13.16454717">
        <ele>620.58</ele>
        <time>1970-01-01T01:00:00Z</time>
      </trkpt>
      <trkpt lat="63.38450417" lon="13.16452233">
        <ele>620.276</ele>
        <time>1970-01-01T01:00:00Z</time>
      </trkpt>
      <trkpt lat="63.3845145" lon="13.164495">
        <ele>620.276</ele>
        <time>1970-01-01T01:00:00Z</time>
      </trkpt>
      <trkpt lat="63.38452333" lon="13.1644655">
        <ele>619.818</ele>
        <time>1970-01-01T01:00:00Z</time>
      </trkpt>
      <trkpt lat="63.384532" lon="13.164431">
        <ele>619.818</ele>
        <time>1970-01-01T01:00:00Z</time>
      </trkpt>
      <trkpt lat="63.3845385" lon="13.1643935">
        <ele>619.513</ele>
        <time>1970-01-01T01:00:00Z</time>
      </trkpt>
      <trkpt lat="63.38454283" lon="13.16435817">
        <ele>619.513</ele>
        <time>1970-01-01T01:00:00Z</time>
      </trkpt>
      <trkpt lat="63.38454417" lon="13.16432617">
        <ele>619.209</ele>
        <time>1970-01-01T01:00:00Z</time>
      </trkpt>
      <trkpt lat="63.38454433" lon="13.16431">
        <ele>619.209</ele>
        <time>1970-01-01T01:00:00Z</time>
      </trkpt>
      <trkpt lat="63.38454367" lon="13.16430117">
        <ele>618.904</ele>
        <time>1970-01-01T01:00:00Z</time>
      </trkpt>
      <trkpt lat="63.3845435" lon="13.16429867">
        <ele>618.904</ele>
        <time>1970-01-01T01:00:00Z</time>
      </trkpt>
      <trkpt lat="63.38454567" lon="13.16429117">
        <ele>618.599</ele>
        <time>1970-01-01T01:00:00Z</time>
      </trkpt>
      <trkpt lat="63.38454967" lon="13.16428267">
        <ele>618.599</ele>
        <time>1970-01-01T01:00:00Z</time>
      </trkpt>
      <trkpt lat="63.3845535" lon="13.1642745">
        <ele>618.294</ele>
        <time>1970-01-01T01:00:00Z</time>
      </trkpt>
      <trkpt lat="63.38455667" lon="13.1642655">
        <ele>618.294</ele>
        <time>1970-01-01T01:00:00Z</time>
      </trkpt>
      <trkpt lat="63.38455933" lon="13.16425733">
        <ele>618.142</ele>
        <time>1970-01-01T01:00:00Z</time>
      </trkpt>
      <trkpt lat="63.38456417" lon="13.16424867">
        <ele>618.142</ele>
        <time>1970-01-01T01:00:00Z</time>
      </trkpt>
      <trkpt lat="63.384571" lon="13.16424183">
        <ele>617.837</ele>
        <time>1970-01-01T01:00:00Z</time>
      </trkpt>
      <trkpt lat="63.38458017" lon="13.16423133">
        <ele>617.837</ele>
        <time>1970-01-01T01:00:00Z</time>
      </trkpt>
      <trkpt lat="63.3845915" lon="13.16421333">
        <ele>617.532</ele>
        <time>1970-01-01T01:00:00Z</time>
      </trkpt>
      <trkpt lat="63.384602" lon="13.16418733">
        <ele>617.532</ele>
        <time>1970-01-01T01:00:00Z</time>
      </trkpt>
      <trkpt lat="63.38461133" lon="13.164155">
        <ele>617.227</ele>
        <time>1970-01-01T01:00:00Z</time>
      </trkpt>
      <trkpt lat="63.384617" lon="13.16411517">
        <ele>617.227</ele>
        <time>1970-01-01T01:00:00Z</time>
      </trkpt>
      <trkpt lat="63.38462067" lon="13.16406133">
        <ele>616.923</ele>
        <time>1970-01-01T01:00:00Z</time>
      </trkpt>
      <trkpt lat="63.38462333" lon="13.16400583">
        <ele>616.923</ele>
        <time>1970-01-01T01:00:00Z</time>
      </trkpt>
      <trkpt lat="63.38462633" lon="13.16395233">
        <ele>616.618</ele>
        <time>1970-01-01T01:00:00Z</time>
      </trkpt>
      <trkpt lat="63.38463033" lon="13.16390467">
        <ele>616.618</ele>
        <time>1970-01-01T01:00:00Z</time>
      </trkpt>
      <trkpt lat="63.38463467" lon="13.16385533">
        <ele>616.313</ele>
        <time>1970-01-01T01:00:00Z</time>
      </trkpt>
      <trkpt lat="63.3846405" lon="13.16380717">
        <ele>616.313</ele>
        <time>1970-01-01T01:00:00Z</time>
      </trkpt>
      <trkpt lat="63.3846485" lon="13.16375733">
        <ele>616.161</ele>
        <time>1970-01-01T01:00:00Z</time>
      </trkpt>
      <trkpt lat="63.38466" lon="13.16370933">
        <ele>616.161</ele>
        <time>1970-01-01T01:00:00Z</time>
      </trkpt>
      <trkpt lat="63.38467383" lon="13.16366733">
        <ele>615.856</ele>
        <time>1970-01-01T01:00:00Z</time>
      </trkpt>
      <trkpt lat="63.38468983" lon="13.16362817">
        <ele>615.856</ele>
        <time>1970-01-01T01:00:00Z</time>
      </trkpt>
      <trkpt lat="63.384708" lon="13.16359017">
        <ele>615.551</ele>
        <time>1970-01-01T01:00:00Z</time>
      </trkpt>
      <trkpt lat="63.38472667" lon="13.16355417">
        <ele>615.551</ele>
        <time>1970-01-01T01:00:00Z</time>
      </trkpt>
      <trkpt lat="63.38474517" lon="13.16352183">
        <ele>615.246</ele>
        <time>1970-01-01T01:00:00Z</time>
      </trkpt>
      <trkpt lat="63.38476283" lon="13.16349">
        <ele>615.246</ele>
        <time>1970-01-01T01:00:00Z</time>
      </trkpt>
      <trkpt lat="63.384782" lon="13.1634545">
        <ele>614.941</ele>
        <time>1970-01-01T01:00:00Z</time>
      </trkpt>
      <trkpt lat="63.384802" lon="13.16342417">
        <ele>614.941</ele>
        <time>1970-01-01T01:00:00Z</time>
      </trkpt>
      <trkpt lat="63.38482133" lon="13.16339617">
        <ele>614.637</ele>
        <time>1970-01-01T01:00:00Z</time>
      </trkpt>
      <trkpt lat="63.38484067" lon="13.163369">
        <ele>614.637</ele>
        <time>1970-01-01T01:00:00Z</time>
      </trkpt>
      <trkpt lat="63.38486067" lon="13.1633415">
        <ele>614.332</ele>
        <time>1970-01-01T01:00:00Z</time>
      </trkpt>
      <trkpt lat="63.3848805" lon="13.163315">
        <ele>614.332</ele>
        <time>1970-01-01T01:00:00Z</time>
      </trkpt>
      <trkpt lat="63.3849005" lon="13.16328917">
        <ele>614.027</ele>
        <time>1970-01-01T01:00:00Z</time>
      </trkpt>
      <trkpt lat="63.38492117" lon="13.16326317">
        <ele>614.027</ele>
        <time>1970-01-01T01:00:00Z</time>
      </trkpt>
      <trkpt lat="63.38494133" lon="13.16323983">
        <ele>613.57</ele>
        <time>1970-01-01T01:00:00Z</time>
      </trkpt>
      <trkpt lat="63.38496033" lon="13.1632155">
        <ele>613.57</ele>
        <time>1970-01-01T01:00:00Z</time>
      </trkpt>
      <trkpt lat="63.3849795" lon="13.1631895">
        <ele>613.265</ele>
        <time>1970-01-01T01:00:00Z</time>
      </trkpt>
      <trkpt lat="63.3849995" lon="13.16315883">
        <ele>613.265</ele>
        <time>1970-01-01T01:00:00Z</time>
      </trkpt>
      <trkpt lat="63.38502" lon="13.163135">
        <ele>612.96</ele>
        <time>1970-01-01T01:00:00Z</time>
      </trkpt>
      <trkpt lat="63.385039" lon="13.16310917">
        <ele>612.96</ele>
        <time>1970-01-01T01:00:00Z</time>
      </trkpt>
      <trkpt lat="63.3850565" lon="13.16308367">
        <ele>612.503</ele>
        <time>1970-01-01T01:00:00Z</time>
      </trkpt>
      <trkpt lat="63.38507217" lon="13.16305133">
        <ele>612.503</ele>
        <time>1970-01-01T01:00:00Z</time>
      </trkpt>
      <trkpt lat="63.38508533" lon="13.16301567">
        <ele>612.046</ele>
        <time>1970-01-01T01:00:00Z</time>
      </trkpt>
      <trkpt lat="63.38509717" lon="13.16297033">
        <ele>612.046</ele>
        <time>1970-01-01T01:00:00Z</time>
      </trkpt>
      <trkpt lat="63.385106" lon="13.162928">
        <ele>611.741</ele>
        <time>1970-01-01T01:00:00Z</time>
      </trkpt>
      <trkpt lat="63.385113" lon="13.16288717">
        <ele>611.741</ele>
        <time>1970-01-01T01:00:00Z</time>
      </trkpt>
      <trkpt lat="63.38511317" lon="13.16285033">
        <ele>611.284</ele>
        <time>1970-01-01T01:00:00Z</time>
      </trkpt>
      <trkpt lat="63.385108" lon="13.16280783">
        <ele>611.284</ele>
        <time>1970-01-01T01:00:00Z</time>
      </trkpt>
      <trkpt lat="63.3850945" lon="13.16276667">
        <ele>610.827</ele>
        <time>1970-01-01T01:00:00Z</time>
      </trkpt>
      <trkpt lat="63.38507783" lon="13.16273233">
        <ele>610.827</ele>
        <time>1970-01-01T01:00:00Z</time>
      </trkpt>
      <trkpt lat="63.38505817" lon="13.16270417">
        <ele>610.369</ele>
        <time>1970-01-01T01:00:00Z</time>
      </trkpt>
      <trkpt lat="63.38503817" lon="13.1626775">
        <ele>610.369</ele>
        <time>1970-01-01T01:00:00Z</time>
      </trkpt>
      <trkpt lat="63.38501967" lon="13.16265517">
        <ele>609.912</ele>
        <time>1970-01-01T01:00:00Z</time>
      </trkpt>
      <trkpt lat="63.38499983" lon="13.16263367">
        <ele>609.912</ele>
        <time>1970-01-01T01:00:00Z</time>
      </trkpt>
      <trkpt lat="63.38498083" lon="13.16261617">
        <ele>609.455</ele>
        <time>1970-01-01T01:00:00Z</time>
      </trkpt>
      <trkpt lat="63.38495967" lon="13.162601">
        <ele>609.455</ele>
        <time>1970-01-01T01:00:00Z</time>
      </trkpt>
      <trkpt lat="63.38493917" lon="13.16258883">
        <ele>608.998</ele>
        <time>1970-01-01T01:00:00Z</time>
      </trkpt>
      <trkpt lat="63.38491533" lon="13.16257933">
        <ele>608.998</ele>
        <time>1970-01-01T01:00:00Z</time>
      </trkpt>
      <trkpt lat="63.38489083" lon="13.16256833">
        <ele>608.541</ele>
        <time>1970-01-01T01:00:00Z</time>
      </trkpt>
      <trkpt lat="63.38486783" lon="13.162556">
        <ele>608.541</ele>
        <time>1970-01-01T01:00:00Z</time>
      </trkpt>
      <trkpt lat="63.3848455" lon="13.16254133">
        <ele>608.083</ele>
        <time>1970-01-01T01:00:00Z</time>
      </trkpt>
      <trkpt lat="63.38482317" lon="13.1625265">
        <ele>608.083</ele>
        <time>1970-01-01T01:00:00Z</time>
      </trkpt>
      <trkpt lat="63.3848005" lon="13.162512">
        <ele>607.626</ele>
        <time>1970-01-01T01:00:00Z</time>
      </trkpt>
      <trkpt lat="63.384779" lon="13.16249567">
        <ele>607.626</ele>
        <time>1970-01-01T01:00:00Z</time>
      </trkpt>
      <trkpt lat="63.3847565" lon="13.16248067">
        <ele>607.321</ele>
        <time>1970-01-01T01:00:00Z</time>
      </trkpt>
      <trkpt lat="63.384732" lon="13.16246633">
        <ele>607.321</ele>
        <time>1970-01-01T01:00:00Z</time>
      </trkpt>
      <trkpt lat="63.38470733" lon="13.16245283">
        <ele>606.864</ele>
        <time>1970-01-01T01:00:00Z</time>
      </trkpt>
      <trkpt lat="63.38468417" lon="13.16243417">
        <ele>606.864</ele>
        <time>1970-01-01T01:00:00Z</time>
      </trkpt>
      <trkpt lat="63.38466267" lon="13.16241383">
        <ele>606.407</ele>
        <time>1970-01-01T01:00:00Z</time>
      </trkpt>
      <trkpt lat="63.38464133" lon="13.162396">
        <ele>606.407</ele>
        <time>1970-01-01T01:00:00Z</time>
      </trkpt>
      <trkpt lat="63.38462033" lon="13.1623795">
        <ele>606.102</ele>
        <time>1970-01-01T01:00:00Z</time>
      </trkpt>
      <trkpt lat="63.38459683" lon="13.16236233">
        <ele>606.102</ele>
        <time>1970-01-01T01:00:00Z</time>
      </trkpt>
      <trkpt lat="63.38457133" lon="13.16234">
        <ele>605.645</ele>
        <time>1970-01-01T01:00:00Z</time>
      </trkpt>
      <trkpt lat="63.38454667" lon="13.16231683">
        <ele>605.645</ele>
        <time>1970-01-01T01:00:00Z</time>
      </trkpt>
      <trkpt lat="63.38452433" lon="13.16229067">
        <ele>605.34</ele>
        <time>1970-01-01T01:00:00Z</time>
      </trkpt>
      <trkpt lat="63.3845035" lon="13.16226467">
        <ele>605.34</ele>
        <time>1970-01-01T01:00:00Z</time>
      </trkpt>
      <trkpt lat="63.38448317" lon="13.1622355">
        <ele>605.035</ele>
        <time>1970-01-01T01:00:00Z</time>
      </trkpt>
      <trkpt lat="63.38446383" lon="13.16220017">
        <ele>605.035</ele>
        <time>1970-01-01T01:00:00Z</time>
      </trkpt>
      <trkpt lat="63.38444483" lon="13.16215867">
        <ele>604.578</ele>
        <time>1970-01-01T01:00:00Z</time>
      </trkpt>
      <trkpt lat="63.38442733" lon="13.16211533">
        <ele>604.578</ele>
        <time>1970-01-01T01:00:00Z</time>
      </trkpt>
      <trkpt lat="63.3844105" lon="13.16207733">
        <ele>604.273</ele>
        <time>1970-01-01T01:00:00Z</time>
      </trkpt>
      <trkpt lat="63.38439517" lon="13.16204017">
        <ele>604.273</ele>
        <time>1970-01-01T01:00:00Z</time>
      </trkpt>
      <trkpt lat="63.38438117" lon="13.1620005">
        <ele>603.816</ele>
        <time>1970-01-01T01:00:00Z</time>
      </trkpt>
      <trkpt lat="63.38436883" lon="13.16195383">
        <ele>603.816</ele>
        <time>1970-01-01T01:00:00Z</time>
      </trkpt>
      <trkpt lat="63.38435717" lon="13.16190583">
        <ele>603.511</ele>
        <time>1970-01-01T01:00:00Z</time>
      </trkpt>
      <trkpt lat="63.3843445" lon="13.161855">
        <ele>603.511</ele>
        <time>1970-01-01T01:00:00Z</time>
      </trkpt>
      <trkpt lat="63.38433333" lon="13.16180383">
        <ele>603.207</ele>
        <time>1970-01-01T01:00:00Z</time>
      </trkpt>
      <trkpt lat="63.38432383" lon="13.1617525">
        <ele>603.207</ele>
        <time>1970-01-01T01:00:00Z</time>
      </trkpt>
      <trkpt lat="63.38431533" lon="13.161703">
        <ele>602.749</ele>
        <time>1970-01-01T01:00:00Z</time>
      </trkpt>
      <trkpt lat="63.38430367" lon="13.161657">
        <ele>602.749</ele>
        <time>1970-01-01T01:00:00Z</time>
      </trkpt>
      <trkpt lat="63.38429017" lon="13.16161317">
        <ele>602.445</ele>
        <time>1970-01-01T01:00:00Z</time>
      </trkpt>
      <trkpt lat="63.3842755" lon="13.16157433">
        <ele>602.445</ele>
        <time>1970-01-01T01:00:00Z</time>
      </trkpt>
      <trkpt lat="63.3842615" lon="13.16153517">
        <ele>601.987</ele>
        <time>1970-01-01T01:00:00Z</time>
      </trkpt>
      <trkpt lat="63.38424767" lon="13.161496">
        <ele>601.987</ele>
        <time>1970-01-01T01:00:00Z</time>
      </trkpt>
      <trkpt lat="63.38423517" lon="13.161457">
        <ele>601.682</ele>
        <time>1970-01-01T01:00:00Z</time>
      </trkpt>
      <trkpt lat="63.38422283" lon="13.16141883">
        <ele>601.682</ele>
        <time>1970-01-01T01:00:00Z</time>
      </trkpt>
      <trkpt lat="63.38421117" lon="13.16137567">
        <ele>601.225</ele>
        <time>1970-01-01T01:00:00Z</time>
      </trkpt>
      <trkpt lat="63.3842" lon="13.1613255">
        <ele>601.225</ele>
        <time>1970-01-01T01:00:00Z</time>
      </trkpt>
      <trkpt lat="63.3841895" lon="13.1612745">
        <ele>600.92</ele>
        <time>1970-01-01T01:00:00Z</time>
      </trkpt>
      <trkpt lat="63.384179" lon="13.16122433">
        <ele>600.92</ele>
        <time>1970-01-01T01:00:00Z</time>
      </trkpt>
      <trkpt lat="63.38416433" lon="13.161173">
        <ele>600.616</ele>
        <time>1970-01-01T01:00:00Z</time>
      </trkpt>
      <trkpt lat="63.38415" lon="13.161121">
        <ele>600.616</ele>
        <time>1970-01-01T01:00:00Z</time>
      </trkpt>
      <trkpt lat="63.384135" lon="13.16107283">
        <ele>600.311</ele>
        <time>1970-01-01T01:00:00Z</time>
      </trkpt>
      <trkpt lat="63.38412167" lon="13.16102867">
        <ele>600.311</ele>
        <time>1970-01-01T01:00:00Z</time>
      </trkpt>
      <trkpt lat="63.38411067" lon="13.16098317">
        <ele>599.854</ele>
        <time>1970-01-01T01:00:00Z</time>
      </trkpt>
      <trkpt lat="63.38409867" lon="13.16093883">
        <ele>599.854</ele>
        <time>1970-01-01T01:00:00Z</time>
      </trkpt>
      <trkpt lat="63.38408067" lon="13.16090267">
        <ele>599.701</ele>
        <time>1970-01-01T01:00:00Z</time>
      </trkpt>
      <trkpt lat="63.38405667" lon="13.16087417">
        <ele>599.701</ele>
        <time>1970-01-01T01:00:00Z</time>
      </trkpt>
      <trkpt lat="63.38403183" lon="13.1608515">
        <ele>599.396</ele>
        <time>1970-01-01T01:00:00Z</time>
      </trkpt>
      <trkpt lat="63.3840125" lon="13.16082883">
        <ele>599.396</ele>
        <time>1970-01-01T01:00:00Z</time>
      </trkpt>
      <trkpt lat="63.383992" lon="13.160806">
        <ele>598.939</ele>
        <time>1970-01-01T01:00:00Z</time>
      </trkpt>
      <trkpt lat="63.38397167" lon="13.16077967">
        <ele>598.939</ele>
        <time>1970-01-01T01:00:00Z</time>
      </trkpt>
      <trkpt lat="63.38395083" lon="13.16075433">
        <ele>598.634</ele>
        <time>1970-01-01T01:00:00Z</time>
      </trkpt>
      <trkpt lat="63.383932" lon="13.1607325">
        <ele>598.634</ele>
        <time>1970-01-01T01:00:00Z</time>
      </trkpt>
      <trkpt lat="63.38390967" lon="13.1607155">
        <ele>598.33</ele>
        <time>1970-01-01T01:00:00Z</time>
      </trkpt>
      <trkpt lat="63.38388717" lon="13.16069433">
        <ele>598.33</ele>
        <time>1970-01-01T01:00:00Z</time>
      </trkpt>
      <trkpt lat="63.38386533" lon="13.16067483">
        <ele>598.025</ele>
        <time>1970-01-01T01:00:00Z</time>
      </trkpt>
      <trkpt lat="63.38384517" lon="13.16064967">
        <ele>598.025</ele>
        <time>1970-01-01T01:00:00Z</time>
      </trkpt>
      <trkpt lat="63.3838255" lon="13.16062933">
        <ele>597.568</ele>
        <time>1970-01-01T01:00:00Z</time>
      </trkpt>
      <trkpt lat="63.383806" lon="13.16060733">
        <ele>597.568</ele>
        <time>1970-01-01T01:00:00Z</time>
      </trkpt>
      <trkpt lat="63.38378767" lon="13.16059133">
        <ele>597.11</ele>
        <time>1970-01-01T01:00:00Z</time>
      </trkpt>
      <trkpt lat="63.38376717" lon="13.16057667">
        <ele>597.11</ele>
        <time>1970-01-01T01:00:00Z</time>
      </trkpt>
      <trkpt lat="63.38374617" lon="13.16056217">
        <ele>596.806</ele>
        <time>1970-01-01T01:00:00Z</time>
      </trkpt>
      <trkpt lat="63.38372333" lon="13.160553">
        <ele>596.806</ele>
        <time>1970-01-01T01:00:00Z</time>
      </trkpt>
      <trkpt lat="63.38369983" lon="13.16053467">
        <ele>596.348</ele>
        <time>1970-01-01T01:00:00Z</time>
      </trkpt>
      <trkpt lat="63.38367483" lon="13.16051867">
        <ele>596.348</ele>
        <time>1970-01-01T01:00:00Z</time>
      </trkpt>
      <trkpt lat="63.38365033" lon="13.160495">
        <ele>595.891</ele>
        <time>1970-01-01T01:00:00Z</time>
      </trkpt>
      <trkpt lat="63.38362983" lon="13.1604735">
        <ele>595.891</ele>
        <time>1970-01-01T01:00:00Z</time>
      </trkpt>
      <trkpt lat="63.3836095" lon="13.160446">
        <ele>595.586</ele>
        <time>1970-01-01T01:00:00Z</time>
      </trkpt>
      <trkpt lat="63.38358933" lon="13.16041633">
        <ele>595.586</ele>
        <time>1970-01-01T01:00:00Z</time>
      </trkpt>
      <trkpt lat="63.38357" lon="13.1603845">
        <ele>595.129</ele>
        <time>1970-01-01T01:00:00Z</time>
      </trkpt>
      <trkpt lat="63.38355233" lon="13.16034683">
        <ele>595.129</ele>
        <time>1970-01-01T01:00:00Z</time>
      </trkpt>
      <trkpt lat="63.38353767" lon="13.16030333">
        <ele>594.672</ele>
        <time>1970-01-01T01:00:00Z</time>
      </trkpt>
      <trkpt lat="63.383523" lon="13.160256">
        <ele>594.672</ele>
        <time>1970-01-01T01:00:00Z</time>
      </trkpt>
      <trkpt lat="63.3835105" lon="13.16021083">
        <ele>594.367</ele>
        <time>1970-01-01T01:00:00Z</time>
      </trkpt>
      <trkpt lat="63.38350117" lon="13.16015883">
        <ele>594.367</ele>
        <time>1970-01-01T01:00:00Z</time>
      </trkpt>
      <trkpt lat="63.38350117" lon="13.16009933">
        <ele>593.91</ele>
        <time>1970-01-01T01:00:00Z</time>
      </trkpt>
      <trkpt lat="63.38351017" lon="13.1600315">
        <ele>593.91</ele>
        <time>1970-01-01T01:00:00Z</time>
      </trkpt>
      <trkpt lat="63.38352617" lon="13.1599695">
        <ele>593.453</ele>
        <time>1970-01-01T01:00:00Z</time>
      </trkpt>
      <trkpt lat="63.38354817" lon="13.15991333">
        <ele>593.453</ele>
        <time>1970-01-01T01:00:00Z</time>
      </trkpt>
      <trkpt lat="63.38357233" lon="13.1598715">
        <ele>593.148</ele>
        <time>1970-01-01T01:00:00Z</time>
      </trkpt>
      <trkpt lat="63.3835995" lon="13.159835">
        <ele>593.148</ele>
        <time>1970-01-01T01:00:00Z</time>
      </trkpt>
      <trkpt lat="63.38362267" lon="13.15980083">
        <ele>592.691</ele>
        <time>1970-01-01T01:00:00Z</time>
      </trkpt>
      <trkpt lat="63.38364583" lon="13.15976267">
        <ele>592.691</ele>
        <time>1970-01-01T01:00:00Z</time>
      </trkpt>
      <trkpt lat="63.3836665" lon="13.15972417">
        <ele>592.081</ele>
        <time>1970-01-01T01:00:00Z</time>
      </trkpt>
      <trkpt lat="63.38368717" lon="13.15968733">
        <ele>592.081</ele>
        <time>1970-01-01T01:00:00Z</time>
      </trkpt>
      <trkpt lat="63.3837085" lon="13.1596505">
        <ele>591.624</ele>
        <time>1970-01-01T01:00:00Z</time>
      </trkpt>
      <trkpt lat="63.3837305" lon="13.159616">
        <ele>591.624</ele>
        <time>1970-01-01T01:00:00Z</time>
      </trkpt>
      <trkpt lat="63.3837515" lon="13.159582">
        <ele>591.167</ele>
        <time>1970-01-01T01:00:00Z</time>
      </trkpt>
      <trkpt lat="63.38377167" lon="13.15954683">
        <ele>591.167</ele>
        <time>1970-01-01T01:00:00Z</time>
      </trkpt>
      <trkpt lat="63.3837915" lon="13.15951183">
        <ele>590.71</ele>
        <time>1970-01-01T01:00:00Z</time>
      </trkpt>
      <trkpt lat="63.38381" lon="13.159477">
        <ele>590.71</ele>
        <time>1970-01-01T01:00:00Z</time>
      </trkpt>
      <trkpt lat="63.383827" lon="13.159436">
        <ele>590.252</ele>
        <time>1970-01-01T01:00:00Z</time>
      </trkpt>
      <trkpt lat="63.38384333" lon="13.15939333">
        <ele>590.252</ele>
        <time>1970-01-01T01:00:00Z</time>
      </trkpt>
      <trkpt lat="63.38385867" lon="13.1593485">
        <ele>589.795</ele>
        <time>1970-01-01T01:00:00Z</time>
      </trkpt>
      <trkpt lat="63.38387417" lon="13.15930333">
        <ele>589.795</ele>
        <time>1970-01-01T01:00:00Z</time>
      </trkpt>
      <trkpt lat="63.383888" lon="13.15925217">
        <ele>589.338</ele>
        <time>1970-01-01T01:00:00Z</time>
      </trkpt>
      <trkpt lat="63.38390067" lon="13.15920133">
        <ele>589.338</ele>
        <time>1970-01-01T01:00:00Z</time>
      </trkpt>
      <trkpt lat="63.38391033" lon="13.1591525">
        <ele>588.881</ele>
        <time>1970-01-01T01:00:00Z</time>
      </trkpt>
      <trkpt lat="63.38391933" lon="13.159102">
        <ele>588.881</ele>
        <time>1970-01-01T01:00:00Z</time>
      </trkpt>
      <trkpt lat="63.38392817" lon="13.15904883">
        <ele>588.424</ele>
        <time>1970-01-01T01:00:00Z</time>
      </trkpt>
      <trkpt lat="63.3839375" lon="13.15899617">
        <ele>588.424</ele>
        <time>1970-01-01T01:00:00Z</time>
      </trkpt>
      <trkpt lat="63.38394617" lon="13.1589455">
        <ele>587.966</ele>
        <time>1970-01-01T01:00:00Z</time>
      </trkpt>
      <trkpt lat="63.38395467" lon="13.1588945">
        <ele>587.966</ele>
        <time>1970-01-01T01:00:00Z</time>
      </trkpt>
      <trkpt lat="63.38396217" lon="13.158842">
        <ele>587.509</ele>
        <time>1970-01-01T01:00:00Z</time>
      </trkpt>
      <trkpt lat="63.3839685" lon="13.15878783">
        <ele>587.509</ele>
        <time>1970-01-01T01:00:00Z</time>
      </trkpt>
      <trkpt lat="63.38397467" lon="13.15872817">
        <ele>587.052</ele>
        <time>1970-01-01T01:00:00Z</time>
      </trkpt>
      <trkpt lat="63.38398067" lon="13.15867017">
        <ele>587.052</ele>
        <time>1970-01-01T01:00:00Z</time>
      </trkpt>
      <trkpt lat="63.38398867" lon="13.15861317">
        <ele>586.442</ele>
        <time>1970-01-01T01:00:00Z</time>
      </trkpt>
      <trkpt lat="63.38399933" lon="13.15856417">
        <ele>586.442</ele>
        <time>1970-01-01T01:00:00Z</time>
      </trkpt>
      <trkpt lat="63.384014" lon="13.158523">
        <ele>585.985</ele>
        <time>1970-01-01T01:00:00Z</time>
      </trkpt>
      <trkpt lat="63.38403083" lon="13.15848717">
        <ele>585.985</ele>
        <time>1970-01-01T01:00:00Z</time>
      </trkpt>
      <trkpt lat="63.38405" lon="13.15845167">
        <ele>585.375</ele>
        <time>1970-01-01T01:00:00Z</time>
      </trkpt>
      <trkpt lat="63.384069" lon="13.15841133">
        <ele>585.375</ele>
        <time>1970-01-01T01:00:00Z</time>
      </trkpt>
      <trkpt lat="63.38408867" lon="13.15837133">
        <ele>584.918</ele>
        <time>1970-01-01T01:00:00Z</time>
      </trkpt>
      <trkpt lat="63.38410867" lon="13.15833383">
        <ele>584.918</ele>
        <time>1970-01-01T01:00:00Z</time>
      </trkpt>
      <trkpt lat="63.38412883" lon="13.15829883">
        <ele>584.461</ele>
        <time>1970-01-01T01:00:00Z</time>
      </trkpt>
      <trkpt lat="63.38414967" lon="13.15826617">
        <ele>584.461</ele>
        <time>1970-01-01T01:00:00Z</time>
      </trkpt>
      <trkpt lat="63.38416933" lon="13.1582335">
        <ele>584.004</ele>
        <time>1970-01-01T01:00:00Z</time>
      </trkpt>
      <trkpt lat="63.38418933" lon="13.15820467">
        <ele>584.004</ele>
        <time>1970-01-01T01:00:00Z</time>
      </trkpt>
      <trkpt lat="63.38420917" lon="13.15817783">
        <ele>583.547</ele>
        <time>1970-01-01T01:00:00Z</time>
      </trkpt>
      <trkpt lat="63.38422967" lon="13.15815333">
        <ele>583.547</ele>
        <time>1970-01-01T01:00:00Z</time>
      </trkpt>
      <trkpt lat="63.38425067" lon="13.158125">
        <ele>583.089</ele>
        <time>1970-01-01T01:00:00Z</time>
      </trkpt>
      <trkpt lat="63.38427117" lon="13.15809417">
        <ele>583.089</ele>
        <time>1970-01-01T01:00:00Z</time>
      </trkpt>
      <trkpt lat="63.38429083" lon="13.15806017">
        <ele>582.632</ele>
        <time>1970-01-01T01:00:00Z</time>
      </trkpt>
      <trkpt lat="63.38431133" lon="13.158029">
        <ele>582.632</ele>
        <time>1970-01-01T01:00:00Z</time>
      </trkpt>
      <trkpt lat="63.38433083" lon="13.15799767">
        <ele>582.175</ele>
        <time>1970-01-01T01:00:00Z</time>
      </trkpt>
      <trkpt lat="63.38434833" lon="13.15796733">
        <ele>582.175</ele>
        <time>1970-01-01T01:00:00Z</time>
      </trkpt>
      <trkpt lat="63.38436467" lon="13.15793183">
        <ele>581.718</ele>
        <time>1970-01-01T01:00:00Z</time>
      </trkpt>
      <trkpt lat="63.38438117" lon="13.15789467">
        <ele>581.718</ele>
        <time>1970-01-01T01:00:00Z</time>
      </trkpt>
      <trkpt lat="63.3843975" lon="13.15785667">
        <ele>581.261</ele>
        <time>1970-01-01T01:00:00Z</time>
      </trkpt>
      <trkpt lat="63.38441183" lon="13.157817">
        <ele>581.261</ele>
        <time>1970-01-01T01:00:00Z</time>
      </trkpt>
      <trkpt lat="63.38442683" lon="13.1577765">
        <ele>580.803</ele>
        <time>1970-01-01T01:00:00Z</time>
      </trkpt>
      <trkpt lat="63.38444217" lon="13.15773433">
        <ele>580.803</ele>
        <time>1970-01-01T01:00:00Z</time>
      </trkpt>
      <trkpt lat="63.384458" lon="13.157691">
        <ele>580.346</ele>
        <time>1970-01-01T01:00:00Z</time>
      </trkpt>
      <trkpt lat="63.384473" lon="13.157643">
        <ele>580.346</ele>
        <time>1970-01-01T01:00:00Z</time>
      </trkpt>
      <trkpt lat="63.38448817" lon="13.15759767">
        <ele>579.889</ele>
        <time>1970-01-01T01:00:00Z</time>
      </trkpt>
      <trkpt lat="63.38450333" lon="13.15755567">
        <ele>579.889</ele>
        <time>1970-01-01T01:00:00Z</time>
      </trkpt>
      <trkpt lat="63.38452083" lon="13.15751717">
        <ele>579.432</ele>
        <time>1970-01-01T01:00:00Z</time>
      </trkpt>
      <trkpt lat="63.38453917" lon="13.15747783">
        <ele>579.432</ele>
        <time>1970-01-01T01:00:00Z</time>
      </trkpt>
      <trkpt lat="63.38455733" lon="13.15743517">
        <ele>578.975</ele>
        <time>1970-01-01T01:00:00Z</time>
      </trkpt>
      <trkpt lat="63.38457433" lon="13.15738933">
        <ele>578.975</ele>
        <time>1970-01-01T01:00:00Z</time>
      </trkpt>
      <trkpt lat="63.38459167" lon="13.1573455">
        <ele>578.517</ele>
        <time>1970-01-01T01:00:00Z</time>
      </trkpt>
      <trkpt lat="63.38460883" lon="13.15730617">
        <ele>578.517</ele>
        <time>1970-01-01T01:00:00Z</time>
      </trkpt>
      <trkpt lat="63.3846245" lon="13.15726983">
        <ele>578.06</ele>
        <time>1970-01-01T01:00:00Z</time>
      </trkpt>
      <trkpt lat="63.384641" lon="13.15723167">
        <ele>578.06</ele>
        <time>1970-01-01T01:00:00Z</time>
      </trkpt>
      <trkpt lat="63.3846575" lon="13.15719167">
        <ele>577.603</ele>
        <time>1970-01-01T01:00:00Z</time>
      </trkpt>
      <trkpt lat="63.38467717" lon="13.15715833">
        <ele>577.603</ele>
        <time>1970-01-01T01:00:00Z</time>
      </trkpt>
      <trkpt lat="63.38470017" lon="13.15712967">
        <ele>577.298</ele>
        <time>1970-01-01T01:00:00Z</time>
      </trkpt>
      <trkpt lat="63.3847255" lon="13.15710567">
        <ele>577.298</ele>
        <time>1970-01-01T01:00:00Z</time>
      </trkpt>
      <trkpt lat="63.38475033" lon="13.157086">
        <ele>576.841</ele>
        <time>1970-01-01T01:00:00Z</time>
      </trkpt>
      <trkpt lat="63.384775" lon="13.15707617">
        <ele>576.841</ele>
        <time>1970-01-01T01:00:00Z</time>
      </trkpt>
      <trkpt lat="63.38480133" lon="13.1570735">
        <ele>576.536</ele>
        <time>1970-01-01T01:00:00Z</time>
      </trkpt>
      <trkpt lat="63.384829" lon="13.15707183">
        <ele>576.536</ele>
        <time>1970-01-01T01:00:00Z</time>
      </trkpt>
      <trkpt lat="63.38485633" lon="13.15707067">
        <ele>576.079</ele>
        <time>1970-01-01T01:00:00Z</time>
      </trkpt>
      <trkpt lat="63.38488317" lon="13.15707383">
        <ele>576.079</ele>
        <time>1970-01-01T01:00:00Z</time>
      </trkpt>
      <trkpt lat="63.38490817" lon="13.15708167">
        <ele>575.774</ele>
        <time>1970-01-01T01:00:00Z</time>
      </trkpt>
      <trkpt lat="63.3849335" lon="13.1570935">
        <ele>575.774</ele>
        <time>1970-01-01T01:00:00Z</time>
      </trkpt>
      <trkpt lat="63.38495817" lon="13.15710967">
        <ele>575.317</ele>
        <time>1970-01-01T01:00:00Z</time>
      </trkpt>
      <trkpt lat="63.38498283" lon="13.1571325">
        <ele>575.317</ele>
        <time>1970-01-01T01:00:00Z</time>
      </trkpt>
      <trkpt lat="63.38500467" lon="13.15715383">
        <ele>575.012</ele>
        <time>1970-01-01T01:00:00Z</time>
      </trkpt>
      <trkpt lat="63.3850255" lon="13.15718067">
        <ele>575.012</ele>
        <time>1970-01-01T01:00:00Z</time>
      </trkpt>
      <trkpt lat="63.3850455" lon="13.15721617">
        <ele>574.707</ele>
        <time>1970-01-01T01:00:00Z</time>
      </trkpt>
      <trkpt lat="63.38506583" lon="13.15725933">
        <ele>574.707</ele>
        <time>1970-01-01T01:00:00Z</time>
      </trkpt>
      <trkpt lat="63.3850865" lon="13.15730183">
        <ele>574.25</ele>
        <time>1970-01-01T01:00:00Z</time>
      </trkpt>
      <trkpt lat="63.385107" lon="13.15734217">
        <ele>574.25</ele>
        <time>1970-01-01T01:00:00Z</time>
      </trkpt>
      <trkpt lat="63.38512533" lon="13.157381">
        <ele>573.945</ele>
        <time>1970-01-01T01:00:00Z</time>
      </trkpt>
      <trkpt lat="63.38514317" lon="13.15741983">
        <ele>573.945</ele>
        <time>1970-01-01T01:00:00Z</time>
      </trkpt>
      <trkpt lat="63.38516133" lon="13.15745683">
        <ele>573.488</ele>
        <time>1970-01-01T01:00:00Z</time>
      </trkpt>
      <trkpt lat="63.38517933" lon="13.15749667">
        <ele>573.488</ele>
        <time>1970-01-01T01:00:00Z</time>
      </trkpt>
      <trkpt lat="63.38519583" lon="13.15753783">
        <ele>573.183</ele>
        <time>1970-01-01T01:00:00Z</time>
      </trkpt>
      <trkpt lat="63.3852125" lon="13.15758183">
        <ele>573.183</ele>
        <time>1970-01-01T01:00:00Z</time>
      </trkpt>
      <trkpt lat="63.38523" lon="13.15762617">
        <ele>572.726</ele>
        <time>1970-01-01T01:00:00Z</time>
      </trkpt>
      <trkpt lat="63.38524767" lon="13.15767067">
        <ele>572.726</ele>
        <time>1970-01-01T01:00:00Z</time>
      </trkpt>
      <trkpt lat="63.38526517" lon="13.15771333">
        <ele>572.269</ele>
        <time>1970-01-01T01:00:00Z</time>
      </trkpt>
      <trkpt lat="63.38528183" lon="13.15775533">
        <ele>572.269</ele>
        <time>1970-01-01T01:00:00Z</time>
      </trkpt>
      <trkpt lat="63.38529833" lon="13.15779483">
        <ele>571.964</ele>
        <time>1970-01-01T01:00:00Z</time>
      </trkpt>
      <trkpt lat="63.38531533" lon="13.157833">
        <ele>571.964</ele>
        <time>1970-01-01T01:00:00Z</time>
      </trkpt>
      <trkpt lat="63.38533267" lon="13.15787083">
        <ele>571.507</ele>
        <time>1970-01-01T01:00:00Z</time>
      </trkpt>
      <trkpt lat="63.38535033" lon="13.15790733">
        <ele>571.507</ele>
        <time>1970-01-01T01:00:00Z</time>
      </trkpt>
      <trkpt lat="63.38536767" lon="13.157945">
        <ele>571.202</ele>
        <time>1970-01-01T01:00:00Z</time>
      </trkpt>
      <trkpt lat="63.38538567" lon="13.15798267">
        <ele>571.202</ele>
        <time>1970-01-01T01:00:00Z</time>
      </trkpt>
      <trkpt lat="63.3854035" lon="13.1580225">
        <ele>570.745</ele>
        <time>1970-01-01T01:00:00Z</time>
      </trkpt>
      <trkpt lat="63.38542067" lon="13.15806133">
        <ele>570.745</ele>
        <time>1970-01-01T01:00:00Z</time>
      </trkpt>
      <trkpt lat="63.38543967" lon="13.15809667">
        <ele>570.44</ele>
        <time>1970-01-01T01:00:00Z</time>
      </trkpt>
      <trkpt lat="63.3854605" lon="13.158131">
        <ele>570.44</ele>
        <time>1970-01-01T01:00:00Z</time>
      </trkpt>
      <trkpt lat="63.38548233" lon="13.15815917">
        <ele>569.983</ele>
        <time>1970-01-01T01:00:00Z</time>
      </trkpt>
      <trkpt lat="63.38550433" lon="13.15818533">
        <ele>569.983</ele>
        <time>1970-01-01T01:00:00Z</time>
      </trkpt>
      <trkpt lat="63.38552667" lon="13.1582095">
        <ele>569.526</ele>
        <time>1970-01-01T01:00:00Z</time>
      </trkpt>
      <trkpt lat="63.3855495" lon="13.15823267">
        <ele>569.526</ele>
        <time>1970-01-01T01:00:00Z</time>
      </trkpt>
      <trkpt lat="63.38557017" lon="13.1582555">
        <ele>569.221</ele>
        <time>1970-01-01T01:00:00Z</time>
      </trkpt>
      <trkpt lat="63.38559067" lon="13.15826833">
        <ele>569.221</ele>
        <time>1970-01-01T01:00:00Z</time>
      </trkpt>
      <trkpt lat="63.3856115" lon="13.15826817">
        <ele>568.764</ele>
        <time>1970-01-01T01:00:00Z</time>
      </trkpt>
      <trkpt lat="63.38563217" lon="13.158253">
        <ele>568.764</ele>
        <time>1970-01-01T01:00:00Z</time>
      </trkpt>
      <trkpt lat="63.38565217" lon="13.15822783">
        <ele>568.307</ele>
        <time>1970-01-01T01:00:00Z</time>
      </trkpt>
      <trkpt lat="63.385669" lon="13.15819733">
        <ele>568.307</ele>
        <time>1970-01-01T01:00:00Z</time>
      </trkpt>
      <trkpt lat="63.38568283" lon="13.15816317">
        <ele>567.697</ele>
        <time>1970-01-01T01:00:00Z</time>
      </trkpt>
      <trkpt lat="63.3856915" lon="13.15812517">
        <ele>567.697</ele>
        <time>1970-01-01T01:00:00Z</time>
      </trkpt>
      <trkpt lat="63.3856965" lon="13.158079">
        <ele>567.24</ele>
        <time>1970-01-01T01:00:00Z</time>
      </trkpt>
      <trkpt lat="63.3857015" lon="13.1580275">
        <ele>567.24</ele>
        <time>1970-01-01T01:00:00Z</time>
      </trkpt>
      <trkpt lat="63.3857055" lon="13.1579825">
        <ele>566.63</ele>
        <time>1970-01-01T01:00:00Z</time>
      </trkpt>
      <trkpt lat="63.38571017" lon="13.15796067">
        <ele>566.63</ele>
        <time>1970-01-01T01:00:00Z</time>
      </trkpt>
      <trkpt lat="63.38571383" lon="13.157954">
        <ele>566.02</ele>
        <time>1970-01-01T01:00:00Z</time>
      </trkpt>
      <trkpt lat="63.3857185" lon="13.157952">
        <ele>566.02</ele>
        <time>1970-01-01T01:00:00Z</time>
      </trkpt>
      <trkpt lat="63.38572333" lon="13.15794267">
        <ele>565.411</ele>
        <time>1970-01-01T01:00:00Z</time>
      </trkpt>
      <trkpt lat="63.38572817" lon="13.15793117">
        <ele>565.411</ele>
        <time>1970-01-01T01:00:00Z</time>
      </trkpt>
      <trkpt lat="63.385732" lon="13.15792217">
        <ele>564.954</ele>
        <time>1970-01-01T01:00:00Z</time>
      </trkpt>
      <trkpt lat="63.38573583" lon="13.15791417">
        <ele>564.954</ele>
        <time>1970-01-01T01:00:00Z</time>
      </trkpt>
      <trkpt lat="63.38574133" lon="13.157901">
        <ele>564.496</ele>
        <time>1970-01-01T01:00:00Z</time>
      </trkpt>
      <trkpt lat="63.38574883" lon="13.15788283">
        <ele>564.496</ele>
        <time>1970-01-01T01:00:00Z</time>
      </trkpt>
      <trkpt lat="63.38575883" lon="13.157862">
        <ele>564.039</ele>
        <time>1970-01-01T01:00:00Z</time>
      </trkpt>
      <trkpt lat="63.3857685" lon="13.15784417">
        <ele>564.039</ele>
        <time>1970-01-01T01:00:00Z</time>
      </trkpt>
      <trkpt lat="63.38578117" lon="13.1578255">
        <ele>563.582</ele>
        <time>1970-01-01T01:00:00Z</time>
      </trkpt>
      <trkpt lat="63.385794" lon="13.15780517">
        <ele>563.582</ele>
        <time>1970-01-01T01:00:00Z</time>
      </trkpt>
      <trkpt lat="63.38580717" lon="13.15778233">
        <ele>563.125</ele>
        <time>1970-01-01T01:00:00Z</time>
      </trkpt>
      <trkpt lat="63.38581933" lon="13.15775667">
        <ele>563.125</ele>
        <time>1970-01-01T01:00:00Z</time>
      </trkpt>
      <trkpt lat="63.385831" lon="13.15773">
        <ele>562.82</ele>
        <time>1970-01-01T01:00:00Z</time>
      </trkpt>
      <trkpt lat="63.38584133" lon="13.15770267">
        <ele>562.82</ele>
        <time>1970-01-01T01:00:00Z</time>
      </trkpt>
      <trkpt lat="63.38584833" lon="13.15767917">
        <ele>562.363</ele>
        <time>1970-01-01T01:00:00Z</time>
      </trkpt>
      <trkpt lat="63.38585267" lon="13.15765783">
        <ele>562.363</ele>
        <time>1970-01-01T01:00:00Z</time>
      </trkpt>
      <trkpt lat="63.3858565" lon="13.1576395">
        <ele>562.058</ele>
        <time>1970-01-01T01:00:00Z</time>
      </trkpt>
      <trkpt lat="63.38586133" lon="13.15762267">
        <ele>562.058</ele>
        <time>1970-01-01T01:00:00Z</time>
      </trkpt>
      <trkpt lat="63.38586833" lon="13.15761183">
        <ele>561.753</ele>
        <time>1970-01-01T01:00:00Z</time>
      </trkpt>
      <trkpt lat="63.385876" lon="13.1576075">
        <ele>561.753</ele>
        <time>1970-01-01T01:00:00Z</time>
      </trkpt>
      <trkpt lat="63.385884" lon="13.1576025">
        <ele>561.296</ele>
        <time>1970-01-01T01:00:00Z</time>
      </trkpt>
      <trkpt lat="63.38589217" lon="13.15759317">
        <ele>561.296</ele>
        <time>1970-01-01T01:00:00Z</time>
      </trkpt>
      <trkpt lat="63.38590067" lon="13.15757483">
        <ele>560.991</ele>
        <time>1970-01-01T01:00:00Z</time>
      </trkpt>
      <trkpt lat="63.38590933" lon="13.15754983">
        <ele>560.991</ele>
        <time>1970-01-01T01:00:00Z</time>
      </trkpt>
      <trkpt lat="63.3859195" lon="13.157517">
        <ele>560.839</ele>
        <time>1970-01-01T01:00:00Z</time>
      </trkpt>
      <trkpt lat="63.38593167" lon="13.15748333">
        <ele>560.839</ele>
        <time>1970-01-01T01:00:00Z</time>
      </trkpt>
      <trkpt lat="63.38594717" lon="13.157446">
        <ele>560.534</ele>
        <time>1970-01-01T01:00:00Z</time>
      </trkpt>
      <trkpt lat="63.38596433" lon="13.157411">
        <ele>560.534</ele>
        <time>1970-01-01T01:00:00Z</time>
      </trkpt>
      <trkpt lat="63.38598417" lon="13.15737217">
        <ele>560.382</ele>
        <time>1970-01-01T01:00:00Z</time>
      </trkpt>
      <trkpt lat="63.38600533" lon="13.15733083">
        <ele>560.382</ele>
        <time>1970-01-01T01:00:00Z</time>
      </trkpt>
      <trkpt lat="63.38602717" lon="13.157289">
        <ele>560.077</ele>
        <time>1970-01-01T01:00:00Z</time>
      </trkpt>
      <trkpt lat="63.38604967" lon="13.15724967">
        <ele>560.077</ele>
        <time>1970-01-01T01:00:00Z</time>
      </trkpt>
      <trkpt lat="63.3860725" lon="13.157216">
        <ele>559.924</ele>
        <time>1970-01-01T01:00:00Z</time>
      </trkpt>
      <trkpt lat="63.38609633" lon="13.15718517">
        <ele>559.924</ele>
        <time>1970-01-01T01:00:00Z</time>
      </trkpt>
      <trkpt lat="63.38612033" lon="13.1571545">
        <ele>559.772</ele>
        <time>1970-01-01T01:00:00Z</time>
      </trkpt>
      <trkpt lat="63.38614383" lon="13.157127">
        <ele>559.772</ele>
        <time>1970-01-01T01:00:00Z</time>
      </trkpt>
      <trkpt lat="63.38616617" lon="13.15710583">
        <ele>559.467</ele>
        <time>1970-01-01T01:00:00Z</time>
      </trkpt>
      <trkpt lat="63.38619083" lon="13.157087">
        <ele>559.467</ele>
        <time>1970-01-01T01:00:00Z</time>
      </trkpt>
      <trkpt lat="63.38621683" lon="13.1570755">
        <ele>559.315</ele>
        <time>1970-01-01T01:00:00Z</time>
      </trkpt>
      <trkpt lat="63.3862435" lon="13.157058">
        <ele>559.315</ele>
        <time>1970-01-01T01:00:00Z</time>
      </trkpt>
      <trkpt lat="63.38626867" lon="13.15703783">
        <ele>559.162</ele>
        <time>1970-01-01T01:00:00Z</time>
      </trkpt>
      <trkpt lat="63.38629417" lon="13.1570145">
        <ele>559.162</ele>
        <time>1970-01-01T01:00:00Z</time>
      </trkpt>
      <trkpt lat="63.38631967" lon="13.15699133">
        <ele>558.858</ele>
        <time>1970-01-01T01:00:00Z</time>
      </trkpt>
      <trkpt lat="63.38634567" lon="13.15696833">
        <ele>558.858</ele>
        <time>1970-01-01T01:00:00Z</time>
      </trkpt>
      <trkpt lat="63.38637017" lon="13.15694267">
        <ele>558.705</ele>
        <time>1970-01-01T01:00:00Z</time>
      </trkpt>
      <trkpt lat="63.38639583" lon="13.15691617">
        <ele>558.705</ele>
        <time>1970-01-01T01:00:00Z</time>
      </trkpt>
      <trkpt lat="63.38642117" lon="13.1568925">
        <ele>558.4</ele>
        <time>1970-01-01T01:00:00Z</time>
      </trkpt>
      <trkpt lat="63.38644683" lon="13.15687017">
        <ele>558.4</ele>
        <time>1970-01-01T01:00:00Z</time>
      </trkpt>
      <trkpt lat="63.3864725" lon="13.15685367">
        <ele>558.248</ele>
        <time>1970-01-01T01:00:00Z</time>
      </trkpt>
      <trkpt lat="63.38649817" lon="13.15684267">
        <ele>558.248</ele>
        <time>1970-01-01T01:00:00Z</time>
      </trkpt>
      <trkpt lat="63.38652317" lon="13.15683583">
        <ele>557.943</ele>
        <time>1970-01-01T01:00:00Z</time>
      </trkpt>
      <trkpt lat="63.38654717" lon="13.156834">
        <ele>557.943</ele>
        <time>1970-01-01T01:00:00Z</time>
      </trkpt>
      <trkpt lat="63.38657033" lon="13.1568325">
        <ele>557.638</ele>
        <time>1970-01-01T01:00:00Z</time>
      </trkpt>
      <trkpt lat="63.38659283" lon="13.15682967">
        <ele>557.638</ele>
        <time>1970-01-01T01:00:00Z</time>
      </trkpt>
      <trkpt lat="63.38661567" lon="13.156822">
        <ele>557.334</ele>
        <time>1970-01-01T01:00:00Z</time>
      </trkpt>
      <trkpt lat="63.38663967" lon="13.15681683">
        <ele>557.334</ele>
        <time>1970-01-01T01:00:00Z</time>
      </trkpt>
      <trkpt lat="63.38666367" lon="13.1568135">
        <ele>557.029</ele>
        <time>1970-01-01T01:00:00Z</time>
      </trkpt>
      <trkpt lat="63.38668917" lon="13.156812">
        <ele>557.029</ele>
        <time>1970-01-01T01:00:00Z</time>
      </trkpt>
      <trkpt lat="63.38671317" lon="13.15681067">
        <ele>556.876</ele>
        <time>1970-01-01T01:00:00Z</time>
      </trkpt>
      <trkpt lat="63.38673667" lon="13.15681083">
        <ele>556.876</ele>
        <time>1970-01-01T01:00:00Z</time>
      </trkpt>
      <trkpt lat="63.38676183" lon="13.15680767">
        <ele>556.572</ele>
        <time>1970-01-01T01:00:00Z</time>
      </trkpt>
      <trkpt lat="63.38678733" lon="13.15680167">
        <ele>556.572</ele>
        <time>1970-01-01T01:00:00Z</time>
      </trkpt>
      <trkpt lat="63.38681317" lon="13.15679417">
        <ele>556.267</ele>
        <time>1970-01-01T01:00:00Z</time>
      </trkpt>
      <trkpt lat="63.386838" lon="13.15678833">
        <ele>556.267</ele>
        <time>1970-01-01T01:00:00Z</time>
      </trkpt>
      <trkpt lat="63.38686167" lon="13.15678383">
        <ele>556.114</ele>
        <time>1970-01-01T01:00:00Z</time>
      </trkpt>
      <trkpt lat="63.38688633" lon="13.15677817">
        <ele>556.114</ele>
        <time>1970-01-01T01:00:00Z</time>
      </trkpt>
      <trkpt lat="63.38691017" lon="13.156772">
        <ele>555.81</ele>
        <time>1970-01-01T01:00:00Z</time>
      </trkpt>
      <trkpt lat="63.38693383" lon="13.15676633">
        <ele>555.81</ele>
        <time>1970-01-01T01:00:00Z</time>
      </trkpt>
      <trkpt lat="63.386958" lon="13.1567605">
        <ele>555.657</ele>
        <time>1970-01-01T01:00:00Z</time>
      </trkpt>
      <trkpt lat="63.38698283" lon="13.15675567">
        <ele>555.657</ele>
        <time>1970-01-01T01:00:00Z</time>
      </trkpt>
      <trkpt lat="63.38700883" lon="13.15674733">
        <ele>555.505</ele>
        <time>1970-01-01T01:00:00Z</time>
      </trkpt>
      <trkpt lat="63.38703517" lon="13.1567375">
        <ele>555.505</ele>
        <time>1970-01-01T01:00:00Z</time>
      </trkpt>
      <trkpt lat="63.38706033" lon="13.15672833">
        <ele>555.352</ele>
        <time>1970-01-01T01:00:00Z</time>
      </trkpt>
      <trkpt lat="63.387083" lon="13.156723">
        <ele>555.352</ele>
        <time>1970-01-01T01:00:00Z</time>
      </trkpt>
      <trkpt lat="63.3871045" lon="13.15671867">
        <ele>555.2</ele>
        <time>1970-01-01T01:00:00Z</time>
      </trkpt>
      <trkpt lat="63.387126" lon="13.156714">
        <ele>555.2</ele>
        <time>1970-01-01T01:00:00Z</time>
      </trkpt>
      <trkpt lat="63.38714867" lon="13.15670683">
        <ele>555.048</ele>
        <time>1970-01-01T01:00:00Z</time>
      </trkpt>
      <trkpt lat="63.38717133" lon="13.15670067">
        <ele>555.048</ele>
        <time>1970-01-01T01:00:00Z</time>
      </trkpt>
      <trkpt lat="63.3871935" lon="13.15669333">
        <ele>554.743</ele>
        <time>1970-01-01T01:00:00Z</time>
      </trkpt>
      <trkpt lat="63.387216" lon="13.15668533">
        <ele>554.743</ele>
        <time>1970-01-01T01:00:00Z</time>
      </trkpt>
      <trkpt lat="63.387239" lon="13.156676">
        <ele>554.59</ele>
        <time>1970-01-01T01:00:00Z</time>
      </trkpt>
      <trkpt lat="63.38726133" lon="13.156666">
        <ele>554.59</ele>
        <time>1970-01-01T01:00:00Z</time>
      </trkpt>
      <trkpt lat="63.38728317" lon="13.15665467">
        <ele>554.438</ele>
        <time>1970-01-01T01:00:00Z</time>
      </trkpt>
      <trkpt lat="63.3873045" lon="13.15664083">
        <ele>554.438</ele>
        <time>1970-01-01T01:00:00Z</time>
      </trkpt>
      <trkpt lat="63.38732467" lon="13.15662967">
        <ele>554.286</ele>
        <time>1970-01-01T01:00:00Z</time>
      </trkpt>
      <trkpt lat="63.38734433" lon="13.1566205">
        <ele>554.286</ele>
        <time>1970-01-01T01:00:00Z</time>
      </trkpt>
      <trkpt lat="63.38736483" lon="13.1566125">
        <ele>554.133</ele>
        <time>1970-01-01T01:00:00Z</time>
      </trkpt>
      <trkpt lat="63.3873865" lon="13.15660283">
        <ele>554.133</ele>
        <time>1970-01-01T01:00:00Z</time>
      </trkpt>
      <trkpt lat="63.38740983" lon="13.156592">
        <ele>553.981</ele>
        <time>1970-01-01T01:00:00Z</time>
      </trkpt>
      <trkpt lat="63.38743283" lon="13.156582">
        <ele>553.981</ele>
        <time>1970-01-01T01:00:00Z</time>
      </trkpt>
      <trkpt lat="63.387456" lon="13.156572">
        <ele>553.828</ele>
        <time>1970-01-01T01:00:00Z</time>
      </trkpt>
      <trkpt lat="63.3874785" lon="13.15656117">
        <ele>553.828</ele>
        <time>1970-01-01T01:00:00Z</time>
      </trkpt>
      <trkpt lat="63.38750067" lon="13.15654883">
        <ele>553.676</ele>
        <time>1970-01-01T01:00:00Z</time>
      </trkpt>
      <trkpt lat="63.387521" lon="13.15653283">
        <ele>553.676</ele>
        <time>1970-01-01T01:00:00Z</time>
      </trkpt>
      <trkpt lat="63.38754017" lon="13.15650933">
        <ele>553.523</ele>
        <time>1970-01-01T01:00:00Z</time>
      </trkpt>
      <trkpt lat="63.3875545" lon="13.156479">
        <ele>553.523</ele>
        <time>1970-01-01T01:00:00Z</time>
      </trkpt>
      <trkpt lat="63.38756683" lon="13.1564445">
        <ele>553.371</ele>
        <time>1970-01-01T01:00:00Z</time>
      </trkpt>
      <trkpt lat="63.3875755" lon="13.15640483">
        <ele>553.371</ele>
        <time>1970-01-01T01:00:00Z</time>
      </trkpt>
      <trkpt lat="63.38758367" lon="13.15636533">
        <ele>553.371</ele>
        <time>1970-01-01T01:00:00Z</time>
      </trkpt>
      <trkpt lat="63.38759167" lon="13.15632567">
        <ele>553.371</ele>
        <time>1970-01-01T01:00:00Z</time>
      </trkpt>
      <trkpt lat="63.3876" lon="13.15628983">
        <ele>553.219</ele>
        <time>1970-01-01T01:00:00Z</time>
      </trkpt>
      <trkpt lat="63.38760817" lon="13.15624833">
        <ele>553.219</ele>
        <time>1970-01-01T01:00:00Z</time>
      </trkpt>
      <trkpt lat="63.38761517" lon="13.15620467">
        <ele>553.066</ele>
        <time>1970-01-01T01:00:00Z</time>
      </trkpt>
      <trkpt lat="63.38762617" lon="13.1561625">
        <ele>553.066</ele>
        <time>1970-01-01T01:00:00Z</time>
      </trkpt>
      <trkpt lat="63.387644" lon="13.1561265">
        <ele>552.914</ele>
        <time>1970-01-01T01:00:00Z</time>
      </trkpt>
      <trkpt lat="63.3876655" lon="13.156095">
        <ele>552.914</ele>
        <time>1970-01-01T01:00:00Z</time>
      </trkpt>
      <trkpt lat="63.38768717" lon="13.156066">
        <ele>552.761</ele>
        <time>1970-01-01T01:00:00Z</time>
      </trkpt>
      <trkpt lat="63.3877055" lon="13.156036">
        <ele>552.761</ele>
        <time>1970-01-01T01:00:00Z</time>
      </trkpt>
      <trkpt lat="63.38772383" lon="13.15600633">
        <ele>552.609</ele>
        <time>1970-01-01T01:00:00Z</time>
      </trkpt>
      <trkpt lat="63.38774283" lon="13.15597833">
        <ele>552.609</ele>
        <time>1970-01-01T01:00:00Z</time>
      </trkpt>
      <trkpt lat="63.38776183" lon="13.15594967">
        <ele>552.457</ele>
        <time>1970-01-01T01:00:00Z</time>
      </trkpt>
      <trkpt lat="63.38778217" lon="13.15592033">
        <ele>552.457</ele>
        <time>1970-01-01T01:00:00Z</time>
      </trkpt>
      <trkpt lat="63.38780183" lon="13.15588967">
        <ele>552.304</ele>
        <time>1970-01-01T01:00:00Z</time>
      </trkpt>
      <trkpt lat="63.38782217" lon="13.15586283">
        <ele>552.304</ele>
        <time>1970-01-01T01:00:00Z</time>
      </trkpt>
      <trkpt lat="63.38784217" lon="13.15583433">
        <ele>552.152</ele>
        <time>1970-01-01T01:00:00Z</time>
      </trkpt>
      <trkpt lat="63.38786167" lon="13.15580583">
        <ele>552.152</ele>
        <time>1970-01-01T01:00:00Z</time>
      </trkpt>
      <trkpt lat="63.38788017" lon="13.15577483">
        <ele>552</ele>
        <time>1970-01-01T01:00:00Z</time>
      </trkpt>
      <trkpt lat="63.38789917" lon="13.15574267">
        <ele>552</ele>
        <time>1970-01-01T01:00:00Z</time>
      </trkpt>
      <trkpt lat="63.38791817" lon="13.15571233">
        <ele>551.847</ele>
        <time>1970-01-01T01:00:00Z</time>
      </trkpt>
      <trkpt lat="63.38793767" lon="13.15568467">
        <ele>551.847</ele>
        <time>1970-01-01T01:00:00Z</time>
      </trkpt>
      <trkpt lat="63.387957" lon="13.15566033">
        <ele>551.695</ele>
        <time>1970-01-01T01:00:00Z</time>
      </trkpt>
      <trkpt lat="63.38797717" lon="13.15563533">
        <ele>551.695</ele>
        <time>1970-01-01T01:00:00Z</time>
      </trkpt>
      <trkpt lat="63.38799517" lon="13.1556075">
        <ele>551.542</ele>
        <time>1970-01-01T01:00:00Z</time>
      </trkpt>
      <trkpt lat="63.38801217" lon="13.1555755">
        <ele>551.542</ele>
        <time>1970-01-01T01:00:00Z</time>
      </trkpt>
      <trkpt lat="63.38802717" lon="13.15553633">
        <ele>551.39</ele>
        <time>1970-01-01T01:00:00Z</time>
      </trkpt>
      <trkpt lat="63.3880415" lon="13.1554985">
        <ele>551.39</ele>
        <time>1970-01-01T01:00:00Z</time>
      </trkpt>
      <trkpt lat="63.3880545" lon="13.15545967">
        <ele>551.237</ele>
        <time>1970-01-01T01:00:00Z</time>
      </trkpt>
      <trkpt lat="63.388066" lon="13.1554195">
        <ele>551.237</ele>
        <time>1970-01-01T01:00:00Z</time>
      </trkpt>
      <trkpt lat="63.38807567" lon="13.155374">
        <ele>551.085</ele>
        <time>1970-01-01T01:00:00Z</time>
      </trkpt>
      <trkpt lat="63.38808233" lon="13.15532733">
        <ele>551.085</ele>
        <time>1970-01-01T01:00:00Z</time>
      </trkpt>
      <trkpt lat="63.3880835" lon="13.1552775">
        <ele>550.933</ele>
        <time>1970-01-01T01:00:00Z</time>
      </trkpt>
      <trkpt lat="63.388079" lon="13.15522367">
        <ele>550.933</ele>
        <time>1970-01-01T01:00:00Z</time>
      </trkpt>
      <trkpt lat="63.38807067" lon="13.15517333">
        <ele>550.78</ele>
        <time>1970-01-01T01:00:00Z</time>
      </trkpt>
      <trkpt lat="63.388063" lon="13.1551315">
        <ele>550.78</ele>
        <time>1970-01-01T01:00:00Z</time>
      </trkpt>
      <trkpt lat="63.38805267" lon="13.155094">
        <ele>550.628</ele>
        <time>1970-01-01T01:00:00Z</time>
      </trkpt>
      <trkpt lat="63.38804183" lon="13.15505417">
        <ele>550.628</ele>
        <time>1970-01-01T01:00:00Z</time>
      </trkpt>
      <trkpt lat="63.3880295" lon="13.15501167">
        <ele>550.323</ele>
        <time>1970-01-01T01:00:00Z</time>
      </trkpt>
      <trkpt lat="63.388021" lon="13.15496917">
        <ele>550.323</ele>
        <time>1970-01-01T01:00:00Z</time>
      </trkpt>
      <trkpt lat="63.38801233" lon="13.154927">
        <ele>550.171</ele>
        <time>1970-01-01T01:00:00Z</time>
      </trkpt>
      <trkpt lat="63.38800267" lon="13.15488583">
        <ele>550.171</ele>
        <time>1970-01-01T01:00:00Z</time>
      </trkpt>
      <trkpt lat="63.3879915" lon="13.15484617">
        <ele>549.866</ele>
        <time>1970-01-01T01:00:00Z</time>
      </trkpt>
      <trkpt lat="63.38797883" lon="13.15480683">
        <ele>549.866</ele>
        <time>1970-01-01T01:00:00Z</time>
      </trkpt>
      <trkpt lat="63.38796567" lon="13.15477117">
        <ele>549.713</ele>
        <time>1970-01-01T01:00:00Z</time>
      </trkpt>
      <trkpt lat="63.387953" lon="13.154735">
        <ele>549.713</ele>
        <time>1970-01-01T01:00:00Z</time>
      </trkpt>
      <trkpt lat="63.38794283" lon="13.15469717">
        <ele>549.409</ele>
        <time>1970-01-01T01:00:00Z</time>
      </trkpt>
      <trkpt lat="63.3879365" lon="13.15465333">
        <ele>549.409</ele>
        <time>1970-01-01T01:00:00Z</time>
      </trkpt>
      <trkpt lat="63.38793167" lon="13.1546095">
        <ele>549.104</ele>
        <time>1970-01-01T01:00:00Z</time>
      </trkpt>
      <trkpt lat="63.38792717" lon="13.1545615">
        <ele>549.104</ele>
        <time>1970-01-01T01:00:00Z</time>
      </trkpt>
      <trkpt lat="63.3879215" lon="13.15450967">
        <ele>548.799</ele>
        <time>1970-01-01T01:00:00Z</time>
      </trkpt>
      <trkpt lat="63.38791517" lon="13.1544555">
        <ele>548.799</ele>
        <time>1970-01-01T01:00:00Z</time>
      </trkpt>
      <trkpt lat="63.38790867" lon="13.15440583">
        <ele>548.494</ele>
        <time>1970-01-01T01:00:00Z</time>
      </trkpt>
      <trkpt lat="63.38790133" lon="13.15436017">
        <ele>548.494</ele>
        <time>1970-01-01T01:00:00Z</time>
      </trkpt>
      <trkpt lat="63.38789433" lon="13.15431417">
        <ele>548.189</ele>
        <time>1970-01-01T01:00:00Z</time>
      </trkpt>
      <trkpt lat="63.387887" lon="13.15426167">
        <ele>548.189</ele>
        <time>1970-01-01T01:00:00Z</time>
      </trkpt>
      <trkpt lat="63.38787967" lon="13.15420717">
        <ele>547.885</ele>
        <time>1970-01-01T01:00:00Z</time>
      </trkpt>
      <trkpt lat="63.38787183" lon="13.15414967">
        <ele>547.885</ele>
        <time>1970-01-01T01:00:00Z</time>
      </trkpt>
      <trkpt lat="63.387864" lon="13.1540955">
        <ele>547.58</ele>
        <time>1970-01-01T01:00:00Z</time>
      </trkpt>
      <trkpt lat="63.38785683" lon="13.15403967">
        <ele>547.58</ele>
        <time>1970-01-01T01:00:00Z</time>
      </trkpt>
      <trkpt lat="63.38785067" lon="13.15398483">
        <ele>547.275</ele>
        <time>1970-01-01T01:00:00Z</time>
      </trkpt>
      <trkpt lat="63.3878455" lon="13.153929">
        <ele>547.275</ele>
        <time>1970-01-01T01:00:00Z</time>
      </trkpt>
      <trkpt lat="63.38784" lon="13.15387167">
        <ele>546.818</ele>
        <time>1970-01-01T01:00:00Z</time>
      </trkpt>
      <trkpt lat="63.38783433" lon="13.15380833">
        <ele>546.818</ele>
        <time>1970-01-01T01:00:00Z</time>
      </trkpt>
      <trkpt lat="63.387828" lon="13.153746">
        <ele>546.513</ele>
        <time>1970-01-01T01:00:00Z</time>
      </trkpt>
      <trkpt lat="63.38782333" lon="13.15368333">
        <ele>546.513</ele>
        <time>1970-01-01T01:00:00Z</time>
      </trkpt>
      <trkpt lat="63.38782233" lon="13.1536305">
        <ele>546.056</ele>
        <time>1970-01-01T01:00:00Z</time>
      </trkpt>
      <trkpt lat="63.38782433" lon="13.15357667">
        <ele>546.056</ele>
        <time>1970-01-01T01:00:00Z</time>
      </trkpt>
      <trkpt lat="63.38783283" lon="13.15352">
        <ele>545.751</ele>
        <time>1970-01-01T01:00:00Z</time>
      </trkpt>
      <trkpt lat="63.387848" lon="13.153463">
        <ele>545.751</ele>
        <time>1970-01-01T01:00:00Z</time>
      </trkpt>
      <trkpt lat="63.38786667" lon="13.15341017">
        <ele>545.446</ele>
        <time>1970-01-01T01:00:00Z</time>
      </trkpt>
      <trkpt lat="63.38788883" lon="13.15336517">
        <ele>545.446</ele>
        <time>1970-01-01T01:00:00Z</time>
      </trkpt>
      <trkpt lat="63.38790817" lon="13.15332467">
        <ele>544.989</ele>
        <time>1970-01-01T01:00:00Z</time>
      </trkpt>
      <trkpt lat="63.38792967" lon="13.15328817">
        <ele>544.989</ele>
        <time>1970-01-01T01:00:00Z</time>
      </trkpt>
      <trkpt lat="63.38795133" lon="13.15326133">
        <ele>544.684</ele>
        <time>1970-01-01T01:00:00Z</time>
      </trkpt>
      <trkpt lat="63.3879745" lon="13.15323967">
        <ele>544.684</ele>
        <time>1970-01-01T01:00:00Z</time>
      </trkpt>
      <trkpt lat="63.38799833" lon="13.153222">
        <ele>544.379</ele>
        <time>1970-01-01T01:00:00Z</time>
      </trkpt>
      <trkpt lat="63.3880225" lon="13.15321117">
        <ele>544.379</ele>
        <time>1970-01-01T01:00:00Z</time>
      </trkpt>
      <trkpt lat="63.388045" lon="13.153203">
        <ele>544.075</ele>
        <time>1970-01-01T01:00:00Z</time>
      </trkpt>
      <trkpt lat="63.38806667" lon="13.15319667">
        <ele>544.075</ele>
        <time>1970-01-01T01:00:00Z</time>
      </trkpt>
      <trkpt lat="63.3880875" lon="13.15318483">
        <ele>543.617</ele>
        <time>1970-01-01T01:00:00Z</time>
      </trkpt>
      <trkpt lat="63.38810917" lon="13.1531675">
        <ele>543.617</ele>
        <time>1970-01-01T01:00:00Z</time>
      </trkpt>
      <trkpt lat="63.38813133" lon="13.15314833">
        <ele>543.313</ele>
        <time>1970-01-01T01:00:00Z</time>
      </trkpt>
      <trkpt lat="63.388153" lon="13.1531265">
        <ele>543.313</ele>
        <time>1970-01-01T01:00:00Z</time>
      </trkpt>
      <trkpt lat="63.38817517" lon="13.15310783">
        <ele>543.008</ele>
        <time>1970-01-01T01:00:00Z</time>
      </trkpt>
      <trkpt lat="63.38819867" lon="13.15308983">
        <ele>543.008</ele>
        <time>1970-01-01T01:00:00Z</time>
      </trkpt>
      <trkpt lat="63.38822183" lon="13.15307333">
        <ele>542.703</ele>
        <time>1970-01-01T01:00:00Z</time>
      </trkpt>
      <trkpt lat="63.38824433" lon="13.15305683">
        <ele>542.703</ele>
        <time>1970-01-01T01:00:00Z</time>
      </trkpt>
      <trkpt lat="63.38826633" lon="13.15303983">
        <ele>542.398</ele>
        <time>1970-01-01T01:00:00Z</time>
      </trkpt>
      <trkpt lat="63.38828783" lon="13.15302083">
        <ele>542.398</ele>
        <time>1970-01-01T01:00:00Z</time>
      </trkpt>
      <trkpt lat="63.3883115" lon="13.15300033">
        <ele>542.093</ele>
        <time>1970-01-01T01:00:00Z</time>
      </trkpt>
      <trkpt lat="63.38833533" lon="13.15297933">
        <ele>542.093</ele>
        <time>1970-01-01T01:00:00Z</time>
      </trkpt>
      <trkpt lat="63.38835817" lon="13.1529605">
        <ele>541.789</ele>
        <time>1970-01-01T01:00:00Z</time>
      </trkpt>
      <trkpt lat="63.38837967" lon="13.1529415">
        <ele>541.789</ele>
        <time>1970-01-01T01:00:00Z</time>
      </trkpt>
      <trkpt lat="63.38840017" lon="13.1529225">
        <ele>541.636</ele>
        <time>1970-01-01T01:00:00Z</time>
      </trkpt>
      <trkpt lat="63.38842067" lon="13.15290417">
        <ele>541.636</ele>
        <time>1970-01-01T01:00:00Z</time>
      </trkpt>
      <trkpt lat="63.3884415" lon="13.1528855">
        <ele>541.484</ele>
        <time>1970-01-01T01:00:00Z</time>
      </trkpt>
      <trkpt lat="63.38846233" lon="13.15286933">
        <ele>541.484</ele>
        <time>1970-01-01T01:00:00Z</time>
      </trkpt>
      <trkpt lat="63.38848367" lon="13.1528515">
        <ele>541.179</ele>
        <time>1970-01-01T01:00:00Z</time>
      </trkpt>
      <trkpt lat="63.38850567" lon="13.15283433">
        <ele>541.179</ele>
        <time>1970-01-01T01:00:00Z</time>
      </trkpt>
      <trkpt lat="63.38852983" lon="13.1528245">
        <ele>541.027</ele>
        <time>1970-01-01T01:00:00Z</time>
      </trkpt>
      <trkpt lat="63.388554" lon="13.1528195">
        <ele>541.027</ele>
        <time>1970-01-01T01:00:00Z</time>
      </trkpt>
      <trkpt lat="63.38857933" lon="13.1528155">
        <ele>540.874</ele>
        <time>1970-01-01T01:00:00Z</time>
      </trkpt>
      <trkpt lat="63.388603" lon="13.152806">
        <ele>540.874</ele>
        <time>1970-01-01T01:00:00Z</time>
      </trkpt>
      <trkpt lat="63.38862733" lon="13.15279233">
        <ele>540.722</ele>
        <time>1970-01-01T01:00:00Z</time>
      </trkpt>
      <trkpt lat="63.3886505" lon="13.1527815">
        <ele>540.722</ele>
        <time>1970-01-01T01:00:00Z</time>
      </trkpt>
      <trkpt lat="63.3886725" lon="13.15277033">
        <ele>540.569</ele>
        <time>1970-01-01T01:00:00Z</time>
      </trkpt>
      <trkpt lat="63.38869583" lon="13.15276083">
        <ele>540.569</ele>
        <time>1970-01-01T01:00:00Z</time>
      </trkpt>
      <trkpt lat="63.3887195" lon="13.1527505">
        <ele>540.569</ele>
        <time>1970-01-01T01:00:00Z</time>
      </trkpt>
      <trkpt lat="63.38874267" lon="13.15274267">
        <ele>540.569</ele>
        <time>1970-01-01T01:00:00Z</time>
      </trkpt>
      <trkpt lat="63.38876517" lon="13.15273567">
        <ele>540.417</ele>
        <time>1970-01-01T01:00:00Z</time>
      </trkpt>
      <trkpt lat="63.388786" lon="13.1527305">
        <ele>540.417</ele>
        <time>1970-01-01T01:00:00Z</time>
      </trkpt>
      <trkpt lat="63.3888065" lon="13.15272233">
        <ele>540.417</ele>
        <time>1970-01-01T01:00:00Z</time>
      </trkpt>
      <trkpt lat="63.38882717" lon="13.15271667">
        <ele>540.417</ele>
        <time>1970-01-01T01:00:00Z</time>
      </trkpt>
      <trkpt lat="63.388848" lon="13.15271083">
        <ele>540.265</ele>
        <time>1970-01-01T01:00:00Z</time>
      </trkpt>
      <trkpt lat="63.388868" lon="13.1527055">
        <ele>540.265</ele>
        <time>1970-01-01T01:00:00Z</time>
      </trkpt>
      <trkpt lat="63.38888833" lon="13.15269733">
        <ele>540.265</ele>
        <time>1970-01-01T01:00:00Z</time>
      </trkpt>
      <trkpt lat="63.38890833" lon="13.1526895">
        <ele>540.265</ele>
        <time>1970-01-01T01:00:00Z</time>
      </trkpt>
      <trkpt lat="63.38893" lon="13.15268283">
        <ele>540.112</ele>
        <time>1970-01-01T01:00:00Z</time>
      </trkpt>
      <trkpt lat="63.388952" lon="13.15267583">
        <ele>540.112</ele>
        <time>1970-01-01T01:00:00Z</time>
      </trkpt>
      <trkpt lat="63.38897517" lon="13.15266767">
        <ele>540.112</ele>
        <time>1970-01-01T01:00:00Z</time>
      </trkpt>
      <trkpt lat="63.38899883" lon="13.15265767">
        <ele>540.112</ele>
        <time>1970-01-01T01:00:00Z</time>
      </trkpt>
      <trkpt lat="63.38902217" lon="13.15264617">
        <ele>540.112</ele>
        <time>1970-01-01T01:00:00Z</time>
      </trkpt>
      <trkpt lat="63.38904433" lon="13.15263533">
        <ele>540.112</ele>
        <time>1970-01-01T01:00:00Z</time>
      </trkpt>
      <trkpt lat="63.3890665" lon="13.152626">
        <ele>540.112</ele>
        <time>1970-01-01T01:00:00Z</time>
      </trkpt>
      <trkpt lat="63.38908733" lon="13.152619">
        <ele>540.112</ele>
        <time>1970-01-01T01:00:00Z</time>
      </trkpt>
      <trkpt lat="63.38910833" lon="13.152611">
        <ele>540.112</ele>
        <time>1970-01-01T01:00:00Z</time>
      </trkpt>
      <trkpt lat="63.389131" lon="13.1526025">
        <ele>540.112</ele>
        <time>1970-01-01T01:00:00Z</time>
      </trkpt>
      <trkpt lat="63.38915383" lon="13.15259517">
        <ele>540.112</ele>
        <time>1970-01-01T01:00:00Z</time>
      </trkpt>
      <trkpt lat="63.38917767" lon="13.1525885">
        <ele>540.112</ele>
        <time>1970-01-01T01:00:00Z</time>
      </trkpt>
      <trkpt lat="63.38920167" lon="13.1525815">
        <ele>540.112</ele>
        <time>1970-01-01T01:00:00Z</time>
      </trkpt>
      <trkpt lat="63.38922633" lon="13.15257383">
        <ele>540.112</ele>
        <time>1970-01-01T01:00:00Z</time>
      </trkpt>
      <trkpt lat="63.38925033" lon="13.15256567">
        <ele>540.112</ele>
        <time>1970-01-01T01:00:00Z</time>
      </trkpt>
      <trkpt lat="63.3892745" lon="13.1525565">
        <ele>540.112</ele>
        <time>1970-01-01T01:00:00Z</time>
      </trkpt>
      <trkpt lat="63.38929767" lon="13.15254767">
        <ele>540.112</ele>
        <time>1970-01-01T01:00:00Z</time>
      </trkpt>
      <trkpt lat="63.38932167" lon="13.152539">
        <ele>540.112</ele>
        <time>1970-01-01T01:00:00Z</time>
      </trkpt>
      <trkpt lat="63.389345" lon="13.15253167">
        <ele>540.112</ele>
        <time>1970-01-01T01:00:00Z</time>
      </trkpt>
      <trkpt lat="63.38936783" lon="13.152523">
        <ele>540.112</ele>
        <time>1970-01-01T01:00:00Z</time>
      </trkpt>
      <trkpt lat="63.38939017" lon="13.1525125">
        <ele>540.112</ele>
        <time>1970-01-01T01:00:00Z</time>
      </trkpt>
      <trkpt lat="63.38941283" lon="13.15250133">
        <ele>540.112</ele>
        <time>1970-01-01T01:00:00Z</time>
      </trkpt>
      <trkpt lat="63.3894355" lon="13.15248817">
        <ele>540.265</ele>
        <time>1970-01-01T01:00:00Z</time>
      </trkpt>
      <trkpt lat="63.38945933" lon="13.15247667">
        <ele>540.265</ele>
        <time>1970-01-01T01:00:00Z</time>
      </trkpt>
      <trkpt lat="63.389482" lon="13.15246583">
        <ele>540.265</ele>
        <time>1970-01-01T01:00:00Z</time>
      </trkpt>
      <trkpt lat="63.389505" lon="13.15245317">
        <ele>540.265</ele>
        <time>1970-01-01T01:00:00Z</time>
      </trkpt>
      <trkpt lat="63.38952767" lon="13.15243683">
        <ele>540.265</ele>
        <time>1970-01-01T01:00:00Z</time>
      </trkpt>
      <trkpt lat="63.38955033" lon="13.15241933">
        <ele>540.265</ele>
        <time>1970-01-01T01:00:00Z</time>
      </trkpt>
      <trkpt lat="63.389573" lon="13.15240267">
        <ele>540.417</ele>
        <time>1970-01-01T01:00:00Z</time>
      </trkpt>
      <trkpt lat="63.38959583" lon="13.152386">
        <ele>540.417</ele>
        <time>1970-01-01T01:00:00Z</time>
      </trkpt>
      <trkpt lat="63.38961783" lon="13.15236617">
        <ele>540.417</ele>
        <time>1970-01-01T01:00:00Z</time>
      </trkpt>
      <trkpt lat="63.38964083" lon="13.15234333">
        <ele>540.417</ele>
        <time>1970-01-01T01:00:00Z</time>
      </trkpt>
      <trkpt lat="63.38966267" lon="13.15232167">
        <ele>540.569</ele>
        <time>1970-01-01T01:00:00Z</time>
      </trkpt>
      <trkpt lat="63.38968567" lon="13.15230233">
        <ele>540.569</ele>
        <time>1970-01-01T01:00:00Z</time>
      </trkpt>
      <trkpt lat="63.389708" lon="13.15228633">
        <ele>540.569</ele>
        <time>1970-01-01T01:00:00Z</time>
      </trkpt>
      <trkpt lat="63.3897295" lon="13.15226533">
        <ele>540.569</ele>
        <time>1970-01-01T01:00:00Z</time>
      </trkpt>
      <trkpt lat="63.38974933" lon="13.15224133">
        <ele>540.722</ele>
        <time>1970-01-01T01:00:00Z</time>
      </trkpt>
      <trkpt lat="63.38977" lon="13.15221233">
        <ele>540.722</ele>
        <time>1970-01-01T01:00:00Z</time>
      </trkpt>
      <trkpt lat="63.38979083" lon="13.15218633">
        <ele>540.722</ele>
        <time>1970-01-01T01:00:00Z</time>
      </trkpt>
      <trkpt lat="63.389812" lon="13.1521615">
        <ele>540.722</ele>
        <time>1970-01-01T01:00:00Z</time>
      </trkpt>
      <trkpt lat="63.38983367" lon="13.15213817">
        <ele>540.874</ele>
        <time>1970-01-01T01:00:00Z</time>
      </trkpt>
      <trkpt lat="63.3898555" lon="13.15211533">
        <ele>540.874</ele>
        <time>1970-01-01T01:00:00Z</time>
      </trkpt>
      <trkpt lat="63.38987833" lon="13.15209133">
        <ele>540.874</ele>
        <time>1970-01-01T01:00:00Z</time>
      </trkpt>
      <trkpt lat="63.38990067" lon="13.15206567">
        <ele>540.874</ele>
        <time>1970-01-01T01:00:00Z</time>
      </trkpt>
      <trkpt lat="63.38992267" lon="13.15203583">
        <ele>541.027</ele>
        <time>1970-01-01T01:00:00Z</time>
      </trkpt>
      <trkpt lat="63.389944" lon="13.15200333">
        <ele>541.027</ele>
        <time>1970-01-01T01:00:00Z</time>
      </trkpt>
      <trkpt lat="63.38996567" lon="13.1519715">
        <ele>541.027</ele>
        <time>1970-01-01T01:00:00Z</time>
      </trkpt>
      <trkpt lat="63.38998583" lon="13.151939">
        <ele>541.027</ele>
        <time>1970-01-01T01:00:00Z</time>
      </trkpt>
      <trkpt lat="63.39000617" lon="13.1519045">
        <ele>541.179</ele>
        <time>1970-01-01T01:00:00Z</time>
      </trkpt>
      <trkpt lat="63.39002533" lon="13.151868">
        <ele>541.179</ele>
        <time>1970-01-01T01:00:00Z</time>
      </trkpt>
      <trkpt lat="63.3900455" lon="13.15183517">
        <ele>541.179</ele>
        <time>1970-01-01T01:00:00Z</time>
      </trkpt>
      <trkpt lat="63.390066" lon="13.151804">
        <ele>541.179</ele>
        <time>1970-01-01T01:00:00Z</time>
      </trkpt>
      <trkpt lat="63.39008567" lon="13.1517745">
        <ele>541.331</ele>
        <time>1970-01-01T01:00:00Z</time>
      </trkpt>
      <trkpt lat="63.39010533" lon="13.1517445">
        <ele>541.331</ele>
        <time>1970-01-01T01:00:00Z</time>
      </trkpt>
      <trkpt lat="63.39012483" lon="13.15171117">
        <ele>541.331</ele>
        <time>1970-01-01T01:00:00Z</time>
      </trkpt>
      <trkpt lat="63.39014383" lon="13.1516755">
        <ele>541.331</ele>
        <time>1970-01-01T01:00:00Z</time>
      </trkpt>
      <trkpt lat="63.390162" lon="13.15163933">
        <ele>541.331</ele>
        <time>1970-01-01T01:00:00Z</time>
      </trkpt>
      <trkpt lat="63.3901795" lon="13.15160033">
        <ele>541.331</ele>
        <time>1970-01-01T01:00:00Z</time>
      </trkpt>
      <trkpt lat="63.39019583" lon="13.15156217">
        <ele>541.331</ele>
        <time>1970-01-01T01:00:00Z</time>
      </trkpt>
      <trkpt lat="63.39021183" lon="13.15152133">
        <ele>541.331</ele>
        <time>1970-01-01T01:00:00Z</time>
      </trkpt>
      <trkpt lat="63.39022683" lon="13.15148083">
        <ele>541.484</ele>
        <time>1970-01-01T01:00:00Z</time>
      </trkpt>
      <trkpt lat="63.39024067" lon="13.151439">
        <ele>541.484</ele>
        <time>1970-01-01T01:00:00Z</time>
      </trkpt>
      <trkpt lat="63.39025567" lon="13.15139717">
        <ele>541.484</ele>
        <time>1970-01-01T01:00:00Z</time>
      </trkpt>
      <trkpt lat="63.3902685" lon="13.15135617">
        <ele>541.484</ele>
        <time>1970-01-01T01:00:00Z</time>
      </trkpt>
      <trkpt lat="63.39028117" lon="13.1513165">
        <ele>541.484</ele>
        <time>1970-01-01T01:00:00Z</time>
      </trkpt>
      <trkpt lat="63.390293" lon="13.15127767">
        <ele>541.484</ele>
        <time>1970-01-01T01:00:00Z</time>
      </trkpt>
      <trkpt lat="63.39030683" lon="13.15124083">
        <ele>541.484</ele>
        <time>1970-01-01T01:00:00Z</time>
      </trkpt>
      <trkpt lat="63.3903205" lon="13.1512065">
        <ele>541.484</ele>
        <time>1970-01-01T01:00:00Z</time>
      </trkpt>
      <trkpt lat="63.3903345" lon="13.1511695">
        <ele>541.484</ele>
        <time>1970-01-01T01:00:00Z</time>
      </trkpt>
      <trkpt lat="63.39034833" lon="13.1511325">
        <ele>541.484</ele>
        <time>1970-01-01T01:00:00Z</time>
      </trkpt>
      <trkpt lat="63.39036217" lon="13.15109267">
        <ele>541.636</ele>
        <time>1970-01-01T01:00:00Z</time>
      </trkpt>
      <trkpt lat="63.39037733" lon="13.15105333">
        <ele>541.636</ele>
        <time>1970-01-01T01:00:00Z</time>
      </trkpt>
      <trkpt lat="63.39039267" lon="13.15101617">
        <ele>541.636</ele>
        <time>1970-01-01T01:00:00Z</time>
      </trkpt>
      <trkpt lat="63.39040817" lon="13.15097833">
        <ele>541.636</ele>
        <time>1970-01-01T01:00:00Z</time>
      </trkpt>
      <trkpt lat="63.390422" lon="13.15094067">
        <ele>541.636</ele>
        <time>1970-01-01T01:00:00Z</time>
      </trkpt>
      <trkpt lat="63.39043483" lon="13.150903">
        <ele>541.636</ele>
        <time>1970-01-01T01:00:00Z</time>
      </trkpt>
      <trkpt lat="63.39045" lon="13.15086817">
        <ele>541.636</ele>
        <time>1970-01-01T01:00:00Z</time>
      </trkpt>
      <trkpt lat="63.39046517" lon="13.150833">
        <ele>541.636</ele>
        <time>1970-01-01T01:00:00Z</time>
      </trkpt>
      <trkpt lat="63.390482" lon="13.15079967">
        <ele>541.789</ele>
        <time>1970-01-01T01:00:00Z</time>
      </trkpt>
      <trkpt lat="63.39049783" lon="13.15076583">
        <ele>541.789</ele>
        <time>1970-01-01T01:00:00Z</time>
      </trkpt>
      <trkpt lat="63.390513" lon="13.15073317">
        <ele>541.789</ele>
        <time>1970-01-01T01:00:00Z</time>
      </trkpt>
      <trkpt lat="63.390527" lon="13.15069833">
        <ele>541.789</ele>
        <time>1970-01-01T01:00:00Z</time>
      </trkpt>
      <trkpt lat="63.39054017" lon="13.15066">
        <ele>541.941</ele>
        <time>1970-01-01T01:00:00Z</time>
      </trkpt>
      <trkpt lat="63.390553" lon="13.15062183">
        <ele>541.941</ele>
        <time>1970-01-01T01:00:00Z</time>
      </trkpt>
      <trkpt lat="63.39056533" lon="13.15058533">
        <ele>542.093</ele>
        <time>1970-01-01T01:00:00Z</time>
      </trkpt>
      <trkpt lat="63.3905775" lon="13.15054833">
        <ele>542.093</ele>
        <time>1970-01-01T01:00:00Z</time>
      </trkpt>
      <trkpt lat="63.39058933" lon="13.15051267">
        <ele>542.246</ele>
        <time>1970-01-01T01:00:00Z</time>
      </trkpt>
      <trkpt lat="63.39060117" lon="13.15047583">
        <ele>542.246</ele>
        <time>1970-01-01T01:00:00Z</time>
      </trkpt>
      <trkpt lat="63.39061383" lon="13.150438">
        <ele>542.398</ele>
        <time>1970-01-01T01:00:00Z</time>
      </trkpt>
      <trkpt lat="63.390627" lon="13.1503985">
        <ele>542.398</ele>
        <time>1970-01-01T01:00:00Z</time>
      </trkpt>
      <trkpt lat="63.39064083" lon="13.15036033">
        <ele>542.551</ele>
        <time>1970-01-01T01:00:00Z</time>
      </trkpt>
      <trkpt lat="63.390654" lon="13.15032083">
        <ele>542.551</ele>
        <time>1970-01-01T01:00:00Z</time>
      </trkpt>
      <trkpt lat="63.39066717" lon="13.15028583">
        <ele>542.703</ele>
        <time>1970-01-01T01:00:00Z</time>
      </trkpt>
      <trkpt lat="63.39068017" lon="13.15024967">
        <ele>542.703</ele>
        <time>1970-01-01T01:00:00Z</time>
      </trkpt>
      <trkpt lat="63.39069367" lon="13.15021633">
        <ele>542.855</ele>
        <time>1970-01-01T01:00:00Z</time>
      </trkpt>
      <trkpt lat="63.390706" lon="13.1501775">
        <ele>542.855</ele>
        <time>1970-01-01T01:00:00Z</time>
      </trkpt>
      <trkpt lat="63.39071833" lon="13.15013767">
        <ele>543.16</ele>
        <time>1970-01-01T01:00:00Z</time>
      </trkpt>
      <trkpt lat="63.390731" lon="13.15009833">
        <ele>543.16</ele>
        <time>1970-01-01T01:00:00Z</time>
      </trkpt>
      <trkpt lat="63.3907445" lon="13.15006167">
        <ele>543.313</ele>
        <time>1970-01-01T01:00:00Z</time>
      </trkpt>
      <trkpt lat="63.39075967" lon="13.15002383">
        <ele>543.313</ele>
        <time>1970-01-01T01:00:00Z</time>
      </trkpt>
      <trkpt lat="63.3907745" lon="13.14998483">
        <ele>543.465</ele>
        <time>1970-01-01T01:00:00Z</time>
      </trkpt>
      <trkpt lat="63.39078833" lon="13.1499445">
        <ele>543.465</ele>
        <time>1970-01-01T01:00:00Z</time>
      </trkpt>
      <trkpt lat="63.3908015" lon="13.1499035">
        <ele>543.77</ele>
        <time>1970-01-01T01:00:00Z</time>
      </trkpt>
      <trkpt lat="63.3908135" lon="13.14986183">
        <ele>543.77</ele>
        <time>1970-01-01T01:00:00Z</time>
      </trkpt>
      <trkpt lat="63.3908265" lon="13.14982267">
        <ele>543.922</ele>
        <time>1970-01-01T01:00:00Z</time>
      </trkpt>
      <trkpt lat="63.39084017" lon="13.14978367">
        <ele>543.922</ele>
        <time>1970-01-01T01:00:00Z</time>
      </trkpt>
      <trkpt lat="63.390855" lon="13.149749">
        <ele>544.227</ele>
        <time>1970-01-01T01:00:00Z</time>
      </trkpt>
      <trkpt lat="63.39086917" lon="13.14971383">
        <ele>544.227</ele>
        <time>1970-01-01T01:00:00Z</time>
      </trkpt>
      <trkpt lat="63.39088133" lon="13.14967617">
        <ele>544.532</ele>
        <time>1970-01-01T01:00:00Z</time>
      </trkpt>
      <trkpt lat="63.39089267" lon="13.14963767">
        <ele>544.532</ele>
        <time>1970-01-01T01:00:00Z</time>
      </trkpt>
      <trkpt lat="63.390904" lon="13.1495975">
        <ele>544.684</ele>
        <time>1970-01-01T01:00:00Z</time>
      </trkpt>
      <trkpt lat="63.39091567" lon="13.149558">
        <ele>544.684</ele>
        <time>1970-01-01T01:00:00Z</time>
      </trkpt>
      <trkpt lat="63.3909285" lon="13.1495215">
        <ele>544.989</ele>
        <time>1970-01-01T01:00:00Z</time>
      </trkpt>
      <trkpt lat="63.3909405" lon="13.14948333">
        <ele>544.989</ele>
        <time>1970-01-01T01:00:00Z</time>
      </trkpt>
      <trkpt lat="63.39095233" lon="13.149445">
        <ele>545.294</ele>
        <time>1970-01-01T01:00:00Z</time>
      </trkpt>
      <trkpt lat="63.390963" lon="13.1494055">
        <ele>545.294</ele>
        <time>1970-01-01T01:00:00Z</time>
      </trkpt>
      <trkpt lat="63.39097367" lon="13.14936467">
        <ele>545.446</ele>
        <time>1970-01-01T01:00:00Z</time>
      </trkpt>
      <trkpt lat="63.390984" lon="13.14932367">
        <ele>545.446</ele>
        <time>1970-01-01T01:00:00Z</time>
      </trkpt>
      <trkpt lat="63.39099283" lon="13.1492795">
        <ele>545.751</ele>
        <time>1970-01-01T01:00:00Z</time>
      </trkpt>
      <trkpt lat="63.39100183" lon="13.14923617">
        <ele>545.751</ele>
        <time>1970-01-01T01:00:00Z</time>
      </trkpt>
      <trkpt lat="63.39101067" lon="13.14919383">
        <ele>545.903</ele>
        <time>1970-01-01T01:00:00Z</time>
      </trkpt>
      <trkpt lat="63.39101983" lon="13.149152">
        <ele>545.903</ele>
        <time>1970-01-01T01:00:00Z</time>
      </trkpt>
      <trkpt lat="63.391029" lon="13.1491115">
        <ele>546.208</ele>
        <time>1970-01-01T01:00:00Z</time>
      </trkpt>
      <trkpt lat="63.39103867" lon="13.149071">
        <ele>546.208</ele>
        <time>1970-01-01T01:00:00Z</time>
      </trkpt>
      <trkpt lat="63.39104783" lon="13.14902767">
        <ele>546.361</ele>
        <time>1970-01-01T01:00:00Z</time>
      </trkpt>
      <trkpt lat="63.39105767" lon="13.14898183">
        <ele>546.361</ele>
        <time>1970-01-01T01:00:00Z</time>
      </trkpt>
      <trkpt lat="63.39106733" lon="13.14893933">
        <ele>546.665</ele>
        <time>1970-01-01T01:00:00Z</time>
      </trkpt>
      <trkpt lat="63.39107767" lon="13.14889883">
        <ele>546.665</ele>
        <time>1970-01-01T01:00:00Z</time>
      </trkpt>
      <trkpt lat="63.39108767" lon="13.14885783">
        <ele>546.97</ele>
        <time>1970-01-01T01:00:00Z</time>
      </trkpt>
      <trkpt lat="63.391098" lon="13.14881467">
        <ele>546.97</ele>
        <time>1970-01-01T01:00:00Z</time>
      </trkpt>
      <trkpt lat="63.391109" lon="13.14877317">
        <ele>547.123</ele>
        <time>1970-01-01T01:00:00Z</time>
      </trkpt>
      <trkpt lat="63.39112017" lon="13.14873167">
        <ele>547.123</ele>
        <time>1970-01-01T01:00:00Z</time>
      </trkpt>
      <trkpt lat="63.39113133" lon="13.148687">
        <ele>547.427</ele>
        <time>1970-01-01T01:00:00Z</time>
      </trkpt>
      <trkpt lat="63.39114367" lon="13.14864433">
        <ele>547.427</ele>
        <time>1970-01-01T01:00:00Z</time>
      </trkpt>
      <trkpt lat="63.39115483" lon="13.148599">
        <ele>547.58</ele>
        <time>1970-01-01T01:00:00Z</time>
      </trkpt>
      <trkpt lat="63.39116467" lon="13.1485595">
        <ele>547.58</ele>
        <time>1970-01-01T01:00:00Z</time>
      </trkpt>
      <trkpt lat="63.3911735" lon="13.148518">
        <ele>547.885</ele>
        <time>1970-01-01T01:00:00Z</time>
      </trkpt>
      <trkpt lat="63.39118333" lon="13.148477">
        <ele>547.885</ele>
        <time>1970-01-01T01:00:00Z</time>
      </trkpt>
      <trkpt lat="63.391194" lon="13.148434">
        <ele>548.037</ele>
        <time>1970-01-01T01:00:00Z</time>
      </trkpt>
      <trkpt lat="63.391204" lon="13.14839217">
        <ele>548.037</ele>
        <time>1970-01-01T01:00:00Z</time>
      </trkpt>
      <trkpt lat="63.39121433" lon="13.14835317">
        <ele>548.342</ele>
        <time>1970-01-01T01:00:00Z</time>
      </trkpt>
      <trkpt lat="63.39122483" lon="13.1483135">
        <ele>548.342</ele>
        <time>1970-01-01T01:00:00Z</time>
      </trkpt>
      <trkpt lat="63.391236" lon="13.148271">
        <ele>548.494</ele>
        <time>1970-01-01T01:00:00Z</time>
      </trkpt>
      <trkpt lat="63.391247" lon="13.14822867">
        <ele>548.494</ele>
        <time>1970-01-01T01:00:00Z</time>
      </trkpt>
      <trkpt lat="63.391257" lon="13.1481875">
        <ele>548.799</ele>
        <time>1970-01-01T01:00:00Z</time>
      </trkpt>
      <trkpt lat="63.391267" lon="13.148147">
        <ele>548.799</ele>
        <time>1970-01-01T01:00:00Z</time>
      </trkpt>
      <trkpt lat="63.39127883" lon="13.14810817">
        <ele>549.104</ele>
        <time>1970-01-01T01:00:00Z</time>
      </trkpt>
      <trkpt lat="63.3912905" lon="13.14807183">
        <ele>549.104</ele>
        <time>1970-01-01T01:00:00Z</time>
      </trkpt>
      <trkpt lat="63.3913035" lon="13.14803767">
        <ele>549.256</ele>
        <time>1970-01-01T01:00:00Z</time>
      </trkpt>
      <trkpt lat="63.39131483" lon="13.14800383">
        <ele>549.256</ele>
        <time>1970-01-01T01:00:00Z</time>
      </trkpt>
      <trkpt lat="63.39132733" lon="13.14797017">
        <ele>549.561</ele>
        <time>1970-01-01T01:00:00Z</time>
      </trkpt>
      <trkpt lat="63.39133933" lon="13.147935">
        <ele>549.561</ele>
        <time>1970-01-01T01:00:00Z</time>
      </trkpt>
      <trkpt lat="63.39135133" lon="13.147906">
        <ele>549.713</ele>
        <time>1970-01-01T01:00:00Z</time>
      </trkpt>
      <trkpt lat="63.39136283" lon="13.14787683">
        <ele>549.713</ele>
        <time>1970-01-01T01:00:00Z</time>
      </trkpt>
      <trkpt lat="63.39137433" lon="13.147849">
        <ele>550.018</ele>
        <time>1970-01-01T01:00:00Z</time>
      </trkpt>
      <trkpt lat="63.39138583" lon="13.14781667">
        <ele>550.018</ele>
        <time>1970-01-01T01:00:00Z</time>
      </trkpt>
      <trkpt lat="63.39139717" lon="13.1477845">
        <ele>550.171</ele>
        <time>1970-01-01T01:00:00Z</time>
      </trkpt>
      <trkpt lat="63.39140883" lon="13.14775517">
        <ele>550.171</ele>
        <time>1970-01-01T01:00:00Z</time>
      </trkpt>
      <trkpt lat="63.39142067" lon="13.14772383">
        <ele>550.475</ele>
        <time>1970-01-01T01:00:00Z</time>
      </trkpt>
      <trkpt lat="63.39143217" lon="13.14769183">
        <ele>550.475</ele>
        <time>1970-01-01T01:00:00Z</time>
      </trkpt>
      <trkpt lat="63.39144317" lon="13.14766067">
        <ele>550.628</ele>
        <time>1970-01-01T01:00:00Z</time>
      </trkpt>
      <trkpt lat="63.391454" lon="13.14762733">
        <ele>550.628</ele>
        <time>1970-01-01T01:00:00Z</time>
      </trkpt>
      <trkpt lat="63.391465" lon="13.1475945">
        <ele>550.933</ele>
        <time>1970-01-01T01:00:00Z</time>
      </trkpt>
      <trkpt lat="63.391475" lon="13.14755717">
        <ele>550.933</ele>
        <time>1970-01-01T01:00:00Z</time>
      </trkpt>
      <trkpt lat="63.39148517" lon="13.14752417">
        <ele>551.085</ele>
        <time>1970-01-01T01:00:00Z</time>
      </trkpt>
      <trkpt lat="63.391495" lon="13.14749267">
        <ele>551.085</ele>
        <time>1970-01-01T01:00:00Z</time>
      </trkpt>
      <trkpt lat="63.39150533" lon="13.1474635">
        <ele>551.39</ele>
        <time>1970-01-01T01:00:00Z</time>
      </trkpt>
      <trkpt lat="63.39151733" lon="13.14743317">
        <ele>551.39</ele>
        <time>1970-01-01T01:00:00Z</time>
      </trkpt>
      <trkpt lat="63.391529" lon="13.14740183">
        <ele>551.695</ele>
        <time>1970-01-01T01:00:00Z</time>
      </trkpt>
      <trkpt lat="63.391541" lon="13.147373">
        <ele>551.695</ele>
        <time>1970-01-01T01:00:00Z</time>
      </trkpt>
      <trkpt lat="63.39155183" lon="13.1473475">
        <ele>552</ele>
        <time>1970-01-01T01:00:00Z</time>
      </trkpt>
      <trkpt lat="63.39156333" lon="13.14732267">
        <ele>552</ele>
        <time>1970-01-01T01:00:00Z</time>
      </trkpt>
      <trkpt lat="63.39157483" lon="13.14729667">
        <ele>552.304</ele>
        <time>1970-01-01T01:00:00Z</time>
      </trkpt>
      <trkpt lat="63.391587" lon="13.14726717">
        <ele>552.304</ele>
        <time>1970-01-01T01:00:00Z</time>
      </trkpt>
      <trkpt lat="63.39159983" lon="13.14723867">
        <ele>552.609</ele>
        <time>1970-01-01T01:00:00Z</time>
      </trkpt>
      <trkpt lat="63.3916125" lon="13.14721067">
        <ele>552.609</ele>
        <time>1970-01-01T01:00:00Z</time>
      </trkpt>
      <trkpt lat="63.391623" lon="13.14718783">
        <ele>552.761</ele>
        <time>1970-01-01T01:00:00Z</time>
      </trkpt>
      <trkpt lat="63.39163417" lon="13.147164">
        <ele>552.761</ele>
        <time>1970-01-01T01:00:00Z</time>
      </trkpt>
      <trkpt lat="63.391643" lon="13.147142">
        <ele>553.066</ele>
        <time>1970-01-01T01:00:00Z</time>
      </trkpt>
      <trkpt lat="63.3916515" lon="13.14711933">
        <ele>553.066</ele>
        <time>1970-01-01T01:00:00Z</time>
      </trkpt>
      <trkpt lat="63.39165933" lon="13.14709917">
        <ele>553.371</ele>
        <time>1970-01-01T01:00:00Z</time>
      </trkpt>
      <trkpt lat="63.3916695" lon="13.14707967">
        <ele>553.371</ele>
        <time>1970-01-01T01:00:00Z</time>
      </trkpt>
      <trkpt lat="63.39168083" lon="13.14706217">
        <ele>553.676</ele>
        <time>1970-01-01T01:00:00Z</time>
      </trkpt>
      <trkpt lat="63.3916925" lon="13.14704417">
        <ele>553.676</ele>
        <time>1970-01-01T01:00:00Z</time>
      </trkpt>
      <trkpt lat="63.39170283" lon="13.14702383">
        <ele>553.981</ele>
        <time>1970-01-01T01:00:00Z</time>
      </trkpt>
      <trkpt lat="63.39171267" lon="13.147005">
        <ele>553.981</ele>
        <time>1970-01-01T01:00:00Z</time>
      </trkpt>
      <trkpt lat="63.391722" lon="13.146989">
        <ele>554.286</ele>
        <time>1970-01-01T01:00:00Z</time>
      </trkpt>
      <trkpt lat="63.391732" lon="13.14697533">
        <ele>554.286</ele>
        <time>1970-01-01T01:00:00Z</time>
      </trkpt>
      <trkpt lat="63.391742" lon="13.1469605">
        <ele>554.59</ele>
        <time>1970-01-01T01:00:00Z</time>
      </trkpt>
      <trkpt lat="63.39175217" lon="13.146948">
        <ele>554.59</ele>
        <time>1970-01-01T01:00:00Z</time>
      </trkpt>
      <trkpt lat="63.391762" lon="13.14693433">
        <ele>554.895</ele>
        <time>1970-01-01T01:00:00Z</time>
      </trkpt>
      <trkpt lat="63.39177117" lon="13.14691917">
        <ele>554.895</ele>
        <time>1970-01-01T01:00:00Z</time>
      </trkpt>
      <trkpt lat="63.39178017" lon="13.14689583">
        <ele>555.2</ele>
        <time>1970-01-01T01:00:00Z</time>
      </trkpt>
      <trkpt lat="63.39178883" lon="13.146873">
        <ele>555.2</ele>
        <time>1970-01-01T01:00:00Z</time>
      </trkpt>
      <trkpt lat="63.39179767" lon="13.14685017">
        <ele>555.505</ele>
        <time>1970-01-01T01:00:00Z</time>
      </trkpt>
      <trkpt lat="63.39180617" lon="13.14682633">
        <ele>555.505</ele>
        <time>1970-01-01T01:00:00Z</time>
      </trkpt>
      <trkpt lat="63.39181517" lon="13.14680067">
        <ele>555.81</ele>
        <time>1970-01-01T01:00:00Z</time>
      </trkpt>
      <trkpt lat="63.39182433" lon="13.14677617">
        <ele>555.81</ele>
        <time>1970-01-01T01:00:00Z</time>
      </trkpt>
      <trkpt lat="63.39183367" lon="13.146756">
        <ele>556.114</ele>
        <time>1970-01-01T01:00:00Z</time>
      </trkpt>
      <trkpt lat="63.39184317" lon="13.14674">
        <ele>556.114</ele>
        <time>1970-01-01T01:00:00Z</time>
      </trkpt>
      <trkpt lat="63.39185317" lon="13.14672383">
        <ele>556.419</ele>
        <time>1970-01-01T01:00:00Z</time>
      </trkpt>
      <trkpt lat="63.391863" lon="13.14670867">
        <ele>556.419</ele>
        <time>1970-01-01T01:00:00Z</time>
      </trkpt>
      <trkpt lat="63.39187333" lon="13.14669167">
        <ele>556.724</ele>
        <time>1970-01-01T01:00:00Z</time>
      </trkpt>
      <trkpt lat="63.39188383" lon="13.14667267">
        <ele>556.724</ele>
        <time>1970-01-01T01:00:00Z</time>
      </trkpt>
      <trkpt lat="63.3918945" lon="13.1466535">
        <ele>557.029</ele>
        <time>1970-01-01T01:00:00Z</time>
      </trkpt>
      <trkpt lat="63.3919045" lon="13.14663417">
        <ele>557.029</ele>
        <time>1970-01-01T01:00:00Z</time>
      </trkpt>
      <trkpt lat="63.39191433" lon="13.14661833">
        <ele>557.181</ele>
        <time>1970-01-01T01:00:00Z</time>
      </trkpt>
      <trkpt lat="63.3919245" lon="13.14660283">
        <ele>557.181</ele>
        <time>1970-01-01T01:00:00Z</time>
      </trkpt>
      <trkpt lat="63.39193483" lon="13.14658833">
        <ele>557.486</ele>
        <time>1970-01-01T01:00:00Z</time>
      </trkpt>
      <trkpt lat="63.39194533" lon="13.14657117">
        <ele>557.486</ele>
        <time>1970-01-01T01:00:00Z</time>
      </trkpt>
      <trkpt lat="63.391956" lon="13.14655183">
        <ele>557.638</ele>
        <time>1970-01-01T01:00:00Z</time>
      </trkpt>
      <trkpt lat="63.39196733" lon="13.14653383">
        <ele>557.638</ele>
        <time>1970-01-01T01:00:00Z</time>
      </trkpt>
      <trkpt lat="63.39197917" lon="13.14651783">
        <ele>557.943</ele>
        <time>1970-01-01T01:00:00Z</time>
      </trkpt>
      <trkpt lat="63.39199117" lon="13.14650467">
        <ele>557.943</ele>
        <time>1970-01-01T01:00:00Z</time>
      </trkpt>
      <trkpt lat="63.39200383" lon="13.14648817">
        <ele>558.096</ele>
        <time>1970-01-01T01:00:00Z</time>
      </trkpt>
      <trkpt lat="63.39201417" lon="13.146469">
        <ele>558.096</ele>
        <time>1970-01-01T01:00:00Z</time>
      </trkpt>
      <trkpt lat="63.392024" lon="13.14644783">
        <ele>558.4</ele>
        <time>1970-01-01T01:00:00Z</time>
      </trkpt>
      <trkpt lat="63.39203267" lon="13.14642867">
        <ele>558.4</ele>
        <time>1970-01-01T01:00:00Z</time>
      </trkpt>
      <trkpt lat="63.39204317" lon="13.14641233">
        <ele>558.553</ele>
        <time>1970-01-01T01:00:00Z</time>
      </trkpt>
      <trkpt lat="63.392054" lon="13.14639717">
        <ele>558.553</ele>
        <time>1970-01-01T01:00:00Z</time>
      </trkpt>
      <trkpt lat="63.3920655" lon="13.14638217">
        <ele>558.858</ele>
        <time>1970-01-01T01:00:00Z</time>
      </trkpt>
      <trkpt lat="63.39207733" lon="13.14636517">
        <ele>558.858</ele>
        <time>1970-01-01T01:00:00Z</time>
      </trkpt>
      <trkpt lat="63.39209" lon="13.14634483">
        <ele>559.01</ele>
        <time>1970-01-01T01:00:00Z</time>
      </trkpt>
      <trkpt lat="63.39210367" lon="13.146323">
        <ele>559.01</ele>
        <time>1970-01-01T01:00:00Z</time>
      </trkpt>
      <trkpt lat="63.39211817" lon="13.14630117">
        <ele>559.315</ele>
        <time>1970-01-01T01:00:00Z</time>
      </trkpt>
      <trkpt lat="63.39213367" lon="13.14627983">
        <ele>559.315</ele>
        <time>1970-01-01T01:00:00Z</time>
      </trkpt>
      <trkpt lat="63.39215017" lon="13.14625617">
        <ele>559.467</ele>
        <time>1970-01-01T01:00:00Z</time>
      </trkpt>
      <trkpt lat="63.39216617" lon="13.146232">
        <ele>559.467</ele>
        <time>1970-01-01T01:00:00Z</time>
      </trkpt>
      <trkpt lat="63.39218383" lon="13.14620867">
        <ele>559.772</ele>
        <time>1970-01-01T01:00:00Z</time>
      </trkpt>
      <trkpt lat="63.392201" lon="13.1461885">
        <ele>559.772</ele>
        <time>1970-01-01T01:00:00Z</time>
      </trkpt>
      <trkpt lat="63.39222017" lon="13.1461685">
        <ele>559.924</ele>
        <time>1970-01-01T01:00:00Z</time>
      </trkpt>
      <trkpt lat="63.39223983" lon="13.14614683">
        <ele>559.924</ele>
        <time>1970-01-01T01:00:00Z</time>
      </trkpt>
      <trkpt lat="63.39225933" lon="13.1461235">
        <ele>560.229</ele>
        <time>1970-01-01T01:00:00Z</time>
      </trkpt>
      <trkpt lat="63.39227833" lon="13.146099">
        <ele>560.229</ele>
        <time>1970-01-01T01:00:00Z</time>
      </trkpt>
      <trkpt lat="63.39229717" lon="13.1460735">
        <ele>560.382</ele>
        <time>1970-01-01T01:00:00Z</time>
      </trkpt>
      <trkpt lat="63.3923165" lon="13.14604883">
        <ele>560.382</ele>
        <time>1970-01-01T01:00:00Z</time>
      </trkpt>
      <trkpt lat="63.39233667" lon="13.14602417">
        <ele>560.686</ele>
        <time>1970-01-01T01:00:00Z</time>
      </trkpt>
      <trkpt lat="63.3923565" lon="13.14599917">
        <ele>560.686</ele>
        <time>1970-01-01T01:00:00Z</time>
      </trkpt>
      <trkpt lat="63.39237617" lon="13.14597417">
        <ele>560.839</ele>
        <time>1970-01-01T01:00:00Z</time>
      </trkpt>
      <trkpt lat="63.392395" lon="13.145951">
        <ele>560.839</ele>
        <time>1970-01-01T01:00:00Z</time>
      </trkpt>
      <trkpt lat="63.39241383" lon="13.14592783">
        <ele>561.144</ele>
        <time>1970-01-01T01:00:00Z</time>
      </trkpt>
      <trkpt lat="63.39243283" lon="13.1459025">
        <ele>561.144</ele>
        <time>1970-01-01T01:00:00Z</time>
      </trkpt>
      <trkpt lat="63.39245083" lon="13.14587683">
        <ele>561.296</ele>
        <time>1970-01-01T01:00:00Z</time>
      </trkpt>
      <trkpt lat="63.39246883" lon="13.1458505">
        <ele>561.296</ele>
        <time>1970-01-01T01:00:00Z</time>
      </trkpt>
      <trkpt lat="63.39248617" lon="13.1458265">
        <ele>561.601</ele>
        <time>1970-01-01T01:00:00Z</time>
      </trkpt>
      <trkpt lat="63.39250417" lon="13.145799">
        <ele>561.601</ele>
        <time>1970-01-01T01:00:00Z</time>
      </trkpt>
      <trkpt lat="63.39252317" lon="13.14577217">
        <ele>561.753</ele>
        <time>1970-01-01T01:00:00Z</time>
      </trkpt>
      <trkpt lat="63.392542" lon="13.14574267">
        <ele>561.753</ele>
        <time>1970-01-01T01:00:00Z</time>
      </trkpt>
      <trkpt lat="63.3925625" lon="13.14571567">
        <ele>562.058</ele>
        <time>1970-01-01T01:00:00Z</time>
      </trkpt>
      <trkpt lat="63.3925815" lon="13.14568933">
        <ele>562.058</ele>
        <time>1970-01-01T01:00:00Z</time>
      </trkpt>
      <trkpt lat="63.3926005" lon="13.145665">
        <ele>562.21</ele>
        <time>1970-01-01T01:00:00Z</time>
      </trkpt>
      <trkpt lat="63.39261733" lon="13.145639">
        <ele>562.21</ele>
        <time>1970-01-01T01:00:00Z</time>
      </trkpt>
      <trkpt lat="63.3926345" lon="13.14561067">
        <ele>562.363</ele>
        <time>1970-01-01T01:00:00Z</time>
      </trkpt>
      <trkpt lat="63.39265133" lon="13.14558017">
        <ele>562.363</ele>
        <time>1970-01-01T01:00:00Z</time>
      </trkpt>
      <trkpt lat="63.3926705" lon="13.14554933">
        <ele>562.515</ele>
        <time>1970-01-01T01:00:00Z</time>
      </trkpt>
      <trkpt lat="63.39269083" lon="13.14552083">
        <ele>562.515</ele>
        <time>1970-01-01T01:00:00Z</time>
      </trkpt>
      <trkpt lat="63.39271233" lon="13.145493">
        <ele>562.668</ele>
        <time>1970-01-01T01:00:00Z</time>
      </trkpt>
      <trkpt lat="63.3927335" lon="13.1454655">
        <ele>562.668</ele>
        <time>1970-01-01T01:00:00Z</time>
      </trkpt>
      <trkpt lat="63.39275367" lon="13.1454385">
        <ele>562.82</ele>
        <time>1970-01-01T01:00:00Z</time>
      </trkpt>
      <trkpt lat="63.39277333" lon="13.14541217">
        <ele>562.82</ele>
        <time>1970-01-01T01:00:00Z</time>
      </trkpt>
      <trkpt lat="63.39279317" lon="13.14538683">
        <ele>562.972</ele>
        <time>1970-01-01T01:00:00Z</time>
      </trkpt>
      <trkpt lat="63.39281333" lon="13.145363">
        <ele>562.972</ele>
        <time>1970-01-01T01:00:00Z</time>
      </trkpt>
      <trkpt lat="63.392834" lon="13.1453395">
        <ele>563.125</ele>
        <time>1970-01-01T01:00:00Z</time>
      </trkpt>
      <trkpt lat="63.39285417" lon="13.14531517">
        <ele>563.125</ele>
        <time>1970-01-01T01:00:00Z</time>
      </trkpt>
      <trkpt lat="63.392874" lon="13.145291">
        <ele>563.277</ele>
        <time>1970-01-01T01:00:00Z</time>
      </trkpt>
      <trkpt lat="63.39289433" lon="13.145265">
        <ele>563.277</ele>
        <time>1970-01-01T01:00:00Z</time>
      </trkpt>
      <trkpt lat="63.3929145" lon="13.14523917">
        <ele>563.582</ele>
        <time>1970-01-01T01:00:00Z</time>
      </trkpt>
      <trkpt lat="63.392934" lon="13.14521333">
        <ele>563.582</ele>
        <time>1970-01-01T01:00:00Z</time>
      </trkpt>
      <trkpt lat="63.39295433" lon="13.1451895">
        <ele>563.734</ele>
        <time>1970-01-01T01:00:00Z</time>
      </trkpt>
      <trkpt lat="63.392975" lon="13.14516717">
        <ele>563.734</ele>
        <time>1970-01-01T01:00:00Z</time>
      </trkpt>
      <trkpt lat="63.39299583" lon="13.14514433">
        <ele>563.887</ele>
        <time>1970-01-01T01:00:00Z</time>
      </trkpt>
      <trkpt lat="63.39301667" lon="13.14512067">
        <ele>563.887</ele>
        <time>1970-01-01T01:00:00Z</time>
      </trkpt>
      <trkpt lat="63.39303683" lon="13.14509483">
        <ele>564.039</ele>
        <time>1970-01-01T01:00:00Z</time>
      </trkpt>
      <trkpt lat="63.393058" lon="13.145071">
        <ele>564.039</ele>
        <time>1970-01-01T01:00:00Z</time>
      </trkpt>
      <trkpt lat="63.393078" lon="13.14504533">
        <ele>564.344</ele>
        <time>1970-01-01T01:00:00Z</time>
      </trkpt>
      <trkpt lat="63.39309833" lon="13.1450225">
        <ele>564.344</ele>
        <time>1970-01-01T01:00:00Z</time>
      </trkpt>
      <trkpt lat="63.39311717" lon="13.1449975">
        <ele>564.496</ele>
        <time>1970-01-01T01:00:00Z</time>
      </trkpt>
      <trkpt lat="63.39313767" lon="13.144975">
        <ele>564.496</ele>
        <time>1970-01-01T01:00:00Z</time>
      </trkpt>
      <trkpt lat="63.39315883" lon="13.1449555">
        <ele>564.649</ele>
        <time>1970-01-01T01:00:00Z</time>
      </trkpt>
      <trkpt lat="63.39318083" lon="13.1449355">
        <ele>564.649</ele>
        <time>1970-01-01T01:00:00Z</time>
      </trkpt>
      <trkpt lat="63.39320267" lon="13.1449125">
        <ele>564.801</ele>
        <time>1970-01-01T01:00:00Z</time>
      </trkpt>
      <trkpt lat="63.39322317" lon="13.14488817">
        <ele>564.801</ele>
        <time>1970-01-01T01:00:00Z</time>
      </trkpt>
      <trkpt lat="63.393244" lon="13.1448645">
        <ele>564.954</ele>
        <time>1970-01-01T01:00:00Z</time>
      </trkpt>
      <trkpt lat="63.393265" lon="13.14484383">
        <ele>564.954</ele>
        <time>1970-01-01T01:00:00Z</time>
      </trkpt>
      <trkpt lat="63.39328617" lon="13.14482167">
        <ele>565.106</ele>
        <time>1970-01-01T01:00:00Z</time>
      </trkpt>
      <trkpt lat="63.3933085" lon="13.14479817">
        <ele>565.106</ele>
        <time>1970-01-01T01:00:00Z</time>
      </trkpt>
      <trkpt lat="63.39333133" lon="13.14477517">
        <ele>565.258</ele>
        <time>1970-01-01T01:00:00Z</time>
      </trkpt>
      <trkpt lat="63.393354" lon="13.14475433">
        <ele>565.258</ele>
        <time>1970-01-01T01:00:00Z</time>
      </trkpt>
      <trkpt lat="63.39337567" lon="13.14473567">
        <ele>565.411</ele>
        <time>1970-01-01T01:00:00Z</time>
      </trkpt>
      <trkpt lat="63.3933965" lon="13.14471567">
        <ele>565.411</ele>
        <time>1970-01-01T01:00:00Z</time>
      </trkpt>
      <trkpt lat="63.39341783" lon="13.144696">
        <ele>565.563</ele>
        <time>1970-01-01T01:00:00Z</time>
      </trkpt>
      <trkpt lat="63.39344033" lon="13.14467767">
        <ele>565.563</ele>
        <time>1970-01-01T01:00:00Z</time>
      </trkpt>
      <trkpt lat="63.39346283" lon="13.14466467">
        <ele>565.716</ele>
        <time>1970-01-01T01:00:00Z</time>
      </trkpt>
      <trkpt lat="63.393485" lon="13.14465183">
        <ele>565.716</ele>
        <time>1970-01-01T01:00:00Z</time>
      </trkpt>
      <trkpt lat="63.3935065" lon="13.144639">
        <ele>565.868</ele>
        <time>1970-01-01T01:00:00Z</time>
      </trkpt>
      <trkpt lat="63.39352783" lon="13.1446215">
        <ele>565.868</ele>
        <time>1970-01-01T01:00:00Z</time>
      </trkpt>
      <trkpt lat="63.393549" lon="13.1446045">
        <ele>566.02</ele>
        <time>1970-01-01T01:00:00Z</time>
      </trkpt>
      <trkpt lat="63.39357117" lon="13.1445865">
        <ele>566.02</ele>
        <time>1970-01-01T01:00:00Z</time>
      </trkpt>
      <trkpt lat="63.393593" lon="13.14457217">
        <ele>566.173</ele>
        <time>1970-01-01T01:00:00Z</time>
      </trkpt>
      <trkpt lat="63.3936165" lon="13.1445565">
        <ele>566.173</ele>
        <time>1970-01-01T01:00:00Z</time>
      </trkpt>
      <trkpt lat="63.39363917" lon="13.14454117">
        <ele>566.325</ele>
        <time>1970-01-01T01:00:00Z</time>
      </trkpt>
      <trkpt lat="63.3936615" lon="13.14452583">
        <ele>566.325</ele>
        <time>1970-01-01T01:00:00Z</time>
      </trkpt>
      <trkpt lat="63.39368317" lon="13.1445095">
        <ele>566.478</ele>
        <time>1970-01-01T01:00:00Z</time>
      </trkpt>
      <trkpt lat="63.39370617" lon="13.14449367">
        <ele>566.478</ele>
        <time>1970-01-01T01:00:00Z</time>
      </trkpt>
      <trkpt lat="63.393729" lon="13.14447767">
        <ele>566.478</ele>
        <time>1970-01-01T01:00:00Z</time>
      </trkpt>
      <trkpt lat="63.39375183" lon="13.1444625">
        <ele>566.478</ele>
        <time>1970-01-01T01:00:00Z</time>
      </trkpt>
      <trkpt lat="63.39377467" lon="13.1444465">
        <ele>566.63</ele>
        <time>1970-01-01T01:00:00Z</time>
      </trkpt>
      <trkpt lat="63.39379817" lon="13.14442833">
        <ele>566.63</ele>
        <time>1970-01-01T01:00:00Z</time>
      </trkpt>
      <trkpt lat="63.39382217" lon="13.14440967">
        <ele>566.63</ele>
        <time>1970-01-01T01:00:00Z</time>
      </trkpt>
      <trkpt lat="63.393846" lon="13.144389">
        <ele>566.63</ele>
        <time>1970-01-01T01:00:00Z</time>
      </trkpt>
      <trkpt lat="63.39386917" lon="13.1443715">
        <ele>566.782</ele>
        <time>1970-01-01T01:00:00Z</time>
      </trkpt>
      <trkpt lat="63.39389283" lon="13.14435267">
        <ele>566.782</ele>
        <time>1970-01-01T01:00:00Z</time>
      </trkpt>
      <trkpt lat="63.39391433" lon="13.1443325">
        <ele>566.782</ele>
        <time>1970-01-01T01:00:00Z</time>
      </trkpt>
      <trkpt lat="63.39393683" lon="13.14430767">
        <ele>566.782</ele>
        <time>1970-01-01T01:00:00Z</time>
      </trkpt>
      <trkpt lat="63.39395867" lon="13.14428383">
        <ele>566.935</ele>
        <time>1970-01-01T01:00:00Z</time>
      </trkpt>
      <trkpt lat="63.39398233" lon="13.1442665">
        <ele>566.935</ele>
        <time>1970-01-01T01:00:00Z</time>
      </trkpt>
      <trkpt lat="63.39400617" lon="13.144253">
        <ele>567.087</ele>
        <time>1970-01-01T01:00:00Z</time>
      </trkpt>
      <trkpt lat="63.39403017" lon="13.14424183">
        <ele>567.087</ele>
        <time>1970-01-01T01:00:00Z</time>
      </trkpt>
      <trkpt lat="63.3940535" lon="13.14423217">
        <ele>567.087</ele>
        <time>1970-01-01T01:00:00Z</time>
      </trkpt>
      <trkpt lat="63.39407667" lon="13.14421983">
        <ele>567.087</ele>
        <time>1970-01-01T01:00:00Z</time>
      </trkpt>
      <trkpt lat="63.3941015" lon="13.14421217">
        <ele>567.24</ele>
        <time>1970-01-01T01:00:00Z</time>
      </trkpt>
      <trkpt lat="63.39412583" lon="13.14420617">
        <ele>567.24</ele>
        <time>1970-01-01T01:00:00Z</time>
      </trkpt>
      <trkpt lat="63.39415067" lon="13.14420467">
        <ele>567.392</ele>
        <time>1970-01-01T01:00:00Z</time>
      </trkpt>
      <trkpt lat="63.394175" lon="13.14419917">
        <ele>567.392</ele>
        <time>1970-01-01T01:00:00Z</time>
      </trkpt>
      <trkpt lat="63.39419883" lon="13.14419017">
        <ele>567.392</ele>
        <time>1970-01-01T01:00:00Z</time>
      </trkpt>
      <trkpt lat="63.39422367" lon="13.14417933">
        <ele>567.392</ele>
        <time>1970-01-01T01:00:00Z</time>
      </trkpt>
      <trkpt lat="63.39424817" lon="13.14416883">
        <ele>567.544</ele>
        <time>1970-01-01T01:00:00Z</time>
      </trkpt>
      <trkpt lat="63.394272" lon="13.14415967">
        <ele>567.544</ele>
        <time>1970-01-01T01:00:00Z</time>
      </trkpt>
      <trkpt lat="63.39429683" lon="13.14414917">
        <ele>567.544</ele>
        <time>1970-01-01T01:00:00Z</time>
      </trkpt>
      <trkpt lat="63.39432167" lon="13.14414167">
        <ele>567.544</ele>
        <time>1970-01-01T01:00:00Z</time>
      </trkpt>
      <trkpt lat="63.39434667" lon="13.14413367">
        <ele>567.697</ele>
        <time>1970-01-01T01:00:00Z</time>
      </trkpt>
      <trkpt lat="63.39437217" lon="13.1441285">
        <ele>567.697</ele>
        <time>1970-01-01T01:00:00Z</time>
      </trkpt>
      <trkpt lat="63.394397" lon="13.14412117">
        <ele>567.697</ele>
        <time>1970-01-01T01:00:00Z</time>
      </trkpt>
      <trkpt lat="63.3944225" lon="13.14411383">
        <ele>567.697</ele>
        <time>1970-01-01T01:00:00Z</time>
      </trkpt>
      <trkpt lat="63.394447" lon="13.1441075">
        <ele>567.849</ele>
        <time>1970-01-01T01:00:00Z</time>
      </trkpt>
      <trkpt lat="63.394469" lon="13.144105">
        <ele>567.849</ele>
        <time>1970-01-01T01:00:00Z</time>
      </trkpt>
      <trkpt lat="63.394493" lon="13.14410333">
        <ele>567.849</ele>
        <time>1970-01-01T01:00:00Z</time>
      </trkpt>
      <trkpt lat="63.39451667" lon="13.1441025">
        <ele>567.849</ele>
        <time>1970-01-01T01:00:00Z</time>
      </trkpt>
      <trkpt lat="63.39454183" lon="13.14409883">
        <ele>567.849</ele>
        <time>1970-01-01T01:00:00Z</time>
      </trkpt>
      <trkpt lat="63.39456633" lon="13.144098">
        <ele>567.849</ele>
        <time>1970-01-01T01:00:00Z</time>
      </trkpt>
      <trkpt lat="63.39458833" lon="13.1441005">
        <ele>567.697</ele>
        <time>1970-01-01T01:00:00Z</time>
      </trkpt>
      <trkpt lat="63.39461017" lon="13.14410317">
        <ele>567.697</ele>
        <time>1970-01-01T01:00:00Z</time>
      </trkpt>
      <trkpt lat="63.39463233" lon="13.14410417">
        <ele>567.697</ele>
        <time>1970-01-01T01:00:00Z</time>
      </trkpt>
      <trkpt lat="63.39465583" lon="13.14410317">
        <ele>567.697</ele>
        <time>1970-01-01T01:00:00Z</time>
      </trkpt>
      <trkpt lat="63.3946795" lon="13.14410317">
        <ele>567.697</ele>
        <time>1970-01-01T01:00:00Z</time>
      </trkpt>
      <trkpt lat="63.39470367" lon="13.144104">
        <ele>567.697</ele>
        <time>1970-01-01T01:00:00Z</time>
      </trkpt>
      <trkpt lat="63.394727" lon="13.14410217">
        <ele>567.697</ele>
        <time>1970-01-01T01:00:00Z</time>
      </trkpt>
      <trkpt lat="63.39475083" lon="13.1441">
        <ele>567.697</ele>
        <time>1970-01-01T01:00:00Z</time>
      </trkpt>
      <trkpt lat="63.39477367" lon="13.144096">
        <ele>567.849</ele>
        <time>1970-01-01T01:00:00Z</time>
      </trkpt>
      <trkpt lat="63.39479633" lon="13.14409417">
        <ele>567.849</ele>
        <time>1970-01-01T01:00:00Z</time>
      </trkpt>
      <trkpt lat="63.3948185" lon="13.14409383">
        <ele>567.849</ele>
        <time>1970-01-01T01:00:00Z</time>
      </trkpt>
      <trkpt lat="63.394841" lon="13.144098">
        <ele>567.849</ele>
        <time>1970-01-01T01:00:00Z</time>
      </trkpt>
      <trkpt lat="63.394864" lon="13.14410067">
        <ele>568.002</ele>
        <time>1970-01-01T01:00:00Z</time>
      </trkpt>
      <trkpt lat="63.39488817" lon="13.14410267">
        <ele>568.002</ele>
        <time>1970-01-01T01:00:00Z</time>
      </trkpt>
      <trkpt lat="63.39491017" lon="13.14410183">
        <ele>568.002</ele>
        <time>1970-01-01T01:00:00Z</time>
      </trkpt>
      <trkpt lat="63.3949325" lon="13.14410433">
        <ele>568.002</ele>
        <time>1970-01-01T01:00:00Z</time>
      </trkpt>
      <trkpt lat="63.3949555" lon="13.1441065">
        <ele>568.154</ele>
        <time>1970-01-01T01:00:00Z</time>
      </trkpt>
      <trkpt lat="63.39497733" lon="13.1441085">
        <ele>568.154</ele>
        <time>1970-01-01T01:00:00Z</time>
      </trkpt>
      <trkpt lat="63.39499933" lon="13.14410983">
        <ele>568.307</ele>
        <time>1970-01-01T01:00:00Z</time>
      </trkpt>
      <trkpt lat="63.39501983" lon="13.14411183">
        <ele>568.307</ele>
        <time>1970-01-01T01:00:00Z</time>
      </trkpt>
      <trkpt lat="63.39504117" lon="13.14411367">
        <ele>568.459</ele>
        <time>1970-01-01T01:00:00Z</time>
      </trkpt>
      <trkpt lat="63.39506233" lon="13.14411383">
        <ele>568.459</ele>
        <time>1970-01-01T01:00:00Z</time>
      </trkpt>
      <trkpt lat="63.39508233" lon="13.144117">
        <ele>568.764</ele>
        <time>1970-01-01T01:00:00Z</time>
      </trkpt>
      <trkpt lat="63.395103" lon="13.14411633">
        <ele>568.764</ele>
        <time>1970-01-01T01:00:00Z</time>
      </trkpt>
      <trkpt lat="63.39512383" lon="13.144114">
        <ele>569.068</ele>
        <time>1970-01-01T01:00:00Z</time>
      </trkpt>
      <trkpt lat="63.39514483" lon="13.14411033">
        <ele>569.068</ele>
        <time>1970-01-01T01:00:00Z</time>
      </trkpt>
      <trkpt lat="63.395166" lon="13.14411167">
        <ele>569.373</ele>
        <time>1970-01-01T01:00:00Z</time>
      </trkpt>
      <trkpt lat="63.39518783" lon="13.14411717">
        <ele>569.373</ele>
        <time>1970-01-01T01:00:00Z</time>
      </trkpt>
      <trkpt lat="63.39520983" lon="13.144125">
        <ele>569.678</ele>
        <time>1970-01-01T01:00:00Z</time>
      </trkpt>
      <trkpt lat="63.39523233" lon="13.14413633">
        <ele>569.678</ele>
        <time>1970-01-01T01:00:00Z</time>
      </trkpt>
      <trkpt lat="63.39525417" lon="13.144148">
        <ele>569.983</ele>
        <time>1970-01-01T01:00:00Z</time>
      </trkpt>
      <trkpt lat="63.39527567" lon="13.14415633">
        <ele>569.983</ele>
        <time>1970-01-01T01:00:00Z</time>
      </trkpt>
      <trkpt lat="63.395298" lon="13.14416217">
        <ele>570.288</ele>
        <time>1970-01-01T01:00:00Z</time>
      </trkpt>
      <trkpt lat="63.39531933" lon="13.14416767">
        <ele>570.288</ele>
        <time>1970-01-01T01:00:00Z</time>
      </trkpt>
      <trkpt lat="63.3953415" lon="13.14417733">
        <ele>570.593</ele>
        <time>1970-01-01T01:00:00Z</time>
      </trkpt>
      <trkpt lat="63.39536333" lon="13.14419083">
        <ele>570.593</ele>
        <time>1970-01-01T01:00:00Z</time>
      </trkpt>
      <trkpt lat="63.39538617" lon="13.14420167">
        <ele>571.05</ele>
        <time>1970-01-01T01:00:00Z</time>
      </trkpt>
      <trkpt lat="63.39540767" lon="13.14421">
        <ele>571.05</ele>
        <time>1970-01-01T01:00:00Z</time>
      </trkpt>
      <trkpt lat="63.39542967" lon="13.14421833">
        <ele>571.355</ele>
        <time>1970-01-01T01:00:00Z</time>
      </trkpt>
      <trkpt lat="63.39544967" lon="13.144232">
        <ele>571.355</ele>
        <time>1970-01-01T01:00:00Z</time>
      </trkpt>
      <trkpt lat="63.39547117" lon="13.14424567">
        <ele>571.812</ele>
        <time>1970-01-01T01:00:00Z</time>
      </trkpt>
      <trkpt lat="63.39549283" lon="13.1442645">
        <ele>571.812</ele>
        <time>1970-01-01T01:00:00Z</time>
      </trkpt>
      <trkpt lat="63.3955155" lon="13.14428033">
        <ele>572.117</ele>
        <time>1970-01-01T01:00:00Z</time>
      </trkpt>
      <trkpt lat="63.39554017" lon="13.14430033">
        <ele>572.117</ele>
        <time>1970-01-01T01:00:00Z</time>
      </trkpt>
      <trkpt lat="63.395563" lon="13.14431367">
        <ele>572.421</ele>
        <time>1970-01-01T01:00:00Z</time>
      </trkpt>
      <trkpt lat="63.39558583" lon="13.14432733">
        <ele>572.421</ele>
        <time>1970-01-01T01:00:00Z</time>
      </trkpt>
      <trkpt lat="63.39560767" lon="13.14433933">
        <ele>572.726</ele>
        <time>1970-01-01T01:00:00Z</time>
      </trkpt>
      <trkpt lat="63.39563033" lon="13.144353">
        <ele>572.726</ele>
        <time>1970-01-01T01:00:00Z</time>
      </trkpt>
      <trkpt lat="63.39565283" lon="13.1443675">
        <ele>573.031</ele>
        <time>1970-01-01T01:00:00Z</time>
      </trkpt>
      <trkpt lat="63.39567617" lon="13.14438067">
        <ele>573.031</ele>
        <time>1970-01-01T01:00:00Z</time>
      </trkpt>
      <trkpt lat="63.395699" lon="13.14439217">
        <ele>573.336</ele>
        <time>1970-01-01T01:00:00Z</time>
      </trkpt>
      <trkpt lat="63.39572133" lon="13.144403">
        <ele>573.336</ele>
        <time>1970-01-01T01:00:00Z</time>
      </trkpt>
      <trkpt lat="63.3957425" lon="13.14441483">
        <ele>573.488</ele>
        <time>1970-01-01T01:00:00Z</time>
      </trkpt>
      <trkpt lat="63.39576317" lon="13.14442817">
        <ele>573.488</ele>
        <time>1970-01-01T01:00:00Z</time>
      </trkpt>
      <trkpt lat="63.39578533" lon="13.14444167">
        <ele>573.641</ele>
        <time>1970-01-01T01:00:00Z</time>
      </trkpt>
      <trkpt lat="63.3958075" lon="13.1444565">
        <ele>573.641</ele>
        <time>1970-01-01T01:00:00Z</time>
      </trkpt>
      <trkpt lat="63.3958305" lon="13.1444715">
        <ele>573.793</ele>
        <time>1970-01-01T01:00:00Z</time>
      </trkpt>
      <trkpt lat="63.39585367" lon="13.14448867">
        <ele>573.793</ele>
        <time>1970-01-01T01:00:00Z</time>
      </trkpt>
      <trkpt lat="63.39587733" lon="13.144506">
        <ele>573.945</ele>
        <time>1970-01-01T01:00:00Z</time>
      </trkpt>
      <trkpt lat="63.3959" lon="13.14452417">
        <ele>573.945</ele>
        <time>1970-01-01T01:00:00Z</time>
      </trkpt>
      <trkpt lat="63.39592283" lon="13.14454617">
        <ele>574.098</ele>
        <time>1970-01-01T01:00:00Z</time>
      </trkpt>
      <trkpt lat="63.39594417" lon="13.14456783">
        <ele>574.098</ele>
        <time>1970-01-01T01:00:00Z</time>
      </trkpt>
      <trkpt lat="63.395966" lon="13.1445905">
        <ele>574.25</ele>
        <time>1970-01-01T01:00:00Z</time>
      </trkpt>
      <trkpt lat="63.39598933" lon="13.144609">
        <ele>574.25</ele>
        <time>1970-01-01T01:00:00Z</time>
      </trkpt>
      <trkpt lat="63.396011" lon="13.14462833">
        <ele>574.403</ele>
        <time>1970-01-01T01:00:00Z</time>
      </trkpt>
      <trkpt lat="63.396034" lon="13.144651">
        <ele>574.403</ele>
        <time>1970-01-01T01:00:00Z</time>
      </trkpt>
      <trkpt lat="63.39605483" lon="13.14467367">
        <ele>574.555</ele>
        <time>1970-01-01T01:00:00Z</time>
      </trkpt>
      <trkpt lat="63.396077" lon="13.14469483">
        <ele>574.555</ele>
        <time>1970-01-01T01:00:00Z</time>
      </trkpt>
      <trkpt lat="63.39609933" lon="13.14471317">
        <ele>574.707</ele>
        <time>1970-01-01T01:00:00Z</time>
      </trkpt>
      <trkpt lat="63.39612183" lon="13.14473533">
        <ele>574.707</ele>
        <time>1970-01-01T01:00:00Z</time>
      </trkpt>
      <trkpt lat="63.39614367" lon="13.144758">
        <ele>574.86</ele>
        <time>1970-01-01T01:00:00Z</time>
      </trkpt>
      <trkpt lat="63.39616583" lon="13.144782">
        <ele>574.86</ele>
        <time>1970-01-01T01:00:00Z</time>
      </trkpt>
      <trkpt lat="63.39618733" lon="13.1448025">
        <ele>575.012</ele>
        <time>1970-01-01T01:00:00Z</time>
      </trkpt>
      <trkpt lat="63.396209" lon="13.14482567">
        <ele>575.012</ele>
        <time>1970-01-01T01:00:00Z</time>
      </trkpt>
      <trkpt lat="63.39623017" lon="13.14485517">
        <ele>575.165</ele>
        <time>1970-01-01T01:00:00Z</time>
      </trkpt>
      <trkpt lat="63.3962515" lon="13.14488683">
        <ele>575.165</ele>
        <time>1970-01-01T01:00:00Z</time>
      </trkpt>
      <trkpt lat="63.39627383" lon="13.14491883">
        <ele>575.317</ele>
        <time>1970-01-01T01:00:00Z</time>
      </trkpt>
      <trkpt lat="63.39629517" lon="13.144945">
        <ele>575.317</ele>
        <time>1970-01-01T01:00:00Z</time>
      </trkpt>
      <trkpt lat="63.39631717" lon="13.1449715">
        <ele>575.469</ele>
        <time>1970-01-01T01:00:00Z</time>
      </trkpt>
      <trkpt lat="63.396339" lon="13.14499917">
        <ele>575.469</ele>
        <time>1970-01-01T01:00:00Z</time>
      </trkpt>
      <trkpt lat="63.39636" lon="13.14502983">
        <ele>575.622</ele>
        <time>1970-01-01T01:00:00Z</time>
      </trkpt>
      <trkpt lat="63.396381" lon="13.1450615">
        <ele>575.622</ele>
        <time>1970-01-01T01:00:00Z</time>
      </trkpt>
      <trkpt lat="63.39640333" lon="13.14509583">
        <ele>575.622</ele>
        <time>1970-01-01T01:00:00Z</time>
      </trkpt>
      <trkpt lat="63.3964265" lon="13.14512733">
        <ele>575.622</ele>
        <time>1970-01-01T01:00:00Z</time>
      </trkpt>
      <trkpt lat="63.39644967" lon="13.14515617">
        <ele>575.774</ele>
        <time>1970-01-01T01:00:00Z</time>
      </trkpt>
      <trkpt lat="63.396472" lon="13.14517983">
        <ele>575.774</ele>
        <time>1970-01-01T01:00:00Z</time>
      </trkpt>
      <trkpt lat="63.39649417" lon="13.14520367">
        <ele>575.927</ele>
        <time>1970-01-01T01:00:00Z</time>
      </trkpt>
      <trkpt lat="63.39651567" lon="13.14523167">
        <ele>575.927</ele>
        <time>1970-01-01T01:00:00Z</time>
      </trkpt>
      <trkpt lat="63.39653633" lon="13.14526483">
        <ele>575.927</ele>
        <time>1970-01-01T01:00:00Z</time>
      </trkpt>
      <trkpt lat="63.39655633" lon="13.14529633">
        <ele>575.927</ele>
        <time>1970-01-01T01:00:00Z</time>
      </trkpt>
      <trkpt lat="63.39657667" lon="13.14532667">
        <ele>576.079</ele>
        <time>1970-01-01T01:00:00Z</time>
      </trkpt>
      <trkpt lat="63.39659683" lon="13.14535067">
        <ele>576.079</ele>
        <time>1970-01-01T01:00:00Z</time>
      </trkpt>
      <trkpt lat="63.39661717" lon="13.14537517">
        <ele>576.079</ele>
        <time>1970-01-01T01:00:00Z</time>
      </trkpt>
      <trkpt lat="63.39663867" lon="13.14539933">
        <ele>576.079</ele>
        <time>1970-01-01T01:00:00Z</time>
      </trkpt>
      <trkpt lat="63.396661" lon="13.14542833">
        <ele>576.231</ele>
        <time>1970-01-01T01:00:00Z</time>
      </trkpt>
      <trkpt lat="63.39668467" lon="13.1454585">
        <ele>576.231</ele>
        <time>1970-01-01T01:00:00Z</time>
      </trkpt>
      <trkpt lat="63.39670733" lon="13.145491">
        <ele>576.384</ele>
        <time>1970-01-01T01:00:00Z</time>
      </trkpt>
      <trkpt lat="63.39672967" lon="13.14552167">
        <ele>576.384</ele>
        <time>1970-01-01T01:00:00Z</time>
      </trkpt>
      <trkpt lat="63.3967515" lon="13.145553">
        <ele>576.384</ele>
        <time>1970-01-01T01:00:00Z</time>
      </trkpt>
      <trkpt lat="63.396773" lon="13.14558333">
        <ele>576.384</ele>
        <time>1970-01-01T01:00:00Z</time>
      </trkpt>
      <trkpt lat="63.3967935" lon="13.14561267">
        <ele>576.536</ele>
        <time>1970-01-01T01:00:00Z</time>
      </trkpt>
      <trkpt lat="63.39681483" lon="13.1456415">
        <ele>576.536</ele>
        <time>1970-01-01T01:00:00Z</time>
      </trkpt>
      <trkpt lat="63.39683717" lon="13.145669">
        <ele>576.689</ele>
        <time>1970-01-01T01:00:00Z</time>
      </trkpt>
      <trkpt lat="63.39686117" lon="13.1456965">
        <ele>576.689</ele>
        <time>1970-01-01T01:00:00Z</time>
      </trkpt>
      <trkpt lat="63.3968845" lon="13.14572367">
        <ele>576.689</ele>
        <time>1970-01-01T01:00:00Z</time>
      </trkpt>
      <trkpt lat="63.39690783" lon="13.14575067">
        <ele>576.689</ele>
        <time>1970-01-01T01:00:00Z</time>
      </trkpt>
      <trkpt lat="63.39692833" lon="13.14577733">
        <ele>576.841</ele>
        <time>1970-01-01T01:00:00Z</time>
      </trkpt>
      <trkpt lat="63.39694867" lon="13.14580317">
        <ele>576.841</ele>
        <time>1970-01-01T01:00:00Z</time>
      </trkpt>
      <trkpt lat="63.39696833" lon="13.1458285">
        <ele>576.841</ele>
        <time>1970-01-01T01:00:00Z</time>
      </trkpt>
      <trkpt lat="63.3969905" lon="13.14585483">
        <ele>576.841</ele>
        <time>1970-01-01T01:00:00Z</time>
      </trkpt>
      <trkpt lat="63.39701283" lon="13.145882">
        <ele>576.993</ele>
        <time>1970-01-01T01:00:00Z</time>
      </trkpt>
      <trkpt lat="63.39703517" lon="13.14591083">
        <ele>576.993</ele>
        <time>1970-01-01T01:00:00Z</time>
      </trkpt>
      <trkpt lat="63.39705783" lon="13.145941">
        <ele>576.993</ele>
        <time>1970-01-01T01:00:00Z</time>
      </trkpt>
      <trkpt lat="63.3970805" lon="13.1459725">
        <ele>576.993</ele>
        <time>1970-01-01T01:00:00Z</time>
      </trkpt>
      <trkpt lat="63.397103" lon="13.14600017">
        <ele>576.993</ele>
        <time>1970-01-01T01:00:00Z</time>
      </trkpt>
      <trkpt lat="63.39712583" lon="13.14602733">
        <ele>576.993</ele>
        <time>1970-01-01T01:00:00Z</time>
      </trkpt>
      <trkpt lat="63.3971485" lon="13.14605333">
        <ele>577.146</ele>
        <time>1970-01-01T01:00:00Z</time>
      </trkpt>
      <trkpt lat="63.3971725" lon="13.14608083">
        <ele>577.146</ele>
        <time>1970-01-01T01:00:00Z</time>
      </trkpt>
      <trkpt lat="63.39719533" lon="13.14611233">
        <ele>577.146</ele>
        <time>1970-01-01T01:00:00Z</time>
      </trkpt>
      <trkpt lat="63.3972185" lon="13.14614367">
        <ele>577.146</ele>
        <time>1970-01-01T01:00:00Z</time>
      </trkpt>
      <trkpt lat="63.39724067" lon="13.146174">
        <ele>577.146</ele>
        <time>1970-01-01T01:00:00Z</time>
      </trkpt>
      <trkpt lat="63.39726383" lon="13.14619967">
        <ele>577.146</ele>
        <time>1970-01-01T01:00:00Z</time>
      </trkpt>
      <trkpt lat="63.39728667" lon="13.14622583">
        <ele>577.298</ele>
        <time>1970-01-01T01:00:00Z</time>
      </trkpt>
      <trkpt lat="63.3973105" lon="13.146252">
        <ele>577.298</ele>
        <time>1970-01-01T01:00:00Z</time>
      </trkpt>
      <trkpt lat="63.39733417" lon="13.14627967">
        <ele>577.298</ele>
        <time>1970-01-01T01:00:00Z</time>
      </trkpt>
      <trkpt lat="63.397358" lon="13.1463055">
        <ele>577.298</ele>
        <time>1970-01-01T01:00:00Z</time>
      </trkpt>
      <trkpt lat="63.39738117" lon="13.14633617">
        <ele>577.298</ele>
        <time>1970-01-01T01:00:00Z</time>
      </trkpt>
      <trkpt lat="63.39740517" lon="13.14636733">
        <ele>577.298</ele>
        <time>1970-01-01T01:00:00Z</time>
      </trkpt>
      <trkpt lat="63.39742733" lon="13.14640183">
        <ele>577.298</ele>
        <time>1970-01-01T01:00:00Z</time>
      </trkpt>
      <trkpt lat="63.39744917" lon="13.14643583">
        <ele>577.298</ele>
        <time>1970-01-01T01:00:00Z</time>
      </trkpt>
      <trkpt lat="63.39747" lon="13.146467">
        <ele>577.298</ele>
        <time>1970-01-01T01:00:00Z</time>
      </trkpt>
      <trkpt lat="63.3974915" lon="13.14649483">
        <ele>577.298</ele>
        <time>1970-01-01T01:00:00Z</time>
      </trkpt>
      <trkpt lat="63.39751383" lon="13.1465155">
        <ele>577.298</ele>
        <time>1970-01-01T01:00:00Z</time>
      </trkpt>
      <trkpt lat="63.39753633" lon="13.14653567">
        <ele>577.298</ele>
        <time>1970-01-01T01:00:00Z</time>
      </trkpt>
      <trkpt lat="63.3975595" lon="13.14655467">
        <ele>577.451</ele>
        <time>1970-01-01T01:00:00Z</time>
      </trkpt>
      <trkpt lat="63.397582" lon="13.14657833">
        <ele>577.451</ele>
        <time>1970-01-01T01:00:00Z</time>
      </trkpt>
      <trkpt lat="63.397604" lon="13.14660633">
        <ele>577.451</ele>
        <time>1970-01-01T01:00:00Z</time>
      </trkpt>
      <trkpt lat="63.39762483" lon="13.1466365">
        <ele>577.451</ele>
        <time>1970-01-01T01:00:00Z</time>
      </trkpt>
      <trkpt lat="63.39764617" lon="13.146668">
        <ele>577.451</ele>
        <time>1970-01-01T01:00:00Z</time>
      </trkpt>
      <trkpt lat="63.39766783" lon="13.14669833">
        <ele>577.451</ele>
        <time>1970-01-01T01:00:00Z</time>
      </trkpt>
      <trkpt lat="63.39769033" lon="13.1467295">
        <ele>577.603</ele>
        <time>1970-01-01T01:00:00Z</time>
      </trkpt>
      <trkpt lat="63.3977135" lon="13.14676167">
        <ele>577.603</ele>
        <time>1970-01-01T01:00:00Z</time>
      </trkpt>
      <trkpt lat="63.39773567" lon="13.14679083">
        <ele>577.603</ele>
        <time>1970-01-01T01:00:00Z</time>
      </trkpt>
      <trkpt lat="63.39775683" lon="13.14682133">
        <ele>577.603</ele>
        <time>1970-01-01T01:00:00Z</time>
      </trkpt>
      <trkpt lat="63.3977735" lon="13.146849">
        <ele>577.603</ele>
        <time>1970-01-01T01:00:00Z</time>
      </trkpt>
      <trkpt lat="63.39778783" lon="13.146864">
        <ele>577.603</ele>
        <time>1970-01-01T01:00:00Z</time>
      </trkpt>
      <trkpt lat="63.39779933" lon="13.14687517">
        <ele>577.603</ele>
        <time>1970-01-01T01:00:00Z</time>
      </trkpt>
      <trkpt lat="63.39781117" lon="13.14688383">
        <ele>577.603</ele>
        <time>1970-01-01T01:00:00Z</time>
      </trkpt>
      <trkpt lat="63.39782267" lon="13.14690233">
        <ele>577.603</ele>
        <time>1970-01-01T01:00:00Z</time>
      </trkpt>
      <trkpt lat="63.3978345" lon="13.14692183">
        <ele>577.603</ele>
        <time>1970-01-01T01:00:00Z</time>
      </trkpt>
      <trkpt lat="63.397847" lon="13.146941">
        <ele>577.603</ele>
        <time>1970-01-01T01:00:00Z</time>
      </trkpt>
      <trkpt lat="63.39785883" lon="13.14695733">
        <ele>577.603</ele>
        <time>1970-01-01T01:00:00Z</time>
      </trkpt>
      <trkpt lat="63.39787017" lon="13.14696917">
        <ele>577.603</ele>
        <time>1970-01-01T01:00:00Z</time>
      </trkpt>
      <trkpt lat="63.39787967" lon="13.146978">
        <ele>577.603</ele>
        <time>1970-01-01T01:00:00Z</time>
      </trkpt>
      <trkpt lat="63.39788883" lon="13.14698767">
        <ele>577.603</ele>
        <time>1970-01-01T01:00:00Z</time>
      </trkpt>
      <trkpt lat="63.39789817" lon="13.14699533">
        <ele>577.603</ele>
        <time>1970-01-01T01:00:00Z</time>
      </trkpt>
      <trkpt lat="63.39790717" lon="13.14700417">
        <ele>577.603</ele>
        <time>1970-01-01T01:00:00Z</time>
      </trkpt>
      <trkpt lat="63.397916" lon="13.14701283">
        <ele>577.603</ele>
        <time>1970-01-01T01:00:00Z</time>
      </trkpt>
      <trkpt lat="63.3979245" lon="13.14702317">
        <ele>577.603</ele>
        <time>1970-01-01T01:00:00Z</time>
      </trkpt>
      <trkpt lat="63.39793317" lon="13.1470335">
        <ele>577.603</ele>
        <time>1970-01-01T01:00:00Z</time>
      </trkpt>
      <trkpt lat="63.39794167" lon="13.14704317">
        <ele>577.603</ele>
        <time>1970-01-01T01:00:00Z</time>
      </trkpt>
      <trkpt lat="63.3979495" lon="13.147056">
        <ele>577.603</ele>
        <time>1970-01-01T01:00:00Z</time>
      </trkpt>
      <trkpt lat="63.39795733" lon="13.14706967">
        <ele>577.603</ele>
        <time>1970-01-01T01:00:00Z</time>
      </trkpt>
      <trkpt lat="63.3979655" lon="13.14708283">
        <ele>577.603</ele>
        <time>1970-01-01T01:00:00Z</time>
      </trkpt>
      <trkpt lat="63.39797467" lon="13.14709333">
        <ele>577.755</ele>
        <time>1970-01-01T01:00:00Z</time>
      </trkpt>
      <trkpt lat="63.39798383" lon="13.14710367">
        <ele>577.755</ele>
        <time>1970-01-01T01:00:00Z</time>
      </trkpt>
      <trkpt lat="63.3979935" lon="13.147118">
        <ele>577.755</ele>
        <time>1970-01-01T01:00:00Z</time>
      </trkpt>
      <trkpt lat="63.39800417" lon="13.14713267">
        <ele>577.755</ele>
        <time>1970-01-01T01:00:00Z</time>
      </trkpt>
      <trkpt lat="63.3980155" lon="13.147148">
        <ele>577.755</ele>
        <time>1970-01-01T01:00:00Z</time>
      </trkpt>
      <trkpt lat="63.398027" lon="13.14716083">
        <ele>577.755</ele>
        <time>1970-01-01T01:00:00Z</time>
      </trkpt>
      <trkpt lat="63.39803767" lon="13.147173">
        <ele>577.755</ele>
        <time>1970-01-01T01:00:00Z</time>
      </trkpt>
      <trkpt lat="63.39804783" lon="13.14718467">
        <ele>577.755</ele>
        <time>1970-01-01T01:00:00Z</time>
      </trkpt>
      <trkpt lat="63.39805683" lon="13.1471965">
        <ele>577.755</ele>
        <time>1970-01-01T01:00:00Z</time>
      </trkpt>
      <trkpt lat="63.3980645" lon="13.14720483">
        <ele>577.755</ele>
        <time>1970-01-01T01:00:00Z</time>
      </trkpt>
      <trkpt lat="63.39807133" lon="13.147213">
        <ele>577.908</ele>
        <time>1970-01-01T01:00:00Z</time>
      </trkpt>
      <trkpt lat="63.3980785" lon="13.14721967">
        <ele>577.908</ele>
        <time>1970-01-01T01:00:00Z</time>
      </trkpt>
      <trkpt lat="63.398086" lon="13.14722917">
        <ele>577.908</ele>
        <time>1970-01-01T01:00:00Z</time>
      </trkpt>
      <trkpt lat="63.3980935" lon="13.14723767">
        <ele>577.908</ele>
        <time>1970-01-01T01:00:00Z</time>
      </trkpt>
      <trkpt lat="63.398101" lon="13.14724833">
        <ele>577.908</ele>
        <time>1970-01-01T01:00:00Z</time>
      </trkpt>
      <trkpt lat="63.3981085" lon="13.14725917">
        <ele>577.908</ele>
        <time>1970-01-01T01:00:00Z</time>
      </trkpt>
      <trkpt lat="63.39811583" lon="13.14727133">
        <ele>578.06</ele>
        <time>1970-01-01T01:00:00Z</time>
      </trkpt>
      <trkpt lat="63.39812317" lon="13.14728167">
        <ele>578.06</ele>
        <time>1970-01-01T01:00:00Z</time>
      </trkpt>
      <trkpt lat="63.39813067" lon="13.1472865">
        <ele>578.06</ele>
        <time>1970-01-01T01:00:00Z</time>
      </trkpt>
      <trkpt lat="63.39813717" lon="13.147289">
        <ele>578.06</ele>
        <time>1970-01-01T01:00:00Z</time>
      </trkpt>
      <trkpt lat="63.39814283" lon="13.14728967">
        <ele>578.213</ele>
        <time>1970-01-01T01:00:00Z</time>
      </trkpt>
      <trkpt lat="63.39814767" lon="13.14729433">
        <ele>578.213</ele>
        <time>1970-01-01T01:00:00Z</time>
      </trkpt>
      <trkpt lat="63.398152" lon="13.147301">
        <ele>578.213</ele>
        <time>1970-01-01T01:00:00Z</time>
      </trkpt>
      <trkpt lat="63.39815583" lon="13.14731117">
        <ele>578.213</ele>
        <time>1970-01-01T01:00:00Z</time>
      </trkpt>
      <trkpt lat="63.39816017" lon="13.147322">
        <ele>578.365</ele>
        <time>1970-01-01T01:00:00Z</time>
      </trkpt>
      <trkpt lat="63.39816517" lon="13.14733067">
        <ele>578.365</ele>
        <time>1970-01-01T01:00:00Z</time>
      </trkpt>
      <trkpt lat="63.3981715" lon="13.14733833">
        <ele>578.365</ele>
        <time>1970-01-01T01:00:00Z</time>
      </trkpt>
      <trkpt lat="63.398177" lon="13.14734567">
        <ele>578.365</ele>
        <time>1970-01-01T01:00:00Z</time>
      </trkpt>
      <trkpt lat="63.39818217" lon="13.14735133">
        <ele>578.517</ele>
        <time>1970-01-01T01:00:00Z</time>
      </trkpt>
      <trkpt lat="63.39818583" lon="13.147355">
        <ele>578.517</ele>
        <time>1970-01-01T01:00:00Z</time>
      </trkpt>
      <trkpt lat="63.398191" lon="13.14735667">
        <ele>578.517</ele>
        <time>1970-01-01T01:00:00Z</time>
      </trkpt>
      <trkpt lat="63.3981955" lon="13.14735867">
        <ele>578.517</ele>
        <time>1970-01-01T01:00:00Z</time>
      </trkpt>
      <trkpt lat="63.39819783" lon="13.14736">
        <ele>578.67</ele>
        <time>1970-01-01T01:00:00Z</time>
      </trkpt>
      <trkpt lat="63.39819517" lon="13.14735983">
        <ele>578.67</ele>
        <time>1970-01-01T01:00:00Z</time>
      </trkpt>
      <trkpt lat="63.39819067" lon="13.14735733">
        <ele>578.67</ele>
        <time>1970-01-01T01:00:00Z</time>
      </trkpt>
      <trkpt lat="63.39818533" lon="13.147349">
        <ele>578.67</ele>
        <time>1970-01-01T01:00:00Z</time>
      </trkpt>
      <trkpt lat="63.39818" lon="13.14733833">
        <ele>578.67</ele>
        <time>1970-01-01T01:00:00Z</time>
      </trkpt>
      <trkpt lat="63.39817233" lon="13.14732533">
        <ele>578.67</ele>
        <time>1970-01-01T01:00:00Z</time>
      </trkpt>
      <trkpt lat="63.39816367" lon="13.14731533">
        <ele>578.67</ele>
        <time>1970-01-01T01:00:00Z</time>
      </trkpt>
      <trkpt lat="63.39815533" lon="13.14730583">
        <ele>578.67</ele>
        <time>1970-01-01T01:00:00Z</time>
      </trkpt>
      <trkpt lat="63.398148" lon="13.1472985">
        <ele>578.67</ele>
        <time>1970-01-01T01:00:00Z</time>
      </trkpt>
      <trkpt lat="63.398141" lon="13.14729117">
        <ele>578.67</ele>
        <time>1970-01-01T01:00:00Z</time>
      </trkpt>
      <trkpt lat="63.3981345" lon="13.14728433">
        <ele>578.67</ele>
        <time>1970-01-01T01:00:00Z</time>
      </trkpt>
      <trkpt lat="63.39812733" lon="13.147277">
        <ele>578.67</ele>
        <time>1970-01-01T01:00:00Z</time>
      </trkpt>
      <trkpt lat="63.39812033" lon="13.14726833">
        <ele>578.67</ele>
        <time>1970-01-01T01:00:00Z</time>
      </trkpt>
      <trkpt lat="63.39811083" lon="13.14725717">
        <ele>578.67</ele>
        <time>1970-01-01T01:00:00Z</time>
      </trkpt>
      <trkpt lat="63.3981015" lon="13.14724717">
        <ele>578.67</ele>
        <time>1970-01-01T01:00:00Z</time>
      </trkpt>
      <trkpt lat="63.398091" lon="13.147234">
        <ele>578.67</ele>
        <time>1970-01-01T01:00:00Z</time>
      </trkpt>
      <trkpt lat="63.39808217" lon="13.147222">
        <ele>578.517</ele>
        <time>1970-01-01T01:00:00Z</time>
      </trkpt>
      <trkpt lat="63.39807367" lon="13.14720683">
        <ele>578.517</ele>
        <time>1970-01-01T01:00:00Z</time>
      </trkpt>
      <trkpt lat="63.39806583" lon="13.14719533">
        <ele>578.517</ele>
        <time>1970-01-01T01:00:00Z</time>
      </trkpt>
      <trkpt lat="63.39805767" lon="13.147186">
        <ele>578.517</ele>
        <time>1970-01-01T01:00:00Z</time>
      </trkpt>
      <trkpt lat="63.39804867" lon="13.14717783">
        <ele>578.517</ele>
        <time>1970-01-01T01:00:00Z</time>
      </trkpt>
      <trkpt lat="63.39803983" lon="13.14717067">
        <ele>578.517</ele>
        <time>1970-01-01T01:00:00Z</time>
      </trkpt>
      <trkpt lat="63.39802983" lon="13.1471625">
        <ele>578.517</ele>
        <time>1970-01-01T01:00:00Z</time>
      </trkpt>
      <trkpt lat="63.398021" lon="13.14715717">
        <ele>578.517</ele>
        <time>1970-01-01T01:00:00Z</time>
      </trkpt>
      <trkpt lat="63.39801133" lon="13.14715267">
        <ele>578.365</ele>
        <time>1970-01-01T01:00:00Z</time>
      </trkpt>
      <trkpt lat="63.39800183" lon="13.14715033">
        <ele>578.365</ele>
        <time>1970-01-01T01:00:00Z</time>
      </trkpt>
      <trkpt lat="63.39799083" lon="13.147149">
        <ele>578.365</ele>
        <time>1970-01-01T01:00:00Z</time>
      </trkpt>
      <trkpt lat="63.39798" lon="13.14714933">
        <ele>578.365</ele>
        <time>1970-01-01T01:00:00Z</time>
      </trkpt>
      <trkpt lat="63.39796933" lon="13.1471495">
        <ele>578.365</ele>
        <time>1970-01-01T01:00:00Z</time>
      </trkpt>
      <trkpt lat="63.397959" lon="13.1471455">
        <ele>578.365</ele>
        <time>1970-01-01T01:00:00Z</time>
      </trkpt>
      <trkpt lat="63.397949" lon="13.14713983">
        <ele>578.365</ele>
        <time>1970-01-01T01:00:00Z</time>
      </trkpt>
      <trkpt lat="63.39793933" lon="13.14713317">
        <ele>578.365</ele>
        <time>1970-01-01T01:00:00Z</time>
      </trkpt>
      <trkpt lat="63.39793017" lon="13.14712783">
        <ele>578.365</ele>
        <time>1970-01-01T01:00:00Z</time>
      </trkpt>
      <trkpt lat="63.3979215" lon="13.14711967">
        <ele>578.365</ele>
        <time>1970-01-01T01:00:00Z</time>
      </trkpt>
      <trkpt lat="63.3979145" lon="13.14710817">
        <ele>578.517</ele>
        <time>1970-01-01T01:00:00Z</time>
      </trkpt>
      <trkpt lat="63.3979065" lon="13.147093">
        <ele>578.517</ele>
        <time>1970-01-01T01:00:00Z</time>
      </trkpt>
      <trkpt lat="63.397897" lon="13.14707917">
        <ele>578.517</ele>
        <time>1970-01-01T01:00:00Z</time>
      </trkpt>
      <trkpt lat="63.397886" lon="13.14706633">
        <ele>578.517</ele>
        <time>1970-01-01T01:00:00Z</time>
      </trkpt>
      <trkpt lat="63.39787533" lon="13.14705483">
        <ele>578.517</ele>
        <time>1970-01-01T01:00:00Z</time>
      </trkpt>
      <trkpt lat="63.39786617" lon="13.14704467">
        <ele>578.517</ele>
        <time>1970-01-01T01:00:00Z</time>
      </trkpt>
      <trkpt lat="63.3978585" lon="13.14703467">
        <ele>578.517</ele>
        <time>1970-01-01T01:00:00Z</time>
      </trkpt>
      <trkpt lat="63.3978515" lon="13.14702367">
        <ele>578.517</ele>
        <time>1970-01-01T01:00:00Z</time>
      </trkpt>
      <trkpt lat="63.39784317" lon="13.147008">
        <ele>578.517</ele>
        <time>1970-01-01T01:00:00Z</time>
      </trkpt>
      <trkpt lat="63.3978335" lon="13.14699267">
        <ele>578.517</ele>
        <time>1970-01-01T01:00:00Z</time>
      </trkpt>
      <trkpt lat="63.3978245" lon="13.146978">
        <ele>578.517</ele>
        <time>1970-01-01T01:00:00Z</time>
      </trkpt>
      <trkpt lat="63.39781617" lon="13.146966">
        <ele>578.517</ele>
        <time>1970-01-01T01:00:00Z</time>
      </trkpt>
      <trkpt lat="63.39780767" lon="13.14695283">
        <ele>578.517</ele>
        <time>1970-01-01T01:00:00Z</time>
      </trkpt>
      <trkpt lat="63.39779867" lon="13.14694017">
        <ele>578.517</ele>
        <time>1970-01-01T01:00:00Z</time>
      </trkpt>
      <trkpt lat="63.397789" lon="13.14692733">
        <ele>578.517</ele>
        <time>1970-01-01T01:00:00Z</time>
      </trkpt>
      <trkpt lat="63.39777933" lon="13.14691583">
        <ele>578.517</ele>
        <time>1970-01-01T01:00:00Z</time>
      </trkpt>
      <trkpt lat="63.3977695" lon="13.14690417">
        <ele>578.517</ele>
        <time>1970-01-01T01:00:00Z</time>
      </trkpt>
      <trkpt lat="63.3977585" lon="13.14689083">
        <ele>578.517</ele>
        <time>1970-01-01T01:00:00Z</time>
      </trkpt>
      <trkpt lat="63.39774617" lon="13.146875">
        <ele>578.517</ele>
        <time>1970-01-01T01:00:00Z</time>
      </trkpt>
      <trkpt lat="63.397733" lon="13.14685533">
        <ele>578.517</ele>
        <time>1970-01-01T01:00:00Z</time>
      </trkpt>
      <trkpt lat="63.397719" lon="13.1468315">
        <ele>578.517</ele>
        <time>1970-01-01T01:00:00Z</time>
      </trkpt>
      <trkpt lat="63.39770317" lon="13.1468055">
        <ele>578.517</ele>
        <time>1970-01-01T01:00:00Z</time>
      </trkpt>
      <trkpt lat="63.39768567" lon="13.14678">
        <ele>578.517</ele>
        <time>1970-01-01T01:00:00Z</time>
      </trkpt>
      <trkpt lat="63.39766683" lon="13.14675633">
        <ele>578.517</ele>
        <time>1970-01-01T01:00:00Z</time>
      </trkpt>
      <trkpt lat="63.39764767" lon="13.1467325">
        <ele>578.67</ele>
        <time>1970-01-01T01:00:00Z</time>
      </trkpt>
      <trkpt lat="63.39762933" lon="13.14670517">
        <ele>578.67</ele>
        <time>1970-01-01T01:00:00Z</time>
      </trkpt>
      <trkpt lat="63.39761233" lon="13.14667883">
        <ele>578.67</ele>
        <time>1970-01-01T01:00:00Z</time>
      </trkpt>
      <trkpt lat="63.3975955" lon="13.14664983">
        <ele>578.67</ele>
        <time>1970-01-01T01:00:00Z</time>
      </trkpt>
      <trkpt lat="63.3975765" lon="13.14662233">
        <ele>578.822</ele>
        <time>1970-01-01T01:00:00Z</time>
      </trkpt>
      <trkpt lat="63.39755617" lon="13.14659533">
        <ele>578.822</ele>
        <time>1970-01-01T01:00:00Z</time>
      </trkpt>
      <trkpt lat="63.39753517" lon="13.14656633">
        <ele>578.822</ele>
        <time>1970-01-01T01:00:00Z</time>
      </trkpt>
      <trkpt lat="63.3975145" lon="13.1465425">
        <ele>578.822</ele>
        <time>1970-01-01T01:00:00Z</time>
      </trkpt>
      <trkpt lat="63.397494" lon="13.1465165">
        <ele>578.975</ele>
        <time>1970-01-01T01:00:00Z</time>
      </trkpt>
      <trkpt lat="63.39747317" lon="13.1464955">
        <ele>578.975</ele>
        <time>1970-01-01T01:00:00Z</time>
      </trkpt>
      <trkpt lat="63.39745217" lon="13.14647233">
        <ele>579.127</ele>
        <time>1970-01-01T01:00:00Z</time>
      </trkpt>
      <trkpt lat="63.39742933" lon="13.14645233">
        <ele>579.127</ele>
        <time>1970-01-01T01:00:00Z</time>
      </trkpt>
      <trkpt lat="63.39740633" lon="13.14642817">
        <ele>579.127</ele>
        <time>1970-01-01T01:00:00Z</time>
      </trkpt>
      <trkpt lat="63.39738333" lon="13.14640333">
        <ele>579.127</ele>
        <time>1970-01-01T01:00:00Z</time>
      </trkpt>
      <trkpt lat="63.39736033" lon="13.14637467">
        <ele>579.279</ele>
        <time>1970-01-01T01:00:00Z</time>
      </trkpt>
      <trkpt lat="63.39733833" lon="13.14635267">
        <ele>579.279</ele>
        <time>1970-01-01T01:00:00Z</time>
      </trkpt>
      <trkpt lat="63.39731617" lon="13.14633017">
        <ele>579.279</ele>
        <time>1970-01-01T01:00:00Z</time>
      </trkpt>
      <trkpt lat="63.39729583" lon="13.146308">
        <ele>579.279</ele>
        <time>1970-01-01T01:00:00Z</time>
      </trkpt>
      <trkpt lat="63.39727767" lon="13.14628283">
        <ele>579.432</ele>
        <time>1970-01-01T01:00:00Z</time>
      </trkpt>
      <trkpt lat="63.397259" lon="13.1462555">
        <ele>579.432</ele>
        <time>1970-01-01T01:00:00Z</time>
      </trkpt>
      <trkpt lat="63.39723917" lon="13.1462265">
        <ele>579.432</ele>
        <time>1970-01-01T01:00:00Z</time>
      </trkpt>
      <trkpt lat="63.3972165" lon="13.14619483">
        <ele>579.432</ele>
        <time>1970-01-01T01:00:00Z</time>
      </trkpt>
      <trkpt lat="63.39719467" lon="13.14616733">
        <ele>579.584</ele>
        <time>1970-01-01T01:00:00Z</time>
      </trkpt>
      <trkpt lat="63.39717383" lon="13.14614217">
        <ele>579.584</ele>
        <time>1970-01-01T01:00:00Z</time>
      </trkpt>
      <trkpt lat="63.397153" lon="13.1461195">
        <ele>579.584</ele>
        <time>1970-01-01T01:00:00Z</time>
      </trkpt>
      <trkpt lat="63.39713167" lon="13.1460925">
        <ele>579.584</ele>
        <time>1970-01-01T01:00:00Z</time>
      </trkpt>
      <trkpt lat="63.39711" lon="13.14606583">
        <ele>579.584</ele>
        <time>1970-01-01T01:00:00Z</time>
      </trkpt>
      <trkpt lat="63.39708733" lon="13.1460395">
        <ele>579.584</ele>
        <time>1970-01-01T01:00:00Z</time>
      </trkpt>
      <trkpt lat="63.39706367" lon="13.14601633">
        <ele>579.737</ele>
        <time>1970-01-01T01:00:00Z</time>
      </trkpt>
      <trkpt lat="63.39703817" lon="13.145993">
        <ele>579.737</ele>
        <time>1970-01-01T01:00:00Z</time>
      </trkpt>
      <trkpt lat="63.3970125" lon="13.145971">
        <ele>579.889</ele>
        <time>1970-01-01T01:00:00Z</time>
      </trkpt>
      <trkpt lat="63.39698767" lon="13.1459515">
        <ele>579.889</ele>
        <time>1970-01-01T01:00:00Z</time>
      </trkpt>
      <trkpt lat="63.39696267" lon="13.14593583">
        <ele>580.041</ele>
        <time>1970-01-01T01:00:00Z</time>
      </trkpt>
      <trkpt lat="63.3969385" lon="13.14592">
        <ele>580.041</ele>
        <time>1970-01-01T01:00:00Z</time>
      </trkpt>
      <trkpt lat="63.39691167" lon="13.14590567">
        <ele>580.041</ele>
        <time>1970-01-01T01:00:00Z</time>
      </trkpt>
      <trkpt lat="63.39688567" lon="13.145884">
        <ele>580.041</ele>
        <time>1970-01-01T01:00:00Z</time>
      </trkpt>
      <trkpt lat="63.39686233" lon="13.1458625">
        <ele>580.194</ele>
        <time>1970-01-01T01:00:00Z</time>
      </trkpt>
      <trkpt lat="63.3968425" lon="13.14583283">
        <ele>580.194</ele>
        <time>1970-01-01T01:00:00Z</time>
      </trkpt>
      <trkpt lat="63.3968225" lon="13.14580383">
        <ele>580.346</ele>
        <time>1970-01-01T01:00:00Z</time>
      </trkpt>
      <trkpt lat="63.39680433" lon="13.145774">
        <ele>580.346</ele>
        <time>1970-01-01T01:00:00Z</time>
      </trkpt>
      <trkpt lat="63.39678583" lon="13.145747">
        <ele>580.346</ele>
        <time>1970-01-01T01:00:00Z</time>
      </trkpt>
      <trkpt lat="63.39676733" lon="13.14572333">
        <ele>580.346</ele>
        <time>1970-01-01T01:00:00Z</time>
      </trkpt>
      <trkpt lat="63.39674683" lon="13.14569983">
        <ele>580.499</ele>
        <time>1970-01-01T01:00:00Z</time>
      </trkpt>
      <trkpt lat="63.39672633" lon="13.1456745">
        <ele>580.499</ele>
        <time>1970-01-01T01:00:00Z</time>
      </trkpt>
      <trkpt lat="63.3967075" lon="13.1456445">
        <ele>580.651</ele>
        <time>1970-01-01T01:00:00Z</time>
      </trkpt>
      <trkpt lat="63.39668883" lon="13.14561267">
        <ele>580.651</ele>
        <time>1970-01-01T01:00:00Z</time>
      </trkpt>
      <trkpt lat="63.39667083" lon="13.1455785">
        <ele>580.803</ele>
        <time>1970-01-01T01:00:00Z</time>
      </trkpt>
      <trkpt lat="63.39665217" lon="13.14554433">
        <ele>580.803</ele>
        <time>1970-01-01T01:00:00Z</time>
      </trkpt>
      <trkpt lat="63.396634" lon="13.14550917">
        <ele>581.108</ele>
        <time>1970-01-01T01:00:00Z</time>
      </trkpt>
      <trkpt lat="63.39661383" lon="13.14547933">
        <ele>581.108</ele>
        <time>1970-01-01T01:00:00Z</time>
      </trkpt>
      <trkpt lat="63.39659367" lon="13.145454">
        <ele>581.261</ele>
        <time>1970-01-01T01:00:00Z</time>
      </trkpt>
      <trkpt lat="63.39657117" lon="13.1454275">
        <ele>581.261</ele>
        <time>1970-01-01T01:00:00Z</time>
      </trkpt>
      <trkpt lat="63.39655017" lon="13.14539633">
        <ele>581.565</ele>
        <time>1970-01-01T01:00:00Z</time>
      </trkpt>
      <trkpt lat="63.39653" lon="13.14536017">
        <ele>581.565</ele>
        <time>1970-01-01T01:00:00Z</time>
      </trkpt>
      <trkpt lat="63.39651" lon="13.1453225">
        <ele>581.87</ele>
        <time>1970-01-01T01:00:00Z</time>
      </trkpt>
      <trkpt lat="63.39649017" lon="13.14528717">
        <ele>581.87</ele>
        <time>1970-01-01T01:00:00Z</time>
      </trkpt>
      <trkpt lat="63.39646967" lon="13.14525533">
        <ele>582.175</ele>
        <time>1970-01-01T01:00:00Z</time>
      </trkpt>
      <trkpt lat="63.39644783" lon="13.14522733">
        <ele>582.175</ele>
        <time>1970-01-01T01:00:00Z</time>
      </trkpt>
      <trkpt lat="63.39642483" lon="13.14520083">
        <ele>582.48</ele>
        <time>1970-01-01T01:00:00Z</time>
      </trkpt>
      <trkpt lat="63.39640017" lon="13.1451755">
        <ele>582.48</ele>
        <time>1970-01-01T01:00:00Z</time>
      </trkpt>
      <trkpt lat="63.39637817" lon="13.14515033">
        <ele>582.785</ele>
        <time>1970-01-01T01:00:00Z</time>
      </trkpt>
      <trkpt lat="63.396357" lon="13.14512333">
        <ele>582.785</ele>
        <time>1970-01-01T01:00:00Z</time>
      </trkpt>
      <trkpt lat="63.39633633" lon="13.14509217">
        <ele>583.089</ele>
        <time>1970-01-01T01:00:00Z</time>
      </trkpt>
      <trkpt lat="63.3963135" lon="13.145061">
        <ele>583.089</ele>
        <time>1970-01-01T01:00:00Z</time>
      </trkpt>
      <trkpt lat="63.39629017" lon="13.14503117">
        <ele>583.394</ele>
        <time>1970-01-01T01:00:00Z</time>
      </trkpt>
      <trkpt lat="63.3962655" lon="13.145005">
        <ele>583.394</ele>
        <time>1970-01-01T01:00:00Z</time>
      </trkpt>
      <trkpt lat="63.39624" lon="13.144981">
        <ele>583.547</ele>
        <time>1970-01-01T01:00:00Z</time>
      </trkpt>
      <trkpt lat="63.39621533" lon="13.14495983">
        <ele>583.547</ele>
        <time>1970-01-01T01:00:00Z</time>
      </trkpt>
      <trkpt lat="63.39619317" lon="13.1449355">
        <ele>583.852</ele>
        <time>1970-01-01T01:00:00Z</time>
      </trkpt>
      <trkpt lat="63.39617233" lon="13.14491117">
        <ele>583.852</ele>
        <time>1970-01-01T01:00:00Z</time>
      </trkpt>
      <trkpt lat="63.396151" lon="13.14488567">
        <ele>584.156</ele>
        <time>1970-01-01T01:00:00Z</time>
      </trkpt>
      <trkpt lat="63.39612817" lon="13.14486167">
        <ele>584.156</ele>
        <time>1970-01-01T01:00:00Z</time>
      </trkpt>
      <trkpt lat="63.39610467" lon="13.14483767">
        <ele>584.309</ele>
        <time>1970-01-01T01:00:00Z</time>
      </trkpt>
      <trkpt lat="63.396079" lon="13.14481333">
        <ele>584.309</ele>
        <time>1970-01-01T01:00:00Z</time>
      </trkpt>
      <trkpt lat="63.39605233" lon="13.144791">
        <ele>584.461</ele>
        <time>1970-01-01T01:00:00Z</time>
      </trkpt>
      <trkpt lat="63.39602633" lon="13.14476917">
        <ele>584.461</ele>
        <time>1970-01-01T01:00:00Z</time>
      </trkpt>
      <trkpt lat="63.396001" lon="13.14474667">
        <ele>584.613</ele>
        <time>1970-01-01T01:00:00Z</time>
      </trkpt>
      <trkpt lat="63.39597467" lon="13.144725">
        <ele>584.613</ele>
        <time>1970-01-01T01:00:00Z</time>
      </trkpt>
      <trkpt lat="63.39594833" lon="13.14470533">
        <ele>584.613</ele>
        <time>1970-01-01T01:00:00Z</time>
      </trkpt>
      <trkpt lat="63.39591933" lon="13.14468667">
        <ele>584.613</ele>
        <time>1970-01-01T01:00:00Z</time>
      </trkpt>
      <trkpt lat="63.39589067" lon="13.144672">
        <ele>584.613</ele>
        <time>1970-01-01T01:00:00Z</time>
      </trkpt>
      <trkpt lat="63.3958625" lon="13.14465183">
        <ele>584.613</ele>
        <time>1970-01-01T01:00:00Z</time>
      </trkpt>
      <trkpt lat="63.395837" lon="13.14462983">
        <ele>584.613</ele>
        <time>1970-01-01T01:00:00Z</time>
      </trkpt>
      <trkpt lat="63.395813" lon="13.1446065">
        <ele>584.613</ele>
        <time>1970-01-01T01:00:00Z</time>
      </trkpt>
      <trkpt lat="63.395789" lon="13.14458667">
        <ele>584.613</ele>
        <time>1970-01-01T01:00:00Z</time>
      </trkpt>
      <trkpt lat="63.39576367" lon="13.14456917">
        <ele>584.613</ele>
        <time>1970-01-01T01:00:00Z</time>
      </trkpt>
      <trkpt lat="63.39573783" lon="13.1445515">
        <ele>584.613</ele>
        <time>1970-01-01T01:00:00Z</time>
      </trkpt>
      <trkpt lat="63.39571167" lon="13.14453517">
        <ele>584.613</ele>
        <time>1970-01-01T01:00:00Z</time>
      </trkpt>
      <trkpt lat="63.395685" lon="13.14452217">
        <ele>584.461</ele>
        <time>1970-01-01T01:00:00Z</time>
      </trkpt>
      <trkpt lat="63.39566" lon="13.1445085">
        <ele>584.461</ele>
        <time>1970-01-01T01:00:00Z</time>
      </trkpt>
      <trkpt lat="63.39563483" lon="13.1444965">
        <ele>584.461</ele>
        <time>1970-01-01T01:00:00Z</time>
      </trkpt>
      <trkpt lat="63.39561033" lon="13.1444825">
        <ele>584.461</ele>
        <time>1970-01-01T01:00:00Z</time>
      </trkpt>
      <trkpt lat="63.3955845" lon="13.144473">
        <ele>584.309</ele>
        <time>1970-01-01T01:00:00Z</time>
      </trkpt>
      <trkpt lat="63.39555817" lon="13.14446467">
        <ele>584.309</ele>
        <time>1970-01-01T01:00:00Z</time>
      </trkpt>
      <trkpt lat="63.39553083" lon="13.1444595">
        <ele>584.156</ele>
        <time>1970-01-01T01:00:00Z</time>
      </trkpt>
      <trkpt lat="63.39550383" lon="13.14445167">
        <ele>584.156</ele>
        <time>1970-01-01T01:00:00Z</time>
      </trkpt>
      <trkpt lat="63.39547667" lon="13.14444333">
        <ele>583.852</ele>
        <time>1970-01-01T01:00:00Z</time>
      </trkpt>
      <trkpt lat="63.3954515" lon="13.1444355">
        <ele>583.852</ele>
        <time>1970-01-01T01:00:00Z</time>
      </trkpt>
      <trkpt lat="63.39542633" lon="13.144429">
        <ele>583.699</ele>
        <time>1970-01-01T01:00:00Z</time>
      </trkpt>
      <trkpt lat="63.39540183" lon="13.1444235">
        <ele>583.699</ele>
        <time>1970-01-01T01:00:00Z</time>
      </trkpt>
      <trkpt lat="63.39537583" lon="13.14442017">
        <ele>583.547</ele>
        <time>1970-01-01T01:00:00Z</time>
      </trkpt>
      <trkpt lat="63.39534933" lon="13.1444145">
        <ele>583.547</ele>
        <time>1970-01-01T01:00:00Z</time>
      </trkpt>
      <trkpt lat="63.39532217" lon="13.14440967">
        <ele>583.242</ele>
        <time>1970-01-01T01:00:00Z</time>
      </trkpt>
      <trkpt lat="63.3952965" lon="13.14440167">
        <ele>583.242</ele>
        <time>1970-01-01T01:00:00Z</time>
      </trkpt>
      <trkpt lat="63.39527083" lon="13.144392">
        <ele>583.089</ele>
        <time>1970-01-01T01:00:00Z</time>
      </trkpt>
      <trkpt lat="63.39524517" lon="13.14438383">
        <ele>583.089</ele>
        <time>1970-01-01T01:00:00Z</time>
      </trkpt>
      <trkpt lat="63.3952195" lon="13.14437567">
        <ele>582.937</ele>
        <time>1970-01-01T01:00:00Z</time>
      </trkpt>
      <trkpt lat="63.39519517" lon="13.144371">
        <ele>582.937</ele>
        <time>1970-01-01T01:00:00Z</time>
      </trkpt>
      <trkpt lat="63.395171" lon="13.1443635">
        <ele>582.632</ele>
        <time>1970-01-01T01:00:00Z</time>
      </trkpt>
      <trkpt lat="63.395149" lon="13.14435483">
        <ele>582.632</ele>
        <time>1970-01-01T01:00:00Z</time>
      </trkpt>
      <trkpt lat="63.39512683" lon="13.14434467">
        <ele>582.48</ele>
        <time>1970-01-01T01:00:00Z</time>
      </trkpt>
      <trkpt lat="63.39510517" lon="13.14433483">
        <ele>582.48</ele>
        <time>1970-01-01T01:00:00Z</time>
      </trkpt>
      <trkpt lat="63.39508133" lon="13.1443275">
        <ele>582.327</ele>
        <time>1970-01-01T01:00:00Z</time>
      </trkpt>
      <trkpt lat="63.39505783" lon="13.1443205">
        <ele>582.327</ele>
        <time>1970-01-01T01:00:00Z</time>
      </trkpt>
      <trkpt lat="63.39503467" lon="13.144316">
        <ele>582.175</ele>
        <time>1970-01-01T01:00:00Z</time>
      </trkpt>
      <trkpt lat="63.395011" lon="13.14431167">
        <ele>582.175</ele>
        <time>1970-01-01T01:00:00Z</time>
      </trkpt>
      <trkpt lat="63.39498733" lon="13.14430767">
        <ele>581.87</ele>
        <time>1970-01-01T01:00:00Z</time>
      </trkpt>
      <trkpt lat="63.39496317" lon="13.14430133">
        <ele>581.87</ele>
        <time>1970-01-01T01:00:00Z</time>
      </trkpt>
      <trkpt lat="63.39494117" lon="13.1442925">
        <ele>581.718</ele>
        <time>1970-01-01T01:00:00Z</time>
      </trkpt>
      <trkpt lat="63.39491817" lon="13.14428683">
        <ele>581.718</ele>
        <time>1970-01-01T01:00:00Z</time>
      </trkpt>
      <trkpt lat="63.394896" lon="13.14428183">
        <ele>581.718</ele>
        <time>1970-01-01T01:00:00Z</time>
      </trkpt>
      <trkpt lat="63.39487417" lon="13.14428133">
        <ele>581.718</ele>
        <time>1970-01-01T01:00:00Z</time>
      </trkpt>
      <trkpt lat="63.39485433" lon="13.1442795">
        <ele>581.565</ele>
        <time>1970-01-01T01:00:00Z</time>
      </trkpt>
      <trkpt lat="63.39483333" lon="13.14427767">
        <ele>581.565</ele>
        <time>1970-01-01T01:00:00Z</time>
      </trkpt>
      <trkpt lat="63.39480983" lon="13.14427383">
        <ele>581.413</ele>
        <time>1970-01-01T01:00:00Z</time>
      </trkpt>
      <trkpt lat="63.394785" lon="13.14427117">
        <ele>581.413</ele>
        <time>1970-01-01T01:00:00Z</time>
      </trkpt>
      <trkpt lat="63.3947605" lon="13.14427033">
        <ele>581.413</ele>
        <time>1970-01-01T01:00:00Z</time>
      </trkpt>
      <trkpt lat="63.3947375" lon="13.1442685">
        <ele>581.413</ele>
        <time>1970-01-01T01:00:00Z</time>
      </trkpt>
      <trkpt lat="63.39471433" lon="13.14426833">
        <ele>581.413</ele>
        <time>1970-01-01T01:00:00Z</time>
      </trkpt>
      <trkpt lat="63.394691" lon="13.14426733">
        <ele>581.413</ele>
        <time>1970-01-01T01:00:00Z</time>
      </trkpt>
      <trkpt lat="63.39466633" lon="13.1442695">
        <ele>581.413</ele>
        <time>1970-01-01T01:00:00Z</time>
      </trkpt>
      <trkpt lat="63.39464183" lon="13.14426867">
        <ele>581.413</ele>
        <time>1970-01-01T01:00:00Z</time>
      </trkpt>
      <trkpt lat="63.3946175" lon="13.14426383">
        <ele>581.413</ele>
        <time>1970-01-01T01:00:00Z</time>
      </trkpt>
      <trkpt lat="63.39459333" lon="13.14426033">
        <ele>581.413</ele>
        <time>1970-01-01T01:00:00Z</time>
      </trkpt>
      <trkpt lat="63.39457" lon="13.14425867">
        <ele>581.413</ele>
        <time>1970-01-01T01:00:00Z</time>
      </trkpt>
      <trkpt lat="63.39454717" lon="13.14426083">
        <ele>581.413</ele>
        <time>1970-01-01T01:00:00Z</time>
      </trkpt>
      <trkpt lat="63.39452567" lon="13.144261">
        <ele>581.413</ele>
        <time>1970-01-01T01:00:00Z</time>
      </trkpt>
      <trkpt lat="63.3945035" lon="13.1442615">
        <ele>581.413</ele>
        <time>1970-01-01T01:00:00Z</time>
      </trkpt>
      <trkpt lat="63.3944805" lon="13.1442635">
        <ele>581.413</ele>
        <time>1970-01-01T01:00:00Z</time>
      </trkpt>
      <trkpt lat="63.39445583" lon="13.1442655">
        <ele>581.413</ele>
        <time>1970-01-01T01:00:00Z</time>
      </trkpt>
      <trkpt lat="63.394431" lon="13.14426867">
        <ele>581.565</ele>
        <time>1970-01-01T01:00:00Z</time>
      </trkpt>
      <trkpt lat="63.394408" lon="13.1442725">
        <ele>581.565</ele>
        <time>1970-01-01T01:00:00Z</time>
      </trkpt>
      <trkpt lat="63.39438633" lon="13.14427817">
        <ele>581.565</ele>
        <time>1970-01-01T01:00:00Z</time>
      </trkpt>
      <trkpt lat="63.39436433" lon="13.144288">
        <ele>581.565</ele>
        <time>1970-01-01T01:00:00Z</time>
      </trkpt>
      <trkpt lat="63.39434217" lon="13.14429967">
        <ele>581.718</ele>
        <time>1970-01-01T01:00:00Z</time>
      </trkpt>
      <trkpt lat="63.3943175" lon="13.14430967">
        <ele>581.718</ele>
        <time>1970-01-01T01:00:00Z</time>
      </trkpt>
      <trkpt lat="63.39429267" lon="13.14431583">
        <ele>581.718</ele>
        <time>1970-01-01T01:00:00Z</time>
      </trkpt>
      <trkpt lat="63.3942675" lon="13.14432233">
        <ele>581.718</ele>
        <time>1970-01-01T01:00:00Z</time>
      </trkpt>
      <trkpt lat="63.3942435" lon="13.144331">
        <ele>581.87</ele>
        <time>1970-01-01T01:00:00Z</time>
      </trkpt>
      <trkpt lat="63.39422" lon="13.14434067">
        <ele>581.87</ele>
        <time>1970-01-01T01:00:00Z</time>
      </trkpt>
      <trkpt lat="63.39419833" lon="13.1443515">
        <ele>582.023</ele>
        <time>1970-01-01T01:00:00Z</time>
      </trkpt>
      <trkpt lat="63.39417567" lon="13.144364">
        <ele>582.023</ele>
        <time>1970-01-01T01:00:00Z</time>
      </trkpt>
      <trkpt lat="63.39415167" lon="13.144378">
        <ele>582.023</ele>
        <time>1970-01-01T01:00:00Z</time>
      </trkpt>
      <trkpt lat="63.39412767" lon="13.14439">
        <ele>582.023</ele>
        <time>1970-01-01T01:00:00Z</time>
      </trkpt>
      <trkpt lat="63.39410367" lon="13.1443995">
        <ele>582.175</ele>
        <time>1970-01-01T01:00:00Z</time>
      </trkpt>
      <trkpt lat="63.3940815" lon="13.1444085">
        <ele>582.175</ele>
        <time>1970-01-01T01:00:00Z</time>
      </trkpt>
      <trkpt lat="63.39405983" lon="13.14441817">
        <ele>582.175</ele>
        <time>1970-01-01T01:00:00Z</time>
      </trkpt>
      <trkpt lat="63.39404083" lon="13.14443">
        <ele>582.175</ele>
        <time>1970-01-01T01:00:00Z</time>
      </trkpt>
      <trkpt lat="63.3940225" lon="13.14444267">
        <ele>582.327</ele>
        <time>1970-01-01T01:00:00Z</time>
      </trkpt>
      <trkpt lat="63.3940015" lon="13.1444555">
        <ele>582.327</ele>
        <time>1970-01-01T01:00:00Z</time>
      </trkpt>
      <trkpt lat="63.39397717" lon="13.14446583">
        <ele>582.48</ele>
        <time>1970-01-01T01:00:00Z</time>
      </trkpt>
      <trkpt lat="63.393953" lon="13.144477">
        <ele>582.48</ele>
        <time>1970-01-01T01:00:00Z</time>
      </trkpt>
      <trkpt lat="63.3939285" lon="13.1444915">
        <ele>582.48</ele>
        <time>1970-01-01T01:00:00Z</time>
      </trkpt>
      <trkpt lat="63.39390283" lon="13.1445085">
        <ele>582.48</ele>
        <time>1970-01-01T01:00:00Z</time>
      </trkpt>
      <trkpt lat="63.39387467" lon="13.14452667">
        <ele>582.632</ele>
        <time>1970-01-01T01:00:00Z</time>
      </trkpt>
      <trkpt lat="63.39384683" lon="13.14454583">
        <ele>582.632</ele>
        <time>1970-01-01T01:00:00Z</time>
      </trkpt>
      <trkpt lat="63.3938195" lon="13.14456417">
        <ele>582.632</ele>
        <time>1970-01-01T01:00:00Z</time>
      </trkpt>
      <trkpt lat="63.39379183" lon="13.144579">
        <ele>582.632</ele>
        <time>1970-01-01T01:00:00Z</time>
      </trkpt>
      <trkpt lat="63.39376617" lon="13.14459267">
        <ele>582.632</ele>
        <time>1970-01-01T01:00:00Z</time>
      </trkpt>
      <trkpt lat="63.39374367" lon="13.14460933">
        <ele>582.632</ele>
        <time>1970-01-01T01:00:00Z</time>
      </trkpt>
      <trkpt lat="63.39372267" lon="13.14462783">
        <ele>582.632</ele>
        <time>1970-01-01T01:00:00Z</time>
      </trkpt>
      <trkpt lat="63.39370083" lon="13.1446425">
        <ele>582.632</ele>
        <time>1970-01-01T01:00:00Z</time>
      </trkpt>
      <trkpt lat="63.39367867" lon="13.14465417">
        <ele>582.632</ele>
        <time>1970-01-01T01:00:00Z</time>
      </trkpt>
      <trkpt lat="63.39365867" lon="13.1446665">
        <ele>582.632</ele>
        <time>1970-01-01T01:00:00Z</time>
      </trkpt>
      <trkpt lat="63.3936395" lon="13.144682">
        <ele>582.785</ele>
        <time>1970-01-01T01:00:00Z</time>
      </trkpt>
      <trkpt lat="63.39361817" lon="13.14470067">
        <ele>582.785</ele>
        <time>1970-01-01T01:00:00Z</time>
      </trkpt>
      <trkpt lat="63.3935955" lon="13.14471767">
        <ele>582.785</ele>
        <time>1970-01-01T01:00:00Z</time>
      </trkpt>
      <trkpt lat="63.39357067" lon="13.14473583">
        <ele>582.785</ele>
        <time>1970-01-01T01:00:00Z</time>
      </trkpt>
      <trkpt lat="63.3935485" lon="13.144753">
        <ele>582.785</ele>
        <time>1970-01-01T01:00:00Z</time>
      </trkpt>
      <trkpt lat="63.39352667" lon="13.14477283">
        <ele>582.785</ele>
        <time>1970-01-01T01:00:00Z</time>
      </trkpt>
      <trkpt lat="63.3935045" lon="13.1447925">
        <ele>582.937</ele>
        <time>1970-01-01T01:00:00Z</time>
      </trkpt>
      <trkpt lat="63.39348" lon="13.14481367">
        <ele>582.937</ele>
        <time>1970-01-01T01:00:00Z</time>
      </trkpt>
      <trkpt lat="63.39345717" lon="13.1448355">
        <ele>582.937</ele>
        <time>1970-01-01T01:00:00Z</time>
      </trkpt>
      <trkpt lat="63.393435" lon="13.144858">
        <ele>582.937</ele>
        <time>1970-01-01T01:00:00Z</time>
      </trkpt>
      <trkpt lat="63.39341333" lon="13.144882">
        <ele>583.089</ele>
        <time>1970-01-01T01:00:00Z</time>
      </trkpt>
      <trkpt lat="63.39338967" lon="13.14490667">
        <ele>583.089</ele>
        <time>1970-01-01T01:00:00Z</time>
      </trkpt>
      <trkpt lat="63.39336767" lon="13.14493167">
        <ele>583.089</ele>
        <time>1970-01-01T01:00:00Z</time>
      </trkpt>
      <trkpt lat="63.393346" lon="13.14495667">
        <ele>583.089</ele>
        <time>1970-01-01T01:00:00Z</time>
      </trkpt>
      <trkpt lat="63.39332467" lon="13.144983">
        <ele>583.089</ele>
        <time>1970-01-01T01:00:00Z</time>
      </trkpt>
      <trkpt lat="63.39330183" lon="13.14500917">
        <ele>583.089</ele>
        <time>1970-01-01T01:00:00Z</time>
      </trkpt>
      <trkpt lat="63.39327833" lon="13.14503283">
        <ele>583.242</ele>
        <time>1970-01-01T01:00:00Z</time>
      </trkpt>
      <trkpt lat="63.39325433" lon="13.14505433">
        <ele>583.242</ele>
        <time>1970-01-01T01:00:00Z</time>
      </trkpt>
      <trkpt lat="63.393231" lon="13.14507667">
        <ele>583.242</ele>
        <time>1970-01-01T01:00:00Z</time>
      </trkpt>
      <trkpt lat="63.3932085" lon="13.14510233">
        <ele>583.242</ele>
        <time>1970-01-01T01:00:00Z</time>
      </trkpt>
      <trkpt lat="63.39318717" lon="13.1451285">
        <ele>583.242</ele>
        <time>1970-01-01T01:00:00Z</time>
      </trkpt>
      <trkpt lat="63.39316267" lon="13.145157">
        <ele>583.242</ele>
        <time>1970-01-01T01:00:00Z</time>
      </trkpt>
      <trkpt lat="63.39313917" lon="13.145183">
        <ele>583.089</ele>
        <time>1970-01-01T01:00:00Z</time>
      </trkpt>
      <trkpt lat="63.39311517" lon="13.1452105">
        <ele>583.089</ele>
        <time>1970-01-01T01:00:00Z</time>
      </trkpt>
      <trkpt lat="63.3930935" lon="13.14523733">
        <ele>583.089</ele>
        <time>1970-01-01T01:00:00Z</time>
      </trkpt>
      <trkpt lat="63.39306567" lon="13.14525967">
        <ele>583.089</ele>
        <time>1970-01-01T01:00:00Z</time>
      </trkpt>
      <trkpt lat="63.39303717" lon="13.14527917">
        <ele>582.937</ele>
        <time>1970-01-01T01:00:00Z</time>
      </trkpt>
      <trkpt lat="63.3930095" lon="13.14529767">
        <ele>582.937</ele>
        <time>1970-01-01T01:00:00Z</time>
      </trkpt>
      <trkpt lat="63.39298933" lon="13.14532">
        <ele>582.632</ele>
        <time>1970-01-01T01:00:00Z</time>
      </trkpt>
      <trkpt lat="63.39296883" lon="13.145346">
        <ele>582.632</ele>
        <time>1970-01-01T01:00:00Z</time>
      </trkpt>
      <trkpt lat="63.39294733" lon="13.145375">
        <ele>582.48</ele>
        <time>1970-01-01T01:00:00Z</time>
      </trkpt>
      <trkpt lat="63.392923" lon="13.14540533">
        <ele>582.48</ele>
        <time>1970-01-01T01:00:00Z</time>
      </trkpt>
      <trkpt lat="63.39289883" lon="13.145438">
        <ele>582.175</ele>
        <time>1970-01-01T01:00:00Z</time>
      </trkpt>
      <trkpt lat="63.3928735" lon="13.14546733">
        <ele>582.175</ele>
        <time>1970-01-01T01:00:00Z</time>
      </trkpt>
      <trkpt lat="63.39285033" lon="13.1455">
        <ele>581.87</ele>
        <time>1970-01-01T01:00:00Z</time>
      </trkpt>
      <trkpt lat="63.39282817" lon="13.14553083">
        <ele>581.87</ele>
        <time>1970-01-01T01:00:00Z</time>
      </trkpt>
      <trkpt lat="63.39280917" lon="13.145562">
        <ele>581.565</ele>
        <time>1970-01-01T01:00:00Z</time>
      </trkpt>
      <trkpt lat="63.39279" lon="13.14559183">
        <ele>581.565</ele>
        <time>1970-01-01T01:00:00Z</time>
      </trkpt>
      <trkpt lat="63.3927705" lon="13.14562">
        <ele>581.261</ele>
        <time>1970-01-01T01:00:00Z</time>
      </trkpt>
      <trkpt lat="63.39274967" lon="13.14565183">
        <ele>581.261</ele>
        <time>1970-01-01T01:00:00Z</time>
      </trkpt>
      <trkpt lat="63.39272667" lon="13.1456855">
        <ele>580.956</ele>
        <time>1970-01-01T01:00:00Z</time>
      </trkpt>
      <trkpt lat="63.39270267" lon="13.14571833">
        <ele>580.956</ele>
        <time>1970-01-01T01:00:00Z</time>
      </trkpt>
      <trkpt lat="63.39267867" lon="13.1457505">
        <ele>580.651</ele>
        <time>1970-01-01T01:00:00Z</time>
      </trkpt>
      <trkpt lat="63.39265683" lon="13.1457795">
        <ele>580.651</ele>
        <time>1970-01-01T01:00:00Z</time>
      </trkpt>
      <trkpt lat="63.39263483" lon="13.14581283">
        <ele>580.346</ele>
        <time>1970-01-01T01:00:00Z</time>
      </trkpt>
      <trkpt lat="63.392611" lon="13.14584667">
        <ele>580.346</ele>
        <time>1970-01-01T01:00:00Z</time>
      </trkpt>
      <trkpt lat="63.39258767" lon="13.145878">
        <ele>580.041</ele>
        <time>1970-01-01T01:00:00Z</time>
      </trkpt>
      <trkpt lat="63.39256367" lon="13.14590717">
        <ele>580.041</ele>
        <time>1970-01-01T01:00:00Z</time>
      </trkpt>
      <trkpt lat="63.3925415" lon="13.145936">
        <ele>579.889</ele>
        <time>1970-01-01T01:00:00Z</time>
      </trkpt>
      <trkpt lat="63.3925175" lon="13.1459715">
        <ele>579.889</ele>
        <time>1970-01-01T01:00:00Z</time>
      </trkpt>
      <trkpt lat="63.3924945" lon="13.146007">
        <ele>579.584</ele>
        <time>1970-01-01T01:00:00Z</time>
      </trkpt>
      <trkpt lat="63.39247067" lon="13.146044">
        <ele>579.584</ele>
        <time>1970-01-01T01:00:00Z</time>
      </trkpt>
      <trkpt lat="63.39244817" lon="13.14607533">
        <ele>579.127</ele>
        <time>1970-01-01T01:00:00Z</time>
      </trkpt>
      <trkpt lat="63.3924245" lon="13.14610583">
        <ele>579.127</ele>
        <time>1970-01-01T01:00:00Z</time>
      </trkpt>
      <trkpt lat="63.392399" lon="13.1461355">
        <ele>578.822</ele>
        <time>1970-01-01T01:00:00Z</time>
      </trkpt>
      <trkpt lat="63.39237367" lon="13.14616433">
        <ele>578.822</ele>
        <time>1970-01-01T01:00:00Z</time>
      </trkpt>
      <trkpt lat="63.39234567" lon="13.1461915">
        <ele>578.517</ele>
        <time>1970-01-01T01:00:00Z</time>
      </trkpt>
      <trkpt lat="63.39231933" lon="13.14621633">
        <ele>578.517</ele>
        <time>1970-01-01T01:00:00Z</time>
      </trkpt>
      <trkpt lat="63.3922935" lon="13.14624167">
        <ele>578.06</ele>
        <time>1970-01-01T01:00:00Z</time>
      </trkpt>
      <trkpt lat="63.3922705" lon="13.14626933">
        <ele>578.06</ele>
        <time>1970-01-01T01:00:00Z</time>
      </trkpt>
      <trkpt lat="63.39224767" lon="13.14629717">
        <ele>577.755</ele>
        <time>1970-01-01T01:00:00Z</time>
      </trkpt>
      <trkpt lat="63.39222483" lon="13.1463275">
        <ele>577.755</ele>
        <time>1970-01-01T01:00:00Z</time>
      </trkpt>
      <trkpt lat="63.3922035" lon="13.14635683">
        <ele>577.298</ele>
        <time>1970-01-01T01:00:00Z</time>
      </trkpt>
      <trkpt lat="63.39218283" lon="13.1463865">
        <ele>577.298</ele>
        <time>1970-01-01T01:00:00Z</time>
      </trkpt>
      <trkpt lat="63.39216217" lon="13.14641233">
        <ele>576.841</ele>
        <time>1970-01-01T01:00:00Z</time>
      </trkpt>
      <trkpt lat="63.39214217" lon="13.14643967">
        <ele>576.841</ele>
        <time>1970-01-01T01:00:00Z</time>
      </trkpt>
      <trkpt lat="63.392122" lon="13.14646917">
        <ele>576.536</ele>
        <time>1970-01-01T01:00:00Z</time>
      </trkpt>
      <trkpt lat="63.39210133" lon="13.14650133">
        <ele>576.536</ele>
        <time>1970-01-01T01:00:00Z</time>
      </trkpt>
      <trkpt lat="63.39208183" lon="13.14653033">
        <ele>576.079</ele>
        <time>1970-01-01T01:00:00Z</time>
      </trkpt>
      <trkpt lat="63.39206283" lon="13.14655817">
        <ele>576.079</ele>
        <time>1970-01-01T01:00:00Z</time>
      </trkpt>
      <trkpt lat="63.392045" lon="13.14658667">
        <ele>575.622</ele>
        <time>1970-01-01T01:00:00Z</time>
      </trkpt>
      <trkpt lat="63.39202633" lon="13.14661583">
        <ele>575.622</ele>
        <time>1970-01-01T01:00:00Z</time>
      </trkpt>
      <trkpt lat="63.39200833" lon="13.14664333">
        <ele>575.165</ele>
        <time>1970-01-01T01:00:00Z</time>
      </trkpt>
      <trkpt lat="63.391989" lon="13.14667433">
        <ele>575.165</ele>
        <time>1970-01-01T01:00:00Z</time>
      </trkpt>
      <trkpt lat="63.39197133" lon="13.14670583">
        <ele>574.86</ele>
        <time>1970-01-01T01:00:00Z</time>
      </trkpt>
      <trkpt lat="63.391955" lon="13.146737">
        <ele>574.86</ele>
        <time>1970-01-01T01:00:00Z</time>
      </trkpt>
      <trkpt lat="63.39193983" lon="13.1467685">
        <ele>574.403</ele>
        <time>1970-01-01T01:00:00Z</time>
      </trkpt>
      <trkpt lat="63.3919245" lon="13.14680467">
        <ele>574.403</ele>
        <time>1970-01-01T01:00:00Z</time>
      </trkpt>
      <trkpt lat="63.39191067" lon="13.14684">
        <ele>574.098</ele>
        <time>1970-01-01T01:00:00Z</time>
      </trkpt>
      <trkpt lat="63.39189383" lon="13.146877">
        <ele>574.098</ele>
        <time>1970-01-01T01:00:00Z</time>
      </trkpt>
      <trkpt lat="63.39187683" lon="13.14691183">
        <ele>573.641</ele>
        <time>1970-01-01T01:00:00Z</time>
      </trkpt>
      <trkpt lat="63.39185883" lon="13.14695117">
        <ele>573.641</ele>
        <time>1970-01-01T01:00:00Z</time>
      </trkpt>
      <trkpt lat="63.39184267" lon="13.14698817">
        <ele>573.336</ele>
        <time>1970-01-01T01:00:00Z</time>
      </trkpt>
      <trkpt lat="63.39182733" lon="13.14702467">
        <ele>573.336</ele>
        <time>1970-01-01T01:00:00Z</time>
      </trkpt>
      <trkpt lat="63.3918135" lon="13.14705467">
        <ele>572.879</ele>
        <time>1970-01-01T01:00:00Z</time>
      </trkpt>
      <trkpt lat="63.391801" lon="13.14708533">
        <ele>572.879</ele>
        <time>1970-01-01T01:00:00Z</time>
      </trkpt>
      <trkpt lat="63.3917865" lon="13.14711817">
        <ele>572.574</ele>
        <time>1970-01-01T01:00:00Z</time>
      </trkpt>
      <trkpt lat="63.39176967" lon="13.14715183">
        <ele>572.574</ele>
        <time>1970-01-01T01:00:00Z</time>
      </trkpt>
      <trkpt lat="63.3917545" lon="13.14718533">
        <ele>572.269</ele>
        <time>1970-01-01T01:00:00Z</time>
      </trkpt>
      <trkpt lat="63.39174" lon="13.14721883">
        <ele>572.269</ele>
        <time>1970-01-01T01:00:00Z</time>
      </trkpt>
      <trkpt lat="63.39172583" lon="13.14725467">
        <ele>571.812</ele>
        <time>1970-01-01T01:00:00Z</time>
      </trkpt>
      <trkpt lat="63.39171083" lon="13.14728933">
        <ele>571.812</ele>
        <time>1970-01-01T01:00:00Z</time>
      </trkpt>
      <trkpt lat="63.39169733" lon="13.147323">
        <ele>571.507</ele>
        <time>1970-01-01T01:00:00Z</time>
      </trkpt>
      <trkpt lat="63.39168333" lon="13.147358">
        <ele>571.507</ele>
        <time>1970-01-01T01:00:00Z</time>
      </trkpt>
      <trkpt lat="63.39166783" lon="13.14739583">
        <ele>571.05</ele>
        <time>1970-01-01T01:00:00Z</time>
      </trkpt>
      <trkpt lat="63.39165083" lon="13.14743517">
        <ele>571.05</ele>
        <time>1970-01-01T01:00:00Z</time>
      </trkpt>
      <trkpt lat="63.39163267" lon="13.14747333">
        <ele>570.745</ele>
        <time>1970-01-01T01:00:00Z</time>
      </trkpt>
      <trkpt lat="63.391615" lon="13.14751183">
        <ele>570.745</ele>
        <time>1970-01-01T01:00:00Z</time>
      </trkpt>
      <trkpt lat="63.391596" lon="13.14755117">
        <ele>570.288</ele>
        <time>1970-01-01T01:00:00Z</time>
      </trkpt>
      <trkpt lat="63.39158067" lon="13.1475875">
        <ele>570.288</ele>
        <time>1970-01-01T01:00:00Z</time>
      </trkpt>
      <trkpt lat="63.39156533" lon="13.14762167">
        <ele>569.983</ele>
        <time>1970-01-01T01:00:00Z</time>
      </trkpt>
      <trkpt lat="63.391552" lon="13.147659">
        <ele>569.983</ele>
        <time>1970-01-01T01:00:00Z</time>
      </trkpt>
      <trkpt lat="63.39153733" lon="13.14770433">
        <ele>569.526</ele>
        <time>1970-01-01T01:00:00Z</time>
      </trkpt>
      <trkpt lat="63.39152367" lon="13.1477505">
        <ele>569.526</ele>
        <time>1970-01-01T01:00:00Z</time>
      </trkpt>
      <trkpt lat="63.39150917" lon="13.147793">
        <ele>569.221</ele>
        <time>1970-01-01T01:00:00Z</time>
      </trkpt>
      <trkpt lat="63.39149233" lon="13.1478385">
        <ele>569.221</ele>
        <time>1970-01-01T01:00:00Z</time>
      </trkpt>
      <trkpt lat="63.39147733" lon="13.14788133">
        <ele>568.916</ele>
        <time>1970-01-01T01:00:00Z</time>
      </trkpt>
      <trkpt lat="63.391462" lon="13.14792767">
        <ele>568.916</ele>
        <time>1970-01-01T01:00:00Z</time>
      </trkpt>
      <trkpt lat="63.3914485" lon="13.14797083">
        <ele>568.459</ele>
        <time>1970-01-01T01:00:00Z</time>
      </trkpt>
      <trkpt lat="63.39143383" lon="13.14801717">
        <ele>568.459</ele>
        <time>1970-01-01T01:00:00Z</time>
      </trkpt>
      <trkpt lat="63.39142183" lon="13.14806033">
        <ele>568.154</ele>
        <time>1970-01-01T01:00:00Z</time>
      </trkpt>
      <trkpt lat="63.39140933" lon="13.14810517">
        <ele>568.154</ele>
        <time>1970-01-01T01:00:00Z</time>
      </trkpt>
      <trkpt lat="63.3913975" lon="13.14814833">
        <ele>567.849</ele>
        <time>1970-01-01T01:00:00Z</time>
      </trkpt>
      <trkpt lat="63.39138283" lon="13.14819033">
        <ele>567.849</ele>
        <time>1970-01-01T01:00:00Z</time>
      </trkpt>
      <trkpt lat="63.391366" lon="13.14823333">
        <ele>567.392</ele>
        <time>1970-01-01T01:00:00Z</time>
      </trkpt>
      <trkpt lat="63.39135033" lon="13.148279">
        <ele>567.392</ele>
        <time>1970-01-01T01:00:00Z</time>
      </trkpt>
      <trkpt lat="63.39133667" lon="13.14832483">
        <ele>567.087</ele>
        <time>1970-01-01T01:00:00Z</time>
      </trkpt>
      <trkpt lat="63.39132667" lon="13.1483675">
        <ele>567.087</ele>
        <time>1970-01-01T01:00:00Z</time>
      </trkpt>
      <trkpt lat="63.391317" lon="13.14840983">
        <ele>566.782</ele>
        <time>1970-01-01T01:00:00Z</time>
      </trkpt>
      <trkpt lat="63.3913085" lon="13.148454">
        <ele>566.782</ele>
        <time>1970-01-01T01:00:00Z</time>
      </trkpt>
      <trkpt lat="63.3913" lon="13.1484985">
        <ele>566.478</ele>
        <time>1970-01-01T01:00:00Z</time>
      </trkpt>
      <trkpt lat="63.39128817" lon="13.14854567">
        <ele>566.478</ele>
        <time>1970-01-01T01:00:00Z</time>
      </trkpt>
      <trkpt lat="63.391273" lon="13.14859383">
        <ele>566.173</ele>
        <time>1970-01-01T01:00:00Z</time>
      </trkpt>
      <trkpt lat="63.391259" lon="13.14864033">
        <ele>566.173</ele>
        <time>1970-01-01T01:00:00Z</time>
      </trkpt>
      <trkpt lat="63.39124683" lon="13.148687">
        <ele>565.868</ele>
        <time>1970-01-01T01:00:00Z</time>
      </trkpt>
      <trkpt lat="63.39123733" lon="13.14873283">
        <ele>565.868</ele>
        <time>1970-01-01T01:00:00Z</time>
      </trkpt>
      <trkpt lat="63.39122533" lon="13.1487795">
        <ele>565.563</ele>
        <time>1970-01-01T01:00:00Z</time>
      </trkpt>
      <trkpt lat="63.39121283" lon="13.14882667">
        <ele>565.563</ele>
        <time>1970-01-01T01:00:00Z</time>
      </trkpt>
      <trkpt lat="63.391198" lon="13.14887483">
        <ele>565.411</ele>
        <time>1970-01-01T01:00:00Z</time>
      </trkpt>
      <trkpt lat="63.39118533" lon="13.148924">
        <ele>565.411</ele>
        <time>1970-01-01T01:00:00Z</time>
      </trkpt>
      <trkpt lat="63.39117417" lon="13.14897067">
        <ele>565.106</ele>
        <time>1970-01-01T01:00:00Z</time>
      </trkpt>
      <trkpt lat="63.39116383" lon="13.14901883">
        <ele>565.106</ele>
        <time>1970-01-01T01:00:00Z</time>
      </trkpt>
      <trkpt lat="63.39115367" lon="13.149065">
        <ele>564.801</ele>
        <time>1970-01-01T01:00:00Z</time>
      </trkpt>
      <trkpt lat="63.3911425" lon="13.14911083">
        <ele>564.801</ele>
        <time>1970-01-01T01:00:00Z</time>
      </trkpt>
      <trkpt lat="63.39113167" lon="13.14915483">
        <ele>564.496</ele>
        <time>1970-01-01T01:00:00Z</time>
      </trkpt>
      <trkpt lat="63.39112067" lon="13.14919783">
        <ele>564.496</ele>
        <time>1970-01-01T01:00:00Z</time>
      </trkpt>
      <trkpt lat="63.39110967" lon="13.14924">
        <ele>564.192</ele>
        <time>1970-01-01T01:00:00Z</time>
      </trkpt>
      <trkpt lat="63.3910995" lon="13.14928367">
        <ele>564.192</ele>
        <time>1970-01-01T01:00:00Z</time>
      </trkpt>
      <trkpt lat="63.3910885" lon="13.14933017">
        <ele>563.887</ele>
        <time>1970-01-01T01:00:00Z</time>
      </trkpt>
      <trkpt lat="63.39107767" lon="13.14937383">
        <ele>563.887</ele>
        <time>1970-01-01T01:00:00Z</time>
      </trkpt>
      <trkpt lat="63.39106767" lon="13.149414">
        <ele>563.582</ele>
        <time>1970-01-01T01:00:00Z</time>
      </trkpt>
      <trkpt lat="63.39105767" lon="13.14945233">
        <ele>563.582</ele>
        <time>1970-01-01T01:00:00Z</time>
      </trkpt>
      <trkpt lat="63.39104683" lon="13.14949317">
        <ele>563.43</ele>
        <time>1970-01-01T01:00:00Z</time>
      </trkpt>
      <trkpt lat="63.39103633" lon="13.1495315">
        <ele>563.43</ele>
        <time>1970-01-01T01:00:00Z</time>
      </trkpt>
      <trkpt lat="63.39102483" lon="13.14956933">
        <ele>563.277</ele>
        <time>1970-01-01T01:00:00Z</time>
      </trkpt>
      <trkpt lat="63.39101333" lon="13.14960317">
        <ele>563.277</ele>
        <time>1970-01-01T01:00:00Z</time>
      </trkpt>
      <trkpt lat="63.391" lon="13.14963683">
        <ele>562.972</ele>
        <time>1970-01-01T01:00:00Z</time>
      </trkpt>
      <trkpt lat="63.390986" lon="13.14967083">
        <ele>562.972</ele>
        <time>1970-01-01T01:00:00Z</time>
      </trkpt>
      <trkpt lat="63.39097183" lon="13.14970717">
        <ele>562.82</ele>
        <time>1970-01-01T01:00:00Z</time>
      </trkpt>
      <trkpt lat="63.3909585" lon="13.14974417">
        <ele>562.82</ele>
        <time>1970-01-01T01:00:00Z</time>
      </trkpt>
      <trkpt lat="63.39094367" lon="13.14978333">
        <ele>562.668</ele>
        <time>1970-01-01T01:00:00Z</time>
      </trkpt>
      <trkpt lat="63.3909305" lon="13.14982183">
        <ele>562.668</ele>
        <time>1970-01-01T01:00:00Z</time>
      </trkpt>
      <trkpt lat="63.39091867" lon="13.14985867">
        <ele>562.363</ele>
        <time>1970-01-01T01:00:00Z</time>
      </trkpt>
      <trkpt lat="63.3909095" lon="13.14989233">
        <ele>562.363</ele>
        <time>1970-01-01T01:00:00Z</time>
      </trkpt>
      <trkpt lat="63.39089967" lon="13.1499275">
        <ele>562.21</ele>
        <time>1970-01-01T01:00:00Z</time>
      </trkpt>
      <trkpt lat="63.39088767" lon="13.14996567">
        <ele>562.21</ele>
        <time>1970-01-01T01:00:00Z</time>
      </trkpt>
      <trkpt lat="63.39087617" lon="13.15000417">
        <ele>562.058</ele>
        <time>1970-01-01T01:00:00Z</time>
      </trkpt>
      <trkpt lat="63.390862" lon="13.15004417">
        <ele>562.058</ele>
        <time>1970-01-01T01:00:00Z</time>
      </trkpt>
      <trkpt lat="63.390846" lon="13.150087">
        <ele>561.753</ele>
        <time>1970-01-01T01:00:00Z</time>
      </trkpt>
      <trkpt lat="63.39082717" lon="13.15013167">
        <ele>561.753</ele>
        <time>1970-01-01T01:00:00Z</time>
      </trkpt>
      <trkpt lat="63.39080983" lon="13.15017467">
        <ele>561.448</ele>
        <time>1970-01-01T01:00:00Z</time>
      </trkpt>
      <trkpt lat="63.39079267" lon="13.1502155">
        <ele>561.448</ele>
        <time>1970-01-01T01:00:00Z</time>
      </trkpt>
      <trkpt lat="63.3907785" lon="13.15025633">
        <ele>561.296</ele>
        <time>1970-01-01T01:00:00Z</time>
      </trkpt>
      <trkpt lat="63.39076483" lon="13.15029683">
        <ele>561.296</ele>
        <time>1970-01-01T01:00:00Z</time>
      </trkpt>
      <trkpt lat="63.39075033" lon="13.150336">
        <ele>560.991</ele>
        <time>1970-01-01T01:00:00Z</time>
      </trkpt>
      <trkpt lat="63.3907325" lon="13.15037417">
        <ele>560.991</ele>
        <time>1970-01-01T01:00:00Z</time>
      </trkpt>
      <trkpt lat="63.39071217" lon="13.1504155">
        <ele>560.686</ele>
        <time>1970-01-01T01:00:00Z</time>
      </trkpt>
      <trkpt lat="63.390692" lon="13.15045767">
        <ele>560.686</ele>
        <time>1970-01-01T01:00:00Z</time>
      </trkpt>
      <trkpt lat="63.390674" lon="13.15049833">
        <ele>560.382</ele>
        <time>1970-01-01T01:00:00Z</time>
      </trkpt>
      <trkpt lat="63.39065883" lon="13.15053533">
        <ele>560.382</ele>
        <time>1970-01-01T01:00:00Z</time>
      </trkpt>
      <trkpt lat="63.39064467" lon="13.15057533">
        <ele>559.924</ele>
        <time>1970-01-01T01:00:00Z</time>
      </trkpt>
      <trkpt lat="63.39062917" lon="13.15061733">
        <ele>559.924</ele>
        <time>1970-01-01T01:00:00Z</time>
      </trkpt>
      <trkpt lat="63.39061217" lon="13.15066267">
        <ele>559.62</ele>
        <time>1970-01-01T01:00:00Z</time>
      </trkpt>
      <trkpt lat="63.39059517" lon="13.15070933">
        <ele>559.62</ele>
        <time>1970-01-01T01:00:00Z</time>
      </trkpt>
      <trkpt lat="63.39057783" lon="13.150758">
        <ele>559.162</ele>
        <time>1970-01-01T01:00:00Z</time>
      </trkpt>
      <trkpt lat="63.39056167" lon="13.15080333">
        <ele>559.162</ele>
        <time>1970-01-01T01:00:00Z</time>
      </trkpt>
      <trkpt lat="63.39054733" lon="13.1508465">
        <ele>558.705</ele>
        <time>1970-01-01T01:00:00Z</time>
      </trkpt>
      <trkpt lat="63.39053267" lon="13.15088883">
        <ele>558.705</ele>
        <time>1970-01-01T01:00:00Z</time>
      </trkpt>
      <trkpt lat="63.39051867" lon="13.150929">
        <ele>558.4</ele>
        <time>1970-01-01T01:00:00Z</time>
      </trkpt>
      <trkpt lat="63.390504" lon="13.15096633">
        <ele>558.4</ele>
        <time>1970-01-01T01:00:00Z</time>
      </trkpt>
      <trkpt lat="63.3904915" lon="13.15100283">
        <ele>557.943</ele>
        <time>1970-01-01T01:00:00Z</time>
      </trkpt>
      <trkpt lat="63.39047733" lon="13.15104483">
        <ele>557.943</ele>
        <time>1970-01-01T01:00:00Z</time>
      </trkpt>
      <trkpt lat="63.39046767" lon="13.1510835">
        <ele>557.486</ele>
        <time>1970-01-01T01:00:00Z</time>
      </trkpt>
      <trkpt lat="63.39045683" lon="13.1511215">
        <ele>557.486</ele>
        <time>1970-01-01T01:00:00Z</time>
      </trkpt>
      <trkpt lat="63.39044567" lon="13.15116167">
        <ele>557.181</ele>
        <time>1970-01-01T01:00:00Z</time>
      </trkpt>
      <trkpt lat="63.3904295" lon="13.15120683">
        <ele>557.181</ele>
        <time>1970-01-01T01:00:00Z</time>
      </trkpt>
      <trkpt lat="63.3904125" lon="13.1512515">
        <ele>556.876</ele>
        <time>1970-01-01T01:00:00Z</time>
      </trkpt>
      <trkpt lat="63.39039667" lon="13.15129383">
        <ele>556.876</ele>
        <time>1970-01-01T01:00:00Z</time>
      </trkpt>
      <trkpt lat="63.39038083" lon="13.15133683">
        <ele>556.572</ele>
        <time>1970-01-01T01:00:00Z</time>
      </trkpt>
      <trkpt lat="63.390367" lon="13.15137783">
        <ele>556.572</ele>
        <time>1970-01-01T01:00:00Z</time>
      </trkpt>
      <trkpt lat="63.39035167" lon="13.15141767">
        <ele>556.114</ele>
        <time>1970-01-01T01:00:00Z</time>
      </trkpt>
      <trkpt lat="63.390337" lon="13.1514525">
        <ele>556.114</ele>
        <time>1970-01-01T01:00:00Z</time>
      </trkpt>
      <trkpt lat="63.39031983" lon="13.15148733">
        <ele>555.81</ele>
        <time>1970-01-01T01:00:00Z</time>
      </trkpt>
      <trkpt lat="63.390304" lon="13.15152233">
        <ele>555.81</ele>
        <time>1970-01-01T01:00:00Z</time>
      </trkpt>
      <trkpt lat="63.39028933" lon="13.151557">
        <ele>555.505</ele>
        <time>1970-01-01T01:00:00Z</time>
      </trkpt>
      <trkpt lat="63.3902765" lon="13.15159433">
        <ele>555.505</ele>
        <time>1970-01-01T01:00:00Z</time>
      </trkpt>
      <trkpt lat="63.39026317" lon="13.15162983">
        <ele>555.2</ele>
        <time>1970-01-01T01:00:00Z</time>
      </trkpt>
      <trkpt lat="63.39024833" lon="13.15167">
        <ele>555.2</ele>
        <time>1970-01-01T01:00:00Z</time>
      </trkpt>
      <trkpt lat="63.390232" lon="13.15170983">
        <ele>554.743</ele>
        <time>1970-01-01T01:00:00Z</time>
      </trkpt>
      <trkpt lat="63.39021667" lon="13.15175033">
        <ele>554.743</ele>
        <time>1970-01-01T01:00:00Z</time>
      </trkpt>
      <trkpt lat="63.39020083" lon="13.15178767">
        <ele>554.438</ele>
        <time>1970-01-01T01:00:00Z</time>
      </trkpt>
      <trkpt lat="63.39018567" lon="13.15182283">
        <ele>554.438</ele>
        <time>1970-01-01T01:00:00Z</time>
      </trkpt>
      <trkpt lat="63.39016933" lon="13.15185483">
        <ele>554.133</ele>
        <time>1970-01-01T01:00:00Z</time>
      </trkpt>
      <trkpt lat="63.3901525" lon="13.15188833">
        <ele>554.133</ele>
        <time>1970-01-01T01:00:00Z</time>
      </trkpt>
      <trkpt lat="63.390136" lon="13.15192283">
        <ele>553.828</ele>
        <time>1970-01-01T01:00:00Z</time>
      </trkpt>
      <trkpt lat="63.3901195" lon="13.15195783">
        <ele>553.828</ele>
        <time>1970-01-01T01:00:00Z</time>
      </trkpt>
      <trkpt lat="63.390102" lon="13.15199333">
        <ele>553.523</ele>
        <time>1970-01-01T01:00:00Z</time>
      </trkpt>
      <trkpt lat="63.39008267" lon="13.15202917">
        <ele>553.523</ele>
        <time>1970-01-01T01:00:00Z</time>
      </trkpt>
      <trkpt lat="63.3900615" lon="13.1520695">
        <ele>553.371</ele>
        <time>1970-01-01T01:00:00Z</time>
      </trkpt>
      <trkpt lat="63.39003967" lon="13.15210917">
        <ele>553.371</ele>
        <time>1970-01-01T01:00:00Z</time>
      </trkpt>
      <trkpt lat="63.3900195" lon="13.1521465">
        <ele>553.066</ele>
        <time>1970-01-01T01:00:00Z</time>
      </trkpt>
      <trkpt lat="63.3899985" lon="13.15217917">
        <ele>553.066</ele>
        <time>1970-01-01T01:00:00Z</time>
      </trkpt>
      <trkpt lat="63.38997717" lon="13.15220917">
        <ele>552.761</ele>
        <time>1970-01-01T01:00:00Z</time>
      </trkpt>
      <trkpt lat="63.389953" lon="13.152239">
        <ele>552.761</ele>
        <time>1970-01-01T01:00:00Z</time>
      </trkpt>
      <trkpt lat="63.38992867" lon="13.15226967">
        <ele>552.457</ele>
        <time>1970-01-01T01:00:00Z</time>
      </trkpt>
      <trkpt lat="63.389904" lon="13.15229867">
        <ele>552.457</ele>
        <time>1970-01-01T01:00:00Z</time>
      </trkpt>
      <trkpt lat="63.389879" lon="13.15232433">
        <ele>552.152</ele>
        <time>1970-01-01T01:00:00Z</time>
      </trkpt>
      <trkpt lat="63.389855" lon="13.15234583">
        <ele>552.152</ele>
        <time>1970-01-01T01:00:00Z</time>
      </trkpt>
      <trkpt lat="63.389831" lon="13.152366">
        <ele>551.847</ele>
        <time>1970-01-01T01:00:00Z</time>
      </trkpt>
      <trkpt lat="63.3898075" lon="13.152388">
        <ele>551.847</ele>
        <time>1970-01-01T01:00:00Z</time>
      </trkpt>
      <trkpt lat="63.38978467" lon="13.15240983">
        <ele>551.39</ele>
        <time>1970-01-01T01:00:00Z</time>
      </trkpt>
      <trkpt lat="63.389762" lon="13.15243333">
        <ele>551.39</ele>
        <time>1970-01-01T01:00:00Z</time>
      </trkpt>
      <trkpt lat="63.38973933" lon="13.1524555">
        <ele>551.085</ele>
        <time>1970-01-01T01:00:00Z</time>
      </trkpt>
      <trkpt lat="63.38971667" lon="13.15247883">
        <ele>551.085</ele>
        <time>1970-01-01T01:00:00Z</time>
      </trkpt>
      <trkpt lat="63.3896935" lon="13.15249833">
        <ele>550.78</ele>
        <time>1970-01-01T01:00:00Z</time>
      </trkpt>
      <trkpt lat="63.3896695" lon="13.15251617">
        <ele>550.78</ele>
        <time>1970-01-01T01:00:00Z</time>
      </trkpt>
      <trkpt lat="63.38964483" lon="13.15252917">
        <ele>550.475</ele>
        <time>1970-01-01T01:00:00Z</time>
      </trkpt>
      <trkpt lat="63.38962067" lon="13.15254267">
        <ele>550.475</ele>
        <time>1970-01-01T01:00:00Z</time>
      </trkpt>
      <trkpt lat="63.3895965" lon="13.1525545">
        <ele>550.171</ele>
        <time>1970-01-01T01:00:00Z</time>
      </trkpt>
      <trkpt lat="63.38957183" lon="13.15256683">
        <ele>550.171</ele>
        <time>1970-01-01T01:00:00Z</time>
      </trkpt>
      <trkpt lat="63.38954683" lon="13.15257617">
        <ele>549.866</ele>
        <time>1970-01-01T01:00:00Z</time>
      </trkpt>
      <trkpt lat="63.38952117" lon="13.15258533">
        <ele>549.866</ele>
        <time>1970-01-01T01:00:00Z</time>
      </trkpt>
      <trkpt lat="63.38949717" lon="13.152595">
        <ele>549.561</ele>
        <time>1970-01-01T01:00:00Z</time>
      </trkpt>
      <trkpt lat="63.3894745" lon="13.15260617">
        <ele>549.561</ele>
        <time>1970-01-01T01:00:00Z</time>
      </trkpt>
      <trkpt lat="63.38945267" lon="13.15262017">
        <ele>549.256</ele>
        <time>1970-01-01T01:00:00Z</time>
      </trkpt>
      <trkpt lat="63.38943017" lon="13.1526315">
        <ele>549.256</ele>
        <time>1970-01-01T01:00:00Z</time>
      </trkpt>
      <trkpt lat="63.38940683" lon="13.15264083">
        <ele>548.951</ele>
        <time>1970-01-01T01:00:00Z</time>
      </trkpt>
      <trkpt lat="63.38938383" lon="13.15264633">
        <ele>548.951</ele>
        <time>1970-01-01T01:00:00Z</time>
      </trkpt>
      <trkpt lat="63.3893605" lon="13.15265183">
        <ele>548.799</ele>
        <time>1970-01-01T01:00:00Z</time>
      </trkpt>
      <trkpt lat="63.389338" lon="13.15265817">
        <ele>548.799</ele>
        <time>1970-01-01T01:00:00Z</time>
      </trkpt>
      <trkpt lat="63.3893145" lon="13.15266583">
        <ele>548.494</ele>
        <time>1970-01-01T01:00:00Z</time>
      </trkpt>
      <trkpt lat="63.38928883" lon="13.1526735">
        <ele>548.494</ele>
        <time>1970-01-01T01:00:00Z</time>
      </trkpt>
      <trkpt lat="63.38926317" lon="13.15268">
        <ele>548.342</ele>
        <time>1970-01-01T01:00:00Z</time>
      </trkpt>
      <trkpt lat="63.38923783" lon="13.15268483">
        <ele>548.342</ele>
        <time>1970-01-01T01:00:00Z</time>
      </trkpt>
      <trkpt lat="63.389214" lon="13.1526905">
        <ele>548.037</ele>
        <time>1970-01-01T01:00:00Z</time>
      </trkpt>
      <trkpt lat="63.38918917" lon="13.15269867">
        <ele>548.037</ele>
        <time>1970-01-01T01:00:00Z</time>
      </trkpt>
      <trkpt lat="63.389165" lon="13.15270683">
        <ele>547.885</ele>
        <time>1970-01-01T01:00:00Z</time>
      </trkpt>
      <trkpt lat="63.389142" lon="13.15271583">
        <ele>547.885</ele>
        <time>1970-01-01T01:00:00Z</time>
      </trkpt>
      <trkpt lat="63.38911917" lon="13.15272367">
        <ele>547.732</ele>
        <time>1970-01-01T01:00:00Z</time>
      </trkpt>
      <trkpt lat="63.38909683" lon="13.152732">
        <ele>547.732</ele>
        <time>1970-01-01T01:00:00Z</time>
      </trkpt>
      <trkpt lat="63.38907283" lon="13.15273917">
        <ele>547.427</ele>
        <time>1970-01-01T01:00:00Z</time>
      </trkpt>
      <trkpt lat="63.3890495" lon="13.15274733">
        <ele>547.427</ele>
        <time>1970-01-01T01:00:00Z</time>
      </trkpt>
      <trkpt lat="63.38902583" lon="13.15275767">
        <ele>547.275</ele>
        <time>1970-01-01T01:00:00Z</time>
      </trkpt>
      <trkpt lat="63.38900217" lon="13.1527695">
        <ele>547.275</ele>
        <time>1970-01-01T01:00:00Z</time>
      </trkpt>
      <trkpt lat="63.38897783" lon="13.1527805">
        <ele>546.97</ele>
        <time>1970-01-01T01:00:00Z</time>
      </trkpt>
      <trkpt lat="63.388954" lon="13.1527885">
        <ele>546.97</ele>
        <time>1970-01-01T01:00:00Z</time>
      </trkpt>
      <trkpt lat="63.38893" lon="13.15279583">
        <ele>546.665</ele>
        <time>1970-01-01T01:00:00Z</time>
      </trkpt>
      <trkpt lat="63.38890633" lon="13.15280367">
        <ele>546.665</ele>
        <time>1970-01-01T01:00:00Z</time>
      </trkpt>
      <trkpt lat="63.38888417" lon="13.1528145">
        <ele>546.361</ele>
        <time>1970-01-01T01:00:00Z</time>
      </trkpt>
      <trkpt lat="63.388863" lon="13.1528255">
        <ele>546.361</ele>
        <time>1970-01-01T01:00:00Z</time>
      </trkpt>
      <trkpt lat="63.38884083" lon="13.15283583">
        <ele>546.056</ele>
        <time>1970-01-01T01:00:00Z</time>
      </trkpt>
      <trkpt lat="63.38881883" lon="13.15284283">
        <ele>546.056</ele>
        <time>1970-01-01T01:00:00Z</time>
      </trkpt>
      <trkpt lat="63.388797" lon="13.15284983">
        <ele>545.751</ele>
        <time>1970-01-01T01:00:00Z</time>
      </trkpt>
      <trkpt lat="63.3887765" lon="13.15285717">
        <ele>545.751</ele>
        <time>1970-01-01T01:00:00Z</time>
      </trkpt>
      <trkpt lat="63.3887555" lon="13.15286617">
        <ele>545.446</ele>
        <time>1970-01-01T01:00:00Z</time>
      </trkpt>
      <trkpt lat="63.38873533" lon="13.15287617">
        <ele>545.446</ele>
        <time>1970-01-01T01:00:00Z</time>
      </trkpt>
      <trkpt lat="63.388717" lon="13.152889">
        <ele>545.141</ele>
        <time>1970-01-01T01:00:00Z</time>
      </trkpt>
      <trkpt lat="63.38870133" lon="13.15290467">
        <ele>545.141</ele>
        <time>1970-01-01T01:00:00Z</time>
      </trkpt>
      <trkpt lat="63.3886885" lon="13.15291917">
        <ele>544.837</ele>
        <time>1970-01-01T01:00:00Z</time>
      </trkpt>
      <trkpt lat="63.38867817" lon="13.15293283">
        <ele>544.837</ele>
        <time>1970-01-01T01:00:00Z</time>
      </trkpt>
      <trkpt lat="63.38866867" lon="13.15294783">
        <ele>544.532</ele>
        <time>1970-01-01T01:00:00Z</time>
      </trkpt>
      <trkpt lat="63.38866067" lon="13.15296633">
        <ele>544.532</ele>
        <time>1970-01-01T01:00:00Z</time>
      </trkpt>
      <trkpt lat="63.38865433" lon="13.152988">
        <ele>544.379</ele>
        <time>1970-01-01T01:00:00Z</time>
      </trkpt>
      <trkpt lat="63.38864917" lon="13.15301033">
        <ele>544.379</ele>
        <time>1970-01-01T01:00:00Z</time>
      </trkpt>
      <trkpt lat="63.38864433" lon="13.15303317">
        <ele>544.075</ele>
        <time>1970-01-01T01:00:00Z</time>
      </trkpt>
      <trkpt lat="63.38863967" lon="13.15305583">
        <ele>544.075</ele>
        <time>1970-01-01T01:00:00Z</time>
      </trkpt>
      <trkpt lat="63.388634" lon="13.15307917">
        <ele>543.77</ele>
        <time>1970-01-01T01:00:00Z</time>
      </trkpt>
      <trkpt lat="63.38862817" lon="13.15310183">
        <ele>543.77</ele>
        <time>1970-01-01T01:00:00Z</time>
      </trkpt>
      <trkpt lat="63.388621" lon="13.15312317">
        <ele>543.465</ele>
        <time>1970-01-01T01:00:00Z</time>
      </trkpt>
      <trkpt lat="63.388614" lon="13.15314217">
        <ele>543.465</ele>
        <time>1970-01-01T01:00:00Z</time>
      </trkpt>
      <trkpt lat="63.3886055" lon="13.15316117">
        <ele>543.16</ele>
        <time>1970-01-01T01:00:00Z</time>
      </trkpt>
      <trkpt lat="63.38859617" lon="13.15317783">
        <ele>543.16</ele>
        <time>1970-01-01T01:00:00Z</time>
      </trkpt>
      <trkpt lat="63.38858583" lon="13.1531905">
        <ele>542.855</ele>
        <time>1970-01-01T01:00:00Z</time>
      </trkpt>
      <trkpt lat="63.38857583" lon="13.1532">
        <ele>542.855</ele>
        <time>1970-01-01T01:00:00Z</time>
      </trkpt>
      <trkpt lat="63.38856533" lon="13.15320667">
        <ele>542.551</ele>
        <time>1970-01-01T01:00:00Z</time>
      </trkpt>
      <trkpt lat="63.38855517" lon="13.15321433">
        <ele>542.551</ele>
        <time>1970-01-01T01:00:00Z</time>
      </trkpt>
      <trkpt lat="63.38854517" lon="13.153226">
        <ele>542.398</ele>
        <time>1970-01-01T01:00:00Z</time>
      </trkpt>
      <trkpt lat="63.38853533" lon="13.1532395">
        <ele>542.398</ele>
        <time>1970-01-01T01:00:00Z</time>
      </trkpt>
      <trkpt lat="63.38852467" lon="13.1532535">
        <ele>542.093</ele>
        <time>1970-01-01T01:00:00Z</time>
      </trkpt>
      <trkpt lat="63.38851417" lon="13.15326483">
        <ele>542.093</ele>
        <time>1970-01-01T01:00:00Z</time>
      </trkpt>
      <trkpt lat="63.38850383" lon="13.1532765">
        <ele>541.789</ele>
        <time>1970-01-01T01:00:00Z</time>
      </trkpt>
      <trkpt lat="63.38849467" lon="13.153289">
        <ele>541.789</ele>
        <time>1970-01-01T01:00:00Z</time>
      </trkpt>
      <trkpt lat="63.38848517" lon="13.15330017">
        <ele>541.636</ele>
        <time>1970-01-01T01:00:00Z</time>
      </trkpt>
      <trkpt lat="63.38847633" lon="13.15330767">
        <ele>541.636</ele>
        <time>1970-01-01T01:00:00Z</time>
      </trkpt>
      <trkpt lat="63.38846867" lon="13.15331217">
        <ele>541.331</ele>
        <time>1970-01-01T01:00:00Z</time>
      </trkpt>
      <trkpt lat="63.38846467" lon="13.1533125">
        <ele>541.331</ele>
        <time>1970-01-01T01:00:00Z</time>
      </trkpt>
      <trkpt lat="63.38846383" lon="13.15331617">
        <ele>541.179</ele>
        <time>1970-01-01T01:00:00Z</time>
      </trkpt>
      <trkpt lat="63.38846417" lon="13.15332383">
        <ele>541.179</ele>
        <time>1970-01-01T01:00:00Z</time>
      </trkpt>
      <trkpt lat="63.388464" lon="13.15333767">
        <ele>541.027</ele>
        <time>1970-01-01T01:00:00Z</time>
      </trkpt>
      <trkpt lat="63.38846367" lon="13.15335683">
        <ele>541.027</ele>
        <time>1970-01-01T01:00:00Z</time>
      </trkpt>
      <trkpt lat="63.38846367" lon="13.15337733">
        <ele>540.722</ele>
        <time>1970-01-01T01:00:00Z</time>
      </trkpt>
      <trkpt lat="63.38846367" lon="13.15339883">
        <ele>540.722</ele>
        <time>1970-01-01T01:00:00Z</time>
      </trkpt>
      <trkpt lat="63.38846367" lon="13.1534175">
        <ele>540.569</ele>
        <time>1970-01-01T01:00:00Z</time>
      </trkpt>
      <trkpt lat="63.38846433" lon="13.15343833">
        <ele>540.569</ele>
        <time>1970-01-01T01:00:00Z</time>
      </trkpt>
      <trkpt lat="63.38846617" lon="13.153462">
        <ele>540.417</ele>
        <time>1970-01-01T01:00:00Z</time>
      </trkpt>
      <trkpt lat="63.38846733" lon="13.153488">
        <ele>540.417</ele>
        <time>1970-01-01T01:00:00Z</time>
      </trkpt>
      <trkpt lat="63.388467" lon="13.15351217">
        <ele>540.265</ele>
        <time>1970-01-01T01:00:00Z</time>
      </trkpt>
      <trkpt lat="63.38846517" lon="13.15353367">
        <ele>540.265</ele>
        <time>1970-01-01T01:00:00Z</time>
      </trkpt>
      <trkpt lat="63.38846267" lon="13.15355333">
        <ele>540.112</ele>
        <time>1970-01-01T01:00:00Z</time>
      </trkpt>
      <trkpt lat="63.38845867" lon="13.15357317">
        <ele>540.112</ele>
        <time>1970-01-01T01:00:00Z</time>
      </trkpt>
      <trkpt lat="63.38845483" lon="13.15359467">
        <ele>539.807</ele>
        <time>1970-01-01T01:00:00Z</time>
      </trkpt>
      <trkpt lat="63.38845133" lon="13.15361933">
        <ele>539.807</ele>
        <time>1970-01-01T01:00:00Z</time>
      </trkpt>
      <trkpt lat="63.38844967" lon="13.1536445">
        <ele>539.655</ele>
        <time>1970-01-01T01:00:00Z</time>
      </trkpt>
      <trkpt lat="63.38844933" lon="13.15367133">
        <ele>539.655</ele>
        <time>1970-01-01T01:00:00Z</time>
      </trkpt>
      <trkpt lat="63.38844967" lon="13.1536975">
        <ele>539.503</ele>
        <time>1970-01-01T01:00:00Z</time>
      </trkpt>
      <trkpt lat="63.38844933" lon="13.15372633">
        <ele>539.503</ele>
        <time>1970-01-01T01:00:00Z</time>
      </trkpt>
      <trkpt lat="63.38844883" lon="13.15375483">
        <ele>539.35</ele>
        <time>1970-01-01T01:00:00Z</time>
      </trkpt>
      <trkpt lat="63.38844883" lon="13.15378233">
        <ele>539.35</ele>
        <time>1970-01-01T01:00:00Z</time>
      </trkpt>
      <trkpt lat="63.38845" lon="13.153807">
        <ele>539.198</ele>
        <time>1970-01-01T01:00:00Z</time>
      </trkpt>
      <trkpt lat="63.38845133" lon="13.153832">
        <ele>539.198</ele>
        <time>1970-01-01T01:00:00Z</time>
      </trkpt>
      <trkpt lat="63.38845333" lon="13.15386">
        <ele>539.045</ele>
        <time>1970-01-01T01:00:00Z</time>
      </trkpt>
      <trkpt lat="63.38845533" lon="13.15389">
        <ele>539.045</ele>
        <time>1970-01-01T01:00:00Z</time>
      </trkpt>
      <trkpt lat="63.38845633" lon="13.15391983">
        <ele>539.045</ele>
        <time>1970-01-01T01:00:00Z</time>
      </trkpt>
      <trkpt lat="63.388456" lon="13.15394717">
        <ele>539.045</ele>
        <time>1970-01-01T01:00:00Z</time>
      </trkpt>
      <trkpt lat="63.38845367" lon="13.1539745">
        <ele>538.893</ele>
        <time>1970-01-01T01:00:00Z</time>
      </trkpt>
      <trkpt lat="63.3884505" lon="13.15400167">
        <ele>538.893</ele>
        <time>1970-01-01T01:00:00Z</time>
      </trkpt>
      <trkpt lat="63.38844767" lon="13.15402833">
        <ele>538.741</ele>
        <time>1970-01-01T01:00:00Z</time>
      </trkpt>
      <trkpt lat="63.388447" lon="13.15405383">
        <ele>538.741</ele>
        <time>1970-01-01T01:00:00Z</time>
      </trkpt>
      <trkpt lat="63.38844783" lon="13.154079">
        <ele>538.588</ele>
        <time>1970-01-01T01:00:00Z</time>
      </trkpt>
      <trkpt lat="63.388449" lon="13.15410317">
        <ele>538.588</ele>
        <time>1970-01-01T01:00:00Z</time>
      </trkpt>
      <trkpt lat="63.38844883" lon="13.15412817">
        <ele>538.588</ele>
        <time>1970-01-01T01:00:00Z</time>
      </trkpt>
      <trkpt lat="63.3884475" lon="13.15415667">
        <ele>538.588</ele>
        <time>1970-01-01T01:00:00Z</time>
      </trkpt>
      <trkpt lat="63.38844583" lon="13.15418617">
        <ele>538.436</ele>
        <time>1970-01-01T01:00:00Z</time>
      </trkpt>
      <trkpt lat="63.3884445" lon="13.15421467">
        <ele>538.436</ele>
        <time>1970-01-01T01:00:00Z</time>
      </trkpt>
      <trkpt lat="63.38844367" lon="13.15424117">
        <ele>538.283</ele>
        <time>1970-01-01T01:00:00Z</time>
      </trkpt>
      <trkpt lat="63.3884435" lon="13.1542685">
        <ele>538.283</ele>
        <time>1970-01-01T01:00:00Z</time>
      </trkpt>
      <trkpt lat="63.38844333" lon="13.154297">
        <ele>538.283</ele>
        <time>1970-01-01T01:00:00Z</time>
      </trkpt>
      <trkpt lat="63.3884445" lon="13.15432683">
        <ele>538.283</ele>
        <time>1970-01-01T01:00:00Z</time>
      </trkpt>
      <trkpt lat="63.3884455" lon="13.15435933">
        <ele>538.131</ele>
        <time>1970-01-01T01:00:00Z</time>
      </trkpt>
      <trkpt lat="63.38844683" lon="13.1543895">
        <ele>538.131</ele>
        <time>1970-01-01T01:00:00Z</time>
      </trkpt>
      <trkpt lat="63.388447" lon="13.15441567">
        <ele>538.131</ele>
        <time>1970-01-01T01:00:00Z</time>
      </trkpt>
      <trkpt lat="63.38844733" lon="13.15444067">
        <ele>538.131</ele>
        <time>1970-01-01T01:00:00Z</time>
      </trkpt>
      <trkpt lat="63.388448" lon="13.15446467">
        <ele>538.131</ele>
        <time>1970-01-01T01:00:00Z</time>
      </trkpt>
      <trkpt lat="63.3884495" lon="13.15448983">
        <ele>538.131</ele>
        <time>1970-01-01T01:00:00Z</time>
      </trkpt>
      <trkpt lat="63.38845117" lon="13.1545165">
        <ele>538.131</ele>
        <time>1970-01-01T01:00:00Z</time>
      </trkpt>
      <trkpt lat="63.38845217" lon="13.1545455">
        <ele>538.131</ele>
        <time>1970-01-01T01:00:00Z</time>
      </trkpt>
      <trkpt lat="63.38845117" lon="13.15457517">
        <ele>538.131</ele>
        <time>1970-01-01T01:00:00Z</time>
      </trkpt>
      <trkpt lat="63.38844967" lon="13.154602">
        <ele>538.131</ele>
        <time>1970-01-01T01:00:00Z</time>
      </trkpt>
      <trkpt lat="63.388449" lon="13.15462967">
        <ele>538.131</ele>
        <time>1970-01-01T01:00:00Z</time>
      </trkpt>
      <trkpt lat="63.38844983" lon="13.15465717">
        <ele>538.131</ele>
        <time>1970-01-01T01:00:00Z</time>
      </trkpt>
      <trkpt lat="63.38845067" lon="13.15468417">
        <ele>538.131</ele>
        <time>1970-01-01T01:00:00Z</time>
      </trkpt>
      <trkpt lat="63.3884515" lon="13.15471183">
        <ele>538.131</ele>
        <time>1970-01-01T01:00:00Z</time>
      </trkpt>
      <trkpt lat="63.388452" lon="13.15473767">
        <ele>538.283</ele>
        <time>1970-01-01T01:00:00Z</time>
      </trkpt>
      <trkpt lat="63.38845233" lon="13.15476217">
        <ele>538.283</ele>
        <time>1970-01-01T01:00:00Z</time>
      </trkpt>
      <trkpt lat="63.3884525" lon="13.15478717">
        <ele>538.283</ele>
        <time>1970-01-01T01:00:00Z</time>
      </trkpt>
      <trkpt lat="63.38845217" lon="13.154816">
        <ele>538.283</ele>
        <time>1970-01-01T01:00:00Z</time>
      </trkpt>
      <trkpt lat="63.388451" lon="13.15485183">
        <ele>538.436</ele>
        <time>1970-01-01T01:00:00Z</time>
      </trkpt>
      <trkpt lat="63.38844983" lon="13.154886">
        <ele>538.436</ele>
        <time>1970-01-01T01:00:00Z</time>
      </trkpt>
      <trkpt lat="63.38844817" lon="13.1549145">
        <ele>538.436</ele>
        <time>1970-01-01T01:00:00Z</time>
      </trkpt>
      <trkpt lat="63.388447" lon="13.15493917">
        <ele>538.436</ele>
        <time>1970-01-01T01:00:00Z</time>
      </trkpt>
      <trkpt lat="63.388446" lon="13.15496567">
        <ele>538.588</ele>
        <time>1970-01-01T01:00:00Z</time>
      </trkpt>
      <trkpt lat="63.3884455" lon="13.15499633">
        <ele>538.588</ele>
        <time>1970-01-01T01:00:00Z</time>
      </trkpt>
      <trkpt lat="63.38844517" lon="13.15502467">
        <ele>538.741</ele>
        <time>1970-01-01T01:00:00Z</time>
      </trkpt>
      <trkpt lat="63.38844433" lon="13.15505017">
        <ele>538.741</ele>
        <time>1970-01-01T01:00:00Z</time>
      </trkpt>
      <trkpt lat="63.38844367" lon="13.15507317">
        <ele>538.741</ele>
        <time>1970-01-01T01:00:00Z</time>
      </trkpt>
      <trkpt lat="63.3884435" lon="13.15509383">
        <ele>538.741</ele>
        <time>1970-01-01T01:00:00Z</time>
      </trkpt>
      <trkpt lat="63.38844283" lon="13.15511533">
        <ele>538.893</ele>
        <time>1970-01-01T01:00:00Z</time>
      </trkpt>
      <trkpt lat="63.38844167" lon="13.1551385">
        <ele>538.893</ele>
        <time>1970-01-01T01:00:00Z</time>
      </trkpt>
      <trkpt lat="63.38843883" lon="13.15516583">
        <ele>538.893</ele>
        <time>1970-01-01T01:00:00Z</time>
      </trkpt>
      <trkpt lat="63.38843617" lon="13.15519317">
        <ele>538.893</ele>
        <time>1970-01-01T01:00:00Z</time>
      </trkpt>
      <trkpt lat="63.388434" lon="13.15521883">
        <ele>538.893</ele>
        <time>1970-01-01T01:00:00Z</time>
      </trkpt>
      <trkpt lat="63.38843283" lon="13.1552455">
        <ele>538.893</ele>
        <time>1970-01-01T01:00:00Z</time>
      </trkpt>
      <trkpt lat="63.3884315" lon="13.15527317">
        <ele>539.045</ele>
        <time>1970-01-01T01:00:00Z</time>
      </trkpt>
      <trkpt lat="63.38843067" lon="13.15530117">
        <ele>539.045</ele>
        <time>1970-01-01T01:00:00Z</time>
      </trkpt>
      <trkpt lat="63.38843067" lon="13.15532367">
        <ele>539.045</ele>
        <time>1970-01-01T01:00:00Z</time>
      </trkpt>
      <trkpt lat="63.38843333" lon="13.15534333">
        <ele>539.045</ele>
        <time>1970-01-01T01:00:00Z</time>
      </trkpt>
      <trkpt lat="63.38843617" lon="13.15536233">
        <ele>539.045</ele>
        <time>1970-01-01T01:00:00Z</time>
      </trkpt>
      <trkpt lat="63.38843933" lon="13.1553855">
        <ele>539.045</ele>
        <time>1970-01-01T01:00:00Z</time>
      </trkpt>
      <trkpt lat="63.38844117" lon="13.15541">
        <ele>539.198</ele>
        <time>1970-01-01T01:00:00Z</time>
      </trkpt>
      <trkpt lat="63.388441" lon="13.15543967">
        <ele>539.198</ele>
        <time>1970-01-01T01:00:00Z</time>
      </trkpt>
      <trkpt lat="63.38843883" lon="13.15546733">
        <ele>539.198</ele>
        <time>1970-01-01T01:00:00Z</time>
      </trkpt>
      <trkpt lat="63.38843667" lon="13.15549533">
        <ele>539.198</ele>
        <time>1970-01-01T01:00:00Z</time>
      </trkpt>
      <trkpt lat="63.38843583" lon="13.15552367">
        <ele>539.198</ele>
        <time>1970-01-01T01:00:00Z</time>
      </trkpt>
      <trkpt lat="63.38843467" lon="13.15555217">
        <ele>539.198</ele>
        <time>1970-01-01T01:00:00Z</time>
      </trkpt>
      <trkpt lat="63.38843217" lon="13.1555815">
        <ele>539.198</ele>
        <time>1970-01-01T01:00:00Z</time>
      </trkpt>
      <trkpt lat="63.388431" lon="13.15561167">
        <ele>539.198</ele>
        <time>1970-01-01T01:00:00Z</time>
      </trkpt>
      <trkpt lat="63.38843033" lon="13.15564167">
        <ele>539.198</ele>
        <time>1970-01-01T01:00:00Z</time>
      </trkpt>
      <trkpt lat="63.38842983" lon="13.15567333">
        <ele>539.198</ele>
        <time>1970-01-01T01:00:00Z</time>
      </trkpt>
      <trkpt lat="63.38842783" lon="13.15570283">
        <ele>539.35</ele>
        <time>1970-01-01T01:00:00Z</time>
      </trkpt>
      <trkpt lat="63.388425" lon="13.15573233">
        <ele>539.35</ele>
        <time>1970-01-01T01:00:00Z</time>
      </trkpt>
      <trkpt lat="63.38842083" lon="13.15575883">
        <ele>539.35</ele>
        <time>1970-01-01T01:00:00Z</time>
      </trkpt>
      <trkpt lat="63.38841517" lon="13.1557835">
        <ele>539.35</ele>
        <time>1970-01-01T01:00:00Z</time>
      </trkpt>
      <trkpt lat="63.38841117" lon="13.15580733">
        <ele>539.35</ele>
        <time>1970-01-01T01:00:00Z</time>
      </trkpt>
      <trkpt lat="63.38840717" lon="13.155831">
        <ele>539.35</ele>
        <time>1970-01-01T01:00:00Z</time>
      </trkpt>
      <trkpt lat="63.38840267" lon="13.15585317">
        <ele>539.35</ele>
        <time>1970-01-01T01:00:00Z</time>
      </trkpt>
      <trkpt lat="63.38839667" lon="13.15587433">
        <ele>539.35</ele>
        <time>1970-01-01T01:00:00Z</time>
      </trkpt>
      <trkpt lat="63.38839233" lon="13.15589733">
        <ele>539.503</ele>
        <time>1970-01-01T01:00:00Z</time>
      </trkpt>
      <trkpt lat="63.3883885" lon="13.15592167">
        <ele>539.503</ele>
        <time>1970-01-01T01:00:00Z</time>
      </trkpt>
      <trkpt lat="63.38838517" lon="13.15594083">
        <ele>539.503</ele>
        <time>1970-01-01T01:00:00Z</time>
      </trkpt>
      <trkpt lat="63.38838183" lon="13.15595533">
        <ele>539.503</ele>
        <time>1970-01-01T01:00:00Z</time>
      </trkpt>
      <trkpt lat="63.388379" lon="13.1559685">
        <ele>539.503</ele>
        <time>1970-01-01T01:00:00Z</time>
      </trkpt>
      <trkpt lat="63.38837633" lon="13.15598917">
        <ele>539.503</ele>
        <time>1970-01-01T01:00:00Z</time>
      </trkpt>
      <trkpt lat="63.3883735" lon="13.15601233">
        <ele>539.655</ele>
        <time>1970-01-01T01:00:00Z</time>
      </trkpt>
      <trkpt lat="63.38837017" lon="13.15603383">
        <ele>539.655</ele>
        <time>1970-01-01T01:00:00Z</time>
      </trkpt>
      <trkpt lat="63.38836617" lon="13.1560545">
        <ele>539.655</ele>
        <time>1970-01-01T01:00:00Z</time>
      </trkpt>
      <trkpt lat="63.388363" lon="13.15607433">
        <ele>539.655</ele>
        <time>1970-01-01T01:00:00Z</time>
      </trkpt>
      <trkpt lat="63.3883605" lon="13.156094">
        <ele>539.807</ele>
        <time>1970-01-01T01:00:00Z</time>
      </trkpt>
      <trkpt lat="63.3883575" lon="13.1561135">
        <ele>539.807</ele>
        <time>1970-01-01T01:00:00Z</time>
      </trkpt>
      <trkpt lat="63.38835383" lon="13.15613333">
        <ele>539.96</ele>
        <time>1970-01-01T01:00:00Z</time>
      </trkpt>
      <trkpt lat="63.38835083" lon="13.15615517">
        <ele>539.96</ele>
        <time>1970-01-01T01:00:00Z</time>
      </trkpt>
      <trkpt lat="63.388349" lon="13.15617767">
        <ele>540.112</ele>
        <time>1970-01-01T01:00:00Z</time>
      </trkpt>
      <trkpt lat="63.38834717" lon="13.1562005">
        <ele>540.112</ele>
        <time>1970-01-01T01:00:00Z</time>
      </trkpt>
      <trkpt lat="63.38834567" lon="13.15621817">
        <ele>540.265</ele>
        <time>1970-01-01T01:00:00Z</time>
      </trkpt>
      <trkpt lat="63.38834367" lon="13.156236">
        <ele>540.265</ele>
        <time>1970-01-01T01:00:00Z</time>
      </trkpt>
      <trkpt lat="63.38834133" lon="13.1562545">
        <ele>540.417</ele>
        <time>1970-01-01T01:00:00Z</time>
      </trkpt>
      <trkpt lat="63.388338" lon="13.1562765">
        <ele>540.417</ele>
        <time>1970-01-01T01:00:00Z</time>
      </trkpt>
      <trkpt lat="63.38833433" lon="13.15629633">
        <ele>540.722</ele>
        <time>1970-01-01T01:00:00Z</time>
      </trkpt>
      <trkpt lat="63.38833133" lon="13.1563165">
        <ele>540.722</ele>
        <time>1970-01-01T01:00:00Z</time>
      </trkpt>
      <trkpt lat="63.38832867" lon="13.156337">
        <ele>540.874</ele>
        <time>1970-01-01T01:00:00Z</time>
      </trkpt>
      <trkpt lat="63.38832817" lon="13.15635883">
        <ele>540.874</ele>
        <time>1970-01-01T01:00:00Z</time>
      </trkpt>
      <trkpt lat="63.388328" lon="13.15638017">
        <ele>541.179</ele>
        <time>1970-01-01T01:00:00Z</time>
      </trkpt>
      <trkpt lat="63.38832683" lon="13.15640183">
        <ele>541.179</ele>
        <time>1970-01-01T01:00:00Z</time>
      </trkpt>
      <trkpt lat="63.38832433" lon="13.15642583">
        <ele>541.331</ele>
        <time>1970-01-01T01:00:00Z</time>
      </trkpt>
      <trkpt lat="63.38832483" lon="13.15644983">
        <ele>541.331</ele>
        <time>1970-01-01T01:00:00Z</time>
      </trkpt>
      <trkpt lat="63.38832717" lon="13.156471">
        <ele>541.484</ele>
        <time>1970-01-01T01:00:00Z</time>
      </trkpt>
      <trkpt lat="63.38832933" lon="13.15648967">
        <ele>541.484</ele>
        <time>1970-01-01T01:00:00Z</time>
      </trkpt>
      <trkpt lat="63.38832783" lon="13.15650917">
        <ele>541.789</ele>
        <time>1970-01-01T01:00:00Z</time>
      </trkpt>
      <trkpt lat="63.38832633" lon="13.156532">
        <ele>541.789</ele>
        <time>1970-01-01T01:00:00Z</time>
      </trkpt>
      <trkpt lat="63.38832517" lon="13.15655033">
        <ele>541.941</ele>
        <time>1970-01-01T01:00:00Z</time>
      </trkpt>
      <trkpt lat="63.38832467" lon="13.15657017">
        <ele>541.941</ele>
        <time>1970-01-01T01:00:00Z</time>
      </trkpt>
      <trkpt lat="63.38832383" lon="13.15659367">
        <ele>542.246</ele>
        <time>1970-01-01T01:00:00Z</time>
      </trkpt>
      <trkpt lat="63.38832267" lon="13.15662133">
        <ele>542.246</ele>
        <time>1970-01-01T01:00:00Z</time>
      </trkpt>
      <trkpt lat="63.38832217" lon="13.15664583">
        <ele>542.551</ele>
        <time>1970-01-01T01:00:00Z</time>
      </trkpt>
      <trkpt lat="63.38832183" lon="13.15666667">
        <ele>542.551</ele>
        <time>1970-01-01T01:00:00Z</time>
      </trkpt>
      <trkpt lat="63.38832183" lon="13.15668933">
        <ele>542.855</ele>
        <time>1970-01-01T01:00:00Z</time>
      </trkpt>
      <trkpt lat="63.38832183" lon="13.15671617">
        <ele>542.855</ele>
        <time>1970-01-01T01:00:00Z</time>
      </trkpt>
      <trkpt lat="63.38832183" lon="13.15674083">
        <ele>543.16</ele>
        <time>1970-01-01T01:00:00Z</time>
      </trkpt>
      <trkpt lat="63.38832183" lon="13.15676517">
        <ele>543.16</ele>
        <time>1970-01-01T01:00:00Z</time>
      </trkpt>
      <trkpt lat="63.3883215" lon="13.15678833">
        <ele>543.465</ele>
        <time>1970-01-01T01:00:00Z</time>
      </trkpt>
      <trkpt lat="63.38832217" lon="13.1568125">
        <ele>543.465</ele>
        <time>1970-01-01T01:00:00Z</time>
      </trkpt>
      <trkpt lat="63.38832383" lon="13.15683483">
        <ele>543.77</ele>
        <time>1970-01-01T01:00:00Z</time>
      </trkpt>
      <trkpt lat="63.38832567" lon="13.15685617">
        <ele>543.77</ele>
        <time>1970-01-01T01:00:00Z</time>
      </trkpt>
      <trkpt lat="63.38832233" lon="13.1568785">
        <ele>544.227</ele>
        <time>1970-01-01T01:00:00Z</time>
      </trkpt>
      <trkpt lat="63.38831483" lon="13.15689883">
        <ele>544.227</ele>
        <time>1970-01-01T01:00:00Z</time>
      </trkpt>
      <trkpt lat="63.3883045" lon="13.156914">
        <ele>544.532</ele>
        <time>1970-01-01T01:00:00Z</time>
      </trkpt>
      <trkpt lat="63.38829617" lon="13.15692617">
        <ele>544.532</ele>
        <time>1970-01-01T01:00:00Z</time>
      </trkpt>
      <trkpt lat="63.38828967" lon="13.15694">
        <ele>544.989</ele>
        <time>1970-01-01T01:00:00Z</time>
      </trkpt>
      <trkpt lat="63.388285" lon="13.15695667">
        <ele>544.989</ele>
        <time>1970-01-01T01:00:00Z</time>
      </trkpt>
      <trkpt lat="63.38828117" lon="13.15697467">
        <ele>545.294</ele>
        <time>1970-01-01T01:00:00Z</time>
      </trkpt>
      <trkpt lat="63.38827767" lon="13.15699067">
        <ele>545.294</ele>
        <time>1970-01-01T01:00:00Z</time>
      </trkpt>
      <trkpt lat="63.38827433" lon="13.15700633">
        <ele>545.751</ele>
        <time>1970-01-01T01:00:00Z</time>
      </trkpt>
      <trkpt lat="63.3882715" lon="13.15702283">
        <ele>545.751</ele>
        <time>1970-01-01T01:00:00Z</time>
      </trkpt>
      <trkpt lat="63.38827" lon="13.15704383">
        <ele>546.056</ele>
        <time>1970-01-01T01:00:00Z</time>
      </trkpt>
      <trkpt lat="63.38826817" lon="13.15706783">
        <ele>546.056</ele>
        <time>1970-01-01T01:00:00Z</time>
      </trkpt>
      <trkpt lat="63.38826867" lon="13.15709567">
        <ele>546.361</ele>
        <time>1970-01-01T01:00:00Z</time>
      </trkpt>
      <trkpt lat="63.38826767" lon="13.157123">
        <ele>546.361</ele>
        <time>1970-01-01T01:00:00Z</time>
      </trkpt>
      <trkpt lat="63.38826633" lon="13.15714917">
        <ele>546.818</ele>
        <time>1970-01-01T01:00:00Z</time>
      </trkpt>
      <trkpt lat="63.38826133" lon="13.157173">
        <ele>546.818</ele>
        <time>1970-01-01T01:00:00Z</time>
      </trkpt>
      <trkpt lat="63.38825683" lon="13.15719567">
        <ele>547.123</ele>
        <time>1970-01-01T01:00:00Z</time>
      </trkpt>
      <trkpt lat="63.38825317" lon="13.15721833">
        <ele>547.123</ele>
        <time>1970-01-01T01:00:00Z</time>
      </trkpt>
      <trkpt lat="63.3882515" lon="13.15724083">
        <ele>547.427</ele>
        <time>1970-01-01T01:00:00Z</time>
      </trkpt>
      <trkpt lat="63.38824967" lon="13.15726533">
        <ele>547.427</ele>
        <time>1970-01-01T01:00:00Z</time>
      </trkpt>
      <trkpt lat="63.3882485" lon="13.15729133">
        <ele>547.885</ele>
        <time>1970-01-01T01:00:00Z</time>
      </trkpt>
      <trkpt lat="63.38824633" lon="13.15731733">
        <ele>547.885</ele>
        <time>1970-01-01T01:00:00Z</time>
      </trkpt>
      <trkpt lat="63.388243" lon="13.15734167">
        <ele>548.189</ele>
        <time>1970-01-01T01:00:00Z</time>
      </trkpt>
      <trkpt lat="63.388239" lon="13.15736633">
        <ele>548.189</ele>
        <time>1970-01-01T01:00:00Z</time>
      </trkpt>
      <trkpt lat="63.38823533" lon="13.157389">
        <ele>548.494</ele>
        <time>1970-01-01T01:00:00Z</time>
      </trkpt>
      <trkpt lat="63.38823383" lon="13.15741117">
        <ele>548.494</ele>
        <time>1970-01-01T01:00:00Z</time>
      </trkpt>
      <trkpt lat="63.38823217" lon="13.15743033">
        <ele>548.951</ele>
        <time>1970-01-01T01:00:00Z</time>
      </trkpt>
      <trkpt lat="63.38823133" lon="13.15745033">
        <ele>548.951</ele>
        <time>1970-01-01T01:00:00Z</time>
      </trkpt>
      <trkpt lat="63.388229" lon="13.15747083">
        <ele>549.256</ele>
        <time>1970-01-01T01:00:00Z</time>
      </trkpt>
      <trkpt lat="63.38822633" lon="13.157492">
        <ele>549.256</ele>
        <time>1970-01-01T01:00:00Z</time>
      </trkpt>
      <trkpt lat="63.38822217" lon="13.1575155">
        <ele>549.561</ele>
        <time>1970-01-01T01:00:00Z</time>
      </trkpt>
      <trkpt lat="63.38821783" lon="13.15753967">
        <ele>549.561</ele>
        <time>1970-01-01T01:00:00Z</time>
      </trkpt>
      <trkpt lat="63.388214" lon="13.15756417">
        <ele>549.866</ele>
        <time>1970-01-01T01:00:00Z</time>
      </trkpt>
      <trkpt lat="63.38821083" lon="13.157586">
        <ele>549.866</ele>
        <time>1970-01-01T01:00:00Z</time>
      </trkpt>
      <trkpt lat="63.38820917" lon="13.15760733">
        <ele>550.323</ele>
        <time>1970-01-01T01:00:00Z</time>
      </trkpt>
      <trkpt lat="63.38820683" lon="13.15762983">
        <ele>550.323</ele>
        <time>1970-01-01T01:00:00Z</time>
      </trkpt>
      <trkpt lat="63.3882045" lon="13.15765383">
        <ele>550.628</ele>
        <time>1970-01-01T01:00:00Z</time>
      </trkpt>
      <trkpt lat="63.38820133" lon="13.1576765">
        <ele>550.628</ele>
        <time>1970-01-01T01:00:00Z</time>
      </trkpt>
      <trkpt lat="63.38819833" lon="13.157699">
        <ele>550.933</ele>
        <time>1970-01-01T01:00:00Z</time>
      </trkpt>
      <trkpt lat="63.38819517" lon="13.1577195">
        <ele>550.933</ele>
        <time>1970-01-01T01:00:00Z</time>
      </trkpt>
      <trkpt lat="63.388193" lon="13.15774233">
        <ele>551.237</ele>
        <time>1970-01-01T01:00:00Z</time>
      </trkpt>
      <trkpt lat="63.388192" lon="13.15776283">
        <ele>551.237</ele>
        <time>1970-01-01T01:00:00Z</time>
      </trkpt>
      <trkpt lat="63.3881915" lon="13.15778317">
        <ele>551.542</ele>
        <time>1970-01-01T01:00:00Z</time>
      </trkpt>
      <trkpt lat="63.38819033" lon="13.15780283">
        <ele>551.542</ele>
        <time>1970-01-01T01:00:00Z</time>
      </trkpt>
      <trkpt lat="63.38818933" lon="13.15782483">
        <ele>551.847</ele>
        <time>1970-01-01T01:00:00Z</time>
      </trkpt>
      <trkpt lat="63.38818733" lon="13.15784817">
        <ele>551.847</ele>
        <time>1970-01-01T01:00:00Z</time>
      </trkpt>
      <trkpt lat="63.38818533" lon="13.15787367">
        <ele>552.152</ele>
        <time>1970-01-01T01:00:00Z</time>
      </trkpt>
      <trkpt lat="63.388182" lon="13.15789983">
        <ele>552.152</ele>
        <time>1970-01-01T01:00:00Z</time>
      </trkpt>
      <trkpt lat="63.38818" lon="13.157925">
        <ele>552.457</ele>
        <time>1970-01-01T01:00:00Z</time>
      </trkpt>
      <trkpt lat="63.3881795" lon="13.15794867">
        <ele>552.457</ele>
        <time>1970-01-01T01:00:00Z</time>
      </trkpt>
      <trkpt lat="63.38817983" lon="13.15797167">
        <ele>552.609</ele>
        <time>1970-01-01T01:00:00Z</time>
      </trkpt>
      <trkpt lat="63.38817817" lon="13.157996">
        <ele>552.609</ele>
        <time>1970-01-01T01:00:00Z</time>
      </trkpt>
      <trkpt lat="63.38817367" lon="13.15802167">
        <ele>552.914</ele>
        <time>1970-01-01T01:00:00Z</time>
      </trkpt>
      <trkpt lat="63.3881685" lon="13.1580475">
        <ele>552.914</ele>
        <time>1970-01-01T01:00:00Z</time>
      </trkpt>
      <trkpt lat="63.3881655" lon="13.15807167">
        <ele>553.219</ele>
        <time>1970-01-01T01:00:00Z</time>
      </trkpt>
      <trkpt lat="63.38816483" lon="13.15809333">
        <ele>553.219</ele>
        <time>1970-01-01T01:00:00Z</time>
      </trkpt>
      <trkpt lat="63.38816583" lon="13.15811083">
        <ele>553.371</ele>
        <time>1970-01-01T01:00:00Z</time>
      </trkpt>
      <trkpt lat="63.38816767" lon="13.15812717">
        <ele>553.371</ele>
        <time>1970-01-01T01:00:00Z</time>
      </trkpt>
      <trkpt lat="63.3881705" lon="13.15814383">
        <ele>553.523</ele>
        <time>1970-01-01T01:00:00Z</time>
      </trkpt>
      <trkpt lat="63.388173" lon="13.15816433">
        <ele>553.523</ele>
        <time>1970-01-01T01:00:00Z</time>
      </trkpt>
      <trkpt lat="63.38817383" lon="13.15818633">
        <ele>553.676</ele>
        <time>1970-01-01T01:00:00Z</time>
      </trkpt>
      <trkpt lat="63.3881745" lon="13.1582095">
        <ele>553.676</ele>
        <time>1970-01-01T01:00:00Z</time>
      </trkpt>
      <trkpt lat="63.38817433" lon="13.15823033">
        <ele>553.981</ele>
        <time>1970-01-01T01:00:00Z</time>
      </trkpt>
      <trkpt lat="63.38817417" lon="13.15825217">
        <ele>553.981</ele>
        <time>1970-01-01T01:00:00Z</time>
      </trkpt>
      <trkpt lat="63.38817233" lon="13.1582735">
        <ele>554.133</ele>
        <time>1970-01-01T01:00:00Z</time>
      </trkpt>
      <trkpt lat="63.38816967" lon="13.15829833">
        <ele>554.133</ele>
        <time>1970-01-01T01:00:00Z</time>
      </trkpt>
      <trkpt lat="63.388167" lon="13.15832133">
        <ele>554.438</ele>
        <time>1970-01-01T01:00:00Z</time>
      </trkpt>
      <trkpt lat="63.38816467" lon="13.158344">
        <ele>554.438</ele>
        <time>1970-01-01T01:00:00Z</time>
      </trkpt>
      <trkpt lat="63.3881635" lon="13.158361">
        <ele>554.59</ele>
        <time>1970-01-01T01:00:00Z</time>
      </trkpt>
      <trkpt lat="63.388162" lon="13.15837433">
        <ele>554.59</ele>
        <time>1970-01-01T01:00:00Z</time>
      </trkpt>
      <trkpt lat="63.388161" lon="13.15838667">
        <ele>554.895</ele>
        <time>1970-01-01T01:00:00Z</time>
      </trkpt>
      <trkpt lat="63.38815967" lon="13.15840067">
        <ele>554.895</ele>
        <time>1970-01-01T01:00:00Z</time>
      </trkpt>
      <trkpt lat="63.38815933" lon="13.15841533">
        <ele>555.048</ele>
        <time>1970-01-01T01:00:00Z</time>
      </trkpt>
      <trkpt lat="63.388159" lon="13.1584265">
        <ele>555.048</ele>
        <time>1970-01-01T01:00:00Z</time>
      </trkpt>
      <trkpt lat="63.38815783" lon="13.15843283">
        <ele>555.352</ele>
        <time>1970-01-01T01:00:00Z</time>
      </trkpt>
      <trkpt lat="63.38815717" lon="13.158435">
        <ele>555.352</ele>
        <time>1970-01-01T01:00:00Z</time>
      </trkpt>
      <trkpt lat="63.38815633" lon="13.15843417">
        <ele>555.505</ele>
        <time>1970-01-01T01:00:00Z</time>
      </trkpt>
      <trkpt lat="63.38815633" lon="13.158432">
        <ele>555.505</ele>
        <time>1970-01-01T01:00:00Z</time>
      </trkpt>
      <trkpt lat="63.388156" lon="13.15842983">
        <ele>555.81</ele>
        <time>1970-01-01T01:00:00Z</time>
      </trkpt>
      <trkpt lat="63.38815567" lon="13.15842767">
        <ele>555.81</ele>
        <time>1970-01-01T01:00:00Z</time>
      </trkpt>
      <trkpt lat="63.3881555" lon="13.158427">
        <ele>555.962</ele>
        <time>1970-01-01T01:00:00Z</time>
      </trkpt>
      <trkpt lat="63.38815533" lon="13.15842867">
        <ele>555.962</ele>
        <time>1970-01-01T01:00:00Z</time>
      </trkpt>
      <trkpt lat="63.38815633" lon="13.1584305">
        <ele>556.267</ele>
        <time>1970-01-01T01:00:00Z</time>
      </trkpt>
      <trkpt lat="63.388157" lon="13.15843467">
        <ele>556.267</ele>
        <time>1970-01-01T01:00:00Z</time>
      </trkpt>
      <trkpt lat="63.38815733" lon="13.15844133">
        <ele>556.419</ele>
        <time>1970-01-01T01:00:00Z</time>
      </trkpt>
      <trkpt lat="63.3881565" lon="13.15845583">
        <ele>556.419</ele>
        <time>1970-01-01T01:00:00Z</time>
      </trkpt>
      <trkpt lat="63.3881565" lon="13.15847417">
        <ele>556.572</ele>
        <time>1970-01-01T01:00:00Z</time>
      </trkpt>
      <trkpt lat="63.3881565" lon="13.15849467">
        <ele>556.572</ele>
        <time>1970-01-01T01:00:00Z</time>
      </trkpt>
      <trkpt lat="63.38815683" lon="13.15851717">
        <ele>556.876</ele>
        <time>1970-01-01T01:00:00Z</time>
      </trkpt>
      <trkpt lat="63.38815733" lon="13.15853733">
        <ele>556.876</ele>
        <time>1970-01-01T01:00:00Z</time>
      </trkpt>
      <trkpt lat="63.38815783" lon="13.15855783">
        <ele>557.029</ele>
        <time>1970-01-01T01:00:00Z</time>
      </trkpt>
      <trkpt lat="63.38815817" lon="13.1585755">
        <ele>557.029</ele>
        <time>1970-01-01T01:00:00Z</time>
      </trkpt>
      <trkpt lat="63.38815833" lon="13.15859617">
        <ele>557.181</ele>
        <time>1970-01-01T01:00:00Z</time>
      </trkpt>
      <trkpt lat="63.38815983" lon="13.1586165">
        <ele>557.181</ele>
        <time>1970-01-01T01:00:00Z</time>
      </trkpt>
      <trkpt lat="63.388163" lon="13.1586345">
        <ele>557.486</ele>
        <time>1970-01-01T01:00:00Z</time>
      </trkpt>
      <trkpt lat="63.38816433" lon="13.158652">
        <ele>557.486</ele>
        <time>1970-01-01T01:00:00Z</time>
      </trkpt>
      <trkpt lat="63.38816417" lon="13.15867167">
        <ele>557.638</ele>
        <time>1970-01-01T01:00:00Z</time>
      </trkpt>
      <trkpt lat="63.3881625" lon="13.158693">
        <ele>557.638</ele>
        <time>1970-01-01T01:00:00Z</time>
      </trkpt>
      <trkpt lat="63.38816183" lon="13.1587115">
        <ele>557.791</ele>
        <time>1970-01-01T01:00:00Z</time>
      </trkpt>
      <trkpt lat="63.38816133" lon="13.15873017">
        <ele>557.791</ele>
        <time>1970-01-01T01:00:00Z</time>
      </trkpt>
      <trkpt lat="63.38816017" lon="13.15875083">
        <ele>558.096</ele>
        <time>1970-01-01T01:00:00Z</time>
      </trkpt>
      <trkpt lat="63.38815917" lon="13.1587725">
        <ele>558.096</ele>
        <time>1970-01-01T01:00:00Z</time>
      </trkpt>
      <trkpt lat="63.38815883" lon="13.158793">
        <ele>558.248</ele>
        <time>1970-01-01T01:00:00Z</time>
      </trkpt>
      <trkpt lat="63.38815933" lon="13.15881333">
        <ele>558.248</ele>
        <time>1970-01-01T01:00:00Z</time>
      </trkpt>
      <trkpt lat="63.38816117" lon="13.158838">
        <ele>558.4</ele>
        <time>1970-01-01T01:00:00Z</time>
      </trkpt>
      <trkpt lat="63.38816283" lon="13.1588605">
        <ele>558.4</ele>
        <time>1970-01-01T01:00:00Z</time>
      </trkpt>
      <trkpt lat="63.388165" lon="13.15887633">
        <ele>558.553</ele>
        <time>1970-01-01T01:00:00Z</time>
      </trkpt>
      <trkpt lat="63.388167" lon="13.15889083">
        <ele>558.553</ele>
        <time>1970-01-01T01:00:00Z</time>
      </trkpt>
      <trkpt lat="63.38816867" lon="13.15890833">
        <ele>558.858</ele>
        <time>1970-01-01T01:00:00Z</time>
      </trkpt>
      <trkpt lat="63.38817" lon="13.1589345">
        <ele>558.858</ele>
        <time>1970-01-01T01:00:00Z</time>
      </trkpt>
      <trkpt lat="63.3881695" lon="13.15895683">
        <ele>559.01</ele>
        <time>1970-01-01T01:00:00Z</time>
      </trkpt>
      <trkpt lat="63.38816967" lon="13.1589765">
        <ele>559.01</ele>
        <time>1970-01-01T01:00:00Z</time>
      </trkpt>
      <trkpt lat="63.38816933" lon="13.15899267">
        <ele>559.315</ele>
        <time>1970-01-01T01:00:00Z</time>
      </trkpt>
      <trkpt lat="63.38816933" lon="13.15901133">
        <ele>559.315</ele>
        <time>1970-01-01T01:00:00Z</time>
      </trkpt>
      <trkpt lat="63.388169" lon="13.159032">
        <ele>559.467</ele>
        <time>1970-01-01T01:00:00Z</time>
      </trkpt>
      <trkpt lat="63.38816917" lon="13.15905317">
        <ele>559.467</ele>
        <time>1970-01-01T01:00:00Z</time>
      </trkpt>
      <trkpt lat="63.38817" lon="13.159071">
        <ele>559.772</ele>
        <time>1970-01-01T01:00:00Z</time>
      </trkpt>
      <trkpt lat="63.388171" lon="13.15908583">
        <ele>559.772</ele>
        <time>1970-01-01T01:00:00Z</time>
      </trkpt>
      <trkpt lat="63.38817233" lon="13.15910067">
        <ele>559.924</ele>
        <time>1970-01-01T01:00:00Z</time>
      </trkpt>
      <trkpt lat="63.3881735" lon="13.1591205">
        <ele>559.924</ele>
        <time>1970-01-01T01:00:00Z</time>
      </trkpt>
      <trkpt lat="63.38817417" lon="13.15914067">
        <ele>560.229</ele>
        <time>1970-01-01T01:00:00Z</time>
      </trkpt>
      <trkpt lat="63.38817383" lon="13.15915817">
        <ele>560.229</ele>
        <time>1970-01-01T01:00:00Z</time>
      </trkpt>
      <trkpt lat="63.38817517" lon="13.15917217">
        <ele>560.534</ele>
        <time>1970-01-01T01:00:00Z</time>
      </trkpt>
      <trkpt lat="63.38817333" lon="13.15918933">
        <ele>560.534</ele>
        <time>1970-01-01T01:00:00Z</time>
      </trkpt>
      <trkpt lat="63.388168" lon="13.1592075">
        <ele>560.839</ele>
        <time>1970-01-01T01:00:00Z</time>
      </trkpt>
      <trkpt lat="63.38815617" lon="13.15922567">
        <ele>560.839</ele>
        <time>1970-01-01T01:00:00Z</time>
      </trkpt>
      <trkpt lat="63.38814567" lon="13.15924033">
        <ele>561.144</ele>
        <time>1970-01-01T01:00:00Z</time>
      </trkpt>
      <trkpt lat="63.388137" lon="13.15925283">
        <ele>561.144</ele>
        <time>1970-01-01T01:00:00Z</time>
      </trkpt>
      <trkpt lat="63.3881295" lon="13.1592645">
        <ele>561.448</ele>
        <time>1970-01-01T01:00:00Z</time>
      </trkpt>
      <trkpt lat="63.38812317" lon="13.15927867">
        <ele>561.448</ele>
        <time>1970-01-01T01:00:00Z</time>
      </trkpt>
      <trkpt lat="63.38812033" lon="13.159293">
        <ele>561.753</ele>
        <time>1970-01-01T01:00:00Z</time>
      </trkpt>
      <trkpt lat="63.3881215" lon="13.15930633">
        <ele>561.753</ele>
        <time>1970-01-01T01:00:00Z</time>
      </trkpt>
      <trkpt lat="63.3881285" lon="13.15931917">
        <ele>562.058</ele>
        <time>1970-01-01T01:00:00Z</time>
      </trkpt>
      <trkpt lat="63.38813667" lon="13.159333">
        <ele>562.058</ele>
        <time>1970-01-01T01:00:00Z</time>
      </trkpt>
      <trkpt lat="63.38814483" lon="13.1593475">
        <ele>562.515</ele>
        <time>1970-01-01T01:00:00Z</time>
      </trkpt>
      <trkpt lat="63.3881495" lon="13.15936">
        <ele>562.515</ele>
        <time>1970-01-01T01:00:00Z</time>
      </trkpt>
      <trkpt lat="63.38815183" lon="13.15937333">
        <ele>562.82</ele>
        <time>1970-01-01T01:00:00Z</time>
      </trkpt>
      <trkpt lat="63.38815083" lon="13.159387">
        <ele>562.82</ele>
        <time>1970-01-01T01:00:00Z</time>
      </trkpt>
      <trkpt lat="63.38814467" lon="13.15939983">
        <ele>563.125</ele>
        <time>1970-01-01T01:00:00Z</time>
      </trkpt>
      <trkpt lat="63.38813633" lon="13.15941333">
        <ele>563.125</ele>
        <time>1970-01-01T01:00:00Z</time>
      </trkpt>
      <trkpt lat="63.3881285" lon="13.159426">
        <ele>563.582</ele>
        <time>1970-01-01T01:00:00Z</time>
      </trkpt>
      <trkpt lat="63.38812283" lon="13.15943917">
        <ele>563.582</ele>
        <time>1970-01-01T01:00:00Z</time>
      </trkpt>
      <trkpt lat="63.3881155" lon="13.15945233">
        <ele>563.887</ele>
        <time>1970-01-01T01:00:00Z</time>
      </trkpt>
      <trkpt lat="63.38810733" lon="13.159464">
        <ele>563.887</ele>
        <time>1970-01-01T01:00:00Z</time>
      </trkpt>
      <trkpt lat="63.3881" lon="13.15947683">
        <ele>564.344</ele>
        <time>1970-01-01T01:00:00Z</time>
      </trkpt>
      <trkpt lat="63.38809533" lon="13.15948983">
        <ele>564.344</ele>
        <time>1970-01-01T01:00:00Z</time>
      </trkpt>
      <trkpt lat="63.38809733" lon="13.15950717">
        <ele>564.801</ele>
        <time>1970-01-01T01:00:00Z</time>
      </trkpt>
      <trkpt lat="63.38810217" lon="13.159523">
        <ele>564.801</ele>
        <time>1970-01-01T01:00:00Z</time>
      </trkpt>
      <trkpt lat="63.3881095" lon="13.15953833">
        <ele>565.258</ele>
        <time>1970-01-01T01:00:00Z</time>
      </trkpt>
      <trkpt lat="63.38811433" lon="13.15954917">
        <ele>565.258</ele>
        <time>1970-01-01T01:00:00Z</time>
      </trkpt>
      <trkpt lat="63.388119" lon="13.15956433">
        <ele>565.716</ele>
        <time>1970-01-01T01:00:00Z</time>
      </trkpt>
      <trkpt lat="63.38812283" lon="13.15958333">
        <ele>565.716</ele>
        <time>1970-01-01T01:00:00Z</time>
      </trkpt>
      <trkpt lat="63.38812267" lon="13.15960683">
        <ele>566.02</ele>
        <time>1970-01-01T01:00:00Z</time>
      </trkpt>
      <trkpt lat="63.38811817" lon="13.159628">
        <ele>566.02</ele>
        <time>1970-01-01T01:00:00Z</time>
      </trkpt>
      <trkpt lat="63.38810867" lon="13.15964417">
        <ele>566.478</ele>
        <time>1970-01-01T01:00:00Z</time>
      </trkpt>
      <trkpt lat="63.38809833" lon="13.15965733">
        <ele>566.478</ele>
        <time>1970-01-01T01:00:00Z</time>
      </trkpt>
      <trkpt lat="63.38808633" lon="13.15967083">
        <ele>567.087</ele>
        <time>1970-01-01T01:00:00Z</time>
      </trkpt>
      <trkpt lat="63.388077" lon="13.15968633">
        <ele>567.087</ele>
        <time>1970-01-01T01:00:00Z</time>
      </trkpt>
      <trkpt lat="63.3880715" lon="13.15969767">
        <ele>567.544</ele>
        <time>1970-01-01T01:00:00Z</time>
      </trkpt>
      <trkpt lat="63.38807017" lon="13.159707">
        <ele>567.544</ele>
        <time>1970-01-01T01:00:00Z</time>
      </trkpt>
      <trkpt lat="63.38807167" lon="13.15971533">
        <ele>568.154</ele>
        <time>1970-01-01T01:00:00Z</time>
      </trkpt>
      <trkpt lat="63.3880745" lon="13.15972433">
        <ele>568.154</ele>
        <time>1970-01-01T01:00:00Z</time>
      </trkpt>
      <trkpt lat="63.38807933" lon="13.15973017">
        <ele>568.764</ele>
        <time>1970-01-01T01:00:00Z</time>
      </trkpt>
      <trkpt lat="63.38808433" lon="13.1597335">
        <ele>568.764</ele>
        <time>1970-01-01T01:00:00Z</time>
      </trkpt>
      <trkpt lat="63.388088" lon="13.15973883">
        <ele>569.221</ele>
        <time>1970-01-01T01:00:00Z</time>
      </trkpt>
      <trkpt lat="63.38808967" lon="13.15974633">
        <ele>569.221</ele>
        <time>1970-01-01T01:00:00Z</time>
      </trkpt>
      <trkpt lat="63.38808983" lon="13.159753">
        <ele>569.831</ele>
        <time>1970-01-01T01:00:00Z</time>
      </trkpt>
      <trkpt lat="63.38808967" lon="13.15975683">
        <ele>569.831</ele>
        <time>1970-01-01T01:00:00Z</time>
      </trkpt>
      <trkpt lat="63.38808967" lon="13.1597565">
        <ele>570.288</ele>
        <time>1970-01-01T01:00:00Z</time>
      </trkpt>
      <trkpt lat="63.38808933" lon="13.15975483">
        <ele>570.288</ele>
        <time>1970-01-01T01:00:00Z</time>
      </trkpt>
      <trkpt lat="63.38808817" lon="13.1597535">
        <ele>570.745</ele>
        <time>1970-01-01T01:00:00Z</time>
      </trkpt>
      <trkpt lat="63.38808667" lon="13.15975283">
        <ele>570.745</ele>
        <time>1970-01-01T01:00:00Z</time>
      </trkpt>
      <trkpt lat="63.38808483" lon="13.15975233">
        <ele>571.355</ele>
        <time>1970-01-01T01:00:00Z</time>
      </trkpt>
      <trkpt lat="63.388083" lon="13.1597525">
        <ele>571.355</ele>
        <time>1970-01-01T01:00:00Z</time>
      </trkpt>
      <trkpt lat="63.38808067" lon="13.1597545">
        <ele>571.659</ele>
        <time>1970-01-01T01:00:00Z</time>
      </trkpt>
      <trkpt lat="63.38807767" lon="13.159758">
        <ele>571.659</ele>
        <time>1970-01-01T01:00:00Z</time>
      </trkpt>
      <trkpt lat="63.3880735" lon="13.1597625">
        <ele>572.117</ele>
        <time>1970-01-01T01:00:00Z</time>
      </trkpt>
      <trkpt lat="63.38806833" lon="13.159768">
        <ele>572.117</ele>
        <time>1970-01-01T01:00:00Z</time>
      </trkpt>
      <trkpt lat="63.38806267" lon="13.15977417">
        <ele>572.574</ele>
        <time>1970-01-01T01:00:00Z</time>
      </trkpt>
      <trkpt lat="63.38805633" lon="13.159781">
        <ele>572.574</ele>
        <time>1970-01-01T01:00:00Z</time>
      </trkpt>
      <trkpt lat="63.38805" lon="13.15978817">
        <ele>572.879</ele>
        <time>1970-01-01T01:00:00Z</time>
      </trkpt>
      <trkpt lat="63.38804383" lon="13.159796">
        <ele>572.879</ele>
        <time>1970-01-01T01:00:00Z</time>
      </trkpt>
      <trkpt lat="63.38803783" lon="13.15980533">
        <ele>573.336</ele>
        <time>1970-01-01T01:00:00Z</time>
      </trkpt>
      <trkpt lat="63.38803267" lon="13.15981583">
        <ele>573.336</ele>
        <time>1970-01-01T01:00:00Z</time>
      </trkpt>
      <trkpt lat="63.388028" lon="13.15982667">
        <ele>573.641</ele>
        <time>1970-01-01T01:00:00Z</time>
      </trkpt>
      <trkpt lat="63.38802467" lon="13.159836">
        <ele>573.641</ele>
        <time>1970-01-01T01:00:00Z</time>
      </trkpt>
      <trkpt lat="63.38802217" lon="13.15984467">
        <ele>574.098</ele>
        <time>1970-01-01T01:00:00Z</time>
      </trkpt>
      <trkpt lat="63.3880215" lon="13.15985267">
        <ele>574.098</ele>
        <time>1970-01-01T01:00:00Z</time>
      </trkpt>
      <trkpt lat="63.388023" lon="13.15986067">
        <ele>574.555</ele>
        <time>1970-01-01T01:00:00Z</time>
      </trkpt>
      <trkpt lat="63.38802683" lon="13.15986883">
        <ele>574.555</ele>
        <time>1970-01-01T01:00:00Z</time>
      </trkpt>
      <trkpt lat="63.38803183" lon="13.1598785">
        <ele>574.86</ele>
        <time>1970-01-01T01:00:00Z</time>
      </trkpt>
      <trkpt lat="63.38803667" lon="13.15989217">
        <ele>574.86</ele>
        <time>1970-01-01T01:00:00Z</time>
      </trkpt>
      <trkpt lat="63.38804033" lon="13.15990983">
        <ele>575.317</ele>
        <time>1970-01-01T01:00:00Z</time>
      </trkpt>
      <trkpt lat="63.38804267" lon="13.15992967">
        <ele>575.317</ele>
        <time>1970-01-01T01:00:00Z</time>
      </trkpt>
      <trkpt lat="63.38804417" lon="13.15994667">
        <ele>575.622</ele>
        <time>1970-01-01T01:00:00Z</time>
      </trkpt>
      <trkpt lat="63.38804567" lon="13.1599625">
        <ele>575.622</ele>
        <time>1970-01-01T01:00:00Z</time>
      </trkpt>
      <trkpt lat="63.388047" lon="13.1599785">
        <ele>576.079</ele>
        <time>1970-01-01T01:00:00Z</time>
      </trkpt>
      <trkpt lat="63.38804783" lon="13.15999683">
        <ele>576.079</ele>
        <time>1970-01-01T01:00:00Z</time>
      </trkpt>
      <trkpt lat="63.38804767" lon="13.160016">
        <ele>576.536</ele>
        <time>1970-01-01T01:00:00Z</time>
      </trkpt>
      <trkpt lat="63.38804733" lon="13.16003233">
        <ele>576.536</ele>
        <time>1970-01-01T01:00:00Z</time>
      </trkpt>
      <trkpt lat="63.3880455" lon="13.16004783">
        <ele>576.841</ele>
        <time>1970-01-01T01:00:00Z</time>
      </trkpt>
      <trkpt lat="63.38804317" lon="13.1600625">
        <ele>576.841</ele>
        <time>1970-01-01T01:00:00Z</time>
      </trkpt>
      <trkpt lat="63.38803917" lon="13.160081">
        <ele>577.298</ele>
        <time>1970-01-01T01:00:00Z</time>
      </trkpt>
      <trkpt lat="63.38803483" lon="13.1601015">
        <ele>577.298</ele>
        <time>1970-01-01T01:00:00Z</time>
      </trkpt>
      <trkpt lat="63.38803267" lon="13.1601185">
        <ele>577.755</ele>
        <time>1970-01-01T01:00:00Z</time>
      </trkpt>
      <trkpt lat="63.38803117" lon="13.1601345">
        <ele>577.755</ele>
        <time>1970-01-01T01:00:00Z</time>
      </trkpt>
      <trkpt lat="63.3880315" lon="13.16015067">
        <ele>578.06</ele>
        <time>1970-01-01T01:00:00Z</time>
      </trkpt>
      <trkpt lat="63.3880295" lon="13.1601725">
        <ele>578.06</ele>
        <time>1970-01-01T01:00:00Z</time>
      </trkpt>
      <trkpt lat="63.388028" lon="13.16019483">
        <ele>578.517</ele>
        <time>1970-01-01T01:00:00Z</time>
      </trkpt>
      <trkpt lat="63.3880275" lon="13.160212">
        <ele>578.517</ele>
        <time>1970-01-01T01:00:00Z</time>
      </trkpt>
      <trkpt lat="63.38802783" lon="13.16022583">
        <ele>578.975</ele>
        <time>1970-01-01T01:00:00Z</time>
      </trkpt>
      <trkpt lat="63.38802833" lon="13.16023983">
        <ele>578.975</ele>
        <time>1970-01-01T01:00:00Z</time>
      </trkpt>
      <trkpt lat="63.38802633" lon="13.1602605">
        <ele>579.279</ele>
        <time>1970-01-01T01:00:00Z</time>
      </trkpt>
      <trkpt lat="63.38802433" lon="13.16027883">
        <ele>579.279</ele>
        <time>1970-01-01T01:00:00Z</time>
      </trkpt>
      <trkpt lat="63.38802167" lon="13.16029517">
        <ele>579.737</ele>
        <time>1970-01-01T01:00:00Z</time>
      </trkpt>
      <trkpt lat="63.38801883" lon="13.16030967">
        <ele>579.737</ele>
        <time>1970-01-01T01:00:00Z</time>
      </trkpt>
      <trkpt lat="63.388015" lon="13.16032933">
        <ele>580.194</ele>
        <time>1970-01-01T01:00:00Z</time>
      </trkpt>
      <trkpt lat="63.38801167" lon="13.16034967">
        <ele>580.194</ele>
        <time>1970-01-01T01:00:00Z</time>
      </trkpt>
      <trkpt lat="63.38800967" lon="13.16036867">
        <ele>580.499</ele>
        <time>1970-01-01T01:00:00Z</time>
      </trkpt>
      <trkpt lat="63.388009" lon="13.160383">
        <ele>580.499</ele>
        <time>1970-01-01T01:00:00Z</time>
      </trkpt>
      <trkpt lat="63.388009" lon="13.16039833">
        <ele>580.956</ele>
        <time>1970-01-01T01:00:00Z</time>
      </trkpt>
      <trkpt lat="63.3880095" lon="13.16041583">
        <ele>580.956</ele>
        <time>1970-01-01T01:00:00Z</time>
      </trkpt>
      <trkpt lat="63.38801033" lon="13.1604385">
        <ele>581.261</ele>
        <time>1970-01-01T01:00:00Z</time>
      </trkpt>
      <trkpt lat="63.38801217" lon="13.16046067">
        <ele>581.261</ele>
        <time>1970-01-01T01:00:00Z</time>
      </trkpt>
      <trkpt lat="63.3880145" lon="13.16047983">
        <ele>581.565</ele>
        <time>1970-01-01T01:00:00Z</time>
      </trkpt>
      <trkpt lat="63.38801683" lon="13.160498">
        <ele>581.565</ele>
        <time>1970-01-01T01:00:00Z</time>
      </trkpt>
      <trkpt lat="63.38801767" lon="13.16051583">
        <ele>582.023</ele>
        <time>1970-01-01T01:00:00Z</time>
      </trkpt>
      <trkpt lat="63.3880165" lon="13.1605355">
        <ele>582.023</ele>
        <time>1970-01-01T01:00:00Z</time>
      </trkpt>
      <trkpt lat="63.38801517" lon="13.16055467">
        <ele>582.327</ele>
        <time>1970-01-01T01:00:00Z</time>
      </trkpt>
      <trkpt lat="63.38801467" lon="13.16057517">
        <ele>582.327</ele>
        <time>1970-01-01T01:00:00Z</time>
      </trkpt>
      <trkpt lat="63.38801567" lon="13.16059267">
        <ele>582.785</ele>
        <time>1970-01-01T01:00:00Z</time>
      </trkpt>
      <trkpt lat="63.388017" lon="13.160612">
        <ele>582.785</ele>
        <time>1970-01-01T01:00:00Z</time>
      </trkpt>
      <trkpt lat="63.3880175" lon="13.1606315">
        <ele>583.242</ele>
        <time>1970-01-01T01:00:00Z</time>
      </trkpt>
      <trkpt lat="63.38801767" lon="13.160656">
        <ele>583.242</ele>
        <time>1970-01-01T01:00:00Z</time>
      </trkpt>
      <trkpt lat="63.388018" lon="13.16067667">
        <ele>583.547</ele>
        <time>1970-01-01T01:00:00Z</time>
      </trkpt>
      <trkpt lat="63.38801867" lon="13.16069517">
        <ele>583.547</ele>
        <time>1970-01-01T01:00:00Z</time>
      </trkpt>
      <trkpt lat="63.38802033" lon="13.1607135">
        <ele>584.004</ele>
        <time>1970-01-01T01:00:00Z</time>
      </trkpt>
      <trkpt lat="63.388021" lon="13.16073417">
        <ele>584.004</ele>
        <time>1970-01-01T01:00:00Z</time>
      </trkpt>
      <trkpt lat="63.3880215" lon="13.16075833">
        <ele>584.461</ele>
        <time>1970-01-01T01:00:00Z</time>
      </trkpt>
      <trkpt lat="63.38802217" lon="13.1607815">
        <ele>584.461</ele>
        <time>1970-01-01T01:00:00Z</time>
      </trkpt>
      <trkpt lat="63.3880235" lon="13.16080117">
        <ele>584.766</ele>
        <time>1970-01-01T01:00:00Z</time>
      </trkpt>
      <trkpt lat="63.388024" lon="13.16081933">
        <ele>584.766</ele>
        <time>1970-01-01T01:00:00Z</time>
      </trkpt>
      <trkpt lat="63.38802417" lon="13.1608375">
        <ele>585.223</ele>
        <time>1970-01-01T01:00:00Z</time>
      </trkpt>
      <trkpt lat="63.38802417" lon="13.160859">
        <ele>585.223</ele>
        <time>1970-01-01T01:00:00Z</time>
      </trkpt>
      <trkpt lat="63.3880245" lon="13.16088117">
        <ele>585.68</ele>
        <time>1970-01-01T01:00:00Z</time>
      </trkpt>
      <trkpt lat="63.38802517" lon="13.1609025">
        <ele>585.68</ele>
        <time>1970-01-01T01:00:00Z</time>
      </trkpt>
      <trkpt lat="63.38802567" lon="13.16092067">
        <ele>586.138</ele>
        <time>1970-01-01T01:00:00Z</time>
      </trkpt>
      <trkpt lat="63.38802667" lon="13.160938">
        <ele>586.138</ele>
        <time>1970-01-01T01:00:00Z</time>
      </trkpt>
      <trkpt lat="63.38802733" lon="13.1609575">
        <ele>586.595</ele>
        <time>1970-01-01T01:00:00Z</time>
      </trkpt>
      <trkpt lat="63.38802683" lon="13.160981">
        <ele>586.595</ele>
        <time>1970-01-01T01:00:00Z</time>
      </trkpt>
      <trkpt lat="63.38802633" lon="13.16100383">
        <ele>587.052</ele>
        <time>1970-01-01T01:00:00Z</time>
      </trkpt>
      <trkpt lat="63.38802583" lon="13.16102317">
        <ele>587.052</ele>
        <time>1970-01-01T01:00:00Z</time>
      </trkpt>
      <trkpt lat="63.3880255" lon="13.16104033">
        <ele>587.509</ele>
        <time>1970-01-01T01:00:00Z</time>
      </trkpt>
      <trkpt lat="63.38802483" lon="13.161058">
        <ele>587.509</ele>
        <time>1970-01-01T01:00:00Z</time>
      </trkpt>
      <trkpt lat="63.38802283" lon="13.161079">
        <ele>587.966</ele>
        <time>1970-01-01T01:00:00Z</time>
      </trkpt>
      <trkpt lat="63.38802117" lon="13.16109967">
        <ele>587.966</ele>
        <time>1970-01-01T01:00:00Z</time>
      </trkpt>
      <trkpt lat="63.38802" lon="13.16111767">
        <ele>588.424</ele>
        <time>1970-01-01T01:00:00Z</time>
      </trkpt>
      <trkpt lat="63.38802017" lon="13.16113333">
        <ele>588.424</ele>
        <time>1970-01-01T01:00:00Z</time>
      </trkpt>
      <trkpt lat="63.38802067" lon="13.16114933">
        <ele>588.728</ele>
        <time>1970-01-01T01:00:00Z</time>
      </trkpt>
      <trkpt lat="63.38802067" lon="13.161165">
        <ele>588.728</ele>
        <time>1970-01-01T01:00:00Z</time>
      </trkpt>
      <trkpt lat="63.38802" lon="13.161179">
        <ele>589.186</ele>
        <time>1970-01-01T01:00:00Z</time>
      </trkpt>
      <trkpt lat="63.3880195" lon="13.16119067">
        <ele>589.186</ele>
        <time>1970-01-01T01:00:00Z</time>
      </trkpt>
      <trkpt lat="63.38802067" lon="13.161201">
        <ele>589.643</ele>
        <time>1970-01-01T01:00:00Z</time>
      </trkpt>
      <trkpt lat="63.38802283" lon="13.1612115">
        <ele>589.643</ele>
        <time>1970-01-01T01:00:00Z</time>
      </trkpt>
      <trkpt lat="63.38802417" lon="13.16122367">
        <ele>590.1</ele>
        <time>1970-01-01T01:00:00Z</time>
      </trkpt>
      <trkpt lat="63.388023" lon="13.16123583">
        <ele>590.1</ele>
        <time>1970-01-01T01:00:00Z</time>
      </trkpt>
      <trkpt lat="63.38802067" lon="13.161246">
        <ele>590.405</ele>
        <time>1970-01-01T01:00:00Z</time>
      </trkpt>
      <trkpt lat="63.3880185" lon="13.16125217">
        <ele>590.405</ele>
        <time>1970-01-01T01:00:00Z</time>
      </trkpt>
      <trkpt lat="63.38801717" lon="13.16125533">
        <ele>590.862</ele>
        <time>1970-01-01T01:00:00Z</time>
      </trkpt>
      <trkpt lat="63.38801567" lon="13.16125717">
        <ele>590.862</ele>
        <time>1970-01-01T01:00:00Z</time>
      </trkpt>
      <trkpt lat="63.38801633" lon="13.16125783">
        <ele>591.167</ele>
        <time>1970-01-01T01:00:00Z</time>
      </trkpt>
      <trkpt lat="63.38801717" lon="13.161259">
        <ele>591.167</ele>
        <time>1970-01-01T01:00:00Z</time>
      </trkpt>
      <trkpt lat="63.3880175" lon="13.16126283">
        <ele>591.624</ele>
        <time>1970-01-01T01:00:00Z</time>
      </trkpt>
      <trkpt lat="63.38801717" lon="13.16127317">
        <ele>591.624</ele>
        <time>1970-01-01T01:00:00Z</time>
      </trkpt>
      <trkpt lat="63.3880175" lon="13.16128767">
        <ele>591.929</ele>
        <time>1970-01-01T01:00:00Z</time>
      </trkpt>
      <trkpt lat="63.38801867" lon="13.16130933">
        <ele>591.929</ele>
        <time>1970-01-01T01:00:00Z</time>
      </trkpt>
      <trkpt lat="63.388018" lon="13.16133733">
        <ele>592.234</ele>
        <time>1970-01-01T01:00:00Z</time>
      </trkpt>
      <trkpt lat="63.38801683" lon="13.16136967">
        <ele>592.234</ele>
        <time>1970-01-01T01:00:00Z</time>
      </trkpt>
      <trkpt lat="63.38801567" lon="13.1614035">
        <ele>592.691</ele>
        <time>1970-01-01T01:00:00Z</time>
      </trkpt>
      <trkpt lat="63.3880145" lon="13.16143317">
        <ele>592.691</ele>
        <time>1970-01-01T01:00:00Z</time>
      </trkpt>
      <trkpt lat="63.388013" lon="13.1614615">
        <ele>592.996</ele>
        <time>1970-01-01T01:00:00Z</time>
      </trkpt>
      <trkpt lat="63.38801" lon="13.1614915">
        <ele>592.996</ele>
        <time>1970-01-01T01:00:00Z</time>
      </trkpt>
      <trkpt lat="63.38800717" lon="13.16152">
        <ele>593.3</ele>
        <time>1970-01-01T01:00:00Z</time>
      </trkpt>
      <trkpt lat="63.388004" lon="13.16155167">
        <ele>593.3</ele>
        <time>1970-01-01T01:00:00Z</time>
      </trkpt>
      <trkpt lat="63.38800167" lon="13.1615805">
        <ele>593.605</ele>
        <time>1970-01-01T01:00:00Z</time>
      </trkpt>
      <trkpt lat="63.388" lon="13.16160867">
        <ele>593.605</ele>
        <time>1970-01-01T01:00:00Z</time>
      </trkpt>
      <trkpt lat="63.3879975" lon="13.16163817">
        <ele>593.91</ele>
        <time>1970-01-01T01:00:00Z</time>
      </trkpt>
      <trkpt lat="63.38799517" lon="13.16166517">
        <ele>593.91</ele>
        <time>1970-01-01T01:00:00Z</time>
      </trkpt>
      <trkpt lat="63.387993" lon="13.161694">
        <ele>594.215</ele>
        <time>1970-01-01T01:00:00Z</time>
      </trkpt>
      <trkpt lat="63.38799133" lon="13.16171983">
        <ele>594.215</ele>
        <time>1970-01-01T01:00:00Z</time>
      </trkpt>
      <trkpt lat="63.38798933" lon="13.16174367">
        <ele>594.52</ele>
        <time>1970-01-01T01:00:00Z</time>
      </trkpt>
      <trkpt lat="63.38798717" lon="13.16176767">
        <ele>594.52</ele>
        <time>1970-01-01T01:00:00Z</time>
      </trkpt>
      <trkpt lat="63.38798433" lon="13.161792">
        <ele>594.977</ele>
        <time>1970-01-01T01:00:00Z</time>
      </trkpt>
      <trkpt lat="63.38797933" lon="13.16181717">
        <ele>594.977</ele>
        <time>1970-01-01T01:00:00Z</time>
      </trkpt>
      <trkpt lat="63.387974" lon="13.161844">
        <ele>595.282</ele>
        <time>1970-01-01T01:00:00Z</time>
      </trkpt>
      <trkpt lat="63.38796967" lon="13.16187517">
        <ele>595.282</ele>
        <time>1970-01-01T01:00:00Z</time>
      </trkpt>
      <trkpt lat="63.38796633" lon="13.16190483">
        <ele>595.739</ele>
        <time>1970-01-01T01:00:00Z</time>
      </trkpt>
      <trkpt lat="63.38796167" lon="13.161933">
        <ele>595.739</ele>
        <time>1970-01-01T01:00:00Z</time>
      </trkpt>
      <trkpt lat="63.38795583" lon="13.161958">
        <ele>596.044</ele>
        <time>1970-01-01T01:00:00Z</time>
      </trkpt>
      <trkpt lat="63.38794983" lon="13.161983">
        <ele>596.044</ele>
        <time>1970-01-01T01:00:00Z</time>
      </trkpt>
      <trkpt lat="63.38794433" lon="13.16200733">
        <ele>596.501</ele>
        <time>1970-01-01T01:00:00Z</time>
      </trkpt>
      <trkpt lat="63.38793733" lon="13.16203533">
        <ele>596.501</ele>
        <time>1970-01-01T01:00:00Z</time>
      </trkpt>
      <trkpt lat="63.38793083" lon="13.16206367">
        <ele>596.806</ele>
        <time>1970-01-01T01:00:00Z</time>
      </trkpt>
      <trkpt lat="63.38792383" lon="13.1620945">
        <ele>596.806</ele>
        <time>1970-01-01T01:00:00Z</time>
      </trkpt>
      <trkpt lat="63.38791933" lon="13.162123">
        <ele>597.263</ele>
        <time>1970-01-01T01:00:00Z</time>
      </trkpt>
      <trkpt lat="63.3879155" lon="13.16215517">
        <ele>597.263</ele>
        <time>1970-01-01T01:00:00Z</time>
      </trkpt>
      <trkpt lat="63.387911" lon="13.16218483">
        <ele>597.568</ele>
        <time>1970-01-01T01:00:00Z</time>
      </trkpt>
      <trkpt lat="63.387905" lon="13.16221267">
        <ele>597.568</ele>
        <time>1970-01-01T01:00:00Z</time>
      </trkpt>
      <trkpt lat="63.3878985" lon="13.16224217">
        <ele>598.025</ele>
        <time>1970-01-01T01:00:00Z</time>
      </trkpt>
      <trkpt lat="63.38789167" lon="13.16227183">
        <ele>598.025</ele>
        <time>1970-01-01T01:00:00Z</time>
      </trkpt>
      <trkpt lat="63.38788417" lon="13.1622995">
        <ele>598.482</ele>
        <time>1970-01-01T01:00:00Z</time>
      </trkpt>
      <trkpt lat="63.38787433" lon="13.16232367">
        <ele>598.482</ele>
        <time>1970-01-01T01:00:00Z</time>
      </trkpt>
      <trkpt lat="63.38786417" lon="13.16234833">
        <ele>598.939</ele>
        <time>1970-01-01T01:00:00Z</time>
      </trkpt>
      <trkpt lat="63.38785367" lon="13.1623725">
        <ele>598.939</ele>
        <time>1970-01-01T01:00:00Z</time>
      </trkpt>
      <trkpt lat="63.38784517" lon="13.16239683">
        <ele>599.396</ele>
        <time>1970-01-01T01:00:00Z</time>
      </trkpt>
      <trkpt lat="63.38783567" lon="13.16242317">
        <ele>599.396</ele>
        <time>1970-01-01T01:00:00Z</time>
      </trkpt>
      <trkpt lat="63.38782667" lon="13.16245033">
        <ele>599.701</ele>
        <time>1970-01-01T01:00:00Z</time>
      </trkpt>
      <trkpt lat="63.3878155" lon="13.162478">
        <ele>599.701</ele>
        <time>1970-01-01T01:00:00Z</time>
      </trkpt>
      <trkpt lat="63.38780733" lon="13.16250933">
        <ele>600.159</ele>
        <time>1970-01-01T01:00:00Z</time>
      </trkpt>
      <trkpt lat="63.38779883" lon="13.16253783">
        <ele>600.159</ele>
        <time>1970-01-01T01:00:00Z</time>
      </trkpt>
      <trkpt lat="63.38779217" lon="13.1625635">
        <ele>600.616</ele>
        <time>1970-01-01T01:00:00Z</time>
      </trkpt>
      <trkpt lat="63.38778583" lon="13.16258067">
        <ele>600.616</ele>
        <time>1970-01-01T01:00:00Z</time>
      </trkpt>
      <trkpt lat="63.387782" lon="13.16259467">
        <ele>601.073</ele>
        <time>1970-01-01T01:00:00Z</time>
      </trkpt>
      <trkpt lat="63.387778" lon="13.16260217">
        <ele>601.073</ele>
        <time>1970-01-01T01:00:00Z</time>
      </trkpt>
      <trkpt lat="63.38777533" lon="13.16260467">
        <ele>601.378</ele>
        <time>1970-01-01T01:00:00Z</time>
      </trkpt>
      <trkpt lat="63.38777317" lon="13.1626035">
        <ele>601.378</ele>
        <time>1970-01-01T01:00:00Z</time>
      </trkpt>
      <trkpt lat="63.38777383" lon="13.16260267">
        <ele>601.835</ele>
        <time>1970-01-01T01:00:00Z</time>
      </trkpt>
      <trkpt lat="63.387775" lon="13.16260017">
        <ele>601.835</ele>
        <time>1970-01-01T01:00:00Z</time>
      </trkpt>
      <trkpt lat="63.3877765" lon="13.1625975">
        <ele>602.292</ele>
        <time>1970-01-01T01:00:00Z</time>
      </trkpt>
      <trkpt lat="63.38777683" lon="13.16259433">
        <ele>602.292</ele>
        <time>1970-01-01T01:00:00Z</time>
      </trkpt>
      <trkpt lat="63.38777667" lon="13.1625915">
        <ele>602.597</ele>
        <time>1970-01-01T01:00:00Z</time>
      </trkpt>
      <trkpt lat="63.38777633" lon="13.16258917">
        <ele>602.597</ele>
        <time>1970-01-01T01:00:00Z</time>
      </trkpt>
      <trkpt lat="63.38777633" lon="13.1625875">
        <ele>603.054</ele>
        <time>1970-01-01T01:00:00Z</time>
      </trkpt>
      <trkpt lat="63.38777633" lon="13.16258733">
        <ele>603.054</ele>
        <time>1970-01-01T01:00:00Z</time>
      </trkpt>
      <trkpt lat="63.387776" lon="13.1625885">
        <ele>603.359</ele>
        <time>1970-01-01T01:00:00Z</time>
      </trkpt>
      <trkpt lat="63.38777533" lon="13.16259167">
        <ele>603.359</ele>
        <time>1970-01-01T01:00:00Z</time>
      </trkpt>
      <trkpt lat="63.38777367" lon="13.162598">
        <ele>603.816</ele>
        <time>1970-01-01T01:00:00Z</time>
      </trkpt>
      <trkpt lat="63.387771" lon="13.162611">
        <ele>603.816</ele>
        <time>1970-01-01T01:00:00Z</time>
      </trkpt>
      <trkpt lat="63.38776517" lon="13.16262867">
        <ele>604.121</ele>
        <time>1970-01-01T01:00:00Z</time>
      </trkpt>
      <trkpt lat="63.38775983" lon="13.16264667">
        <ele>604.121</ele>
        <time>1970-01-01T01:00:00Z</time>
      </trkpt>
      <trkpt lat="63.38775517" lon="13.1626585">
        <ele>604.578</ele>
        <time>1970-01-01T01:00:00Z</time>
      </trkpt>
      <trkpt lat="63.3877525" lon="13.162662">
        <ele>604.578</ele>
        <time>1970-01-01T01:00:00Z</time>
      </trkpt>
      <trkpt lat="63.38774983" lon="13.1626615">
        <ele>604.883</ele>
        <time>1970-01-01T01:00:00Z</time>
      </trkpt>
      <trkpt lat="63.38774733" lon="13.16265883">
        <ele>604.883</ele>
        <time>1970-01-01T01:00:00Z</time>
      </trkpt>
      <trkpt lat="63.38774567" lon="13.16265717">
        <ele>605.188</ele>
        <time>1970-01-01T01:00:00Z</time>
      </trkpt>
      <trkpt lat="63.38774467" lon="13.162655">
        <ele>605.188</ele>
        <time>1970-01-01T01:00:00Z</time>
      </trkpt>
      <trkpt lat="63.387744" lon="13.16265333">
        <ele>605.493</ele>
        <time>1970-01-01T01:00:00Z</time>
      </trkpt>
      <trkpt lat="63.38774367" lon="13.16265233">
        <ele>605.493</ele>
        <time>1970-01-01T01:00:00Z</time>
      </trkpt>
      <trkpt lat="63.3877435" lon="13.16265217">
        <ele>605.797</ele>
        <time>1970-01-01T01:00:00Z</time>
      </trkpt>
      <trkpt lat="63.387743" lon="13.1626525">
        <ele>605.797</ele>
        <time>1970-01-01T01:00:00Z</time>
      </trkpt>
      <trkpt lat="63.38774283" lon="13.16265617">
        <ele>606.102</ele>
        <time>1970-01-01T01:00:00Z</time>
      </trkpt>
      <trkpt lat="63.38774267" lon="13.16266267">
        <ele>606.102</ele>
        <time>1970-01-01T01:00:00Z</time>
      </trkpt>
      <trkpt lat="63.38774167" lon="13.162674">
        <ele>606.407</ele>
        <time>1970-01-01T01:00:00Z</time>
      </trkpt>
      <trkpt lat="63.38773933" lon="13.16268917">
        <ele>606.407</ele>
        <time>1970-01-01T01:00:00Z</time>
      </trkpt>
      <trkpt lat="63.38773567" lon="13.16270733">
        <ele>606.559</ele>
        <time>1970-01-01T01:00:00Z</time>
      </trkpt>
      <trkpt lat="63.38773167" lon="13.1627265">
        <ele>606.559</ele>
        <time>1970-01-01T01:00:00Z</time>
      </trkpt>
      <trkpt lat="63.387727" lon="13.16274183">
        <ele>606.864</ele>
        <time>1970-01-01T01:00:00Z</time>
      </trkpt>
      <trkpt lat="63.38772183" lon="13.16275567">
        <ele>606.864</ele>
        <time>1970-01-01T01:00:00Z</time>
      </trkpt>
      <trkpt lat="63.38771683" lon="13.16276617">
        <ele>607.169</ele>
        <time>1970-01-01T01:00:00Z</time>
      </trkpt>
      <trkpt lat="63.38771167" lon="13.16277783">
        <ele>607.169</ele>
        <time>1970-01-01T01:00:00Z</time>
      </trkpt>
      <trkpt lat="63.38770533" lon="13.16279133">
        <ele>607.474</ele>
        <time>1970-01-01T01:00:00Z</time>
      </trkpt>
      <trkpt lat="63.38769917" lon="13.16280867">
        <ele>607.474</ele>
        <time>1970-01-01T01:00:00Z</time>
      </trkpt>
      <trkpt lat="63.38769267" lon="13.16282867">
        <ele>607.626</ele>
        <time>1970-01-01T01:00:00Z</time>
      </trkpt>
      <trkpt lat="63.38768683" lon="13.162849">
        <ele>607.626</ele>
        <time>1970-01-01T01:00:00Z</time>
      </trkpt>
      <trkpt lat="63.38768" lon="13.16286867">
        <ele>607.931</ele>
        <time>1970-01-01T01:00:00Z</time>
      </trkpt>
      <trkpt lat="63.387674" lon="13.16288583">
        <ele>607.931</ele>
        <time>1970-01-01T01:00:00Z</time>
      </trkpt>
      <trkpt lat="63.38766983" lon="13.16290167">
        <ele>608.236</ele>
        <time>1970-01-01T01:00:00Z</time>
      </trkpt>
      <trkpt lat="63.38766617" lon="13.16291617">
        <ele>608.236</ele>
        <time>1970-01-01T01:00:00Z</time>
      </trkpt>
      <trkpt lat="63.38766283" lon="13.1629315">
        <ele>608.541</ele>
        <time>1970-01-01T01:00:00Z</time>
      </trkpt>
      <trkpt lat="63.3876565" lon="13.1629495">
        <ele>608.541</ele>
        <time>1970-01-01T01:00:00Z</time>
      </trkpt>
      <trkpt lat="63.38765067" lon="13.16296983">
        <ele>608.845</ele>
        <time>1970-01-01T01:00:00Z</time>
      </trkpt>
      <trkpt lat="63.387644" lon="13.16299133">
        <ele>608.845</ele>
        <time>1970-01-01T01:00:00Z</time>
      </trkpt>
      <trkpt lat="63.38763883" lon="13.1630105">
        <ele>608.998</ele>
        <time>1970-01-01T01:00:00Z</time>
      </trkpt>
      <trkpt lat="63.38763283" lon="13.16302667">
        <ele>608.998</ele>
        <time>1970-01-01T01:00:00Z</time>
      </trkpt>
      <trkpt lat="63.387627" lon="13.16304133">
        <ele>609.303</ele>
        <time>1970-01-01T01:00:00Z</time>
      </trkpt>
      <trkpt lat="63.387622" lon="13.1630565">
        <ele>609.303</ele>
        <time>1970-01-01T01:00:00Z</time>
      </trkpt>
      <trkpt lat="63.38761817" lon="13.16307367">
        <ele>609.607</ele>
        <time>1970-01-01T01:00:00Z</time>
      </trkpt>
      <trkpt lat="63.387613" lon="13.163091">
        <ele>609.607</ele>
        <time>1970-01-01T01:00:00Z</time>
      </trkpt>
      <trkpt lat="63.3876075" lon="13.16310817">
        <ele>609.912</ele>
        <time>1970-01-01T01:00:00Z</time>
      </trkpt>
      <trkpt lat="63.3876005" lon="13.16312667">
        <ele>609.912</ele>
        <time>1970-01-01T01:00:00Z</time>
      </trkpt>
      <trkpt lat="63.38759467" lon="13.163145">
        <ele>610.065</ele>
        <time>1970-01-01T01:00:00Z</time>
      </trkpt>
      <trkpt lat="63.387589" lon="13.16316433">
        <ele>610.065</ele>
        <time>1970-01-01T01:00:00Z</time>
      </trkpt>
      <trkpt lat="63.38758483" lon="13.163182">
        <ele>610.369</ele>
        <time>1970-01-01T01:00:00Z</time>
      </trkpt>
      <trkpt lat="63.38758133" lon="13.16319933">
        <ele>610.369</ele>
        <time>1970-01-01T01:00:00Z</time>
      </trkpt>
      <trkpt lat="63.38757883" lon="13.1632155">
        <ele>610.522</ele>
        <time>1970-01-01T01:00:00Z</time>
      </trkpt>
      <trkpt lat="63.387575" lon="13.16323367">
        <ele>610.522</ele>
        <time>1970-01-01T01:00:00Z</time>
      </trkpt>
      <trkpt lat="63.3875705" lon="13.16325367">
        <ele>610.827</ele>
        <time>1970-01-01T01:00:00Z</time>
      </trkpt>
      <trkpt lat="63.38756467" lon="13.163275">
        <ele>610.827</ele>
        <time>1970-01-01T01:00:00Z</time>
      </trkpt>
      <trkpt lat="63.38755933" lon="13.16329583">
        <ele>610.979</ele>
        <time>1970-01-01T01:00:00Z</time>
      </trkpt>
      <trkpt lat="63.38755433" lon="13.163316">
        <ele>610.979</ele>
        <time>1970-01-01T01:00:00Z</time>
      </trkpt>
      <trkpt lat="63.3875505" lon="13.163335">
        <ele>611.284</ele>
        <time>1970-01-01T01:00:00Z</time>
      </trkpt>
      <trkpt lat="63.3875475" lon="13.16335233">
        <ele>611.284</ele>
        <time>1970-01-01T01:00:00Z</time>
      </trkpt>
      <trkpt lat="63.38754367" lon="13.16336867">
        <ele>611.589</ele>
        <time>1970-01-01T01:00:00Z</time>
      </trkpt>
      <trkpt lat="63.3875385" lon="13.16338617">
        <ele>611.589</ele>
        <time>1970-01-01T01:00:00Z</time>
      </trkpt>
      <trkpt lat="63.3875325" lon="13.16340567">
        <ele>611.741</ele>
        <time>1970-01-01T01:00:00Z</time>
      </trkpt>
      <trkpt lat="63.38752667" lon="13.16342567">
        <ele>611.741</ele>
        <time>1970-01-01T01:00:00Z</time>
      </trkpt>
      <trkpt lat="63.38752017" lon="13.16344633">
        <ele>612.046</ele>
        <time>1970-01-01T01:00:00Z</time>
      </trkpt>
      <trkpt lat="63.38751367" lon="13.16346533">
        <ele>612.046</ele>
        <time>1970-01-01T01:00:00Z</time>
      </trkpt>
      <trkpt lat="63.3875085" lon="13.163483">
        <ele>612.198</ele>
        <time>1970-01-01T01:00:00Z</time>
      </trkpt>
      <trkpt lat="63.38750433" lon="13.163497">
        <ele>612.198</ele>
        <time>1970-01-01T01:00:00Z</time>
      </trkpt>
      <trkpt lat="63.38750067" lon="13.16351083">
        <ele>612.503</ele>
        <time>1970-01-01T01:00:00Z</time>
      </trkpt>
      <trkpt lat="63.38749667" lon="13.1635245">
        <ele>612.503</ele>
        <time>1970-01-01T01:00:00Z</time>
      </trkpt>
      <trkpt lat="63.3874925" lon="13.16354033">
        <ele>612.808</ele>
        <time>1970-01-01T01:00:00Z</time>
      </trkpt>
      <trkpt lat="63.38748783" lon="13.16355833">
        <ele>612.808</ele>
        <time>1970-01-01T01:00:00Z</time>
      </trkpt>
      <trkpt lat="63.3874835" lon="13.16357833">
        <ele>612.96</ele>
        <time>1970-01-01T01:00:00Z</time>
      </trkpt>
      <trkpt lat="63.38748" lon="13.16359683">
        <ele>612.96</ele>
        <time>1970-01-01T01:00:00Z</time>
      </trkpt>
      <trkpt lat="63.38747683" lon="13.16361217">
        <ele>613.265</ele>
        <time>1970-01-01T01:00:00Z</time>
      </trkpt>
      <trkpt lat="63.38747217" lon="13.16362933">
        <ele>613.265</ele>
        <time>1970-01-01T01:00:00Z</time>
      </trkpt>
      <trkpt lat="63.38746667" lon="13.16365033">
        <ele>613.417</ele>
        <time>1970-01-01T01:00:00Z</time>
      </trkpt>
      <trkpt lat="63.387461" lon="13.163673">
        <ele>613.417</ele>
        <time>1970-01-01T01:00:00Z</time>
      </trkpt>
      <trkpt lat="63.387457" lon="13.1636945">
        <ele>613.722</ele>
        <time>1970-01-01T01:00:00Z</time>
      </trkpt>
      <trkpt lat="63.3874545" lon="13.163712">
        <ele>613.722</ele>
        <time>1970-01-01T01:00:00Z</time>
      </trkpt>
      <trkpt lat="63.38745333" lon="13.16372883">
        <ele>614.027</ele>
        <time>1970-01-01T01:00:00Z</time>
      </trkpt>
      <trkpt lat="63.38745067" lon="13.16374483">
        <ele>614.027</ele>
        <time>1970-01-01T01:00:00Z</time>
      </trkpt>
      <trkpt lat="63.3874465" lon="13.16376167">
        <ele>614.179</ele>
        <time>1970-01-01T01:00:00Z</time>
      </trkpt>
      <trkpt lat="63.38744083" lon="13.16377983">
        <ele>614.179</ele>
        <time>1970-01-01T01:00:00Z</time>
      </trkpt>
      <trkpt lat="63.38743483" lon="13.16379983">
        <ele>614.484</ele>
        <time>1970-01-01T01:00:00Z</time>
      </trkpt>
      <trkpt lat="63.38743133" lon="13.1638235">
        <ele>614.484</ele>
        <time>1970-01-01T01:00:00Z</time>
      </trkpt>
      <trkpt lat="63.38743067" lon="13.163846">
        <ele>614.789</ele>
        <time>1970-01-01T01:00:00Z</time>
      </trkpt>
      <trkpt lat="63.38743183" lon="13.1638665">
        <ele>614.789</ele>
        <time>1970-01-01T01:00:00Z</time>
      </trkpt>
      <trkpt lat="63.3874305" lon="13.16388483">
        <ele>615.094</ele>
        <time>1970-01-01T01:00:00Z</time>
      </trkpt>
      <trkpt lat="63.38742783" lon="13.16390417">
        <ele>615.094</ele>
        <time>1970-01-01T01:00:00Z</time>
      </trkpt>
      <trkpt lat="63.387424" lon="13.16392367">
        <ele>615.399</ele>
        <time>1970-01-01T01:00:00Z</time>
      </trkpt>
      <trkpt lat="63.38742117" lon="13.16394233">
        <ele>615.399</ele>
        <time>1970-01-01T01:00:00Z</time>
      </trkpt>
      <trkpt lat="63.38741833" lon="13.16395917">
        <ele>615.703</ele>
        <time>1970-01-01T01:00:00Z</time>
      </trkpt>
      <trkpt lat="63.38741617" lon="13.16397633">
        <ele>615.703</ele>
        <time>1970-01-01T01:00:00Z</time>
      </trkpt>
      <trkpt lat="63.387414" lon="13.16399217">
        <ele>616.008</ele>
        <time>1970-01-01T01:00:00Z</time>
      </trkpt>
      <trkpt lat="63.38741233" lon="13.164007">
        <ele>616.008</ele>
        <time>1970-01-01T01:00:00Z</time>
      </trkpt>
      <trkpt lat="63.3874105" lon="13.1640205">
        <ele>616.313</ele>
        <time>1970-01-01T01:00:00Z</time>
      </trkpt>
      <trkpt lat="63.38740833" lon="13.1640335">
        <ele>616.313</ele>
        <time>1970-01-01T01:00:00Z</time>
      </trkpt>
      <trkpt lat="63.38740517" lon="13.16404517">
        <ele>616.618</ele>
        <time>1970-01-01T01:00:00Z</time>
      </trkpt>
      <trkpt lat="63.38740183" lon="13.16405517">
        <ele>616.618</ele>
        <time>1970-01-01T01:00:00Z</time>
      </trkpt>
      <trkpt lat="63.38739967" lon="13.16406283">
        <ele>616.923</ele>
        <time>1970-01-01T01:00:00Z</time>
      </trkpt>
      <trkpt lat="63.38739833" lon="13.16406733">
        <ele>616.923</ele>
        <time>1970-01-01T01:00:00Z</time>
      </trkpt>
      <trkpt lat="63.38739817" lon="13.16407">
        <ele>617.38</ele>
        <time>1970-01-01T01:00:00Z</time>
      </trkpt>
      <trkpt lat="63.387398" lon="13.164071">
        <ele>617.38</ele>
        <time>1970-01-01T01:00:00Z</time>
      </trkpt>
      <trkpt lat="63.38739883" lon="13.1640725">
        <ele>617.685</ele>
        <time>1970-01-01T01:00:00Z</time>
      </trkpt>
      <trkpt lat="63.38739883" lon="13.164072">
        <ele>617.685</ele>
        <time>1970-01-01T01:00:00Z</time>
      </trkpt>
      <trkpt lat="63.38739933" lon="13.16407167">
        <ele>617.99</ele>
        <time>1970-01-01T01:00:00Z</time>
      </trkpt>
      <trkpt lat="63.38739983" lon="13.16407">
        <ele>617.99</ele>
        <time>1970-01-01T01:00:00Z</time>
      </trkpt>
      <trkpt lat="63.3874005" lon="13.16406833">
        <ele>618.447</ele>
        <time>1970-01-01T01:00:00Z</time>
      </trkpt>
      <trkpt lat="63.38740117" lon="13.16406667">
        <ele>618.447</ele>
        <time>1970-01-01T01:00:00Z</time>
      </trkpt>
      <trkpt lat="63.38740167" lon="13.16406517">
        <ele>618.752</ele>
        <time>1970-01-01T01:00:00Z</time>
      </trkpt>
      <trkpt lat="63.3874025" lon="13.164065">
        <ele>618.752</ele>
        <time>1970-01-01T01:00:00Z</time>
      </trkpt>
      <trkpt lat="63.38740233" lon="13.16406417">
        <ele>619.056</ele>
        <time>1970-01-01T01:00:00Z</time>
      </trkpt>
      <trkpt lat="63.38740283" lon="13.16406433">
        <ele>619.056</ele>
        <time>1970-01-01T01:00:00Z</time>
      </trkpt>
      <trkpt lat="63.38740483" lon="13.16406383">
        <ele>619.361</ele>
        <time>1970-01-01T01:00:00Z</time>
      </trkpt>
      <trkpt lat="63.3874075" lon="13.164066">
        <ele>619.361</ele>
        <time>1970-01-01T01:00:00Z</time>
      </trkpt>
      <trkpt lat="63.38740867" lon="13.1640755">
        <ele>619.818</ele>
        <time>1970-01-01T01:00:00Z</time>
      </trkpt>
      <trkpt lat="63.387408" lon="13.16408817">
        <ele>619.818</ele>
        <time>1970-01-01T01:00:00Z</time>
      </trkpt>
      <trkpt lat="63.3874065" lon="13.16410183">
        <ele>620.123</ele>
        <time>1970-01-01T01:00:00Z</time>
      </trkpt>
      <trkpt lat="63.38740617" lon="13.164113">
        <ele>620.123</ele>
        <time>1970-01-01T01:00:00Z</time>
      </trkpt>
      <trkpt lat="63.3874065" lon="13.16412233">
        <ele>620.428</ele>
        <time>1970-01-01T01:00:00Z</time>
      </trkpt>
      <trkpt lat="63.387407" lon="13.164129">
        <ele>620.428</ele>
        <time>1970-01-01T01:00:00Z</time>
      </trkpt>
      <trkpt lat="63.3874075" lon="13.164131">
        <ele>620.885</ele>
        <time>1970-01-01T01:00:00Z</time>
      </trkpt>
      <trkpt lat="63.38740817" lon="13.1641315">
        <ele>620.885</ele>
        <time>1970-01-01T01:00:00Z</time>
      </trkpt>
      <trkpt lat="63.38740933" lon="13.16413183">
        <ele>621.19</ele>
        <time>1970-01-01T01:00:00Z</time>
      </trkpt>
      <trkpt lat="63.38741017" lon="13.16413233">
        <ele>621.19</ele>
        <time>1970-01-01T01:00:00Z</time>
      </trkpt>
      <trkpt lat="63.38741067" lon="13.16413283">
        <ele>621.495</ele>
        <time>1970-01-01T01:00:00Z</time>
      </trkpt>
      <trkpt lat="63.38741117" lon="13.1641335">
        <ele>621.495</ele>
        <time>1970-01-01T01:00:00Z</time>
      </trkpt>
      <trkpt lat="63.387412" lon="13.16413433">
        <ele>621.8</ele>
        <time>1970-01-01T01:00:00Z</time>
      </trkpt>
      <trkpt lat="63.387414" lon="13.16413267">
        <ele>621.8</ele>
        <time>1970-01-01T01:00:00Z</time>
      </trkpt>
      <trkpt lat="63.3874165" lon="13.1641325">
        <ele>622.104</ele>
        <time>1970-01-01T01:00:00Z</time>
      </trkpt>
      <trkpt lat="63.38741917" lon="13.16413183">
        <ele>622.104</ele>
        <time>1970-01-01T01:00:00Z</time>
      </trkpt>
      <trkpt lat="63.38742167" lon="13.1641335">
        <ele>622.409</ele>
        <time>1970-01-01T01:00:00Z</time>
      </trkpt>
      <trkpt lat="63.38742367" lon="13.164133">
        <ele>622.409</ele>
        <time>1970-01-01T01:00:00Z</time>
      </trkpt>
      <trkpt lat="63.38742517" lon="13.16413">
        <ele>622.714</ele>
        <time>1970-01-01T01:00:00Z</time>
      </trkpt>
      <trkpt lat="63.387426" lon="13.16412567">
        <ele>622.714</ele>
        <time>1970-01-01T01:00:00Z</time>
      </trkpt>
      <trkpt lat="63.3874255" lon="13.16411883">
        <ele>623.019</ele>
        <time>1970-01-01T01:00:00Z</time>
      </trkpt>
      <trkpt lat="63.38742367" lon="13.16411433">
        <ele>623.019</ele>
        <time>1970-01-01T01:00:00Z</time>
      </trkpt>
      <trkpt lat="63.38742117" lon="13.16411083">
        <ele>623.171</ele>
        <time>1970-01-01T01:00:00Z</time>
      </trkpt>
      <trkpt lat="63.38741833" lon="13.16411117">
        <ele>623.171</ele>
        <time>1970-01-01T01:00:00Z</time>
      </trkpt>
      <trkpt lat="63.38741617" lon="13.16411133">
        <ele>623.476</ele>
        <time>1970-01-01T01:00:00Z</time>
      </trkpt>
      <trkpt lat="63.3874145" lon="13.16411317">
        <ele>623.476</ele>
        <time>1970-01-01T01:00:00Z</time>
      </trkpt>
      <trkpt lat="63.38741433" lon="13.164114">
        <ele>623.628</ele>
        <time>1970-01-01T01:00:00Z</time>
      </trkpt>
      <trkpt lat="63.3874145" lon="13.16411433">
        <ele>623.628</ele>
        <time>1970-01-01T01:00:00Z</time>
      </trkpt>
      <trkpt lat="63.38741533" lon="13.164113">
        <ele>623.933</ele>
        <time>1970-01-01T01:00:00Z</time>
      </trkpt>
      <trkpt lat="63.38741633" lon="13.1641175">
        <ele>623.933</ele>
        <time>1970-01-01T01:00:00Z</time>
      </trkpt>
      <trkpt lat="63.3874175" lon="13.16412733">
        <ele>624.086</ele>
        <time>1970-01-01T01:00:00Z</time>
      </trkpt>
      <trkpt lat="63.38741933" lon="13.16414567">
        <ele>624.086</ele>
        <time>1970-01-01T01:00:00Z</time>
      </trkpt>
      <trkpt lat="63.3874205" lon="13.16417067">
        <ele>624.238</ele>
        <time>1970-01-01T01:00:00Z</time>
      </trkpt>
      <trkpt lat="63.38742233" lon="13.16419933">
        <ele>624.238</ele>
        <time>1970-01-01T01:00:00Z</time>
      </trkpt>
      <trkpt lat="63.38742417" lon="13.164232">
        <ele>624.543</ele>
        <time>1970-01-01T01:00:00Z</time>
      </trkpt>
      <trkpt lat="63.38742467" lon="13.16426383">
        <ele>624.543</ele>
        <time>1970-01-01T01:00:00Z</time>
      </trkpt>
      <trkpt lat="63.387424" lon="13.16429717">
        <ele>624.695</ele>
        <time>1970-01-01T01:00:00Z</time>
      </trkpt>
      <trkpt lat="63.38742133" lon="13.16433067">
        <ele>624.695</ele>
        <time>1970-01-01T01:00:00Z</time>
      </trkpt>
      <trkpt lat="63.387419" lon="13.16436133">
        <ele>624.848</ele>
        <time>1970-01-01T01:00:00Z</time>
      </trkpt>
      <trkpt lat="63.38741633" lon="13.1643935">
        <ele>624.848</ele>
        <time>1970-01-01T01:00:00Z</time>
      </trkpt>
      <trkpt lat="63.38741283" lon="13.16442617">
        <ele>625.152</ele>
        <time>1970-01-01T01:00:00Z</time>
      </trkpt>
      <trkpt lat="63.38741083" lon="13.1644575">
        <ele>625.152</ele>
        <time>1970-01-01T01:00:00Z</time>
      </trkpt>
      <trkpt lat="63.387409" lon="13.16449133">
        <ele>625.305</ele>
        <time>1970-01-01T01:00:00Z</time>
      </trkpt>
      <trkpt lat="63.387409" lon="13.16452283">
        <ele>625.305</ele>
        <time>1970-01-01T01:00:00Z</time>
      </trkpt>
      <trkpt lat="63.38740783" lon="13.16455533">
        <ele>625.61</ele>
        <time>1970-01-01T01:00:00Z</time>
      </trkpt>
      <trkpt lat="63.387407" lon="13.16458783">
        <ele>625.61</ele>
        <time>1970-01-01T01:00:00Z</time>
      </trkpt>
      <trkpt lat="63.38740633" lon="13.16461967">
        <ele>625.762</ele>
        <time>1970-01-01T01:00:00Z</time>
      </trkpt>
      <trkpt lat="63.38740583" lon="13.16465183">
        <ele>625.762</ele>
        <time>1970-01-01T01:00:00Z</time>
      </trkpt>
      <trkpt lat="63.3874055" lon="13.16468067">
        <ele>626.067</ele>
        <time>1970-01-01T01:00:00Z</time>
      </trkpt>
      <trkpt lat="63.38740617" lon="13.164707">
        <ele>626.067</ele>
        <time>1970-01-01T01:00:00Z</time>
      </trkpt>
      <trkpt lat="63.38740717" lon="13.1647345">
        <ele>626.219</ele>
        <time>1970-01-01T01:00:00Z</time>
      </trkpt>
      <trkpt lat="63.3874085" lon="13.16476217">
        <ele>626.219</ele>
        <time>1970-01-01T01:00:00Z</time>
      </trkpt>
      <trkpt lat="63.38740917" lon="13.16478817">
        <ele>626.524</ele>
        <time>1970-01-01T01:00:00Z</time>
      </trkpt>
      <trkpt lat="63.3874105" lon="13.16480983">
        <ele>626.524</ele>
        <time>1970-01-01T01:00:00Z</time>
      </trkpt>
      <trkpt lat="63.38741033" lon="13.16483217">
        <ele>626.829</ele>
        <time>1970-01-01T01:00:00Z</time>
      </trkpt>
      <trkpt lat="63.38741117" lon="13.1648535">
        <ele>626.829</ele>
        <time>1970-01-01T01:00:00Z</time>
      </trkpt>
      <trkpt lat="63.38741167" lon="13.1648765">
        <ele>627.134</ele>
        <time>1970-01-01T01:00:00Z</time>
      </trkpt>
      <trkpt lat="63.38741283" lon="13.16489833">
        <ele>627.134</ele>
        <time>1970-01-01T01:00:00Z</time>
      </trkpt>
      <trkpt lat="63.3874115" lon="13.16492217">
        <ele>627.438</ele>
        <time>1970-01-01T01:00:00Z</time>
      </trkpt>
      <trkpt lat="63.3874105" lon="13.16494617">
        <ele>627.438</ele>
        <time>1970-01-01T01:00:00Z</time>
      </trkpt>
      <trkpt lat="63.38740967" lon="13.16497283">
        <ele>627.743</ele>
        <time>1970-01-01T01:00:00Z</time>
      </trkpt>
      <trkpt lat="63.38741033" lon="13.16500183">
        <ele>627.743</ele>
        <time>1970-01-01T01:00:00Z</time>
      </trkpt>
      <trkpt lat="63.38741117" lon="13.1650325">
        <ele>628.048</ele>
        <time>1970-01-01T01:00:00Z</time>
      </trkpt>
      <trkpt lat="63.387412" lon="13.16506367">
        <ele>628.048</ele>
        <time>1970-01-01T01:00:00Z</time>
      </trkpt>
      <trkpt lat="63.38741283" lon="13.16509433">
        <ele>628.353</ele>
        <time>1970-01-01T01:00:00Z</time>
      </trkpt>
      <trkpt lat="63.387415" lon="13.16512567">
        <ele>628.353</ele>
        <time>1970-01-01T01:00:00Z</time>
      </trkpt>
      <trkpt lat="63.387418" lon="13.16515533">
        <ele>628.658</ele>
        <time>1970-01-01T01:00:00Z</time>
      </trkpt>
      <trkpt lat="63.38742117" lon="13.16518417">
        <ele>628.658</ele>
        <time>1970-01-01T01:00:00Z</time>
      </trkpt>
      <trkpt lat="63.38742283" lon="13.16520967">
        <ele>628.962</ele>
        <time>1970-01-01T01:00:00Z</time>
      </trkpt>
      <trkpt lat="63.3874235" lon="13.165232">
        <ele>628.962</ele>
        <time>1970-01-01T01:00:00Z</time>
      </trkpt>
      <trkpt lat="63.38742333" lon="13.16525483">
        <ele>629.267</ele>
        <time>1970-01-01T01:00:00Z</time>
      </trkpt>
      <trkpt lat="63.387423" lon="13.1652805">
        <ele>629.267</ele>
        <time>1970-01-01T01:00:00Z</time>
      </trkpt>
      <trkpt lat="63.3874235" lon="13.1653045">
        <ele>629.572</ele>
        <time>1970-01-01T01:00:00Z</time>
      </trkpt>
      <trkpt lat="63.38742567" lon="13.16532983">
        <ele>629.572</ele>
        <time>1970-01-01T01:00:00Z</time>
      </trkpt>
      <trkpt lat="63.38742833" lon="13.16535617">
        <ele>629.877</ele>
        <time>1970-01-01T01:00:00Z</time>
      </trkpt>
      <trkpt lat="63.3874305" lon="13.16538483">
        <ele>629.877</ele>
        <time>1970-01-01T01:00:00Z</time>
      </trkpt>
      <trkpt lat="63.38743117" lon="13.1654115">
        <ele>630.182</ele>
        <time>1970-01-01T01:00:00Z</time>
      </trkpt>
      <trkpt lat="63.38743283" lon="13.1654365">
        <ele>630.182</ele>
        <time>1970-01-01T01:00:00Z</time>
      </trkpt>
      <trkpt lat="63.38743333" lon="13.1654645">
        <ele>630.486</ele>
        <time>1970-01-01T01:00:00Z</time>
      </trkpt>
      <trkpt lat="63.387434" lon="13.16549217">
        <ele>630.486</ele>
        <time>1970-01-01T01:00:00Z</time>
      </trkpt>
      <trkpt lat="63.38743467" lon="13.16551983">
        <ele>630.791</ele>
        <time>1970-01-01T01:00:00Z</time>
      </trkpt>
      <trkpt lat="63.38743583" lon="13.16554617">
        <ele>630.791</ele>
        <time>1970-01-01T01:00:00Z</time>
      </trkpt>
      <trkpt lat="63.3874365" lon="13.16557483">
        <ele>631.096</ele>
        <time>1970-01-01T01:00:00Z</time>
      </trkpt>
      <trkpt lat="63.3874365" lon="13.16560167">
        <ele>631.096</ele>
        <time>1970-01-01T01:00:00Z</time>
      </trkpt>
      <trkpt lat="63.38743967" lon="13.16562533">
        <ele>631.553</ele>
        <time>1970-01-01T01:00:00Z</time>
      </trkpt>
      <trkpt lat="63.38744317" lon="13.16565167">
        <ele>631.553</ele>
        <time>1970-01-01T01:00:00Z</time>
      </trkpt>
      <trkpt lat="63.3874475" lon="13.1656805">
        <ele>631.858</ele>
        <time>1970-01-01T01:00:00Z</time>
      </trkpt>
      <trkpt lat="63.38744733" lon="13.165707">
        <ele>631.858</ele>
        <time>1970-01-01T01:00:00Z</time>
      </trkpt>
      <trkpt lat="63.387448" lon="13.16573333">
        <ele>632.315</ele>
        <time>1970-01-01T01:00:00Z</time>
      </trkpt>
      <trkpt lat="63.38744733" lon="13.16575867">
        <ele>632.315</ele>
        <time>1970-01-01T01:00:00Z</time>
      </trkpt>
      <trkpt lat="63.38744917" lon="13.16578533">
        <ele>632.772</ele>
        <time>1970-01-01T01:00:00Z</time>
      </trkpt>
      <trkpt lat="63.38745033" lon="13.16581133">
        <ele>632.772</ele>
        <time>1970-01-01T01:00:00Z</time>
      </trkpt>
      <trkpt lat="63.38745233" lon="13.1658405">
        <ele>633.23</ele>
        <time>1970-01-01T01:00:00Z</time>
      </trkpt>
      <trkpt lat="63.38745367" lon="13.165871">
        <ele>633.23</ele>
        <time>1970-01-01T01:00:00Z</time>
      </trkpt>
      <trkpt lat="63.38745567" lon="13.16589783">
        <ele>633.687</ele>
        <time>1970-01-01T01:00:00Z</time>
      </trkpt>
      <trkpt lat="63.38745567" lon="13.16591917">
        <ele>633.687</ele>
        <time>1970-01-01T01:00:00Z</time>
      </trkpt>
      <trkpt lat="63.38745367" lon="13.16593883">
        <ele>634.144</ele>
        <time>1970-01-01T01:00:00Z</time>
      </trkpt>
      <trkpt lat="63.38745033" lon="13.16596017">
        <ele>634.144</ele>
        <time>1970-01-01T01:00:00Z</time>
      </trkpt>
      <trkpt lat="63.38744817" lon="13.165982">
        <ele>634.754</ele>
        <time>1970-01-01T01:00:00Z</time>
      </trkpt>
      <trkpt lat="63.38744783" lon="13.1660045">
        <ele>634.754</ele>
        <time>1970-01-01T01:00:00Z</time>
      </trkpt>
      <trkpt lat="63.38744733" lon="13.16602483">
        <ele>635.211</ele>
        <time>1970-01-01T01:00:00Z</time>
      </trkpt>
      <trkpt lat="63.387446" lon="13.16604567">
        <ele>635.211</ele>
        <time>1970-01-01T01:00:00Z</time>
      </trkpt>
      <trkpt lat="63.3874445" lon="13.16606633">
        <ele>635.668</ele>
        <time>1970-01-01T01:00:00Z</time>
      </trkpt>
      <trkpt lat="63.38744467" lon="13.16608733">
        <ele>635.668</ele>
        <time>1970-01-01T01:00:00Z</time>
      </trkpt>
      <trkpt lat="63.38744567" lon="13.1661085">
        <ele>635.973</ele>
        <time>1970-01-01T01:00:00Z</time>
      </trkpt>
      <trkpt lat="63.38744683" lon="13.16613033">
        <ele>635.973</ele>
        <time>1970-01-01T01:00:00Z</time>
      </trkpt>
      <trkpt lat="63.38744733" lon="13.16615233">
        <ele>636.43</ele>
        <time>1970-01-01T01:00:00Z</time>
      </trkpt>
      <trkpt lat="63.3874475" lon="13.16617467">
        <ele>636.43</ele>
        <time>1970-01-01T01:00:00Z</time>
      </trkpt>
      <trkpt lat="63.38744733" lon="13.166197">
        <ele>636.887</ele>
        <time>1970-01-01T01:00:00Z</time>
      </trkpt>
      <trkpt lat="63.387447" lon="13.1662195">
        <ele>636.887</ele>
        <time>1970-01-01T01:00:00Z</time>
      </trkpt>
      <trkpt lat="63.38744683" lon="13.16624183">
        <ele>637.192</ele>
        <time>1970-01-01T01:00:00Z</time>
      </trkpt>
      <trkpt lat="63.38744667" lon="13.16626383">
        <ele>637.192</ele>
        <time>1970-01-01T01:00:00Z</time>
      </trkpt>
      <trkpt lat="63.3874465" lon="13.166286">
        <ele>637.649</ele>
        <time>1970-01-01T01:00:00Z</time>
      </trkpt>
      <trkpt lat="63.38744667" lon="13.16630817">
        <ele>637.649</ele>
        <time>1970-01-01T01:00:00Z</time>
      </trkpt>
      <trkpt lat="63.38744733" lon="13.1663305">
        <ele>637.954</ele>
        <time>1970-01-01T01:00:00Z</time>
      </trkpt>
      <trkpt lat="63.38744867" lon="13.1663515">
        <ele>637.954</ele>
        <time>1970-01-01T01:00:00Z</time>
      </trkpt>
      <trkpt lat="63.38745017" lon="13.16637217">
        <ele>638.259</ele>
        <time>1970-01-01T01:00:00Z</time>
      </trkpt>
      <trkpt lat="63.38745167" lon="13.16639267">
        <ele>638.259</ele>
        <time>1970-01-01T01:00:00Z</time>
      </trkpt>
      <trkpt lat="63.38745283" lon="13.16641433">
        <ele>638.564</ele>
        <time>1970-01-01T01:00:00Z</time>
      </trkpt>
      <trkpt lat="63.38745317" lon="13.166436">
        <ele>638.564</ele>
        <time>1970-01-01T01:00:00Z</time>
      </trkpt>
      <trkpt lat="63.387453" lon="13.16645683">
        <ele>639.021</ele>
        <time>1970-01-01T01:00:00Z</time>
      </trkpt>
      <trkpt lat="63.38745283" lon="13.16647733">
        <ele>639.021</ele>
        <time>1970-01-01T01:00:00Z</time>
      </trkpt>
      <trkpt lat="63.38745333" lon="13.16649767">
        <ele>639.326</ele>
        <time>1970-01-01T01:00:00Z</time>
      </trkpt>
      <trkpt lat="63.38745383" lon="13.166519">
        <ele>639.326</ele>
        <time>1970-01-01T01:00:00Z</time>
      </trkpt>
      <trkpt lat="63.38745417" lon="13.16654017">
        <ele>639.631</ele>
        <time>1970-01-01T01:00:00Z</time>
      </trkpt>
      <trkpt lat="63.387454" lon="13.16656033">
        <ele>639.631</ele>
        <time>1970-01-01T01:00:00Z</time>
      </trkpt>
      <trkpt lat="63.38745433" lon="13.16657883">
        <ele>639.935</ele>
        <time>1970-01-01T01:00:00Z</time>
      </trkpt>
      <trkpt lat="63.38745467" lon="13.16659667">
        <ele>639.935</ele>
        <time>1970-01-01T01:00:00Z</time>
      </trkpt>
      <trkpt lat="63.38745483" lon="13.16661383">
        <ele>640.24</ele>
        <time>1970-01-01T01:00:00Z</time>
      </trkpt>
      <trkpt lat="63.3874545" lon="13.16663167">
        <ele>640.24</ele>
        <time>1970-01-01T01:00:00Z</time>
      </trkpt>
      <trkpt lat="63.38745417" lon="13.16665">
        <ele>640.545</ele>
        <time>1970-01-01T01:00:00Z</time>
      </trkpt>
      <trkpt lat="63.38745417" lon="13.16666933">
        <ele>640.545</ele>
        <time>1970-01-01T01:00:00Z</time>
      </trkpt>
      <trkpt lat="63.38745433" lon="13.1666885">
        <ele>640.85</ele>
        <time>1970-01-01T01:00:00Z</time>
      </trkpt>
      <trkpt lat="63.3874545" lon="13.1667075">
        <ele>640.85</ele>
        <time>1970-01-01T01:00:00Z</time>
      </trkpt>
      <trkpt lat="63.38745467" lon="13.16672583">
        <ele>641.002</ele>
        <time>1970-01-01T01:00:00Z</time>
      </trkpt>
      <trkpt lat="63.387455" lon="13.16674367">
        <ele>641.002</ele>
        <time>1970-01-01T01:00:00Z</time>
      </trkpt>
      <trkpt lat="63.387455" lon="13.166761">
        <ele>641.307</ele>
        <time>1970-01-01T01:00:00Z</time>
      </trkpt>
      <trkpt lat="63.3874545" lon="13.16677833">
        <ele>641.307</ele>
        <time>1970-01-01T01:00:00Z</time>
      </trkpt>
      <trkpt lat="63.38745433" lon="13.1667965">
        <ele>641.612</ele>
        <time>1970-01-01T01:00:00Z</time>
      </trkpt>
      <trkpt lat="63.387454" lon="13.16681417">
        <ele>641.612</ele>
        <time>1970-01-01T01:00:00Z</time>
      </trkpt>
      <trkpt lat="63.38745383" lon="13.16683133">
        <ele>641.917</ele>
        <time>1970-01-01T01:00:00Z</time>
      </trkpt>
      <trkpt lat="63.38745333" lon="13.166848">
        <ele>641.917</ele>
        <time>1970-01-01T01:00:00Z</time>
      </trkpt>
      <trkpt lat="63.38745283" lon="13.16686433">
        <ele>642.069</ele>
        <time>1970-01-01T01:00:00Z</time>
      </trkpt>
      <trkpt lat="63.3874525" lon="13.16688133">
        <ele>642.069</ele>
        <time>1970-01-01T01:00:00Z</time>
      </trkpt>
      <trkpt lat="63.38745267" lon="13.1668985">
        <ele>642.374</ele>
        <time>1970-01-01T01:00:00Z</time>
      </trkpt>
      <trkpt lat="63.387453" lon="13.166917">
        <ele>642.374</ele>
        <time>1970-01-01T01:00:00Z</time>
      </trkpt>
      <trkpt lat="63.38745333" lon="13.1669355">
        <ele>642.679</ele>
        <time>1970-01-01T01:00:00Z</time>
      </trkpt>
      <trkpt lat="63.38745333" lon="13.1669545">
        <ele>642.679</ele>
        <time>1970-01-01T01:00:00Z</time>
      </trkpt>
      <trkpt lat="63.3874535" lon="13.16697317">
        <ele>642.831</ele>
        <time>1970-01-01T01:00:00Z</time>
      </trkpt>
      <trkpt lat="63.38745383" lon="13.16699183">
        <ele>642.831</ele>
        <time>1970-01-01T01:00:00Z</time>
      </trkpt>
      <trkpt lat="63.38745333" lon="13.16700967">
        <ele>643.136</ele>
        <time>1970-01-01T01:00:00Z</time>
      </trkpt>
      <trkpt lat="63.3874525" lon="13.16702733">
        <ele>643.136</ele>
        <time>1970-01-01T01:00:00Z</time>
      </trkpt>
      <trkpt lat="63.3874515" lon="13.16704567">
        <ele>643.441</ele>
        <time>1970-01-01T01:00:00Z</time>
      </trkpt>
      <trkpt lat="63.38745" lon="13.16706717">
        <ele>643.441</ele>
        <time>1970-01-01T01:00:00Z</time>
      </trkpt>
      <trkpt lat="63.38744867" lon="13.16708683">
        <ele>643.593</ele>
        <time>1970-01-01T01:00:00Z</time>
      </trkpt>
      <trkpt lat="63.38744717" lon="13.167106">
        <ele>643.593</ele>
        <time>1970-01-01T01:00:00Z</time>
      </trkpt>
      <trkpt lat="63.38744633" lon="13.16712267">
        <ele>643.898</ele>
        <time>1970-01-01T01:00:00Z</time>
      </trkpt>
      <trkpt lat="63.38744567" lon="13.16714083">
        <ele>643.898</ele>
        <time>1970-01-01T01:00:00Z</time>
      </trkpt>
      <trkpt lat="63.38744567" lon="13.16715983">
        <ele>644.05</ele>
        <time>1970-01-01T01:00:00Z</time>
      </trkpt>
      <trkpt lat="63.38744633" lon="13.16717833">
        <ele>644.05</ele>
        <time>1970-01-01T01:00:00Z</time>
      </trkpt>
      <trkpt lat="63.38744733" lon="13.16719733">
        <ele>644.355</ele>
        <time>1970-01-01T01:00:00Z</time>
      </trkpt>
      <trkpt lat="63.387448" lon="13.16721633">
        <ele>644.355</ele>
        <time>1970-01-01T01:00:00Z</time>
      </trkpt>
      <trkpt lat="63.38744817" lon="13.16723517">
        <ele>644.507</ele>
        <time>1970-01-01T01:00:00Z</time>
      </trkpt>
      <trkpt lat="63.38744817" lon="13.16725417">
        <ele>644.507</ele>
        <time>1970-01-01T01:00:00Z</time>
      </trkpt>
      <trkpt lat="63.38744817" lon="13.16727367">
        <ele>644.812</ele>
        <time>1970-01-01T01:00:00Z</time>
      </trkpt>
      <trkpt lat="63.3874485" lon="13.1672935">
        <ele>644.812</ele>
        <time>1970-01-01T01:00:00Z</time>
      </trkpt>
      <trkpt lat="63.3874485" lon="13.16731367">
        <ele>644.965</ele>
        <time>1970-01-01T01:00:00Z</time>
      </trkpt>
      <trkpt lat="63.38744883" lon="13.1673325">
        <ele>644.965</ele>
        <time>1970-01-01T01:00:00Z</time>
      </trkpt>
      <trkpt lat="63.38744867" lon="13.16735067">
        <ele>645.269</ele>
        <time>1970-01-01T01:00:00Z</time>
      </trkpt>
      <trkpt lat="63.38744867" lon="13.167368">
        <ele>645.269</ele>
        <time>1970-01-01T01:00:00Z</time>
      </trkpt>
      <trkpt lat="63.38744833" lon="13.16738483">
        <ele>645.574</ele>
        <time>1970-01-01T01:00:00Z</time>
      </trkpt>
      <trkpt lat="63.38744783" lon="13.16740083">
        <ele>645.574</ele>
        <time>1970-01-01T01:00:00Z</time>
      </trkpt>
      <trkpt lat="63.3874475" lon="13.16741667">
        <ele>645.727</ele>
        <time>1970-01-01T01:00:00Z</time>
      </trkpt>
      <trkpt lat="63.38744767" lon="13.16743283">
        <ele>645.727</ele>
        <time>1970-01-01T01:00:00Z</time>
      </trkpt>
      <trkpt lat="63.3874485" lon="13.1674485">
        <ele>646.031</ele>
        <time>1970-01-01T01:00:00Z</time>
      </trkpt>
      <trkpt lat="63.38744883" lon="13.1674605">
        <ele>646.031</ele>
        <time>1970-01-01T01:00:00Z</time>
      </trkpt>
      <trkpt lat="63.38744917" lon="13.16746633">
        <ele>646.184</ele>
        <time>1970-01-01T01:00:00Z</time>
      </trkpt>
      <trkpt lat="63.38744917" lon="13.16746583">
        <ele>646.184</ele>
        <time>1970-01-01T01:00:00Z</time>
      </trkpt>
      <trkpt lat="63.387449" lon="13.16746283">
        <ele>646.336</ele>
        <time>1970-01-01T01:00:00Z</time>
      </trkpt>
      <trkpt lat="63.38744933" lon="13.16745883">
        <ele>646.336</ele>
        <time>1970-01-01T01:00:00Z</time>
      </trkpt>
      <trkpt lat="63.38744967" lon="13.16745517">
        <ele>646.641</ele>
        <time>1970-01-01T01:00:00Z</time>
      </trkpt>
      <trkpt lat="63.387451" lon="13.167452">
        <ele>646.641</ele>
        <time>1970-01-01T01:00:00Z</time>
      </trkpt>
      <trkpt lat="63.3874515" lon="13.16744983">
        <ele>646.793</ele>
        <time>1970-01-01T01:00:00Z</time>
      </trkpt>
      <trkpt lat="63.38745267" lon="13.16745">
        <ele>646.793</ele>
        <time>1970-01-01T01:00:00Z</time>
      </trkpt>
      <trkpt lat="63.3874535" lon="13.167452">
        <ele>647.098</ele>
        <time>1970-01-01T01:00:00Z</time>
      </trkpt>
      <trkpt lat="63.3874535" lon="13.1674535">
        <ele>647.098</ele>
        <time>1970-01-01T01:00:00Z</time>
      </trkpt>
      <trkpt lat="63.38745367" lon="13.16745317">
        <ele>647.251</ele>
        <time>1970-01-01T01:00:00Z</time>
      </trkpt>
      <trkpt lat="63.38745283" lon="13.16745067">
        <ele>647.251</ele>
        <time>1970-01-01T01:00:00Z</time>
      </trkpt>
      <trkpt lat="63.38745267" lon="13.16745067">
        <ele>647.555</ele>
        <time>1970-01-01T01:00:00Z</time>
      </trkpt>
      <trkpt lat="63.38745133" lon="13.1674525">
        <ele>647.555</ele>
        <time>1970-01-01T01:00:00Z</time>
      </trkpt>
      <trkpt lat="63.387451" lon="13.16745433">
        <ele>647.708</ele>
        <time>1970-01-01T01:00:00Z</time>
      </trkpt>
      <trkpt lat="63.38745167" lon="13.16745367">
        <ele>647.708</ele>
        <time>1970-01-01T01:00:00Z</time>
      </trkpt>
      <trkpt lat="63.38745333" lon="13.1674515">
        <ele>648.013</ele>
        <time>1970-01-01T01:00:00Z</time>
      </trkpt>
      <trkpt lat="63.387455" lon="13.16744983">
        <ele>648.013</ele>
        <time>1970-01-01T01:00:00Z</time>
      </trkpt>
      <trkpt lat="63.387456" lon="13.16744917">
        <ele>648.317</ele>
        <time>1970-01-01T01:00:00Z</time>
      </trkpt>
      <trkpt lat="63.38745667" lon="13.16744867">
        <ele>648.317</ele>
        <time>1970-01-01T01:00:00Z</time>
      </trkpt>
      <trkpt lat="63.387457" lon="13.1674485">
        <ele>648.47</ele>
        <time>1970-01-01T01:00:00Z</time>
      </trkpt>
      <trkpt lat="63.38745667" lon="13.1674485">
        <ele>648.47</ele>
        <time>1970-01-01T01:00:00Z</time>
      </trkpt>
      <trkpt lat="63.38745633" lon="13.16744867">
        <ele>648.775</ele>
        <time>1970-01-01T01:00:00Z</time>
      </trkpt>
      <trkpt lat="63.38745583" lon="13.167449">
        <ele>648.775</ele>
        <time>1970-01-01T01:00:00Z</time>
      </trkpt>
      <trkpt lat="63.38745567" lon="13.16744933">
        <ele>649.079</ele>
        <time>1970-01-01T01:00:00Z</time>
      </trkpt>
      <trkpt lat="63.38745567" lon="13.16744933">
        <ele>649.079</ele>
        <time>1970-01-01T01:00:00Z</time>
      </trkpt>
      <trkpt lat="63.38745633" lon="13.16744983">
        <ele>649.232</ele>
        <time>1970-01-01T01:00:00Z</time>
      </trkpt>
      <trkpt lat="63.3874575" lon="13.167453">
        <ele>649.232</ele>
        <time>1970-01-01T01:00:00Z</time>
      </trkpt>
      <trkpt lat="63.38745983" lon="13.1674615">
        <ele>649.537</ele>
        <time>1970-01-01T01:00:00Z</time>
      </trkpt>
      <trkpt lat="63.38746167" lon="13.16747717">
        <ele>649.537</ele>
        <time>1970-01-01T01:00:00Z</time>
      </trkpt>
      <trkpt lat="63.38746333" lon="13.16750217">
        <ele>649.841</ele>
        <time>1970-01-01T01:00:00Z</time>
      </trkpt>
      <trkpt lat="63.38746383" lon="13.16753533">
        <ele>649.841</ele>
        <time>1970-01-01T01:00:00Z</time>
      </trkpt>
      <trkpt lat="63.38746333" lon="13.16757733">
        <ele>649.994</ele>
        <time>1970-01-01T01:00:00Z</time>
      </trkpt>
      <trkpt lat="63.38746317" lon="13.1676185">
        <ele>649.994</ele>
        <time>1970-01-01T01:00:00Z</time>
      </trkpt>
      <trkpt lat="63.38746333" lon="13.16765983">
        <ele>650.299</ele>
        <time>1970-01-01T01:00:00Z</time>
      </trkpt>
      <trkpt lat="63.3874655" lon="13.1677">
        <ele>650.299</ele>
        <time>1970-01-01T01:00:00Z</time>
      </trkpt>
      <trkpt lat="63.3874675" lon="13.16774117">
        <ele>650.604</ele>
        <time>1970-01-01T01:00:00Z</time>
      </trkpt>
      <trkpt lat="63.3874695" lon="13.16778433">
        <ele>650.604</ele>
        <time>1970-01-01T01:00:00Z</time>
      </trkpt>
      <trkpt lat="63.38747033" lon="13.16782567">
        <ele>650.908</ele>
        <time>1970-01-01T01:00:00Z</time>
      </trkpt>
      <trkpt lat="63.38747" lon="13.16786967">
        <ele>650.908</ele>
        <time>1970-01-01T01:00:00Z</time>
      </trkpt>
      <trkpt lat="63.38746733" lon="13.16791067">
        <ele>651.061</ele>
        <time>1970-01-01T01:00:00Z</time>
      </trkpt>
      <trkpt lat="63.38746417" lon="13.16795117">
        <ele>651.061</ele>
        <time>1970-01-01T01:00:00Z</time>
      </trkpt>
      <trkpt lat="63.387462" lon="13.16799067">
        <ele>651.365</ele>
        <time>1970-01-01T01:00:00Z</time>
      </trkpt>
      <trkpt lat="63.38746233" lon="13.16802733">
        <ele>651.365</ele>
        <time>1970-01-01T01:00:00Z</time>
      </trkpt>
      <trkpt lat="63.38746333" lon="13.168064">
        <ele>651.67</ele>
        <time>1970-01-01T01:00:00Z</time>
      </trkpt>
      <trkpt lat="63.3874645" lon="13.16809733">
        <ele>651.67</ele>
        <time>1970-01-01T01:00:00Z</time>
      </trkpt>
      <trkpt lat="63.38746483" lon="13.16812983">
        <ele>651.975</ele>
        <time>1970-01-01T01:00:00Z</time>
      </trkpt>
      <trkpt lat="63.38746517" lon="13.16816717">
        <ele>651.975</ele>
        <time>1970-01-01T01:00:00Z</time>
      </trkpt>
      <trkpt lat="63.38746533" lon="13.16820667">
        <ele>652.28</ele>
        <time>1970-01-01T01:00:00Z</time>
      </trkpt>
      <trkpt lat="63.38746617" lon="13.1682495">
        <ele>652.28</ele>
        <time>1970-01-01T01:00:00Z</time>
      </trkpt>
      <trkpt lat="63.3874655" lon="13.16828617">
        <ele>652.585</ele>
        <time>1970-01-01T01:00:00Z</time>
      </trkpt>
      <trkpt lat="63.38746483" lon="13.16832067">
        <ele>652.585</ele>
        <time>1970-01-01T01:00:00Z</time>
      </trkpt>
      <trkpt lat="63.38746333" lon="13.16835767">
        <ele>653.042</ele>
        <time>1970-01-01T01:00:00Z</time>
      </trkpt>
      <trkpt lat="63.387463" lon="13.16839283">
        <ele>653.042</ele>
        <time>1970-01-01T01:00:00Z</time>
      </trkpt>
      <trkpt lat="63.38746233" lon="13.16843017">
        <ele>653.347</ele>
        <time>1970-01-01T01:00:00Z</time>
      </trkpt>
      <trkpt lat="63.38746333" lon="13.16846667">
        <ele>653.347</ele>
        <time>1970-01-01T01:00:00Z</time>
      </trkpt>
      <trkpt lat="63.3874635" lon="13.16850567">
        <ele>653.652</ele>
        <time>1970-01-01T01:00:00Z</time>
      </trkpt>
      <trkpt lat="63.38746417" lon="13.16854917">
        <ele>653.652</ele>
        <time>1970-01-01T01:00:00Z</time>
      </trkpt>
      <trkpt lat="63.38746517" lon="13.1685905">
        <ele>653.956</ele>
        <time>1970-01-01T01:00:00Z</time>
      </trkpt>
      <trkpt lat="63.38746533" lon="13.16863183">
        <ele>653.956</ele>
        <time>1970-01-01T01:00:00Z</time>
      </trkpt>
      <trkpt lat="63.38746517" lon="13.1686715">
        <ele>654.414</ele>
        <time>1970-01-01T01:00:00Z</time>
      </trkpt>
      <trkpt lat="63.387464" lon="13.16871083">
        <ele>654.414</ele>
        <time>1970-01-01T01:00:00Z</time>
      </trkpt>
      <trkpt lat="63.387464" lon="13.1687545">
        <ele>654.718</ele>
        <time>1970-01-01T01:00:00Z</time>
      </trkpt>
      <trkpt lat="63.38746433" lon="13.16879567">
        <ele>654.718</ele>
        <time>1970-01-01T01:00:00Z</time>
      </trkpt>
      <trkpt lat="63.38746533" lon="13.16883417">
        <ele>655.023</ele>
        <time>1970-01-01T01:00:00Z</time>
      </trkpt>
      <trkpt lat="63.38746667" lon="13.16886867">
        <ele>655.023</ele>
        <time>1970-01-01T01:00:00Z</time>
      </trkpt>
      <trkpt lat="63.38746817" lon="13.1688955">
        <ele>655.48</ele>
        <time>1970-01-01T01:00:00Z</time>
      </trkpt>
      <trkpt lat="63.38746833" lon="13.168919">
        <ele>655.48</ele>
        <time>1970-01-01T01:00:00Z</time>
      </trkpt>
      <trkpt lat="63.387468" lon="13.16893717">
        <ele>655.785</ele>
        <time>1970-01-01T01:00:00Z</time>
      </trkpt>
      <trkpt lat="63.38746633" lon="13.16896">
        <ele>655.785</ele>
        <time>1970-01-01T01:00:00Z</time>
      </trkpt>
      <trkpt lat="63.38746583" lon="13.16898467">
        <ele>656.09</ele>
        <time>1970-01-01T01:00:00Z</time>
      </trkpt>
      <trkpt lat="63.38746617" lon="13.16900567">
        <ele>656.09</ele>
        <time>1970-01-01T01:00:00Z</time>
      </trkpt>
      <trkpt lat="63.387467" lon="13.16902517">
        <ele>656.395</ele>
        <time>1970-01-01T01:00:00Z</time>
      </trkpt>
      <trkpt lat="63.3874655" lon="13.169044">
        <ele>656.395</ele>
        <time>1970-01-01T01:00:00Z</time>
      </trkpt>
      <trkpt lat="63.38746233" lon="13.16906783">
        <ele>656.7</ele>
        <time>1970-01-01T01:00:00Z</time>
      </trkpt>
      <trkpt lat="63.3874595" lon="13.16909167">
        <ele>656.7</ele>
        <time>1970-01-01T01:00:00Z</time>
      </trkpt>
      <trkpt lat="63.387458" lon="13.169114">
        <ele>657.004</ele>
        <time>1970-01-01T01:00:00Z</time>
      </trkpt>
      <trkpt lat="63.38745783" lon="13.16913433">
        <ele>657.004</ele>
        <time>1970-01-01T01:00:00Z</time>
      </trkpt>
      <trkpt lat="63.387457" lon="13.1691525">
        <ele>657.309</ele>
        <time>1970-01-01T01:00:00Z</time>
      </trkpt>
      <trkpt lat="63.38745583" lon="13.16917067">
        <ele>657.309</ele>
        <time>1970-01-01T01:00:00Z</time>
      </trkpt>
      <trkpt lat="63.38745367" lon="13.16918883">
        <ele>657.614</ele>
        <time>1970-01-01T01:00:00Z</time>
      </trkpt>
      <trkpt lat="63.38745133" lon="13.1692085">
        <ele>657.614</ele>
        <time>1970-01-01T01:00:00Z</time>
      </trkpt>
      <trkpt lat="63.38744917" lon="13.16922983">
        <ele>657.919</ele>
        <time>1970-01-01T01:00:00Z</time>
      </trkpt>
      <trkpt lat="63.387447" lon="13.1692505">
        <ele>657.919</ele>
        <time>1970-01-01T01:00:00Z</time>
      </trkpt>
      <trkpt lat="63.3874455" lon="13.16927017">
        <ele>658.071</ele>
        <time>1970-01-01T01:00:00Z</time>
      </trkpt>
      <trkpt lat="63.3874435" lon="13.169288">
        <ele>658.071</ele>
        <time>1970-01-01T01:00:00Z</time>
      </trkpt>
      <trkpt lat="63.38744167" lon="13.16930533">
        <ele>658.376</ele>
        <time>1970-01-01T01:00:00Z</time>
      </trkpt>
      <trkpt lat="63.38743983" lon="13.16932233">
        <ele>658.376</ele>
        <time>1970-01-01T01:00:00Z</time>
      </trkpt>
      <trkpt lat="63.38743833" lon="13.16934017">
        <ele>658.528</ele>
        <time>1970-01-01T01:00:00Z</time>
      </trkpt>
      <trkpt lat="63.38743683" lon="13.16935883">
        <ele>658.528</ele>
        <time>1970-01-01T01:00:00Z</time>
      </trkpt>
      <trkpt lat="63.3874355" lon="13.16937833">
        <ele>658.833</ele>
        <time>1970-01-01T01:00:00Z</time>
      </trkpt>
      <trkpt lat="63.38743483" lon="13.16939833">
        <ele>658.833</ele>
        <time>1970-01-01T01:00:00Z</time>
      </trkpt>
      <trkpt lat="63.387434" lon="13.16941883">
        <ele>658.986</ele>
        <time>1970-01-01T01:00:00Z</time>
      </trkpt>
      <trkpt lat="63.38743317" lon="13.16943817">
        <ele>658.986</ele>
        <time>1970-01-01T01:00:00Z</time>
      </trkpt>
      <trkpt lat="63.38743167" lon="13.169457">
        <ele>659.29</ele>
        <time>1970-01-01T01:00:00Z</time>
      </trkpt>
      <trkpt lat="63.38742967" lon="13.16947417">
        <ele>659.29</ele>
        <time>1970-01-01T01:00:00Z</time>
      </trkpt>
      <trkpt lat="63.38742767" lon="13.1694905">
        <ele>659.595</ele>
        <time>1970-01-01T01:00:00Z</time>
      </trkpt>
      <trkpt lat="63.38742583" lon="13.1695065">
        <ele>659.595</ele>
        <time>1970-01-01T01:00:00Z</time>
      </trkpt>
      <trkpt lat="63.38742467" lon="13.16952233">
        <ele>659.748</ele>
        <time>1970-01-01T01:00:00Z</time>
      </trkpt>
      <trkpt lat="63.38742333" lon="13.16953817">
        <ele>659.748</ele>
        <time>1970-01-01T01:00:00Z</time>
      </trkpt>
      <trkpt lat="63.38742183" lon="13.1695545">
        <ele>660.052</ele>
        <time>1970-01-01T01:00:00Z</time>
      </trkpt>
      <trkpt lat="63.38742083" lon="13.169572">
        <ele>660.052</ele>
        <time>1970-01-01T01:00:00Z</time>
      </trkpt>
      <trkpt lat="63.38742" lon="13.16959083">
        <ele>660.205</ele>
        <time>1970-01-01T01:00:00Z</time>
      </trkpt>
      <trkpt lat="63.38741967" lon="13.16960883">
        <ele>660.205</ele>
        <time>1970-01-01T01:00:00Z</time>
      </trkpt>
      <trkpt lat="63.3874185" lon="13.16962717">
        <ele>660.51</ele>
        <time>1970-01-01T01:00:00Z</time>
      </trkpt>
      <trkpt lat="63.38741733" lon="13.169646">
        <ele>660.51</ele>
        <time>1970-01-01T01:00:00Z</time>
      </trkpt>
      <trkpt lat="63.38741617" lon="13.169666">
        <ele>660.662</ele>
        <time>1970-01-01T01:00:00Z</time>
      </trkpt>
      <trkpt lat="63.38741517" lon="13.169685">
        <ele>660.662</ele>
        <time>1970-01-01T01:00:00Z</time>
      </trkpt>
      <trkpt lat="63.38741417" lon="13.16970283">
        <ele>660.967</ele>
        <time>1970-01-01T01:00:00Z</time>
      </trkpt>
      <trkpt lat="63.38741267" lon="13.16972">
        <ele>660.967</ele>
        <time>1970-01-01T01:00:00Z</time>
      </trkpt>
      <trkpt lat="63.3874105" lon="13.16973817">
        <ele>661.119</ele>
        <time>1970-01-01T01:00:00Z</time>
      </trkpt>
      <trkpt lat="63.38740833" lon="13.1697565">
        <ele>661.119</ele>
        <time>1970-01-01T01:00:00Z</time>
      </trkpt>
      <trkpt lat="63.387406" lon="13.16977533">
        <ele>661.272</ele>
        <time>1970-01-01T01:00:00Z</time>
      </trkpt>
      <trkpt lat="63.38740367" lon="13.16979383">
        <ele>661.272</ele>
        <time>1970-01-01T01:00:00Z</time>
      </trkpt>
      <trkpt lat="63.38740083" lon="13.16981233">
        <ele>661.576</ele>
        <time>1970-01-01T01:00:00Z</time>
      </trkpt>
      <trkpt lat="63.38739817" lon="13.16983133">
        <ele>661.576</ele>
        <time>1970-01-01T01:00:00Z</time>
      </trkpt>
      <trkpt lat="63.387395" lon="13.169851">
        <ele>661.729</ele>
        <time>1970-01-01T01:00:00Z</time>
      </trkpt>
      <trkpt lat="63.387392" lon="13.16987167">
        <ele>661.729</ele>
        <time>1970-01-01T01:00:00Z</time>
      </trkpt>
      <trkpt lat="63.387389" lon="13.169891">
        <ele>662.034</ele>
        <time>1970-01-01T01:00:00Z</time>
      </trkpt>
      <trkpt lat="63.387386" lon="13.1699115">
        <ele>662.034</ele>
        <time>1970-01-01T01:00:00Z</time>
      </trkpt>
      <trkpt lat="63.38738267" lon="13.16993183">
        <ele>662.186</ele>
        <time>1970-01-01T01:00:00Z</time>
      </trkpt>
      <trkpt lat="63.387379" lon="13.16995383">
        <ele>662.186</ele>
        <time>1970-01-01T01:00:00Z</time>
      </trkpt>
      <trkpt lat="63.387377" lon="13.16997333">
        <ele>662.338</ele>
        <time>1970-01-01T01:00:00Z</time>
      </trkpt>
      <trkpt lat="63.38737567" lon="13.1699905">
        <ele>662.338</ele>
        <time>1970-01-01T01:00:00Z</time>
      </trkpt>
      <trkpt lat="63.38737633" lon="13.17000533">
        <ele>662.643</ele>
        <time>1970-01-01T01:00:00Z</time>
      </trkpt>
      <trkpt lat="63.38737617" lon="13.17001717">
        <ele>662.643</ele>
        <time>1970-01-01T01:00:00Z</time>
      </trkpt>
      <trkpt lat="63.387375" lon="13.17003133">
        <ele>662.796</ele>
        <time>1970-01-01T01:00:00Z</time>
      </trkpt>
      <trkpt lat="63.38737217" lon="13.17004733">
        <ele>662.796</ele>
        <time>1970-01-01T01:00:00Z</time>
      </trkpt>
      <trkpt lat="63.38736833" lon="13.170067">
        <ele>663.1</ele>
        <time>1970-01-01T01:00:00Z</time>
      </trkpt>
      <trkpt lat="63.38736517" lon="13.17008483">
        <ele>663.1</ele>
        <time>1970-01-01T01:00:00Z</time>
      </trkpt>
      <trkpt lat="63.38736233" lon="13.17010433">
        <ele>663.253</ele>
        <time>1970-01-01T01:00:00Z</time>
      </trkpt>
      <trkpt lat="63.38735933" lon="13.17012317">
        <ele>663.253</ele>
        <time>1970-01-01T01:00:00Z</time>
      </trkpt>
      <trkpt lat="63.38735767" lon="13.17014317">
        <ele>663.558</ele>
        <time>1970-01-01T01:00:00Z</time>
      </trkpt>
      <trkpt lat="63.38735633" lon="13.17015983">
        <ele>663.558</ele>
        <time>1970-01-01T01:00:00Z</time>
      </trkpt>
      <trkpt lat="63.38735633" lon="13.17017567">
        <ele>663.71</ele>
        <time>1970-01-01T01:00:00Z</time>
      </trkpt>
      <trkpt lat="63.38735583" lon="13.17018983">
        <ele>663.71</ele>
        <time>1970-01-01T01:00:00Z</time>
      </trkpt>
      <trkpt lat="63.38735483" lon="13.17020517">
        <ele>664.015</ele>
        <time>1970-01-01T01:00:00Z</time>
      </trkpt>
      <trkpt lat="63.38735317" lon="13.17021867">
        <ele>664.015</ele>
        <time>1970-01-01T01:00:00Z</time>
      </trkpt>
      <trkpt lat="63.38735167" lon="13.17022767">
        <ele>664.32</ele>
        <time>1970-01-01T01:00:00Z</time>
      </trkpt>
      <trkpt lat="63.3873495" lon="13.17023083">
        <ele>664.32</ele>
        <time>1970-01-01T01:00:00Z</time>
      </trkpt>
      <trkpt lat="63.38735033" lon="13.17023133">
        <ele>664.624</ele>
        <time>1970-01-01T01:00:00Z</time>
      </trkpt>
      <trkpt lat="63.3873515" lon="13.170232">
        <ele>664.624</ele>
        <time>1970-01-01T01:00:00Z</time>
      </trkpt>
      <trkpt lat="63.3873545" lon="13.1702335">
        <ele>664.777</ele>
        <time>1970-01-01T01:00:00Z</time>
      </trkpt>
      <trkpt lat="63.38735517" lon="13.170235">
        <ele>664.777</ele>
        <time>1970-01-01T01:00:00Z</time>
      </trkpt>
      <trkpt lat="63.387356" lon="13.17023667">
        <ele>665.234</ele>
        <time>1970-01-01T01:00:00Z</time>
      </trkpt>
      <trkpt lat="63.3873565" lon="13.17023717">
        <ele>665.234</ele>
        <time>1970-01-01T01:00:00Z</time>
      </trkpt>
      <trkpt lat="63.38735683" lon="13.170237">
        <ele>665.539</ele>
        <time>1970-01-01T01:00:00Z</time>
      </trkpt>
      <trkpt lat="63.3873565" lon="13.1702365">
        <ele>665.539</ele>
        <time>1970-01-01T01:00:00Z</time>
      </trkpt>
      <trkpt lat="63.38735633" lon="13.1702355">
        <ele>665.844</ele>
        <time>1970-01-01T01:00:00Z</time>
      </trkpt>
      <trkpt lat="63.38735633" lon="13.170234">
        <ele>665.844</ele>
        <time>1970-01-01T01:00:00Z</time>
      </trkpt>
      <trkpt lat="63.38735633" lon="13.1702325">
        <ele>666.148</ele>
        <time>1970-01-01T01:00:00Z</time>
      </trkpt>
      <trkpt lat="63.38735667" lon="13.1702315">
        <ele>666.148</ele>
        <time>1970-01-01T01:00:00Z</time>
      </trkpt>
      <trkpt lat="63.38735667" lon="13.17023067">
        <ele>666.453</ele>
        <time>1970-01-01T01:00:00Z</time>
      </trkpt>
      <trkpt lat="63.3873565" lon="13.17023033">
        <ele>666.453</ele>
        <time>1970-01-01T01:00:00Z</time>
      </trkpt>
      <trkpt lat="63.38735617" lon="13.17023">
        <ele>666.758</ele>
        <time>1970-01-01T01:00:00Z</time>
      </trkpt>
      <trkpt lat="63.38735583" lon="13.17022983">
        <ele>666.758</ele>
        <time>1970-01-01T01:00:00Z</time>
      </trkpt>
      <trkpt lat="63.3873545" lon="13.17023033">
        <ele>667.063</ele>
        <time>1970-01-01T01:00:00Z</time>
      </trkpt>
      <trkpt lat="63.38735433" lon="13.17023033">
        <ele>667.063</ele>
        <time>1970-01-01T01:00:00Z</time>
      </trkpt>
      <trkpt lat="63.38735583" lon="13.170232">
        <ele>667.368</ele>
        <time>1970-01-01T01:00:00Z</time>
      </trkpt>
      <trkpt lat="63.38735717" lon="13.17023367">
        <ele>667.368</ele>
        <time>1970-01-01T01:00:00Z</time>
      </trkpt>
      <trkpt lat="63.387359" lon="13.17023567">
        <ele>667.672</ele>
        <time>1970-01-01T01:00:00Z</time>
      </trkpt>
      <trkpt lat="63.387359" lon="13.17023567">
        <ele>667.672</ele>
        <time>1970-01-01T01:00:00Z</time>
      </trkpt>
      <trkpt lat="63.38736017" lon="13.170235">
        <ele>667.977</ele>
        <time>1970-01-01T01:00:00Z</time>
      </trkpt>
      <trkpt lat="63.38735983" lon="13.17023383">
        <ele>667.977</ele>
        <time>1970-01-01T01:00:00Z</time>
      </trkpt>
      <trkpt lat="63.38735967" lon="13.17023317">
        <ele>668.282</ele>
        <time>1970-01-01T01:00:00Z</time>
      </trkpt>
      <trkpt lat="63.38735883" lon="13.17023283">
        <ele>668.282</ele>
        <time>1970-01-01T01:00:00Z</time>
      </trkpt>
      <trkpt lat="63.38735733" lon="13.1702335">
        <ele>668.435</ele>
        <time>1970-01-01T01:00:00Z</time>
      </trkpt>
      <trkpt lat="63.38735667" lon="13.17023517">
        <ele>668.435</ele>
        <time>1970-01-01T01:00:00Z</time>
      </trkpt>
      <trkpt lat="63.38735567" lon="13.1702385">
        <ele>668.739</ele>
        <time>1970-01-01T01:00:00Z</time>
      </trkpt>
      <trkpt lat="63.38735583" lon="13.17024133">
        <ele>668.739</ele>
        <time>1970-01-01T01:00:00Z</time>
      </trkpt>
      <trkpt lat="63.38735517" lon="13.17024283">
        <ele>668.892</ele>
        <time>1970-01-01T01:00:00Z</time>
      </trkpt>
      <trkpt lat="63.38735283" lon="13.170247">
        <ele>668.892</ele>
        <time>1970-01-01T01:00:00Z</time>
      </trkpt>
      <trkpt lat="63.3873495" lon="13.1702575">
        <ele>669.197</ele>
        <time>1970-01-01T01:00:00Z</time>
      </trkpt>
      <trkpt lat="63.38734483" lon="13.17027867">
        <ele>669.197</ele>
        <time>1970-01-01T01:00:00Z</time>
      </trkpt>
      <trkpt lat="63.387341" lon="13.170304">
        <ele>669.349</ele>
        <time>1970-01-01T01:00:00Z</time>
      </trkpt>
      <trkpt lat="63.38733567" lon="13.17033283">
        <ele>669.349</ele>
        <time>1970-01-01T01:00:00Z</time>
      </trkpt>
      <trkpt lat="63.38732967" lon="13.17035883">
        <ele>669.654</ele>
        <time>1970-01-01T01:00:00Z</time>
      </trkpt>
      <trkpt lat="63.38732383" lon="13.17038633">
        <ele>669.654</ele>
        <time>1970-01-01T01:00:00Z</time>
      </trkpt>
      <trkpt lat="63.38731917" lon="13.170416">
        <ele>669.806</ele>
        <time>1970-01-01T01:00:00Z</time>
      </trkpt>
      <trkpt lat="63.387315" lon="13.170449">
        <ele>669.806</ele>
        <time>1970-01-01T01:00:00Z</time>
      </trkpt>
      <trkpt lat="63.38730867" lon="13.170486">
        <ele>670.111</ele>
        <time>1970-01-01T01:00:00Z</time>
      </trkpt>
      <trkpt lat="63.38730267" lon="13.1705195">
        <ele>670.111</ele>
        <time>1970-01-01T01:00:00Z</time>
      </trkpt>
      <trkpt lat="63.38729617" lon="13.17055567">
        <ele>670.263</ele>
        <time>1970-01-01T01:00:00Z</time>
      </trkpt>
      <trkpt lat="63.38729183" lon="13.17058633">
        <ele>670.263</ele>
        <time>1970-01-01T01:00:00Z</time>
      </trkpt>
      <trkpt lat="63.38728517" lon="13.17062283">
        <ele>670.568</ele>
        <time>1970-01-01T01:00:00Z</time>
      </trkpt>
      <trkpt lat="63.387278" lon="13.170657">
        <ele>670.568</ele>
        <time>1970-01-01T01:00:00Z</time>
      </trkpt>
      <trkpt lat="63.38726833" lon="13.17069283">
        <ele>670.721</ele>
        <time>1970-01-01T01:00:00Z</time>
      </trkpt>
      <trkpt lat="63.38725917" lon="13.17072783">
        <ele>670.721</ele>
        <time>1970-01-01T01:00:00Z</time>
      </trkpt>
      <trkpt lat="63.38725017" lon="13.1707605">
        <ele>671.025</ele>
        <time>1970-01-01T01:00:00Z</time>
      </trkpt>
      <trkpt lat="63.387242" lon="13.17079433">
        <ele>671.025</ele>
        <time>1970-01-01T01:00:00Z</time>
      </trkpt>
      <trkpt lat="63.38723533" lon="13.17082383">
        <ele>671.178</ele>
        <time>1970-01-01T01:00:00Z</time>
      </trkpt>
      <trkpt lat="63.38722767" lon="13.17085517">
        <ele>671.178</ele>
        <time>1970-01-01T01:00:00Z</time>
      </trkpt>
      <trkpt lat="63.38722117" lon="13.17088583">
        <ele>671.483</ele>
        <time>1970-01-01T01:00:00Z</time>
      </trkpt>
      <trkpt lat="63.38721417" lon="13.17091567">
        <ele>671.483</ele>
        <time>1970-01-01T01:00:00Z</time>
      </trkpt>
      <trkpt lat="63.3872075" lon="13.170949">
        <ele>671.787</ele>
        <time>1970-01-01T01:00:00Z</time>
      </trkpt>
      <trkpt lat="63.3872" lon="13.17098133">
        <ele>671.787</ele>
        <time>1970-01-01T01:00:00Z</time>
      </trkpt>
      <trkpt lat="63.38719183" lon="13.17101667">
        <ele>672.092</ele>
        <time>1970-01-01T01:00:00Z</time>
      </trkpt>
      <trkpt lat="63.38718317" lon="13.17105167">
        <ele>672.092</ele>
        <time>1970-01-01T01:00:00Z</time>
      </trkpt>
      <trkpt lat="63.3871755" lon="13.171087">
        <ele>672.245</ele>
        <time>1970-01-01T01:00:00Z</time>
      </trkpt>
      <trkpt lat="63.38716683" lon="13.17112383">
        <ele>672.245</ele>
        <time>1970-01-01T01:00:00Z</time>
      </trkpt>
      <trkpt lat="63.387158" lon="13.17115883">
        <ele>672.549</ele>
        <time>1970-01-01T01:00:00Z</time>
      </trkpt>
      <trkpt lat="63.38714917" lon="13.1711925">
        <ele>672.549</ele>
        <time>1970-01-01T01:00:00Z</time>
      </trkpt>
      <trkpt lat="63.3871415" lon="13.17122783">
        <ele>672.854</ele>
        <time>1970-01-01T01:00:00Z</time>
      </trkpt>
      <trkpt lat="63.38713617" lon="13.1712625">
        <ele>672.854</ele>
        <time>1970-01-01T01:00:00Z</time>
      </trkpt>
      <trkpt lat="63.38713" lon="13.17129683">
        <ele>673.159</ele>
        <time>1970-01-01T01:00:00Z</time>
      </trkpt>
      <trkpt lat="63.3871245" lon="13.171327">
        <ele>673.159</ele>
        <time>1970-01-01T01:00:00Z</time>
      </trkpt>
      <trkpt lat="63.387118" lon="13.171353">
        <ele>673.464</ele>
        <time>1970-01-01T01:00:00Z</time>
      </trkpt>
      <trkpt lat="63.38711033" lon="13.1713815">
        <ele>673.464</ele>
        <time>1970-01-01T01:00:00Z</time>
      </trkpt>
      <trkpt lat="63.387103" lon="13.17140933">
        <ele>673.769</ele>
        <time>1970-01-01T01:00:00Z</time>
      </trkpt>
      <trkpt lat="63.38709533" lon="13.17144183">
        <ele>673.769</ele>
        <time>1970-01-01T01:00:00Z</time>
      </trkpt>
      <trkpt lat="63.38708783" lon="13.17147767">
        <ele>674.073</ele>
        <time>1970-01-01T01:00:00Z</time>
      </trkpt>
      <trkpt lat="63.38708133" lon="13.17151367">
        <ele>674.073</ele>
        <time>1970-01-01T01:00:00Z</time>
      </trkpt>
      <trkpt lat="63.38707333" lon="13.17155183">
        <ele>674.531</ele>
        <time>1970-01-01T01:00:00Z</time>
      </trkpt>
      <trkpt lat="63.38706767" lon="13.1715875">
        <ele>674.531</ele>
        <time>1970-01-01T01:00:00Z</time>
      </trkpt>
      <trkpt lat="63.38706117" lon="13.1716245">
        <ele>674.835</ele>
        <time>1970-01-01T01:00:00Z</time>
      </trkpt>
      <trkpt lat="63.3870555" lon="13.17166217">
        <ele>674.835</ele>
        <time>1970-01-01T01:00:00Z</time>
      </trkpt>
      <trkpt lat="63.38704917" lon="13.17169617">
        <ele>675.14</ele>
        <time>1970-01-01T01:00:00Z</time>
      </trkpt>
      <trkpt lat="63.3870435" lon="13.1717335">
        <ele>675.14</ele>
        <time>1970-01-01T01:00:00Z</time>
      </trkpt>
      <trkpt lat="63.38703867" lon="13.17176333">
        <ele>675.597</ele>
        <time>1970-01-01T01:00:00Z</time>
      </trkpt>
      <trkpt lat="63.38703433" lon="13.17179033">
        <ele>675.597</ele>
        <time>1970-01-01T01:00:00Z</time>
      </trkpt>
      <trkpt lat="63.387031" lon="13.17180817">
        <ele>675.902</ele>
        <time>1970-01-01T01:00:00Z</time>
      </trkpt>
      <trkpt lat="63.38702883" lon="13.17182133">
        <ele>675.902</ele>
        <time>1970-01-01T01:00:00Z</time>
      </trkpt>
      <trkpt lat="63.3870275" lon="13.17183717">
        <ele>676.207</ele>
        <time>1970-01-01T01:00:00Z</time>
      </trkpt>
      <trkpt lat="63.38702583" lon="13.17185383">
        <ele>676.207</ele>
        <time>1970-01-01T01:00:00Z</time>
      </trkpt>
      <trkpt lat="63.38702417" lon="13.17187383">
        <ele>676.512</ele>
        <time>1970-01-01T01:00:00Z</time>
      </trkpt>
      <trkpt lat="63.38702233" lon="13.17189083">
        <ele>676.512</ele>
        <time>1970-01-01T01:00:00Z</time>
      </trkpt>
      <trkpt lat="63.38702067" lon="13.171908">
        <ele>676.817</ele>
        <time>1970-01-01T01:00:00Z</time>
      </trkpt>
      <trkpt lat="63.38701917" lon="13.17192533">
        <ele>676.817</ele>
        <time>1970-01-01T01:00:00Z</time>
      </trkpt>
      <trkpt lat="63.38701717" lon="13.17194367">
        <ele>677.121</ele>
        <time>1970-01-01T01:00:00Z</time>
      </trkpt>
      <trkpt lat="63.3870155" lon="13.17196233">
        <ele>677.121</ele>
        <time>1970-01-01T01:00:00Z</time>
      </trkpt>
      <trkpt lat="63.38701383" lon="13.17198133">
        <ele>677.426</ele>
        <time>1970-01-01T01:00:00Z</time>
      </trkpt>
      <trkpt lat="63.3870125" lon="13.1720005">
        <ele>677.426</ele>
        <time>1970-01-01T01:00:00Z</time>
      </trkpt>
      <trkpt lat="63.3870115" lon="13.17202">
        <ele>677.731</ele>
        <time>1970-01-01T01:00:00Z</time>
      </trkpt>
      <trkpt lat="63.3870105" lon="13.17203933">
        <ele>677.731</ele>
        <time>1970-01-01T01:00:00Z</time>
      </trkpt>
      <trkpt lat="63.3870095" lon="13.17205783">
        <ele>678.036</ele>
        <time>1970-01-01T01:00:00Z</time>
      </trkpt>
      <trkpt lat="63.3870085" lon="13.1720765">
        <ele>678.036</ele>
        <time>1970-01-01T01:00:00Z</time>
      </trkpt>
      <trkpt lat="63.387007" lon="13.17209467">
        <ele>678.341</ele>
        <time>1970-01-01T01:00:00Z</time>
      </trkpt>
      <trkpt lat="63.38700583" lon="13.17211267">
        <ele>678.341</ele>
        <time>1970-01-01T01:00:00Z</time>
      </trkpt>
      <trkpt lat="63.38700467" lon="13.1721295">
        <ele>678.645</ele>
        <time>1970-01-01T01:00:00Z</time>
      </trkpt>
      <trkpt lat="63.3870035" lon="13.17214667">
        <ele>678.645</ele>
        <time>1970-01-01T01:00:00Z</time>
      </trkpt>
      <trkpt lat="63.38700283" lon="13.17216417">
        <ele>678.798</ele>
        <time>1970-01-01T01:00:00Z</time>
      </trkpt>
      <trkpt lat="63.3870025" lon="13.17218133">
        <ele>678.798</ele>
        <time>1970-01-01T01:00:00Z</time>
      </trkpt>
      <trkpt lat="63.3870025" lon="13.17219833">
        <ele>679.103</ele>
        <time>1970-01-01T01:00:00Z</time>
      </trkpt>
      <trkpt lat="63.38700233" lon="13.17221533">
        <ele>679.103</ele>
        <time>1970-01-01T01:00:00Z</time>
      </trkpt>
      <trkpt lat="63.38700217" lon="13.17223233">
        <ele>679.407</ele>
        <time>1970-01-01T01:00:00Z</time>
      </trkpt>
      <trkpt lat="63.38700183" lon="13.17224867">
        <ele>679.407</ele>
        <time>1970-01-01T01:00:00Z</time>
      </trkpt>
      <trkpt lat="63.3870015" lon="13.17226517">
        <ele>679.56</ele>
        <time>1970-01-01T01:00:00Z</time>
      </trkpt>
      <trkpt lat="63.38700083" lon="13.1722815">
        <ele>679.56</ele>
        <time>1970-01-01T01:00:00Z</time>
      </trkpt>
      <trkpt lat="63.38699983" lon="13.17229767">
        <ele>679.865</ele>
        <time>1970-01-01T01:00:00Z</time>
      </trkpt>
      <trkpt lat="63.38699833" lon="13.17231333">
        <ele>679.865</ele>
        <time>1970-01-01T01:00:00Z</time>
      </trkpt>
      <trkpt lat="63.38699733" lon="13.17232933">
        <ele>680.017</ele>
        <time>1970-01-01T01:00:00Z</time>
      </trkpt>
      <trkpt lat="63.386997" lon="13.17234567">
        <ele>680.017</ele>
        <time>1970-01-01T01:00:00Z</time>
      </trkpt>
      <trkpt lat="63.38699733" lon="13.17236217">
        <ele>680.169</ele>
        <time>1970-01-01T01:00:00Z</time>
      </trkpt>
      <trkpt lat="63.386998" lon="13.172379">
        <ele>680.169</ele>
        <time>1970-01-01T01:00:00Z</time>
      </trkpt>
      <trkpt lat="63.38699883" lon="13.1723955">
        <ele>680.474</ele>
        <time>1970-01-01T01:00:00Z</time>
      </trkpt>
      <trkpt lat="63.38699983" lon="13.172412">
        <ele>680.474</ele>
        <time>1970-01-01T01:00:00Z</time>
      </trkpt>
      <trkpt lat="63.387001" lon="13.17242867">
        <ele>680.627</ele>
        <time>1970-01-01T01:00:00Z</time>
      </trkpt>
      <trkpt lat="63.3870025" lon="13.17244667">
        <ele>680.627</ele>
        <time>1970-01-01T01:00:00Z</time>
      </trkpt>
      <trkpt lat="63.38700417" lon="13.17246533">
        <ele>680.931</ele>
        <time>1970-01-01T01:00:00Z</time>
      </trkpt>
      <trkpt lat="63.38700567" lon="13.17248367">
        <ele>680.931</ele>
        <time>1970-01-01T01:00:00Z</time>
      </trkpt>
      <trkpt lat="63.38700717" lon="13.17250067">
        <ele>681.084</ele>
        <time>1970-01-01T01:00:00Z</time>
      </trkpt>
      <trkpt lat="63.38700833" lon="13.17251717">
        <ele>681.084</ele>
        <time>1970-01-01T01:00:00Z</time>
      </trkpt>
      <trkpt lat="63.38700867" lon="13.17253367">
        <ele>681.236</ele>
        <time>1970-01-01T01:00:00Z</time>
      </trkpt>
      <trkpt lat="63.38700883" lon="13.1725505">
        <ele>681.236</ele>
        <time>1970-01-01T01:00:00Z</time>
      </trkpt>
      <trkpt lat="63.38700867" lon="13.17256683">
        <ele>681.541</ele>
        <time>1970-01-01T01:00:00Z</time>
      </trkpt>
      <trkpt lat="63.387009" lon="13.17258317">
        <ele>681.541</ele>
        <time>1970-01-01T01:00:00Z</time>
      </trkpt>
      <trkpt lat="63.38700967" lon="13.1726">
        <ele>681.693</ele>
        <time>1970-01-01T01:00:00Z</time>
      </trkpt>
      <trkpt lat="63.3870105" lon="13.1726175">
        <ele>681.693</ele>
        <time>1970-01-01T01:00:00Z</time>
      </trkpt>
      <trkpt lat="63.38701117" lon="13.17263367">
        <ele>681.846</ele>
        <time>1970-01-01T01:00:00Z</time>
      </trkpt>
      <trkpt lat="63.38701083" lon="13.17265167">
        <ele>681.846</ele>
        <time>1970-01-01T01:00:00Z</time>
      </trkpt>
      <trkpt lat="63.38701133" lon="13.17266733">
        <ele>682.151</ele>
        <time>1970-01-01T01:00:00Z</time>
      </trkpt>
      <trkpt lat="63.38701167" lon="13.17268117">
        <ele>682.151</ele>
        <time>1970-01-01T01:00:00Z</time>
      </trkpt>
      <trkpt lat="63.387013" lon="13.17268717">
        <ele>682.303</ele>
        <time>1970-01-01T01:00:00Z</time>
      </trkpt>
      <trkpt lat="63.38701467" lon="13.172689">
        <ele>682.303</ele>
        <time>1970-01-01T01:00:00Z</time>
      </trkpt>
      <trkpt lat="63.38701683" lon="13.17268817">
        <ele>682.608</ele>
        <time>1970-01-01T01:00:00Z</time>
      </trkpt>
      <trkpt lat="63.38701867" lon="13.17268883">
        <ele>682.608</ele>
        <time>1970-01-01T01:00:00Z</time>
      </trkpt>
      <trkpt lat="63.38701967" lon="13.17269067">
        <ele>682.913</ele>
        <time>1970-01-01T01:00:00Z</time>
      </trkpt>
      <trkpt lat="63.38702033" lon="13.17269283">
        <ele>682.913</ele>
        <time>1970-01-01T01:00:00Z</time>
      </trkpt>
      <trkpt lat="63.38702117" lon="13.17269267">
        <ele>683.065</ele>
        <time>1970-01-01T01:00:00Z</time>
      </trkpt>
      <trkpt lat="63.3870215" lon="13.17269283">
        <ele>683.065</ele>
        <time>1970-01-01T01:00:00Z</time>
      </trkpt>
      <trkpt lat="63.387021" lon="13.172693">
        <ele>683.37</ele>
        <time>1970-01-01T01:00:00Z</time>
      </trkpt>
      <trkpt lat="63.38701933" lon="13.17269283">
        <ele>683.37</ele>
        <time>1970-01-01T01:00:00Z</time>
      </trkpt>
      <trkpt lat="63.38701783" lon="13.17269217">
        <ele>683.675</ele>
        <time>1970-01-01T01:00:00Z</time>
      </trkpt>
      <trkpt lat="63.38701683" lon="13.17269167">
        <ele>683.675</ele>
        <time>1970-01-01T01:00:00Z</time>
      </trkpt>
      <trkpt lat="63.38701667" lon="13.1726925">
        <ele>683.979</ele>
        <time>1970-01-01T01:00:00Z</time>
      </trkpt>
      <trkpt lat="63.3870165" lon="13.17269283">
        <ele>683.979</ele>
        <time>1970-01-01T01:00:00Z</time>
      </trkpt>
      <trkpt lat="63.3870165" lon="13.172693">
        <ele>684.132</ele>
        <time>1970-01-01T01:00:00Z</time>
      </trkpt>
      <trkpt lat="63.387016" lon="13.17269333">
        <ele>684.132</ele>
        <time>1970-01-01T01:00:00Z</time>
      </trkpt>
      <trkpt lat="63.3870155" lon="13.1726935">
        <ele>684.437</ele>
        <time>1970-01-01T01:00:00Z</time>
      </trkpt>
      <trkpt lat="63.387015" lon="13.17269367">
        <ele>684.437</ele>
        <time>1970-01-01T01:00:00Z</time>
      </trkpt>
      <trkpt lat="63.3870145" lon="13.17269383">
        <ele>684.589</ele>
        <time>1970-01-01T01:00:00Z</time>
      </trkpt>
      <trkpt lat="63.38701383" lon="13.172694">
        <ele>684.589</ele>
        <time>1970-01-01T01:00:00Z</time>
      </trkpt>
      <trkpt lat="63.3870135" lon="13.172694">
        <ele>684.742</ele>
        <time>1970-01-01T01:00:00Z</time>
      </trkpt>
      <trkpt lat="63.387013" lon="13.172694">
        <ele>684.742</ele>
        <time>1970-01-01T01:00:00Z</time>
      </trkpt>
      <trkpt lat="63.38701267" lon="13.17269367">
        <ele>685.046</ele>
        <time>1970-01-01T01:00:00Z</time>
      </trkpt>
      <trkpt lat="63.3870115" lon="13.17269383">
        <ele>685.046</ele>
        <time>1970-01-01T01:00:00Z</time>
      </trkpt>
      <trkpt lat="63.38701033" lon="13.17269367">
        <ele>685.199</ele>
        <time>1970-01-01T01:00:00Z</time>
      </trkpt>
      <trkpt lat="63.38700883" lon="13.17269383">
        <ele>685.199</ele>
        <time>1970-01-01T01:00:00Z</time>
      </trkpt>
      <trkpt lat="63.38700783" lon="13.17269317">
        <ele>685.351</ele>
        <time>1970-01-01T01:00:00Z</time>
      </trkpt>
      <trkpt lat="63.387007" lon="13.17269183">
        <ele>685.351</ele>
        <time>1970-01-01T01:00:00Z</time>
      </trkpt>
      <trkpt lat="63.3870055" lon="13.17269067">
        <ele>685.351</ele>
        <time>1970-01-01T01:00:00Z</time>
      </trkpt>
      <trkpt lat="63.38700433" lon="13.17268967">
        <ele>685.351</ele>
        <time>1970-01-01T01:00:00Z</time>
      </trkpt>
      <trkpt lat="63.38700283" lon="13.17268867">
        <ele>685.504</ele>
        <time>1970-01-01T01:00:00Z</time>
      </trkpt>
      <trkpt lat="63.387003" lon="13.17269117">
        <ele>685.504</ele>
        <time>1970-01-01T01:00:00Z</time>
      </trkpt>
      <trkpt lat="63.387005" lon="13.17269667">
        <ele>685.504</ele>
        <time>1970-01-01T01:00:00Z</time>
      </trkpt>
      <trkpt lat="63.3870095" lon="13.17270567">
        <ele>685.504</ele>
        <time>1970-01-01T01:00:00Z</time>
      </trkpt>
      <trkpt lat="63.387013" lon="13.17271583">
        <ele>685.656</ele>
        <time>1970-01-01T01:00:00Z</time>
      </trkpt>
      <trkpt lat="63.38701583" lon="13.17272483">
        <ele>685.656</ele>
        <time>1970-01-01T01:00:00Z</time>
      </trkpt>
      <trkpt lat="63.387018" lon="13.17273367">
        <ele>685.808</ele>
        <time>1970-01-01T01:00:00Z</time>
      </trkpt>
      <trkpt lat="63.38702117" lon="13.17274333">
        <ele>685.808</ele>
        <time>1970-01-01T01:00:00Z</time>
      </trkpt>
      <trkpt lat="63.3870235" lon="13.17275433">
        <ele>685.961</ele>
        <time>1970-01-01T01:00:00Z</time>
      </trkpt>
      <trkpt lat="63.3870245" lon="13.1727635">
        <ele>685.961</ele>
        <time>1970-01-01T01:00:00Z</time>
      </trkpt>
      <trkpt lat="63.38702533" lon="13.17276783">
        <ele>686.113</ele>
        <time>1970-01-01T01:00:00Z</time>
      </trkpt>
      <trkpt lat="63.38702567" lon="13.1727705">
        <ele>686.113</ele>
        <time>1970-01-01T01:00:00Z</time>
      </trkpt>
      <trkpt lat="63.38702633" lon="13.172775">
        <ele>686.266</ele>
        <time>1970-01-01T01:00:00Z</time>
      </trkpt>
      <trkpt lat="63.3870265" lon="13.17278233">
        <ele>686.266</ele>
        <time>1970-01-01T01:00:00Z</time>
      </trkpt>
      <trkpt lat="63.38702683" lon="13.17278867">
        <ele>686.418</ele>
        <time>1970-01-01T01:00:00Z</time>
      </trkpt>
      <trkpt lat="63.38702717" lon="13.1727915">
        <ele>686.418</ele>
        <time>1970-01-01T01:00:00Z</time>
      </trkpt>
      <trkpt lat="63.38702683" lon="13.17279">
        <ele>686.57</ele>
        <time>1970-01-01T01:00:00Z</time>
      </trkpt>
      <trkpt lat="63.387026" lon="13.1727875">
        <ele>686.57</ele>
        <time>1970-01-01T01:00:00Z</time>
      </trkpt>
      <trkpt lat="63.38702583" lon="13.17278667">
        <ele>686.723</ele>
        <time>1970-01-01T01:00:00Z</time>
      </trkpt>
      <trkpt lat="63.38702583" lon="13.1727895">
        <ele>686.723</ele>
        <time>1970-01-01T01:00:00Z</time>
      </trkpt>
      <trkpt lat="63.3870265" lon="13.1727965">
        <ele>686.875</ele>
        <time>1970-01-01T01:00:00Z</time>
      </trkpt>
      <trkpt lat="63.387027" lon="13.17280583">
        <ele>686.875</ele>
        <time>1970-01-01T01:00:00Z</time>
      </trkpt>
      <trkpt lat="63.38702867" lon="13.17281833">
        <ele>687.028</ele>
        <time>1970-01-01T01:00:00Z</time>
      </trkpt>
      <trkpt lat="63.38702933" lon="13.17283433">
        <ele>687.028</ele>
        <time>1970-01-01T01:00:00Z</time>
      </trkpt>
      <trkpt lat="63.38703067" lon="13.17285517">
        <ele>687.18</ele>
        <time>1970-01-01T01:00:00Z</time>
      </trkpt>
      <trkpt lat="63.38703133" lon="13.17288683">
        <ele>687.18</ele>
        <time>1970-01-01T01:00:00Z</time>
      </trkpt>
      <trkpt lat="63.38703317" lon="13.1729215">
        <ele>687.332</ele>
        <time>1970-01-01T01:00:00Z</time>
      </trkpt>
      <trkpt lat="63.38703333" lon="13.17296367">
        <ele>687.332</ele>
        <time>1970-01-01T01:00:00Z</time>
      </trkpt>
      <trkpt lat="63.3870345" lon="13.1730015">
        <ele>687.485</ele>
        <time>1970-01-01T01:00:00Z</time>
      </trkpt>
      <trkpt lat="63.38703417" lon="13.173042">
        <ele>687.485</ele>
        <time>1970-01-01T01:00:00Z</time>
      </trkpt>
      <trkpt lat="63.38703417" lon="13.17308217">
        <ele>687.637</ele>
        <time>1970-01-01T01:00:00Z</time>
      </trkpt>
      <trkpt lat="63.3870315" lon="13.1731215">
        <ele>687.637</ele>
        <time>1970-01-01T01:00:00Z</time>
      </trkpt>
      <trkpt lat="63.38702667" lon="13.17316133">
        <ele>687.79</ele>
        <time>1970-01-01T01:00:00Z</time>
      </trkpt>
      <trkpt lat="63.38702017" lon="13.17319617">
        <ele>687.79</ele>
        <time>1970-01-01T01:00:00Z</time>
      </trkpt>
      <trkpt lat="63.3870125" lon="13.17323167">
        <ele>688.094</ele>
        <time>1970-01-01T01:00:00Z</time>
      </trkpt>
      <trkpt lat="63.3870045" lon="13.173268">
        <ele>688.094</ele>
        <time>1970-01-01T01:00:00Z</time>
      </trkpt>
      <trkpt lat="63.3869955" lon="13.17330233">
        <ele>688.247</ele>
        <time>1970-01-01T01:00:00Z</time>
      </trkpt>
      <trkpt lat="63.38698567" lon="13.17333217">
        <ele>688.247</ele>
        <time>1970-01-01T01:00:00Z</time>
      </trkpt>
      <trkpt lat="63.38697567" lon="13.17335633">
        <ele>688.399</ele>
        <time>1970-01-01T01:00:00Z</time>
      </trkpt>
      <trkpt lat="63.38696583" lon="13.173379">
        <ele>688.399</ele>
        <time>1970-01-01T01:00:00Z</time>
      </trkpt>
      <trkpt lat="63.386956" lon="13.17340183">
        <ele>688.552</ele>
        <time>1970-01-01T01:00:00Z</time>
      </trkpt>
      <trkpt lat="63.386947" lon="13.173426">
        <ele>688.552</ele>
        <time>1970-01-01T01:00:00Z</time>
      </trkpt>
      <trkpt lat="63.38693783" lon="13.17345167">
        <ele>688.856</ele>
        <time>1970-01-01T01:00:00Z</time>
      </trkpt>
      <trkpt lat="63.38692633" lon="13.17347733">
        <ele>688.856</ele>
        <time>1970-01-01T01:00:00Z</time>
      </trkpt>
      <trkpt lat="63.38691467" lon="13.17350267">
        <ele>689.009</ele>
        <time>1970-01-01T01:00:00Z</time>
      </trkpt>
      <trkpt lat="63.386904" lon="13.173528">
        <ele>689.009</ele>
        <time>1970-01-01T01:00:00Z</time>
      </trkpt>
      <trkpt lat="63.386894" lon="13.173555">
        <ele>689.161</ele>
        <time>1970-01-01T01:00:00Z</time>
      </trkpt>
      <trkpt lat="63.38688217" lon="13.17358383">
        <ele>689.161</ele>
        <time>1970-01-01T01:00:00Z</time>
      </trkpt>
      <trkpt lat="63.38686717" lon="13.17361417">
        <ele>689.161</ele>
        <time>1970-01-01T01:00:00Z</time>
      </trkpt>
      <trkpt lat="63.38685217" lon="13.17364633">
        <ele>689.161</ele>
        <time>1970-01-01T01:00:00Z</time>
      </trkpt>
      <trkpt lat="63.38683733" lon="13.17367933">
        <ele>689.314</ele>
        <time>1970-01-01T01:00:00Z</time>
      </trkpt>
      <trkpt lat="63.386823" lon="13.17370883">
        <ele>689.314</ele>
        <time>1970-01-01T01:00:00Z</time>
      </trkpt>
      <trkpt lat="63.38681017" lon="13.17373233">
        <ele>689.314</ele>
        <time>1970-01-01T01:00:00Z</time>
      </trkpt>
      <trkpt lat="63.38679717" lon="13.17375283">
        <ele>689.314</ele>
        <time>1970-01-01T01:00:00Z</time>
      </trkpt>
      <trkpt lat="63.38678533" lon="13.17377583">
        <ele>689.161</ele>
        <time>1970-01-01T01:00:00Z</time>
      </trkpt>
      <trkpt lat="63.386773" lon="13.17380117">
        <ele>689.161</ele>
        <time>1970-01-01T01:00:00Z</time>
      </trkpt>
      <trkpt lat="63.38676183" lon="13.17382417">
        <ele>689.009</ele>
        <time>1970-01-01T01:00:00Z</time>
      </trkpt>
      <trkpt lat="63.38674717" lon="13.17384583">
        <ele>689.009</ele>
        <time>1970-01-01T01:00:00Z</time>
      </trkpt>
      <trkpt lat="63.38673017" lon="13.173868">
        <ele>688.856</ele>
        <time>1970-01-01T01:00:00Z</time>
      </trkpt>
      <trkpt lat="63.3867105" lon="13.17388933">
        <ele>688.856</ele>
        <time>1970-01-01T01:00:00Z</time>
      </trkpt>
      <trkpt lat="63.38668717" lon="13.17390767">
        <ele>688.704</ele>
        <time>1970-01-01T01:00:00Z</time>
      </trkpt>
      <trkpt lat="63.3866625" lon="13.17392017">
        <ele>688.704</ele>
        <time>1970-01-01T01:00:00Z</time>
      </trkpt>
      <trkpt lat="63.3866345" lon="13.17392817">
        <ele>688.552</ele>
        <time>1970-01-01T01:00:00Z</time>
      </trkpt>
      <trkpt lat="63.38660967" lon="13.17392983">
        <ele>688.552</ele>
        <time>1970-01-01T01:00:00Z</time>
      </trkpt>
      <trkpt lat="63.386585" lon="13.17393083">
        <ele>688.247</ele>
        <time>1970-01-01T01:00:00Z</time>
      </trkpt>
      <trkpt lat="63.3865615" lon="13.17392667">
        <ele>688.247</ele>
        <time>1970-01-01T01:00:00Z</time>
      </trkpt>
      <trkpt lat="63.38653883" lon="13.173923">
        <ele>688.094</ele>
        <time>1970-01-01T01:00:00Z</time>
      </trkpt>
      <trkpt lat="63.38651433" lon="13.17391467">
        <ele>688.094</ele>
        <time>1970-01-01T01:00:00Z</time>
      </trkpt>
      <trkpt lat="63.38649167" lon="13.173908">
        <ele>687.79</ele>
        <time>1970-01-01T01:00:00Z</time>
      </trkpt>
      <trkpt lat="63.386468" lon="13.17390117">
        <ele>687.79</ele>
        <time>1970-01-01T01:00:00Z</time>
      </trkpt>
      <trkpt lat="63.38644533" lon="13.173895">
        <ele>687.637</ele>
        <time>1970-01-01T01:00:00Z</time>
      </trkpt>
      <trkpt lat="63.386423" lon="13.17388867">
        <ele>687.637</ele>
        <time>1970-01-01T01:00:00Z</time>
      </trkpt>
      <trkpt lat="63.38639917" lon="13.17388283">
        <ele>687.332</ele>
        <time>1970-01-01T01:00:00Z</time>
      </trkpt>
      <trkpt lat="63.3863765" lon="13.17387533">
        <ele>687.332</ele>
        <time>1970-01-01T01:00:00Z</time>
      </trkpt>
      <trkpt lat="63.38635317" lon="13.17386917">
        <ele>687.028</ele>
        <time>1970-01-01T01:00:00Z</time>
      </trkpt>
      <trkpt lat="63.3863305" lon="13.17386233">
        <ele>687.028</ele>
        <time>1970-01-01T01:00:00Z</time>
      </trkpt>
      <trkpt lat="63.38630767" lon="13.17385883">
        <ele>686.875</ele>
        <time>1970-01-01T01:00:00Z</time>
      </trkpt>
      <trkpt lat="63.38628533" lon="13.17385417">
        <ele>686.875</ele>
        <time>1970-01-01T01:00:00Z</time>
      </trkpt>
      <trkpt lat="63.38626267" lon="13.17385">
        <ele>686.57</ele>
        <time>1970-01-01T01:00:00Z</time>
      </trkpt>
      <trkpt lat="63.38624033" lon="13.17384417">
        <ele>686.57</ele>
        <time>1970-01-01T01:00:00Z</time>
      </trkpt>
      <trkpt lat="63.386217" lon="13.17383617">
        <ele>686.418</ele>
        <time>1970-01-01T01:00:00Z</time>
      </trkpt>
      <trkpt lat="63.38619433" lon="13.17382567">
        <ele>686.418</ele>
        <time>1970-01-01T01:00:00Z</time>
      </trkpt>
      <trkpt lat="63.386172" lon="13.1738135">
        <ele>686.113</ele>
        <time>1970-01-01T01:00:00Z</time>
      </trkpt>
      <trkpt lat="63.386149" lon="13.17380067">
        <ele>686.113</ele>
        <time>1970-01-01T01:00:00Z</time>
      </trkpt>
      <trkpt lat="63.38612733" lon="13.17378717">
        <ele>685.808</ele>
        <time>1970-01-01T01:00:00Z</time>
      </trkpt>
      <trkpt lat="63.38610583" lon="13.17377683">
        <ele>685.808</ele>
        <time>1970-01-01T01:00:00Z</time>
      </trkpt>
      <trkpt lat="63.386085" lon="13.1737675">
        <ele>685.656</ele>
        <time>1970-01-01T01:00:00Z</time>
      </trkpt>
      <trkpt lat="63.38606467" lon="13.1737605">
        <ele>685.656</ele>
        <time>1970-01-01T01:00:00Z</time>
      </trkpt>
      <trkpt lat="63.38604433" lon="13.17375117">
        <ele>685.351</ele>
        <time>1970-01-01T01:00:00Z</time>
      </trkpt>
      <trkpt lat="63.38602417" lon="13.1737435">
        <ele>685.351</ele>
        <time>1970-01-01T01:00:00Z</time>
      </trkpt>
      <trkpt lat="63.38600317" lon="13.17373617">
        <ele>685.046</ele>
        <time>1970-01-01T01:00:00Z</time>
      </trkpt>
      <trkpt lat="63.38598133" lon="13.17372567">
        <ele>685.046</ele>
        <time>1970-01-01T01:00:00Z</time>
      </trkpt>
      <trkpt lat="63.385959" lon="13.17371117">
        <ele>684.894</ele>
        <time>1970-01-01T01:00:00Z</time>
      </trkpt>
      <trkpt lat="63.3859375" lon="13.17369533">
        <ele>684.894</ele>
        <time>1970-01-01T01:00:00Z</time>
      </trkpt>
      <trkpt lat="63.385917" lon="13.17368217">
        <ele>684.589</ele>
        <time>1970-01-01T01:00:00Z</time>
      </trkpt>
      <trkpt lat="63.3858975" lon="13.17367">
        <ele>684.589</ele>
        <time>1970-01-01T01:00:00Z</time>
      </trkpt>
      <trkpt lat="63.38587767" lon="13.1736585">
        <ele>684.284</ele>
        <time>1970-01-01T01:00:00Z</time>
      </trkpt>
      <trkpt lat="63.38585733" lon="13.1736445">
        <ele>684.284</ele>
        <time>1970-01-01T01:00:00Z</time>
      </trkpt>
      <trkpt lat="63.3858375" lon="13.17363317">
        <ele>683.979</ele>
        <time>1970-01-01T01:00:00Z</time>
      </trkpt>
      <trkpt lat="63.38581767" lon="13.17362033">
        <ele>683.979</ele>
        <time>1970-01-01T01:00:00Z</time>
      </trkpt>
      <trkpt lat="63.3857975" lon="13.1736095">
        <ele>683.675</ele>
        <time>1970-01-01T01:00:00Z</time>
      </trkpt>
      <trkpt lat="63.38577733" lon="13.17359767">
        <ele>683.675</ele>
        <time>1970-01-01T01:00:00Z</time>
      </trkpt>
      <trkpt lat="63.38575767" lon="13.17358517">
        <ele>683.37</ele>
        <time>1970-01-01T01:00:00Z</time>
      </trkpt>
      <trkpt lat="63.38573767" lon="13.17357">
        <ele>683.37</ele>
        <time>1970-01-01T01:00:00Z</time>
      </trkpt>
      <trkpt lat="63.3857185" lon="13.17354883">
        <ele>683.217</ele>
        <time>1970-01-01T01:00:00Z</time>
      </trkpt>
      <trkpt lat="63.38569867" lon="13.17352683">
        <ele>683.217</ele>
        <time>1970-01-01T01:00:00Z</time>
      </trkpt>
      <trkpt lat="63.38567867" lon="13.17350567">
        <ele>682.913</ele>
        <time>1970-01-01T01:00:00Z</time>
      </trkpt>
      <trkpt lat="63.38565833" lon="13.17348767">
        <ele>682.913</ele>
        <time>1970-01-01T01:00:00Z</time>
      </trkpt>
      <trkpt lat="63.38563817" lon="13.17346783">
        <ele>682.608</ele>
        <time>1970-01-01T01:00:00Z</time>
      </trkpt>
      <trkpt lat="63.38561967" lon="13.17344733">
        <ele>682.608</ele>
        <time>1970-01-01T01:00:00Z</time>
      </trkpt>
      <trkpt lat="63.38560183" lon="13.17342917">
        <ele>682.456</ele>
        <time>1970-01-01T01:00:00Z</time>
      </trkpt>
      <trkpt lat="63.385583" lon="13.1734145">
        <ele>682.456</ele>
        <time>1970-01-01T01:00:00Z</time>
      </trkpt>
      <trkpt lat="63.38556383" lon="13.1733975">
        <ele>682.151</ele>
        <time>1970-01-01T01:00:00Z</time>
      </trkpt>
      <trkpt lat="63.385544" lon="13.1733775">
        <ele>682.151</ele>
        <time>1970-01-01T01:00:00Z</time>
      </trkpt>
      <trkpt lat="63.385526" lon="13.17335317">
        <ele>681.846</ele>
        <time>1970-01-01T01:00:00Z</time>
      </trkpt>
      <trkpt lat="63.38551" lon="13.173328">
        <ele>681.846</ele>
        <time>1970-01-01T01:00:00Z</time>
      </trkpt>
      <trkpt lat="63.38549633" lon="13.17329733">
        <ele>681.541</ele>
        <time>1970-01-01T01:00:00Z</time>
      </trkpt>
      <trkpt lat="63.38548433" lon="13.17326467">
        <ele>681.541</ele>
        <time>1970-01-01T01:00:00Z</time>
      </trkpt>
      <trkpt lat="63.38547317" lon="13.17323217">
        <ele>681.236</ele>
        <time>1970-01-01T01:00:00Z</time>
      </trkpt>
      <trkpt lat="63.38546267" lon="13.173198">
        <ele>681.236</ele>
        <time>1970-01-01T01:00:00Z</time>
      </trkpt>
      <trkpt lat="63.38545617" lon="13.17315833">
        <ele>680.931</ele>
        <time>1970-01-01T01:00:00Z</time>
      </trkpt>
      <trkpt lat="63.38545117" lon="13.173109">
        <ele>680.931</ele>
        <time>1970-01-01T01:00:00Z</time>
      </trkpt>
      <trkpt lat="63.38544833" lon="13.17306">
        <ele>680.627</ele>
        <time>1970-01-01T01:00:00Z</time>
      </trkpt>
      <trkpt lat="63.385443" lon="13.173008">
        <ele>680.627</ele>
        <time>1970-01-01T01:00:00Z</time>
      </trkpt>
      <trkpt lat="63.38543867" lon="13.1729575">
        <ele>680.169</ele>
        <time>1970-01-01T01:00:00Z</time>
      </trkpt>
      <trkpt lat="63.385435" lon="13.172907">
        <ele>680.169</ele>
        <time>1970-01-01T01:00:00Z</time>
      </trkpt>
      <trkpt lat="63.38543267" lon="13.172859">
        <ele>679.865</ele>
        <time>1970-01-01T01:00:00Z</time>
      </trkpt>
      <trkpt lat="63.385432" lon="13.17281383">
        <ele>679.865</ele>
        <time>1970-01-01T01:00:00Z</time>
      </trkpt>
      <trkpt lat="63.38543283" lon="13.17276833">
        <ele>679.407</ele>
        <time>1970-01-01T01:00:00Z</time>
      </trkpt>
      <trkpt lat="63.38543333" lon="13.172726">
        <ele>679.407</ele>
        <time>1970-01-01T01:00:00Z</time>
      </trkpt>
      <trkpt lat="63.385434" lon="13.17268217">
        <ele>679.103</ele>
        <time>1970-01-01T01:00:00Z</time>
      </trkpt>
      <trkpt lat="63.38543533" lon="13.17263933">
        <ele>679.103</ele>
        <time>1970-01-01T01:00:00Z</time>
      </trkpt>
      <trkpt lat="63.38543867" lon="13.172597">
        <ele>678.645</ele>
        <time>1970-01-01T01:00:00Z</time>
      </trkpt>
      <trkpt lat="63.38544167" lon="13.17255617">
        <ele>678.645</ele>
        <time>1970-01-01T01:00:00Z</time>
      </trkpt>
      <trkpt lat="63.38544317" lon="13.17251483">
        <ele>678.188</ele>
        <time>1970-01-01T01:00:00Z</time>
      </trkpt>
      <trkpt lat="63.3854425" lon="13.1724675">
        <ele>678.188</ele>
        <time>1970-01-01T01:00:00Z</time>
      </trkpt>
      <trkpt lat="63.38544017" lon="13.17241917">
        <ele>677.883</ele>
        <time>1970-01-01T01:00:00Z</time>
      </trkpt>
      <trkpt lat="63.38543817" lon="13.17236883">
        <ele>677.883</ele>
        <time>1970-01-01T01:00:00Z</time>
      </trkpt>
      <trkpt lat="63.38543833" lon="13.17232033">
        <ele>677.274</ele>
        <time>1970-01-01T01:00:00Z</time>
      </trkpt>
      <trkpt lat="63.38544" lon="13.17227067">
        <ele>677.274</ele>
        <time>1970-01-01T01:00:00Z</time>
      </trkpt>
      <trkpt lat="63.38543983" lon="13.17221417">
        <ele>676.817</ele>
        <time>1970-01-01T01:00:00Z</time>
      </trkpt>
      <trkpt lat="63.38543867" lon="13.17215917">
        <ele>676.817</ele>
        <time>1970-01-01T01:00:00Z</time>
      </trkpt>
      <trkpt lat="63.385436" lon="13.1721045">
        <ele>676.207</ele>
        <time>1970-01-01T01:00:00Z</time>
      </trkpt>
      <trkpt lat="63.385433" lon="13.172055">
        <ele>676.207</ele>
        <time>1970-01-01T01:00:00Z</time>
      </trkpt>
      <trkpt lat="63.38542767" lon="13.17200733">
        <ele>675.75</ele>
        <time>1970-01-01T01:00:00Z</time>
      </trkpt>
      <trkpt lat="63.38542" lon="13.1719615">
        <ele>675.75</ele>
        <time>1970-01-01T01:00:00Z</time>
      </trkpt>
      <trkpt lat="63.385411" lon="13.171916">
        <ele>675.14</ele>
        <time>1970-01-01T01:00:00Z</time>
      </trkpt>
      <trkpt lat="63.3854025" lon="13.17187133">
        <ele>675.14</ele>
        <time>1970-01-01T01:00:00Z</time>
      </trkpt>
      <trkpt lat="63.38539433" lon="13.17182967">
        <ele>674.531</ele>
        <time>1970-01-01T01:00:00Z</time>
      </trkpt>
      <trkpt lat="63.385385" lon="13.17179533">
        <ele>674.531</ele>
        <time>1970-01-01T01:00:00Z</time>
      </trkpt>
      <trkpt lat="63.38537183" lon="13.17176733">
        <ele>673.921</ele>
        <time>1970-01-01T01:00:00Z</time>
      </trkpt>
      <trkpt lat="63.38535833" lon="13.17174417">
        <ele>673.921</ele>
        <time>1970-01-01T01:00:00Z</time>
      </trkpt>
      <trkpt lat="63.38534383" lon="13.1717225">
        <ele>673.464</ele>
        <time>1970-01-01T01:00:00Z</time>
      </trkpt>
      <trkpt lat="63.38533067" lon="13.17170233">
        <ele>673.464</ele>
        <time>1970-01-01T01:00:00Z</time>
      </trkpt>
      <trkpt lat="63.38531667" lon="13.1716805">
        <ele>672.854</ele>
        <time>1970-01-01T01:00:00Z</time>
      </trkpt>
      <trkpt lat="63.38530267" lon="13.17165967">
        <ele>672.854</ele>
        <time>1970-01-01T01:00:00Z</time>
      </trkpt>
      <trkpt lat="63.38528917" lon="13.17163783">
        <ele>672.397</ele>
        <time>1970-01-01T01:00:00Z</time>
      </trkpt>
      <trkpt lat="63.38527517" lon="13.17161883">
        <ele>672.397</ele>
        <time>1970-01-01T01:00:00Z</time>
      </trkpt>
      <trkpt lat="63.3852605" lon="13.17159833">
        <ele>671.94</ele>
        <time>1970-01-01T01:00:00Z</time>
      </trkpt>
      <trkpt lat="63.38524433" lon="13.17157667">
        <ele>671.94</ele>
        <time>1970-01-01T01:00:00Z</time>
      </trkpt>
      <trkpt lat="63.3852265" lon="13.1715565">
        <ele>671.483</ele>
        <time>1970-01-01T01:00:00Z</time>
      </trkpt>
      <trkpt lat="63.38520683" lon="13.17154233">
        <ele>671.483</ele>
        <time>1970-01-01T01:00:00Z</time>
      </trkpt>
      <trkpt lat="63.38518617" lon="13.17153383">
        <ele>671.025</ele>
        <time>1970-01-01T01:00:00Z</time>
      </trkpt>
      <trkpt lat="63.38516517" lon="13.1715255">
        <ele>671.025</ele>
        <time>1970-01-01T01:00:00Z</time>
      </trkpt>
      <trkpt lat="63.38514433" lon="13.17151833">
        <ele>670.568</ele>
        <time>1970-01-01T01:00:00Z</time>
      </trkpt>
      <trkpt lat="63.38512317" lon="13.17151017">
        <ele>670.568</ele>
        <time>1970-01-01T01:00:00Z</time>
      </trkpt>
      <trkpt lat="63.38510217" lon="13.1715065">
        <ele>670.263</ele>
        <time>1970-01-01T01:00:00Z</time>
      </trkpt>
      <trkpt lat="63.38508217" lon="13.171506">
        <ele>670.263</ele>
        <time>1970-01-01T01:00:00Z</time>
      </trkpt>
      <trkpt lat="63.38506083" lon="13.17150867">
        <ele>669.806</ele>
        <time>1970-01-01T01:00:00Z</time>
      </trkpt>
      <trkpt lat="63.38503883" lon="13.17151133">
        <ele>669.806</ele>
        <time>1970-01-01T01:00:00Z</time>
      </trkpt>
      <trkpt lat="63.3850165" lon="13.17151317">
        <ele>669.501</ele>
        <time>1970-01-01T01:00:00Z</time>
      </trkpt>
      <trkpt lat="63.38499517" lon="13.17151933">
        <ele>669.501</ele>
        <time>1970-01-01T01:00:00Z</time>
      </trkpt>
      <trkpt lat="63.38497383" lon="13.17152533">
        <ele>669.044</ele>
        <time>1970-01-01T01:00:00Z</time>
      </trkpt>
      <trkpt lat="63.3849545" lon="13.17153083">
        <ele>669.044</ele>
        <time>1970-01-01T01:00:00Z</time>
      </trkpt>
      <trkpt lat="63.38493483" lon="13.17153083">
        <ele>668.587</ele>
        <time>1970-01-01T01:00:00Z</time>
      </trkpt>
      <trkpt lat="63.38491583" lon="13.1715295">
        <ele>668.587</ele>
        <time>1970-01-01T01:00:00Z</time>
      </trkpt>
      <trkpt lat="63.38489567" lon="13.17152833">
        <ele>668.282</ele>
        <time>1970-01-01T01:00:00Z</time>
      </trkpt>
      <trkpt lat="63.38487733" lon="13.171526">
        <ele>668.282</ele>
        <time>1970-01-01T01:00:00Z</time>
      </trkpt>
      <trkpt lat="63.3848605" lon="13.17152217">
        <ele>667.825</ele>
        <time>1970-01-01T01:00:00Z</time>
      </trkpt>
      <trkpt lat="63.3848455" lon="13.17151433">
        <ele>667.825</ele>
        <time>1970-01-01T01:00:00Z</time>
      </trkpt>
      <trkpt lat="63.38483133" lon="13.1715055">
        <ele>667.52</ele>
        <time>1970-01-01T01:00:00Z</time>
      </trkpt>
      <trkpt lat="63.3848165" lon="13.171495">
        <ele>667.52</ele>
        <time>1970-01-01T01:00:00Z</time>
      </trkpt>
      <trkpt lat="63.38480133" lon="13.17148583">
        <ele>667.063</ele>
        <time>1970-01-01T01:00:00Z</time>
      </trkpt>
      <trkpt lat="63.3847865" lon="13.17147567">
        <ele>667.063</ele>
        <time>1970-01-01T01:00:00Z</time>
      </trkpt>
      <trkpt lat="63.38477167" lon="13.17146683">
        <ele>666.606</ele>
        <time>1970-01-01T01:00:00Z</time>
      </trkpt>
      <trkpt lat="63.3847565" lon="13.17145783">
        <ele>666.606</ele>
        <time>1970-01-01T01:00:00Z</time>
      </trkpt>
      <trkpt lat="63.38474033" lon="13.1714515">
        <ele>666.148</ele>
        <time>1970-01-01T01:00:00Z</time>
      </trkpt>
      <trkpt lat="63.384723" lon="13.17144333">
        <ele>666.148</ele>
        <time>1970-01-01T01:00:00Z</time>
      </trkpt>
      <trkpt lat="63.384703" lon="13.17143517">
        <ele>665.691</ele>
        <time>1970-01-01T01:00:00Z</time>
      </trkpt>
      <trkpt lat="63.3846825" lon="13.17142567">
        <ele>665.691</ele>
        <time>1970-01-01T01:00:00Z</time>
      </trkpt>
      <trkpt lat="63.38466067" lon="13.171416">
        <ele>665.234</ele>
        <time>1970-01-01T01:00:00Z</time>
      </trkpt>
      <trkpt lat="63.3846395" lon="13.171405">
        <ele>665.234</ele>
        <time>1970-01-01T01:00:00Z</time>
      </trkpt>
      <trkpt lat="63.38461917" lon="13.171394">
        <ele>664.929</ele>
        <time>1970-01-01T01:00:00Z</time>
      </trkpt>
      <trkpt lat="63.3846" lon="13.17138033">
        <ele>664.929</ele>
        <time>1970-01-01T01:00:00Z</time>
      </trkpt>
      <trkpt lat="63.3845815" lon="13.1713675">
        <ele>664.472</ele>
        <time>1970-01-01T01:00:00Z</time>
      </trkpt>
      <trkpt lat="63.38456233" lon="13.1713555">
        <ele>664.472</ele>
        <time>1970-01-01T01:00:00Z</time>
      </trkpt>
      <trkpt lat="63.38454383" lon="13.1713485">
        <ele>664.015</ele>
        <time>1970-01-01T01:00:00Z</time>
      </trkpt>
      <trkpt lat="63.38452533" lon="13.17134333">
        <ele>664.015</ele>
        <time>1970-01-01T01:00:00Z</time>
      </trkpt>
      <trkpt lat="63.38450567" lon="13.17133767">
        <ele>663.558</ele>
        <time>1970-01-01T01:00:00Z</time>
      </trkpt>
      <trkpt lat="63.38448517" lon="13.17132817">
        <ele>663.558</ele>
        <time>1970-01-01T01:00:00Z</time>
      </trkpt>
      <trkpt lat="63.38446467" lon="13.1713155">
        <ele>663.1</ele>
        <time>1970-01-01T01:00:00Z</time>
      </trkpt>
      <trkpt lat="63.38444467" lon="13.1713005">
        <ele>663.1</ele>
        <time>1970-01-01T01:00:00Z</time>
      </trkpt>
      <trkpt lat="63.38442683" lon="13.17128817">
        <ele>662.796</ele>
        <time>1970-01-01T01:00:00Z</time>
      </trkpt>
      <trkpt lat="63.3844085" lon="13.17127983">
        <ele>662.796</ele>
        <time>1970-01-01T01:00:00Z</time>
      </trkpt>
      <trkpt lat="63.38439017" lon="13.17128067">
        <ele>662.338</ele>
        <time>1970-01-01T01:00:00Z</time>
      </trkpt>
      <trkpt lat="63.38437017" lon="13.17128867">
        <ele>662.338</ele>
        <time>1970-01-01T01:00:00Z</time>
      </trkpt>
      <trkpt lat="63.384352" lon="13.17130483">
        <ele>662.034</ele>
        <time>1970-01-01T01:00:00Z</time>
      </trkpt>
      <trkpt lat="63.38433967" lon="13.171329">
        <ele>662.034</ele>
        <time>1970-01-01T01:00:00Z</time>
      </trkpt>
      <trkpt lat="63.3843325" lon="13.17136067">
        <ele>661.576</ele>
        <time>1970-01-01T01:00:00Z</time>
      </trkpt>
      <trkpt lat="63.38432867" lon="13.17139883">
        <ele>661.576</ele>
        <time>1970-01-01T01:00:00Z</time>
      </trkpt>
      <trkpt lat="63.38432517" lon="13.17143567">
        <ele>661.272</ele>
        <time>1970-01-01T01:00:00Z</time>
      </trkpt>
      <trkpt lat="63.38432283" lon="13.17147167">
        <ele>661.272</ele>
        <time>1970-01-01T01:00:00Z</time>
      </trkpt>
      <trkpt lat="63.384323" lon="13.17150333">
        <ele>660.814</ele>
        <time>1970-01-01T01:00:00Z</time>
      </trkpt>
      <trkpt lat="63.38432467" lon="13.17153483">
        <ele>660.814</ele>
        <time>1970-01-01T01:00:00Z</time>
      </trkpt>
      <trkpt lat="63.384326" lon="13.17156467">
        <ele>660.51</ele>
        <time>1970-01-01T01:00:00Z</time>
      </trkpt>
      <trkpt lat="63.38432567" lon="13.171598">
        <ele>660.51</ele>
        <time>1970-01-01T01:00:00Z</time>
      </trkpt>
      <trkpt lat="63.38432483" lon="13.171634">
        <ele>660.205</ele>
        <time>1970-01-01T01:00:00Z</time>
      </trkpt>
      <trkpt lat="63.38432383" lon="13.171669">
        <ele>660.205</ele>
        <time>1970-01-01T01:00:00Z</time>
      </trkpt>
      <trkpt lat="63.384324" lon="13.17169967">
        <ele>659.9</ele>
        <time>1970-01-01T01:00:00Z</time>
      </trkpt>
      <trkpt lat="63.38432567" lon="13.17172467">
        <ele>659.9</ele>
        <time>1970-01-01T01:00:00Z</time>
      </trkpt>
      <trkpt lat="63.3843255" lon="13.17175133">
        <ele>659.595</ele>
        <time>1970-01-01T01:00:00Z</time>
      </trkpt>
      <trkpt lat="63.38432267" lon="13.17178017">
        <ele>659.595</ele>
        <time>1970-01-01T01:00:00Z</time>
      </trkpt>
      <trkpt lat="63.38431633" lon="13.17181033">
        <ele>659.29</ele>
        <time>1970-01-01T01:00:00Z</time>
      </trkpt>
      <trkpt lat="63.3843085" lon="13.1718415">
        <ele>659.29</ele>
        <time>1970-01-01T01:00:00Z</time>
      </trkpt>
      <trkpt lat="63.38430017" lon="13.17187117">
        <ele>658.986</ele>
        <time>1970-01-01T01:00:00Z</time>
      </trkpt>
      <trkpt lat="63.38429217" lon="13.17190183">
        <ele>658.986</ele>
        <time>1970-01-01T01:00:00Z</time>
      </trkpt>
      <trkpt lat="63.384283" lon="13.17193433">
        <ele>658.833</ele>
        <time>1970-01-01T01:00:00Z</time>
      </trkpt>
      <trkpt lat="63.38427533" lon="13.171969">
        <ele>658.833</ele>
        <time>1970-01-01T01:00:00Z</time>
      </trkpt>
      <trkpt lat="63.38426567" lon="13.17199833">
        <ele>658.528</ele>
        <time>1970-01-01T01:00:00Z</time>
      </trkpt>
      <trkpt lat="63.38425833" lon="13.1720275">
        <ele>658.528</ele>
        <time>1970-01-01T01:00:00Z</time>
      </trkpt>
      <trkpt lat="63.38425033" lon="13.17205333">
        <ele>658.376</ele>
        <time>1970-01-01T01:00:00Z</time>
      </trkpt>
      <trkpt lat="63.38424483" lon="13.17208583">
        <ele>658.376</ele>
        <time>1970-01-01T01:00:00Z</time>
      </trkpt>
      <trkpt lat="63.38423933" lon="13.17212017">
        <ele>658.071</ele>
        <time>1970-01-01T01:00:00Z</time>
      </trkpt>
      <trkpt lat="63.384237" lon="13.17215583">
        <ele>658.071</ele>
        <time>1970-01-01T01:00:00Z</time>
      </trkpt>
      <trkpt lat="63.38423483" lon="13.17218967">
        <ele>657.919</ele>
        <time>1970-01-01T01:00:00Z</time>
      </trkpt>
      <trkpt lat="63.3842325" lon="13.17222217">
        <ele>657.919</ele>
        <time>1970-01-01T01:00:00Z</time>
      </trkpt>
      <trkpt lat="63.38422783" lon="13.17225233">
        <ele>657.766</ele>
        <time>1970-01-01T01:00:00Z</time>
      </trkpt>
      <trkpt lat="63.38422333" lon="13.17228167">
        <ele>657.766</ele>
        <time>1970-01-01T01:00:00Z</time>
      </trkpt>
      <trkpt lat="63.38421967" lon="13.17231217">
        <ele>657.766</ele>
        <time>1970-01-01T01:00:00Z</time>
      </trkpt>
      <trkpt lat="63.38421583" lon="13.1723475">
        <ele>657.766</ele>
        <time>1970-01-01T01:00:00Z</time>
      </trkpt>
      <trkpt lat="63.38421167" lon="13.172385">
        <ele>657.614</ele>
        <time>1970-01-01T01:00:00Z</time>
      </trkpt>
      <trkpt lat="63.38420633" lon="13.172421">
        <ele>657.614</ele>
        <time>1970-01-01T01:00:00Z</time>
      </trkpt>
      <trkpt lat="63.38420267" lon="13.17245517">
        <ele>657.462</ele>
        <time>1970-01-01T01:00:00Z</time>
      </trkpt>
      <trkpt lat="63.3842" lon="13.17248433">
        <ele>657.462</ele>
        <time>1970-01-01T01:00:00Z</time>
      </trkpt>
      <trkpt lat="63.38419933" lon="13.17251117">
        <ele>657.462</ele>
        <time>1970-01-01T01:00:00Z</time>
      </trkpt>
      <trkpt lat="63.38419683" lon="13.172537">
        <ele>657.462</ele>
        <time>1970-01-01T01:00:00Z</time>
      </trkpt>
      <trkpt lat="63.384194" lon="13.17256667">
        <ele>657.462</ele>
        <time>1970-01-01T01:00:00Z</time>
      </trkpt>
      <trkpt lat="63.384191" lon="13.172596">
        <ele>657.462</ele>
        <time>1970-01-01T01:00:00Z</time>
      </trkpt>
      <trkpt lat="63.3841895" lon="13.17262967">
        <ele>657.462</ele>
        <time>1970-01-01T01:00:00Z</time>
      </trkpt>
      <trkpt lat="63.38418833" lon="13.17266267">
        <ele>657.462</ele>
        <time>1970-01-01T01:00:00Z</time>
      </trkpt>
      <trkpt lat="63.38418283" lon="13.17269933">
        <ele>657.462</ele>
        <time>1970-01-01T01:00:00Z</time>
      </trkpt>
      <trkpt lat="63.384177" lon="13.17273283">
        <ele>657.462</ele>
        <time>1970-01-01T01:00:00Z</time>
      </trkpt>
      <trkpt lat="63.38417083" lon="13.17276783">
        <ele>657.462</ele>
        <time>1970-01-01T01:00:00Z</time>
      </trkpt>
      <trkpt lat="63.384165" lon="13.17280283">
        <ele>657.462</ele>
        <time>1970-01-01T01:00:00Z</time>
      </trkpt>
      <trkpt lat="63.384157" lon="13.17283933">
        <ele>657.614</ele>
        <time>1970-01-01T01:00:00Z</time>
      </trkpt>
      <trkpt lat="63.38414917" lon="13.17287333">
        <ele>657.614</ele>
        <time>1970-01-01T01:00:00Z</time>
      </trkpt>
      <trkpt lat="63.38414433" lon="13.17290217">
        <ele>657.614</ele>
        <time>1970-01-01T01:00:00Z</time>
      </trkpt>
      <trkpt lat="63.38413967" lon="13.172932">
        <ele>657.614</ele>
        <time>1970-01-01T01:00:00Z</time>
      </trkpt>
      <trkpt lat="63.38413583" lon="13.17295967">
        <ele>657.614</ele>
        <time>1970-01-01T01:00:00Z</time>
      </trkpt>
      <trkpt lat="63.38413483" lon="13.17298767">
        <ele>657.614</ele>
        <time>1970-01-01T01:00:00Z</time>
      </trkpt>
      <trkpt lat="63.3841355" lon="13.17301">
        <ele>657.766</ele>
        <time>1970-01-01T01:00:00Z</time>
      </trkpt>
      <trkpt lat="63.38413967" lon="13.17302783">
        <ele>657.766</ele>
        <time>1970-01-01T01:00:00Z</time>
      </trkpt>
      <trkpt lat="63.38414133" lon="13.1730475">
        <ele>657.919</ele>
        <time>1970-01-01T01:00:00Z</time>
      </trkpt>
      <trkpt lat="63.38414717" lon="13.17306817">
        <ele>657.919</ele>
        <time>1970-01-01T01:00:00Z</time>
      </trkpt>
      <trkpt lat="63.38414567" lon="13.17309833">
        <ele>657.919</ele>
        <time>1970-01-01T01:00:00Z</time>
      </trkpt>
      <trkpt lat="63.384147" lon="13.17311783">
        <ele>657.919</ele>
        <time>1970-01-01T01:00:00Z</time>
      </trkpt>
      <trkpt lat="63.38414267" lon="13.17313417">
        <ele>658.071</ele>
        <time>1970-01-01T01:00:00Z</time>
      </trkpt>
      <trkpt lat="63.3841425" lon="13.173139">
        <ele>658.071</ele>
        <time>1970-01-01T01:00:00Z</time>
      </trkpt>
      <trkpt lat="63.38413917" lon="13.173142">
        <ele>658.224</ele>
        <time>1970-01-01T01:00:00Z</time>
      </trkpt>
      <trkpt lat="63.38413783" lon="13.17314133">
        <ele>658.224</ele>
        <time>1970-01-01T01:00:00Z</time>
      </trkpt>
      <trkpt lat="63.38413767" lon="13.173141">
        <ele>658.224</ele>
        <time>1970-01-01T01:00:00Z</time>
      </trkpt>
      <trkpt lat="63.38413933" lon="13.17314517">
        <ele>658.224</ele>
        <time>1970-01-01T01:00:00Z</time>
      </trkpt>
      <trkpt lat="63.38413967" lon="13.17315417">
        <ele>658.376</ele>
        <time>1970-01-01T01:00:00Z</time>
      </trkpt>
      <trkpt lat="63.38413733" lon="13.173167">
        <ele>658.376</ele>
        <time>1970-01-01T01:00:00Z</time>
      </trkpt>
      <trkpt lat="63.384134" lon="13.173179">
        <ele>658.528</ele>
        <time>1970-01-01T01:00:00Z</time>
      </trkpt>
      <trkpt lat="63.38413117" lon="13.17318883">
        <ele>658.528</ele>
        <time>1970-01-01T01:00:00Z</time>
      </trkpt>
      <trkpt lat="63.3841275" lon="13.17319867">
        <ele>658.528</ele>
        <time>1970-01-01T01:00:00Z</time>
      </trkpt>
      <trkpt lat="63.38412283" lon="13.17320917">
        <ele>658.528</ele>
        <time>1970-01-01T01:00:00Z</time>
      </trkpt>
      <trkpt lat="63.38411833" lon="13.17321967">
        <ele>658.681</ele>
        <time>1970-01-01T01:00:00Z</time>
      </trkpt>
      <trkpt lat="63.384113" lon="13.173233">
        <ele>658.681</ele>
        <time>1970-01-01T01:00:00Z</time>
      </trkpt>
      <trkpt lat="63.38410817" lon="13.17324867">
        <ele>658.833</ele>
        <time>1970-01-01T01:00:00Z</time>
      </trkpt>
      <trkpt lat="63.38410467" lon="13.1732655">
        <ele>658.833</ele>
        <time>1970-01-01T01:00:00Z</time>
      </trkpt>
      <trkpt lat="63.38410317" lon="13.17327967">
        <ele>658.986</ele>
        <time>1970-01-01T01:00:00Z</time>
      </trkpt>
      <trkpt lat="63.3841015" lon="13.17329183">
        <ele>658.986</ele>
        <time>1970-01-01T01:00:00Z</time>
      </trkpt>
      <trkpt lat="63.38409833" lon="13.17330533">
        <ele>659.138</ele>
        <time>1970-01-01T01:00:00Z</time>
      </trkpt>
      <trkpt lat="63.38409533" lon="13.17331917">
        <ele>659.138</ele>
        <time>1970-01-01T01:00:00Z</time>
      </trkpt>
      <trkpt lat="63.38409183" lon="13.17333583">
        <ele>659.29</ele>
        <time>1970-01-01T01:00:00Z</time>
      </trkpt>
      <trkpt lat="63.384089" lon="13.17334917">
        <ele>659.29</ele>
        <time>1970-01-01T01:00:00Z</time>
      </trkpt>
      <trkpt lat="63.38408633" lon="13.17336">
        <ele>659.443</ele>
        <time>1970-01-01T01:00:00Z</time>
      </trkpt>
      <trkpt lat="63.38408417" lon="13.17336633">
        <ele>659.443</ele>
        <time>1970-01-01T01:00:00Z</time>
      </trkpt>
      <trkpt lat="63.384081" lon="13.17337483">
        <ele>659.595</ele>
        <time>1970-01-01T01:00:00Z</time>
      </trkpt>
      <trkpt lat="63.3840775" lon="13.1733855">
        <ele>659.595</ele>
        <time>1970-01-01T01:00:00Z</time>
      </trkpt>
      <trkpt lat="63.3840755" lon="13.17339567">
        <ele>659.748</ele>
        <time>1970-01-01T01:00:00Z</time>
      </trkpt>
      <trkpt lat="63.38407433" lon="13.17340367">
        <ele>659.748</ele>
        <time>1970-01-01T01:00:00Z</time>
      </trkpt>
      <trkpt lat="63.3840735" lon="13.17341167">
        <ele>659.9</ele>
        <time>1970-01-01T01:00:00Z</time>
      </trkpt>
      <trkpt lat="63.38407067" lon="13.17342417">
        <ele>659.9</ele>
        <time>1970-01-01T01:00:00Z</time>
      </trkpt>
      <trkpt lat="63.38406583" lon="13.173438">
        <ele>660.052</ele>
        <time>1970-01-01T01:00:00Z</time>
      </trkpt>
      <trkpt lat="63.38406017" lon="13.17345117">
        <ele>660.052</ele>
        <time>1970-01-01T01:00:00Z</time>
      </trkpt>
      <trkpt lat="63.38405583" lon="13.1734615">
        <ele>660.205</ele>
        <time>1970-01-01T01:00:00Z</time>
      </trkpt>
      <trkpt lat="63.384053" lon="13.17347033">
        <ele>660.205</ele>
        <time>1970-01-01T01:00:00Z</time>
      </trkpt>
      <trkpt lat="63.384051" lon="13.17348383">
        <ele>660.205</ele>
        <time>1970-01-01T01:00:00Z</time>
      </trkpt>
      <trkpt lat="63.38404617" lon="13.17350267">
        <ele>660.205</ele>
        <time>1970-01-01T01:00:00Z</time>
      </trkpt>
      <trkpt lat="63.38404267" lon="13.1735235">
        <ele>660.357</ele>
        <time>1970-01-01T01:00:00Z</time>
      </trkpt>
      <trkpt lat="63.38403933" lon="13.17353983">
        <ele>660.357</ele>
        <time>1970-01-01T01:00:00Z</time>
      </trkpt>
      <trkpt lat="63.3840385" lon="13.17355267">
        <ele>660.51</ele>
        <time>1970-01-01T01:00:00Z</time>
      </trkpt>
      <trkpt lat="63.38403567" lon="13.173564">
        <ele>660.51</ele>
        <time>1970-01-01T01:00:00Z</time>
      </trkpt>
      <trkpt lat="63.384032" lon="13.1735765">
        <ele>660.662</ele>
        <time>1970-01-01T01:00:00Z</time>
      </trkpt>
      <trkpt lat="63.38402767" lon="13.17359117">
        <ele>660.662</ele>
        <time>1970-01-01T01:00:00Z</time>
      </trkpt>
      <trkpt lat="63.384024" lon="13.1736105">
        <ele>660.814</ele>
        <time>1970-01-01T01:00:00Z</time>
      </trkpt>
      <trkpt lat="63.3840205" lon="13.17363167">
        <ele>660.814</ele>
        <time>1970-01-01T01:00:00Z</time>
      </trkpt>
      <trkpt lat="63.384018" lon="13.17365033">
        <ele>660.967</ele>
        <time>1970-01-01T01:00:00Z</time>
      </trkpt>
      <trkpt lat="63.384017" lon="13.17366667">
        <ele>660.967</ele>
        <time>1970-01-01T01:00:00Z</time>
      </trkpt>
      <trkpt lat="63.38401683" lon="13.17368183">
        <ele>661.119</ele>
        <time>1970-01-01T01:00:00Z</time>
      </trkpt>
      <trkpt lat="63.384017" lon="13.17370017">
        <ele>661.119</ele>
        <time>1970-01-01T01:00:00Z</time>
      </trkpt>
      <trkpt lat="63.384015" lon="13.17371883">
        <ele>661.272</ele>
        <time>1970-01-01T01:00:00Z</time>
      </trkpt>
      <trkpt lat="63.384012" lon="13.17373867">
        <ele>661.272</ele>
        <time>1970-01-01T01:00:00Z</time>
      </trkpt>
      <trkpt lat="63.38400883" lon="13.17375517">
        <ele>661.424</ele>
        <time>1970-01-01T01:00:00Z</time>
      </trkpt>
      <trkpt lat="63.384006" lon="13.173769">
        <ele>661.424</ele>
        <time>1970-01-01T01:00:00Z</time>
      </trkpt>
      <trkpt lat="63.384003" lon="13.17378183">
        <ele>661.576</ele>
        <time>1970-01-01T01:00:00Z</time>
      </trkpt>
      <trkpt lat="63.38399917" lon="13.17379717">
        <ele>661.576</ele>
        <time>1970-01-01T01:00:00Z</time>
      </trkpt>
      <trkpt lat="63.383995" lon="13.17381467">
        <ele>661.576</ele>
        <time>1970-01-01T01:00:00Z</time>
      </trkpt>
      <trkpt lat="63.38399167" lon="13.17383217">
        <ele>661.576</ele>
        <time>1970-01-01T01:00:00Z</time>
      </trkpt>
      <trkpt lat="63.38398883" lon="13.173848">
        <ele>661.729</ele>
        <time>1970-01-01T01:00:00Z</time>
      </trkpt>
      <trkpt lat="63.3839875" lon="13.17386283">
        <ele>661.729</ele>
        <time>1970-01-01T01:00:00Z</time>
      </trkpt>
      <trkpt lat="63.38398483" lon="13.17387633">
        <ele>661.881</ele>
        <time>1970-01-01T01:00:00Z</time>
      </trkpt>
      <trkpt lat="63.38398217" lon="13.1738905">
        <ele>661.881</ele>
        <time>1970-01-01T01:00:00Z</time>
      </trkpt>
      <trkpt lat="63.3839785" lon="13.17390533">
        <ele>662.034</ele>
        <time>1970-01-01T01:00:00Z</time>
      </trkpt>
      <trkpt lat="63.38397567" lon="13.173922">
        <ele>662.034</ele>
        <time>1970-01-01T01:00:00Z</time>
      </trkpt>
      <trkpt lat="63.38397267" lon="13.17393967">
        <ele>662.186</ele>
        <time>1970-01-01T01:00:00Z</time>
      </trkpt>
      <trkpt lat="63.3839705" lon="13.17395667">
        <ele>662.186</ele>
        <time>1970-01-01T01:00:00Z</time>
      </trkpt>
      <trkpt lat="63.38396917" lon="13.1739725">
        <ele>662.338</ele>
        <time>1970-01-01T01:00:00Z</time>
      </trkpt>
      <trkpt lat="63.38396733" lon="13.1739865">
        <ele>662.338</ele>
        <time>1970-01-01T01:00:00Z</time>
      </trkpt>
      <trkpt lat="63.38396533" lon="13.17400233">
        <ele>662.491</ele>
        <time>1970-01-01T01:00:00Z</time>
      </trkpt>
      <trkpt lat="63.38396283" lon="13.17401867">
        <ele>662.491</ele>
        <time>1970-01-01T01:00:00Z</time>
      </trkpt>
      <trkpt lat="63.383961" lon="13.17403517">
        <ele>662.643</ele>
        <time>1970-01-01T01:00:00Z</time>
      </trkpt>
      <trkpt lat="63.38395967" lon="13.17404933">
        <ele>662.643</ele>
        <time>1970-01-01T01:00:00Z</time>
      </trkpt>
      <trkpt lat="63.38395833" lon="13.174064">
        <ele>662.948</ele>
        <time>1970-01-01T01:00:00Z</time>
      </trkpt>
      <trkpt lat="63.38395783" lon="13.17407767">
        <ele>662.948</ele>
        <time>1970-01-01T01:00:00Z</time>
      </trkpt>
      <trkpt lat="63.38395733" lon="13.17409217">
        <ele>663.1</ele>
        <time>1970-01-01T01:00:00Z</time>
      </trkpt>
      <trkpt lat="63.3839575" lon="13.17410733">
        <ele>663.1</ele>
        <time>1970-01-01T01:00:00Z</time>
      </trkpt>
      <trkpt lat="63.38395617" lon="13.17412467">
        <ele>663.253</ele>
        <time>1970-01-01T01:00:00Z</time>
      </trkpt>
      <trkpt lat="63.3839545" lon="13.1741425">
        <ele>663.253</ele>
        <time>1970-01-01T01:00:00Z</time>
      </trkpt>
      <trkpt lat="63.38395367" lon="13.17416033">
        <ele>663.558</ele>
        <time>1970-01-01T01:00:00Z</time>
      </trkpt>
      <trkpt lat="63.38395333" lon="13.17417767">
        <ele>663.558</ele>
        <time>1970-01-01T01:00:00Z</time>
      </trkpt>
      <trkpt lat="63.38395217" lon="13.17419417">
        <ele>663.71</ele>
        <time>1970-01-01T01:00:00Z</time>
      </trkpt>
      <trkpt lat="63.38395033" lon="13.1742105">
        <ele>663.71</ele>
        <time>1970-01-01T01:00:00Z</time>
      </trkpt>
      <trkpt lat="63.38394967" lon="13.174229">
        <ele>664.015</ele>
        <time>1970-01-01T01:00:00Z</time>
      </trkpt>
      <trkpt lat="63.38394917" lon="13.17424983">
        <ele>664.015</ele>
        <time>1970-01-01T01:00:00Z</time>
      </trkpt>
      <trkpt lat="63.38394783" lon="13.17427133">
        <ele>664.167</ele>
        <time>1970-01-01T01:00:00Z</time>
      </trkpt>
      <trkpt lat="63.38394617" lon="13.17429117">
        <ele>664.167</ele>
        <time>1970-01-01T01:00:00Z</time>
      </trkpt>
      <trkpt lat="63.3839455" lon="13.17430933">
        <ele>664.472</ele>
        <time>1970-01-01T01:00:00Z</time>
      </trkpt>
      <trkpt lat="63.38394383" lon="13.17432833">
        <ele>664.472</ele>
        <time>1970-01-01T01:00:00Z</time>
      </trkpt>
      <trkpt lat="63.38394183" lon="13.17434683">
        <ele>664.624</ele>
        <time>1970-01-01T01:00:00Z</time>
      </trkpt>
      <trkpt lat="63.383939" lon="13.17436783">
        <ele>664.624</ele>
        <time>1970-01-01T01:00:00Z</time>
      </trkpt>
      <trkpt lat="63.38393717" lon="13.17438933">
        <ele>664.929</ele>
        <time>1970-01-01T01:00:00Z</time>
      </trkpt>
      <trkpt lat="63.38393683" lon="13.174414">
        <ele>664.929</ele>
        <time>1970-01-01T01:00:00Z</time>
      </trkpt>
      <trkpt lat="63.38393633" lon="13.17443633">
        <ele>665.082</ele>
        <time>1970-01-01T01:00:00Z</time>
      </trkpt>
      <trkpt lat="63.3839355" lon="13.17445717">
        <ele>665.082</ele>
        <time>1970-01-01T01:00:00Z</time>
      </trkpt>
      <trkpt lat="63.3839325" lon="13.17447433">
        <ele>665.386</ele>
        <time>1970-01-01T01:00:00Z</time>
      </trkpt>
      <trkpt lat="63.38393017" lon="13.17449233">
        <ele>665.386</ele>
        <time>1970-01-01T01:00:00Z</time>
      </trkpt>
      <trkpt lat="63.3839285" lon="13.1745105">
        <ele>665.539</ele>
        <time>1970-01-01T01:00:00Z</time>
      </trkpt>
      <trkpt lat="63.38392783" lon="13.174531">
        <ele>665.539</ele>
        <time>1970-01-01T01:00:00Z</time>
      </trkpt>
      <trkpt lat="63.38392783" lon="13.17455117">
        <ele>665.844</ele>
        <time>1970-01-01T01:00:00Z</time>
      </trkpt>
      <trkpt lat="63.383927" lon="13.17456967">
        <ele>665.844</ele>
        <time>1970-01-01T01:00:00Z</time>
      </trkpt>
      <trkpt lat="63.38392683" lon="13.17458467">
        <ele>666.148</ele>
        <time>1970-01-01T01:00:00Z</time>
      </trkpt>
      <trkpt lat="63.38392633" lon="13.1745995">
        <ele>666.148</ele>
        <time>1970-01-01T01:00:00Z</time>
      </trkpt>
      <trkpt lat="63.38392767" lon="13.174615">
        <ele>666.301</ele>
        <time>1970-01-01T01:00:00Z</time>
      </trkpt>
      <trkpt lat="63.3839285" lon="13.17463167">
        <ele>666.301</ele>
        <time>1970-01-01T01:00:00Z</time>
      </trkpt>
      <trkpt lat="63.38392933" lon="13.17465167">
        <ele>666.606</ele>
        <time>1970-01-01T01:00:00Z</time>
      </trkpt>
      <trkpt lat="63.383927" lon="13.17467383">
        <ele>666.606</ele>
        <time>1970-01-01T01:00:00Z</time>
      </trkpt>
      <trkpt lat="63.38392433" lon="13.1746965">
        <ele>666.91</ele>
        <time>1970-01-01T01:00:00Z</time>
      </trkpt>
      <trkpt lat="63.38392167" lon="13.174715">
        <ele>666.91</ele>
        <time>1970-01-01T01:00:00Z</time>
      </trkpt>
      <trkpt lat="63.38392083" lon="13.17472767">
        <ele>667.215</ele>
        <time>1970-01-01T01:00:00Z</time>
      </trkpt>
      <trkpt lat="63.38392083" lon="13.17473483">
        <ele>667.215</ele>
        <time>1970-01-01T01:00:00Z</time>
      </trkpt>
      <trkpt lat="63.383923" lon="13.17474367">
        <ele>667.368</ele>
        <time>1970-01-01T01:00:00Z</time>
      </trkpt>
      <trkpt lat="63.38392633" lon="13.1747585">
        <ele>667.368</ele>
        <time>1970-01-01T01:00:00Z</time>
      </trkpt>
      <trkpt lat="63.3839295" lon="13.17477983">
        <ele>667.672</ele>
        <time>1970-01-01T01:00:00Z</time>
      </trkpt>
      <trkpt lat="63.383929" lon="13.17480217">
        <ele>667.672</ele>
        <time>1970-01-01T01:00:00Z</time>
      </trkpt>
      <trkpt lat="63.38392617" lon="13.17482267">
        <ele>667.977</ele>
        <time>1970-01-01T01:00:00Z</time>
      </trkpt>
      <trkpt lat="63.38392283" lon="13.17483967">
        <ele>667.977</ele>
        <time>1970-01-01T01:00:00Z</time>
      </trkpt>
      <trkpt lat="63.38392" lon="13.174854">
        <ele>668.282</ele>
        <time>1970-01-01T01:00:00Z</time>
      </trkpt>
      <trkpt lat="63.38391933" lon="13.1748695">
        <ele>668.282</ele>
        <time>1970-01-01T01:00:00Z</time>
      </trkpt>
      <trkpt lat="63.38391783" lon="13.1748885">
        <ele>668.587</ele>
        <time>1970-01-01T01:00:00Z</time>
      </trkpt>
      <trkpt lat="63.38391767" lon="13.1749105">
        <ele>668.587</ele>
        <time>1970-01-01T01:00:00Z</time>
      </trkpt>
      <trkpt lat="63.38391717" lon="13.17493117">
        <ele>668.892</ele>
        <time>1970-01-01T01:00:00Z</time>
      </trkpt>
      <trkpt lat="63.38391783" lon="13.1749495">
        <ele>668.892</ele>
        <time>1970-01-01T01:00:00Z</time>
      </trkpt>
      <trkpt lat="63.38391867" lon="13.17496567">
        <ele>669.197</ele>
        <time>1970-01-01T01:00:00Z</time>
      </trkpt>
      <trkpt lat="63.38391667" lon="13.17498067">
        <ele>669.197</ele>
        <time>1970-01-01T01:00:00Z</time>
      </trkpt>
      <trkpt lat="63.38391383" lon="13.17499667">
        <ele>669.501</ele>
        <time>1970-01-01T01:00:00Z</time>
      </trkpt>
      <trkpt lat="63.38391" lon="13.17501367">
        <ele>669.501</ele>
        <time>1970-01-01T01:00:00Z</time>
      </trkpt>
      <trkpt lat="63.3839085" lon="13.17502983">
        <ele>669.806</ele>
        <time>1970-01-01T01:00:00Z</time>
      </trkpt>
      <trkpt lat="63.38390783" lon="13.17504533">
        <ele>669.806</ele>
        <time>1970-01-01T01:00:00Z</time>
      </trkpt>
      <trkpt lat="63.38390867" lon="13.17505867">
        <ele>670.111</ele>
        <time>1970-01-01T01:00:00Z</time>
      </trkpt>
      <trkpt lat="63.38391033" lon="13.1750755">
        <ele>670.111</ele>
        <time>1970-01-01T01:00:00Z</time>
      </trkpt>
      <trkpt lat="63.38391217" lon="13.17509517">
        <ele>670.263</ele>
        <time>1970-01-01T01:00:00Z</time>
      </trkpt>
      <trkpt lat="63.3839125" lon="13.17511817">
        <ele>670.263</ele>
        <time>1970-01-01T01:00:00Z</time>
      </trkpt>
      <trkpt lat="63.3839125" lon="13.17514083">
        <ele>670.568</ele>
        <time>1970-01-01T01:00:00Z</time>
      </trkpt>
      <trkpt lat="63.38391133" lon="13.1751645">
        <ele>670.568</ele>
        <time>1970-01-01T01:00:00Z</time>
      </trkpt>
      <trkpt lat="63.3839105" lon="13.17518467">
        <ele>670.873</ele>
        <time>1970-01-01T01:00:00Z</time>
      </trkpt>
      <trkpt lat="63.38390983" lon="13.17520283">
        <ele>670.873</ele>
        <time>1970-01-01T01:00:00Z</time>
      </trkpt>
      <trkpt lat="63.383911" lon="13.17522">
        <ele>671.025</ele>
        <time>1970-01-01T01:00:00Z</time>
      </trkpt>
      <trkpt lat="63.38391167" lon="13.175238">
        <ele>671.025</ele>
        <time>1970-01-01T01:00:00Z</time>
      </trkpt>
      <trkpt lat="63.38391267" lon="13.17525717">
        <ele>671.33</ele>
        <time>1970-01-01T01:00:00Z</time>
      </trkpt>
      <trkpt lat="63.38391367" lon="13.175276">
        <ele>671.33</ele>
        <time>1970-01-01T01:00:00Z</time>
      </trkpt>
      <trkpt lat="63.38391833" lon="13.17529583">
        <ele>671.483</ele>
        <time>1970-01-01T01:00:00Z</time>
      </trkpt>
      <trkpt lat="63.38392383" lon="13.175313">
        <ele>671.483</ele>
        <time>1970-01-01T01:00:00Z</time>
      </trkpt>
      <trkpt lat="63.38392983" lon="13.17532667">
        <ele>671.787</ele>
        <time>1970-01-01T01:00:00Z</time>
      </trkpt>
      <trkpt lat="63.383935" lon="13.17533817">
        <ele>671.787</ele>
        <time>1970-01-01T01:00:00Z</time>
      </trkpt>
      <trkpt lat="63.38394183" lon="13.17535067">
        <ele>672.092</ele>
        <time>1970-01-01T01:00:00Z</time>
      </trkpt>
      <trkpt lat="63.3839495" lon="13.17536467">
        <ele>672.092</ele>
        <time>1970-01-01T01:00:00Z</time>
      </trkpt>
      <trkpt lat="63.3839575" lon="13.17537767">
        <ele>672.245</ele>
        <time>1970-01-01T01:00:00Z</time>
      </trkpt>
      <trkpt lat="63.38396467" lon="13.17538867">
        <ele>672.245</ele>
        <time>1970-01-01T01:00:00Z</time>
      </trkpt>
      <trkpt lat="63.38397067" lon="13.17539867">
        <ele>672.549</ele>
        <time>1970-01-01T01:00:00Z</time>
      </trkpt>
      <trkpt lat="63.38397383" lon="13.17541217">
        <ele>672.549</ele>
        <time>1970-01-01T01:00:00Z</time>
      </trkpt>
      <trkpt lat="63.3839735" lon="13.1754245">
        <ele>672.854</ele>
        <time>1970-01-01T01:00:00Z</time>
      </trkpt>
      <trkpt lat="63.38397233" lon="13.1754285">
        <ele>672.854</ele>
        <time>1970-01-01T01:00:00Z</time>
      </trkpt>
      <trkpt lat="63.38397083" lon="13.17542517">
        <ele>673.159</ele>
        <time>1970-01-01T01:00:00Z</time>
      </trkpt>
      <trkpt lat="63.38397033" lon="13.1754195">
        <ele>673.159</ele>
        <time>1970-01-01T01:00:00Z</time>
      </trkpt>
      <trkpt lat="63.38396983" lon="13.17541933">
        <ele>673.311</ele>
        <time>1970-01-01T01:00:00Z</time>
      </trkpt>
      <trkpt lat="63.38396983" lon="13.17542">
        <ele>673.311</ele>
        <time>1970-01-01T01:00:00Z</time>
      </trkpt>
      <trkpt lat="63.38396933" lon="13.17542333">
        <ele>673.616</ele>
        <time>1970-01-01T01:00:00Z</time>
      </trkpt>
      <trkpt lat="63.38396867" lon="13.17542867">
        <ele>673.616</ele>
        <time>1970-01-01T01:00:00Z</time>
      </trkpt>
      <trkpt lat="63.383968" lon="13.1754365">
        <ele>673.769</ele>
        <time>1970-01-01T01:00:00Z</time>
      </trkpt>
      <trkpt lat="63.3839665" lon="13.17544867">
        <ele>673.769</ele>
        <time>1970-01-01T01:00:00Z</time>
      </trkpt>
      <trkpt lat="63.38396483" lon="13.17546567">
        <ele>674.073</ele>
        <time>1970-01-01T01:00:00Z</time>
      </trkpt>
      <trkpt lat="63.38396283" lon="13.1754865">
        <ele>674.073</ele>
        <time>1970-01-01T01:00:00Z</time>
      </trkpt>
      <trkpt lat="63.38396217" lon="13.17551483">
        <ele>674.226</ele>
        <time>1970-01-01T01:00:00Z</time>
      </trkpt>
      <trkpt lat="63.38396217" lon="13.1755475">
        <ele>674.226</ele>
        <time>1970-01-01T01:00:00Z</time>
      </trkpt>
      <trkpt lat="63.3839615" lon="13.17558867">
        <ele>674.531</ele>
        <time>1970-01-01T01:00:00Z</time>
      </trkpt>
      <trkpt lat="63.38396083" lon="13.17563133">
        <ele>674.531</ele>
        <time>1970-01-01T01:00:00Z</time>
      </trkpt>
      <trkpt lat="63.38395867" lon="13.175675">
        <ele>674.683</ele>
        <time>1970-01-01T01:00:00Z</time>
      </trkpt>
      <trkpt lat="63.38395633" lon="13.1757195">
        <ele>674.683</ele>
        <time>1970-01-01T01:00:00Z</time>
      </trkpt>
      <trkpt lat="63.38395133" lon="13.17576467">
        <ele>674.835</ele>
        <time>1970-01-01T01:00:00Z</time>
      </trkpt>
      <trkpt lat="63.38394717" lon="13.17581283">
        <ele>674.835</ele>
        <time>1970-01-01T01:00:00Z</time>
      </trkpt>
      <trkpt lat="63.38394433" lon="13.175863">
        <ele>674.988</ele>
        <time>1970-01-01T01:00:00Z</time>
      </trkpt>
      <trkpt lat="63.383944" lon="13.1759125">
        <ele>674.988</ele>
        <time>1970-01-01T01:00:00Z</time>
      </trkpt>
      <trkpt lat="63.38394317" lon="13.1759635">
        <ele>675.14</ele>
        <time>1970-01-01T01:00:00Z</time>
      </trkpt>
      <trkpt lat="63.38393933" lon="13.17601233">
        <ele>675.14</ele>
        <time>1970-01-01T01:00:00Z</time>
      </trkpt>
      <trkpt lat="63.38393267" lon="13.17606033">
        <ele>675.293</ele>
        <time>1970-01-01T01:00:00Z</time>
      </trkpt>
      <trkpt lat="63.38392733" lon="13.1761075">
        <ele>675.293</ele>
        <time>1970-01-01T01:00:00Z</time>
      </trkpt>
      <trkpt lat="63.38392567" lon="13.1761525">
        <ele>675.445</ele>
        <time>1970-01-01T01:00:00Z</time>
      </trkpt>
      <trkpt lat="63.383928" lon="13.17619867">
        <ele>675.445</ele>
        <time>1970-01-01T01:00:00Z</time>
      </trkpt>
      <trkpt lat="63.38392933" lon="13.17624483">
        <ele>675.597</ele>
        <time>1970-01-01T01:00:00Z</time>
      </trkpt>
      <trkpt lat="63.38393" lon="13.17629183">
        <ele>675.597</ele>
        <time>1970-01-01T01:00:00Z</time>
      </trkpt>
      <trkpt lat="63.38392867" lon="13.176342">
        <ele>675.75</ele>
        <time>1970-01-01T01:00:00Z</time>
      </trkpt>
      <trkpt lat="63.38392817" lon="13.17639067">
        <ele>675.75</ele>
        <time>1970-01-01T01:00:00Z</time>
      </trkpt>
      <trkpt lat="63.38392717" lon="13.17644117">
        <ele>675.75</ele>
        <time>1970-01-01T01:00:00Z</time>
      </trkpt>
      <trkpt lat="63.38392567" lon="13.17649017">
        <ele>675.75</ele>
        <time>1970-01-01T01:00:00Z</time>
      </trkpt>
      <trkpt lat="63.38392233" lon="13.1765395">
        <ele>675.902</ele>
        <time>1970-01-01T01:00:00Z</time>
      </trkpt>
      <trkpt lat="63.38391767" lon="13.17659033">
        <ele>675.902</ele>
        <time>1970-01-01T01:00:00Z</time>
      </trkpt>
      <trkpt lat="63.3839135" lon="13.1766395">
        <ele>675.902</ele>
        <time>1970-01-01T01:00:00Z</time>
      </trkpt>
      <trkpt lat="63.38390783" lon="13.176687">
        <ele>675.902</ele>
        <time>1970-01-01T01:00:00Z</time>
      </trkpt>
      <trkpt lat="63.38390217" lon="13.176736">
        <ele>676.055</ele>
        <time>1970-01-01T01:00:00Z</time>
      </trkpt>
      <trkpt lat="63.38389533" lon="13.17678367">
        <ele>676.055</ele>
        <time>1970-01-01T01:00:00Z</time>
      </trkpt>
      <trkpt lat="63.38388917" lon="13.17683417">
        <ele>676.055</ele>
        <time>1970-01-01T01:00:00Z</time>
      </trkpt>
      <trkpt lat="63.38388267" lon="13.17688383">
        <ele>676.055</ele>
        <time>1970-01-01T01:00:00Z</time>
      </trkpt>
      <trkpt lat="63.3838775" lon="13.17693617">
        <ele>676.207</ele>
        <time>1970-01-01T01:00:00Z</time>
      </trkpt>
      <trkpt lat="63.38387167" lon="13.17698967">
        <ele>676.207</ele>
        <time>1970-01-01T01:00:00Z</time>
      </trkpt>
      <trkpt lat="63.38386817" lon="13.17703367">
        <ele>676.359</ele>
        <time>1970-01-01T01:00:00Z</time>
      </trkpt>
      <trkpt lat="63.383866" lon="13.17707867">
        <ele>676.359</ele>
        <time>1970-01-01T01:00:00Z</time>
      </trkpt>
      <trkpt lat="63.3838655" lon="13.17712583">
        <ele>676.359</ele>
        <time>1970-01-01T01:00:00Z</time>
      </trkpt>
      <trkpt lat="63.383864" lon="13.17717833">
        <ele>676.359</ele>
        <time>1970-01-01T01:00:00Z</time>
      </trkpt>
      <trkpt lat="63.38386083" lon="13.177232">
        <ele>676.512</ele>
        <time>1970-01-01T01:00:00Z</time>
      </trkpt>
      <trkpt lat="63.38385867" lon="13.17728133">
        <ele>676.512</ele>
        <time>1970-01-01T01:00:00Z</time>
      </trkpt>
      <trkpt lat="63.383856" lon="13.17732933">
        <ele>676.817</ele>
        <time>1970-01-01T01:00:00Z</time>
      </trkpt>
      <trkpt lat="63.38385433" lon="13.1773765">
        <ele>676.817</ele>
        <time>1970-01-01T01:00:00Z</time>
      </trkpt>
      <trkpt lat="63.38385317" lon="13.17742117">
        <ele>676.969</ele>
        <time>1970-01-01T01:00:00Z</time>
      </trkpt>
      <trkpt lat="63.3838525" lon="13.17746883">
        <ele>676.969</ele>
        <time>1970-01-01T01:00:00Z</time>
      </trkpt>
      <trkpt lat="63.38385033" lon="13.17751233">
        <ele>677.121</ele>
        <time>1970-01-01T01:00:00Z</time>
      </trkpt>
      <trkpt lat="63.3838475" lon="13.1775565">
        <ele>677.121</ele>
        <time>1970-01-01T01:00:00Z</time>
      </trkpt>
      <trkpt lat="63.38384333" lon="13.177598">
        <ele>677.274</ele>
        <time>1970-01-01T01:00:00Z</time>
      </trkpt>
      <trkpt lat="63.38383533" lon="13.17763883">
        <ele>677.274</ele>
        <time>1970-01-01T01:00:00Z</time>
      </trkpt>
      <trkpt lat="63.38382533" lon="13.177679">
        <ele>677.426</ele>
        <time>1970-01-01T01:00:00Z</time>
      </trkpt>
      <trkpt lat="63.3838115" lon="13.17771567">
        <ele>677.426</ele>
        <time>1970-01-01T01:00:00Z</time>
      </trkpt>
      <trkpt lat="63.38379817" lon="13.17774833">
        <ele>677.731</ele>
        <time>1970-01-01T01:00:00Z</time>
      </trkpt>
      <trkpt lat="63.383783" lon="13.17777367">
        <ele>677.731</ele>
        <time>1970-01-01T01:00:00Z</time>
      </trkpt>
      <trkpt lat="63.38376967" lon="13.1777955">
        <ele>677.883</ele>
        <time>1970-01-01T01:00:00Z</time>
      </trkpt>
      <trkpt lat="63.38375767" lon="13.17781683">
        <ele>677.883</ele>
        <time>1970-01-01T01:00:00Z</time>
      </trkpt>
      <trkpt lat="63.38374983" lon="13.1778445">
        <ele>678.036</ele>
        <time>1970-01-01T01:00:00Z</time>
      </trkpt>
      <trkpt lat="63.38374333" lon="13.177878">
        <ele>678.036</ele>
        <time>1970-01-01T01:00:00Z</time>
      </trkpt>
      <trkpt lat="63.3837375" lon="13.177911">
        <ele>678.341</ele>
        <time>1970-01-01T01:00:00Z</time>
      </trkpt>
      <trkpt lat="63.383729" lon="13.17794133">
        <ele>678.341</ele>
        <time>1970-01-01T01:00:00Z</time>
      </trkpt>
      <trkpt lat="63.38372033" lon="13.1779705">
        <ele>678.645</ele>
        <time>1970-01-01T01:00:00Z</time>
      </trkpt>
      <trkpt lat="63.3837095" lon="13.1779995">
        <ele>678.645</ele>
        <time>1970-01-01T01:00:00Z</time>
      </trkpt>
      <trkpt lat="63.383694" lon="13.178026">
        <ele>678.95</ele>
        <time>1970-01-01T01:00:00Z</time>
      </trkpt>
      <trkpt lat="63.38367383" lon="13.178046">
        <ele>678.95</ele>
        <time>1970-01-01T01:00:00Z</time>
      </trkpt>
      <trkpt lat="63.38365417" lon="13.1780595">
        <ele>679.255</ele>
        <time>1970-01-01T01:00:00Z</time>
      </trkpt>
      <trkpt lat="63.383637" lon="13.17806733">
        <ele>679.255</ele>
        <time>1970-01-01T01:00:00Z</time>
      </trkpt>
      <trkpt lat="63.38362183" lon="13.17806517">
        <ele>679.56</ele>
        <time>1970-01-01T01:00:00Z</time>
      </trkpt>
      <trkpt lat="63.38360783" lon="13.17804733">
        <ele>679.56</ele>
        <time>1970-01-01T01:00:00Z</time>
      </trkpt>
      <trkpt lat="63.3835985" lon="13.17801133">
        <ele>680.017</ele>
        <time>1970-01-01T01:00:00Z</time>
      </trkpt>
      <trkpt lat="63.3835935" lon="13.177963">
        <ele>680.017</ele>
        <time>1970-01-01T01:00:00Z</time>
      </trkpt>
      <trkpt lat="63.38359017" lon="13.17791217">
        <ele>680.322</ele>
        <time>1970-01-01T01:00:00Z</time>
      </trkpt>
      <trkpt lat="63.38358783" lon="13.1778605">
        <ele>680.322</ele>
        <time>1970-01-01T01:00:00Z</time>
      </trkpt>
      <trkpt lat="63.38358667" lon="13.1778075">
        <ele>680.779</ele>
        <time>1970-01-01T01:00:00Z</time>
      </trkpt>
      <trkpt lat="63.3835875" lon="13.17775683">
        <ele>680.779</ele>
        <time>1970-01-01T01:00:00Z</time>
      </trkpt>
      <trkpt lat="63.38359083" lon="13.1777085">
        <ele>681.236</ele>
        <time>1970-01-01T01:00:00Z</time>
      </trkpt>
      <trkpt lat="63.3835945" lon="13.17766617">
        <ele>681.236</ele>
        <time>1970-01-01T01:00:00Z</time>
      </trkpt>
      <trkpt lat="63.38359683" lon="13.177625">
        <ele>681.541</ele>
        <time>1970-01-01T01:00:00Z</time>
      </trkpt>
      <trkpt lat="63.38359783" lon="13.17758017">
        <ele>681.541</ele>
        <time>1970-01-01T01:00:00Z</time>
      </trkpt>
      <trkpt lat="63.38359567" lon="13.1775345">
        <ele>681.998</ele>
        <time>1970-01-01T01:00:00Z</time>
      </trkpt>
      <trkpt lat="63.3835925" lon="13.17748083">
        <ele>681.998</ele>
        <time>1970-01-01T01:00:00Z</time>
      </trkpt>
      <trkpt lat="63.3835855" lon="13.177427">
        <ele>682.456</ele>
        <time>1970-01-01T01:00:00Z</time>
      </trkpt>
      <trkpt lat="63.38357783" lon="13.17737233">
        <ele>682.456</ele>
        <time>1970-01-01T01:00:00Z</time>
      </trkpt>
      <trkpt lat="63.3835705" lon="13.17732283">
        <ele>682.913</ele>
        <time>1970-01-01T01:00:00Z</time>
      </trkpt>
      <trkpt lat="63.38356133" lon="13.17727817">
        <ele>682.913</ele>
        <time>1970-01-01T01:00:00Z</time>
      </trkpt>
      <trkpt lat="63.38355133" lon="13.1772325">
        <ele>683.37</ele>
        <time>1970-01-01T01:00:00Z</time>
      </trkpt>
      <trkpt lat="63.38353783" lon="13.17719067">
        <ele>683.37</ele>
        <time>1970-01-01T01:00:00Z</time>
      </trkpt>
      <trkpt lat="63.3835245" lon="13.17715367">
        <ele>683.827</ele>
        <time>1970-01-01T01:00:00Z</time>
      </trkpt>
      <trkpt lat="63.38350683" lon="13.17711567">
        <ele>683.827</ele>
        <time>1970-01-01T01:00:00Z</time>
      </trkpt>
      <trkpt lat="63.38349017" lon="13.17708133">
        <ele>684.132</ele>
        <time>1970-01-01T01:00:00Z</time>
      </trkpt>
      <trkpt lat="63.38347417" lon="13.1770485">
        <ele>684.132</ele>
        <time>1970-01-01T01:00:00Z</time>
      </trkpt>
      <trkpt lat="63.38346033" lon="13.177021">
        <ele>684.589</ele>
        <time>1970-01-01T01:00:00Z</time>
      </trkpt>
      <trkpt lat="63.38344567" lon="13.17699167">
        <ele>684.589</ele>
        <time>1970-01-01T01:00:00Z</time>
      </trkpt>
      <trkpt lat="63.3834295" lon="13.17695867">
        <ele>684.894</ele>
        <time>1970-01-01T01:00:00Z</time>
      </trkpt>
      <trkpt lat="63.38341283" lon="13.17692267">
        <ele>684.894</ele>
        <time>1970-01-01T01:00:00Z</time>
      </trkpt>
      <trkpt lat="63.38339667" lon="13.1768835">
        <ele>685.199</ele>
        <time>1970-01-01T01:00:00Z</time>
      </trkpt>
      <trkpt lat="63.38338017" lon="13.1768435">
        <ele>685.199</ele>
        <time>1970-01-01T01:00:00Z</time>
      </trkpt>
      <trkpt lat="63.383362" lon="13.17680667">
        <ele>685.504</ele>
        <time>1970-01-01T01:00:00Z</time>
      </trkpt>
      <trkpt lat="63.383343" lon="13.17677167">
        <ele>685.504</ele>
        <time>1970-01-01T01:00:00Z</time>
      </trkpt>
      <trkpt lat="63.3833245" lon="13.176736">
        <ele>685.808</ele>
        <time>1970-01-01T01:00:00Z</time>
      </trkpt>
      <trkpt lat="63.38330817" lon="13.17669883">
        <ele>685.808</ele>
        <time>1970-01-01T01:00:00Z</time>
      </trkpt>
      <trkpt lat="63.38329217" lon="13.17666">
        <ele>686.113</ele>
        <time>1970-01-01T01:00:00Z</time>
      </trkpt>
      <trkpt lat="63.38327583" lon="13.17661983">
        <ele>686.113</ele>
        <time>1970-01-01T01:00:00Z</time>
      </trkpt>
      <trkpt lat="63.38326083" lon="13.176581">
        <ele>686.418</ele>
        <time>1970-01-01T01:00:00Z</time>
      </trkpt>
      <trkpt lat="63.38324633" lon="13.176543">
        <ele>686.418</ele>
        <time>1970-01-01T01:00:00Z</time>
      </trkpt>
      <trkpt lat="63.38323" lon="13.17650817">
        <ele>686.723</ele>
        <time>1970-01-01T01:00:00Z</time>
      </trkpt>
      <trkpt lat="63.38321267" lon="13.176477">
        <ele>686.723</ele>
        <time>1970-01-01T01:00:00Z</time>
      </trkpt>
      <trkpt lat="63.38319367" lon="13.17644067">
        <ele>687.028</ele>
        <time>1970-01-01T01:00:00Z</time>
      </trkpt>
      <trkpt lat="63.3831775" lon="13.17640567">
        <ele>687.028</ele>
        <time>1970-01-01T01:00:00Z</time>
      </trkpt>
      <trkpt lat="63.383162" lon="13.17636917">
        <ele>687.332</ele>
        <time>1970-01-01T01:00:00Z</time>
      </trkpt>
      <trkpt lat="63.38314717" lon="13.17633667">
        <ele>687.332</ele>
        <time>1970-01-01T01:00:00Z</time>
      </trkpt>
      <trkpt lat="63.38313217" lon="13.176306">
        <ele>687.637</ele>
        <time>1970-01-01T01:00:00Z</time>
      </trkpt>
      <trkpt lat="63.383116" lon="13.17627467">
        <ele>687.637</ele>
        <time>1970-01-01T01:00:00Z</time>
      </trkpt>
      <trkpt lat="63.38309883" lon="13.17624683">
        <ele>687.79</ele>
        <time>1970-01-01T01:00:00Z</time>
      </trkpt>
      <trkpt lat="63.3830805" lon="13.1762215">
        <ele>687.79</ele>
        <time>1970-01-01T01:00:00Z</time>
      </trkpt>
      <trkpt lat="63.38306033" lon="13.17619883">
        <ele>688.094</ele>
        <time>1970-01-01T01:00:00Z</time>
      </trkpt>
      <trkpt lat="63.38304067" lon="13.1761765">
        <ele>688.094</ele>
        <time>1970-01-01T01:00:00Z</time>
      </trkpt>
      <trkpt lat="63.38302133" lon="13.17615567">
        <ele>688.399</ele>
        <time>1970-01-01T01:00:00Z</time>
      </trkpt>
      <trkpt lat="63.3830015" lon="13.17613383">
        <ele>688.399</ele>
        <time>1970-01-01T01:00:00Z</time>
      </trkpt>
      <trkpt lat="63.382981" lon="13.17611483">
        <ele>688.704</ele>
        <time>1970-01-01T01:00:00Z</time>
      </trkpt>
      <trkpt lat="63.38295967" lon="13.17609317">
        <ele>688.704</ele>
        <time>1970-01-01T01:00:00Z</time>
      </trkpt>
      <trkpt lat="63.3829385" lon="13.17607417">
        <ele>689.009</ele>
        <time>1970-01-01T01:00:00Z</time>
      </trkpt>
      <trkpt lat="63.382916" lon="13.17605583">
        <ele>689.009</ele>
        <time>1970-01-01T01:00:00Z</time>
      </trkpt>
      <trkpt lat="63.38289417" lon="13.17603967">
        <ele>689.161</ele>
        <time>1970-01-01T01:00:00Z</time>
      </trkpt>
      <trkpt lat="63.38287233" lon="13.1760185">
        <ele>689.161</ele>
        <time>1970-01-01T01:00:00Z</time>
      </trkpt>
      <trkpt lat="63.38285233" lon="13.17599333">
        <ele>689.466</ele>
        <time>1970-01-01T01:00:00Z</time>
      </trkpt>
      <trkpt lat="63.38283233" lon="13.17596467">
        <ele>689.466</ele>
        <time>1970-01-01T01:00:00Z</time>
      </trkpt>
      <trkpt lat="63.38281417" lon="13.175933">
        <ele>689.618</ele>
        <time>1970-01-01T01:00:00Z</time>
      </trkpt>
      <trkpt lat="63.38279583" lon="13.17590183">
        <ele>689.618</ele>
        <time>1970-01-01T01:00:00Z</time>
      </trkpt>
      <trkpt lat="63.382778" lon="13.175869">
        <ele>689.923</ele>
        <time>1970-01-01T01:00:00Z</time>
      </trkpt>
      <trkpt lat="63.38275883" lon="13.17583683">
        <ele>689.923</ele>
        <time>1970-01-01T01:00:00Z</time>
      </trkpt>
      <trkpt lat="63.38274117" lon="13.17580067">
        <ele>690.076</ele>
        <time>1970-01-01T01:00:00Z</time>
      </trkpt>
      <trkpt lat="63.382723" lon="13.17576617">
        <ele>690.076</ele>
        <time>1970-01-01T01:00:00Z</time>
      </trkpt>
      <trkpt lat="63.38270533" lon="13.17573183">
        <ele>690.228</ele>
        <time>1970-01-01T01:00:00Z</time>
      </trkpt>
      <trkpt lat="63.3826865" lon="13.17570067">
        <ele>690.228</ele>
        <time>1970-01-01T01:00:00Z</time>
      </trkpt>
      <trkpt lat="63.38266767" lon="13.17566883">
        <ele>690.533</ele>
        <time>1970-01-01T01:00:00Z</time>
      </trkpt>
      <trkpt lat="63.38264817" lon="13.17563583">
        <ele>690.533</ele>
        <time>1970-01-01T01:00:00Z</time>
      </trkpt>
      <trkpt lat="63.38262933" lon="13.17559983">
        <ele>690.685</ele>
        <time>1970-01-01T01:00:00Z</time>
      </trkpt>
      <trkpt lat="63.38260967" lon="13.1755645">
        <ele>690.685</ele>
        <time>1970-01-01T01:00:00Z</time>
      </trkpt>
      <trkpt lat="63.38259167" lon="13.1755325">
        <ele>690.685</ele>
        <time>1970-01-01T01:00:00Z</time>
      </trkpt>
      <trkpt lat="63.38257267" lon="13.17550283">
        <ele>690.685</ele>
        <time>1970-01-01T01:00:00Z</time>
      </trkpt>
      <trkpt lat="63.38255467" lon="13.17547317">
        <ele>690.838</ele>
        <time>1970-01-01T01:00:00Z</time>
      </trkpt>
      <trkpt lat="63.3825355" lon="13.17544433">
        <ele>690.838</ele>
        <time>1970-01-01T01:00:00Z</time>
      </trkpt>
      <trkpt lat="63.382516" lon="13.1754145">
        <ele>690.838</ele>
        <time>1970-01-01T01:00:00Z</time>
      </trkpt>
      <trkpt lat="63.38249733" lon="13.17538567">
        <ele>690.838</ele>
        <time>1970-01-01T01:00:00Z</time>
      </trkpt>
      <trkpt lat="63.3824775" lon="13.17535733">
        <ele>690.838</ele>
        <time>1970-01-01T01:00:00Z</time>
      </trkpt>
      <trkpt lat="63.38245783" lon="13.17533083">
        <ele>690.838</ele>
        <time>1970-01-01T01:00:00Z</time>
      </trkpt>
      <trkpt lat="63.38243633" lon="13.17530533">
        <ele>690.838</ele>
        <time>1970-01-01T01:00:00Z</time>
      </trkpt>
      <trkpt lat="63.38241733" lon="13.17527983">
        <ele>690.838</ele>
        <time>1970-01-01T01:00:00Z</time>
      </trkpt>
      <trkpt lat="63.3823985" lon="13.1752565">
        <ele>690.838</ele>
        <time>1970-01-01T01:00:00Z</time>
      </trkpt>
      <trkpt lat="63.38237967" lon="13.17523317">
        <ele>690.838</ele>
        <time>1970-01-01T01:00:00Z</time>
      </trkpt>
      <trkpt lat="63.38236033" lon="13.17521033">
        <ele>690.838</ele>
        <time>1970-01-01T01:00:00Z</time>
      </trkpt>
      <trkpt lat="63.38234083" lon="13.17518633">
        <ele>690.838</ele>
        <time>1970-01-01T01:00:00Z</time>
      </trkpt>
      <trkpt lat="63.38232117" lon="13.17516167">
        <ele>690.838</ele>
        <time>1970-01-01T01:00:00Z</time>
      </trkpt>
      <trkpt lat="63.38230017" lon="13.17513933">
        <ele>690.838</ele>
        <time>1970-01-01T01:00:00Z</time>
      </trkpt>
      <trkpt lat="63.382279" lon="13.175116">
        <ele>690.685</ele>
        <time>1970-01-01T01:00:00Z</time>
      </trkpt>
      <trkpt lat="63.3822585" lon="13.17509017">
        <ele>690.685</ele>
        <time>1970-01-01T01:00:00Z</time>
      </trkpt>
      <trkpt lat="63.38224067" lon="13.17506067">
        <ele>690.533</ele>
        <time>1970-01-01T01:00:00Z</time>
      </trkpt>
      <trkpt lat="63.38222267" lon="13.1750285">
        <ele>690.533</ele>
        <time>1970-01-01T01:00:00Z</time>
      </trkpt>
      <trkpt lat="63.38220567" lon="13.17499783">
        <ele>690.38</ele>
        <time>1970-01-01T01:00:00Z</time>
      </trkpt>
      <trkpt lat="63.38218883" lon="13.17496683">
        <ele>690.38</ele>
        <time>1970-01-01T01:00:00Z</time>
      </trkpt>
      <trkpt lat="63.38217417" lon="13.17493417">
        <ele>690.228</ele>
        <time>1970-01-01T01:00:00Z</time>
      </trkpt>
      <trkpt lat="63.38216117" lon="13.17489217">
        <ele>690.228</ele>
        <time>1970-01-01T01:00:00Z</time>
      </trkpt>
      <trkpt lat="63.3821485" lon="13.17484667">
        <ele>690.228</ele>
        <time>1970-01-01T01:00:00Z</time>
      </trkpt>
      <trkpt lat="63.38213783" lon="13.17479517">
        <ele>690.228</ele>
        <time>1970-01-01T01:00:00Z</time>
      </trkpt>
      <trkpt lat="63.38213017" lon="13.17473833">
        <ele>690.076</ele>
        <time>1970-01-01T01:00:00Z</time>
      </trkpt>
      <trkpt lat="63.38212617" lon="13.1746775">
        <ele>690.076</ele>
        <time>1970-01-01T01:00:00Z</time>
      </trkpt>
      <trkpt lat="63.382126" lon="13.17461683">
        <ele>689.923</ele>
        <time>1970-01-01T01:00:00Z</time>
      </trkpt>
      <trkpt lat="63.38213" lon="13.17455833">
        <ele>689.923</ele>
        <time>1970-01-01T01:00:00Z</time>
      </trkpt>
      <trkpt lat="63.38213733" lon="13.17450017">
        <ele>689.771</ele>
        <time>1970-01-01T01:00:00Z</time>
      </trkpt>
      <trkpt lat="63.38214867" lon="13.174444">
        <ele>689.771</ele>
        <time>1970-01-01T01:00:00Z</time>
      </trkpt>
      <trkpt lat="63.38216133" lon="13.17439333">
        <ele>689.466</ele>
        <time>1970-01-01T01:00:00Z</time>
      </trkpt>
      <trkpt lat="63.38217667" lon="13.17434683">
        <ele>689.466</ele>
        <time>1970-01-01T01:00:00Z</time>
      </trkpt>
      <trkpt lat="63.382192" lon="13.17430817">
        <ele>689.314</ele>
        <time>1970-01-01T01:00:00Z</time>
      </trkpt>
      <trkpt lat="63.38221017" lon="13.174275">
        <ele>689.314</ele>
        <time>1970-01-01T01:00:00Z</time>
      </trkpt>
      <trkpt lat="63.38222933" lon="13.17424433">
        <ele>689.161</ele>
        <time>1970-01-01T01:00:00Z</time>
      </trkpt>
      <trkpt lat="63.38225017" lon="13.17421633">
        <ele>689.161</ele>
        <time>1970-01-01T01:00:00Z</time>
      </trkpt>
      <trkpt lat="63.38227283" lon="13.1741905">
        <ele>689.009</ele>
        <time>1970-01-01T01:00:00Z</time>
      </trkpt>
      <trkpt lat="63.38229617" lon="13.17416983">
        <ele>689.009</ele>
        <time>1970-01-01T01:00:00Z</time>
      </trkpt>
      <trkpt lat="63.38231917" lon="13.17415333">
        <ele>688.856</ele>
        <time>1970-01-01T01:00:00Z</time>
      </trkpt>
      <trkpt lat="63.382339" lon="13.17414217">
        <ele>688.856</ele>
        <time>1970-01-01T01:00:00Z</time>
      </trkpt>
      <trkpt lat="63.38235833" lon="13.17413">
        <ele>688.552</ele>
        <time>1970-01-01T01:00:00Z</time>
      </trkpt>
      <trkpt lat="63.38237917" lon="13.174117">
        <ele>688.552</ele>
        <time>1970-01-01T01:00:00Z</time>
      </trkpt>
      <trkpt lat="63.38240317" lon="13.1741055">
        <ele>688.399</ele>
        <time>1970-01-01T01:00:00Z</time>
      </trkpt>
      <trkpt lat="63.38242917" lon="13.174099">
        <ele>688.399</ele>
        <time>1970-01-01T01:00:00Z</time>
      </trkpt>
      <trkpt lat="63.3824555" lon="13.17409567">
        <ele>688.094</ele>
        <time>1970-01-01T01:00:00Z</time>
      </trkpt>
      <trkpt lat="63.3824815" lon="13.17409333">
        <ele>688.094</ele>
        <time>1970-01-01T01:00:00Z</time>
      </trkpt>
      <trkpt lat="63.382507" lon="13.174092">
        <ele>687.942</ele>
        <time>1970-01-01T01:00:00Z</time>
      </trkpt>
      <trkpt lat="63.38253367" lon="13.17409517">
        <ele>687.942</ele>
        <time>1970-01-01T01:00:00Z</time>
      </trkpt>
      <trkpt lat="63.382559" lon="13.17409833">
        <ele>687.637</ele>
        <time>1970-01-01T01:00:00Z</time>
      </trkpt>
      <trkpt lat="63.38258567" lon="13.1741035">
        <ele>687.637</ele>
        <time>1970-01-01T01:00:00Z</time>
      </trkpt>
      <trkpt lat="63.38261067" lon="13.17410733">
        <ele>687.332</ele>
        <time>1970-01-01T01:00:00Z</time>
      </trkpt>
      <trkpt lat="63.3826365" lon="13.174114">
        <ele>687.332</ele>
        <time>1970-01-01T01:00:00Z</time>
      </trkpt>
      <trkpt lat="63.382661" lon="13.17412167">
        <ele>687.028</ele>
        <time>1970-01-01T01:00:00Z</time>
      </trkpt>
      <trkpt lat="63.38268517" lon="13.17412917">
        <ele>687.028</ele>
        <time>1970-01-01T01:00:00Z</time>
      </trkpt>
      <trkpt lat="63.38270767" lon="13.17413483">
        <ele>686.723</ele>
        <time>1970-01-01T01:00:00Z</time>
      </trkpt>
      <trkpt lat="63.3827295" lon="13.17414133">
        <ele>686.723</ele>
        <time>1970-01-01T01:00:00Z</time>
      </trkpt>
      <trkpt lat="63.382752" lon="13.17414867">
        <ele>686.266</ele>
        <time>1970-01-01T01:00:00Z</time>
      </trkpt>
      <trkpt lat="63.38277517" lon="13.1741585">
        <ele>686.266</ele>
        <time>1970-01-01T01:00:00Z</time>
      </trkpt>
      <trkpt lat="63.38279967" lon="13.17416983">
        <ele>685.961</ele>
        <time>1970-01-01T01:00:00Z</time>
      </trkpt>
      <trkpt lat="63.3828235" lon="13.174181">
        <ele>685.961</ele>
        <time>1970-01-01T01:00:00Z</time>
      </trkpt>
      <trkpt lat="63.38284667" lon="13.17419333">
        <ele>685.656</ele>
        <time>1970-01-01T01:00:00Z</time>
      </trkpt>
      <trkpt lat="63.38286783" lon="13.17420583">
        <ele>685.656</ele>
        <time>1970-01-01T01:00:00Z</time>
      </trkpt>
      <trkpt lat="63.38289083" lon="13.174217">
        <ele>685.351</ele>
        <time>1970-01-01T01:00:00Z</time>
      </trkpt>
      <trkpt lat="63.38291333" lon="13.174227">
        <ele>685.351</ele>
        <time>1970-01-01T01:00:00Z</time>
      </trkpt>
      <trkpt lat="63.38293733" lon="13.1742355">
        <ele>685.046</ele>
        <time>1970-01-01T01:00:00Z</time>
      </trkpt>
      <trkpt lat="63.38295983" lon="13.17424783">
        <ele>685.046</ele>
        <time>1970-01-01T01:00:00Z</time>
      </trkpt>
      <trkpt lat="63.38298083" lon="13.17426117">
        <ele>684.742</ele>
        <time>1970-01-01T01:00:00Z</time>
      </trkpt>
      <trkpt lat="63.38300017" lon="13.17427367">
        <ele>684.742</ele>
        <time>1970-01-01T01:00:00Z</time>
      </trkpt>
      <trkpt lat="63.38302117" lon="13.174284">
        <ele>684.437</ele>
        <time>1970-01-01T01:00:00Z</time>
      </trkpt>
      <trkpt lat="63.38304483" lon="13.17429317">
        <ele>684.437</ele>
        <time>1970-01-01T01:00:00Z</time>
      </trkpt>
      <trkpt lat="63.38306833" lon="13.17430367">
        <ele>684.132</ele>
        <time>1970-01-01T01:00:00Z</time>
      </trkpt>
      <trkpt lat="63.3830895" lon="13.174319">
        <ele>684.132</ele>
        <time>1970-01-01T01:00:00Z</time>
      </trkpt>
      <trkpt lat="63.383107" lon="13.17434">
        <ele>683.827</ele>
        <time>1970-01-01T01:00:00Z</time>
      </trkpt>
      <trkpt lat="63.3831225" lon="13.174366">
        <ele>683.827</ele>
        <time>1970-01-01T01:00:00Z</time>
      </trkpt>
      <trkpt lat="63.3831355" lon="13.17439467">
        <ele>683.522</ele>
        <time>1970-01-01T01:00:00Z</time>
      </trkpt>
      <trkpt lat="63.38314933" lon="13.17442067">
        <ele>683.522</ele>
        <time>1970-01-01T01:00:00Z</time>
      </trkpt>
      <trkpt lat="63.38316217" lon="13.17444383">
        <ele>683.217</ele>
        <time>1970-01-01T01:00:00Z</time>
      </trkpt>
      <trkpt lat="63.38317283" lon="13.174466">
        <ele>683.217</ele>
        <time>1970-01-01T01:00:00Z</time>
      </trkpt>
      <trkpt lat="63.38318" lon="13.17448567">
        <ele>682.913</ele>
        <time>1970-01-01T01:00:00Z</time>
      </trkpt>
      <trkpt lat="63.3831865" lon="13.17450133">
        <ele>682.913</ele>
        <time>1970-01-01T01:00:00Z</time>
      </trkpt>
    </trkseg>
  </trk>
</gpx>